GFSMA_sfc_wetblb_000.txt.gz
Wetbulb
54.83 54.56 53.56 53.71 53.54 53.66 53.31 52.67 52.69 52.63 52.32 52.28 51.97 52.09 52.20 52.11 51.68 51.35 51.34 55.69 57.94 58.90 60.83 62.31 62.76 63.68 65.17 65.00 64.70 64.44 64.43 63.38 63.49 63.68 64.80 64.98 65.06 64.46 64.61 64.62 64.82 64.97 64.76
54.58 53.76 52.08 51.41 51.02 51.59 51.06 51.03 51.36 50.82 49.95 49.72 49.03 50.04 49.92 49.83 50.35 50.85 51.06 51.00 55.28 56.13 57.58 59.26 61.03 61.95 62.87 63.64 64.11 63.98 64.02 63.94 63.84 63.05 63.69 63.92 64.28 64.55 64.15 64.06 64.35 64.31 65.09
51.86 50.27 48.95 48.64 48.78 49.53 48.96 48.46 48.34 46.78 46.30 46.75 46.46 47.30 47.09 48.01 48.27 50.85 50.88 50.70 50.62 53.15 55.11 56.11 57.31 58.36 59.05 60.63 61.58 62.99 63.54 63.52 63.40 63.44 63.32 63.30 63.73 63.75 63.66 63.49 63.67 64.08 64.13
49.72 48.19 48.72 47.78 47.88 47.37 45.96 46.18 46.17 44.26 44.62 44.11 43.52 44.36 44.44 46.12 46.54 50.10 49.28 49.04 48.72 48.25 49.60 52.73 53.21 54.06 55.87 57.53 58.66 59.60 60.87 62.29 63.08 63.40 63.08 63.06 63.01 63.25 63.12 63.27 63.14 63.29 63.62
48.53 47.38 47.38 46.92 45.96 44.50 44.13 44.30 43.97 43.79 43.21 43.03 44.15 44.06 42.88 43.83 45.33 49.69 48.10 47.36 46.89 46.76 46.67 49.00 50.22 50.33 51.28 52.52 54.39 56.87 58.58 60.01 61.30 62.61 63.15 62.60 62.67 62.57 62.33 62.39 62.57 62.42 62.83
49.15 48.46 45.94 45.08 44.38 43.28 42.73 42.73 42.37 42.51 42.55 42.58 44.78 43.62 42.29 42.52 45.34 46.57 45.92 46.57 45.89 45.41 45.25 45.52 45.25 45.06 47.44 49.31 51.78 53.73 56.19 58.16 59.92 60.71 61.89 62.13 62.28 61.95 61.81 60.96 61.48 61.65 61.96
45.22 44.60 44.36 44.04 43.72 42.59 41.66 42.59 41.78 41.25 41.48 42.65 41.04 41.17 41.43 42.29 43.22 44.98 45.00 44.41 44.67 45.41 45.20 44.82 44.72 43.84 43.18 46.46 49.60 52.48 54.06 55.43 57.08 59.37 60.86 61.03 61.13 61.43 60.66 59.26 59.54 60.16 60.61
43.95 45.01 43.92 43.34 42.73 42.02 41.65 41.39 41.06 40.73 40.83 41.85 40.10 39.42 36.94 39.32 40.96 41.67 41.84 42.92 41.24 42.88 42.73 43.02 43.62 43.94 42.93 42.68 46.43 49.28 52.04 53.62 54.42 55.58 56.81 58.91 60.27 60.58 60.44 58.91 58.10 58.44 58.88
43.23 43.10 43.60 42.93 41.80 41.60 41.21 40.57 40.41 39.79 39.01 39.67 39.63 38.64 34.81 33.27 35.93 38.93 39.31 39.24 39.10 39.59 40.34 41.50 42.21 43.23 42.58 42.43 43.50 46.38 49.31 50.93 52.03 53.82 54.61 55.90 58.14 59.56 58.61 57.71 56.96 57.23 57.74
42.50 42.93 42.73 41.82 41.02 40.95 41.41 40.93 40.09 38.66 38.67 34.97 37.75 38.72 37.52 36.32 32.77 32.47 36.33 37.81 38.01 38.70 38.80 39.47 40.51 41.59 42.14 42.24 43.07 45.05 47.15 49.64 50.01 51.70 53.68 54.84 56.45 57.86 57.51 55.99 55.29 55.73 56.61
41.84 41.66 41.81 41.31 41.25 40.00 39.27 38.59 36.96 35.91 36.36 34.86 34.74 34.92 35.06 35.01 35.20 32.95 29.72 32.22 36.29 36.70 38.19 38.34 39.09 40.04 40.84 41.26 41.08 43.63 45.35 46.05 49.20 50.23 52.22 52.41 53.53 54.78 53.99 53.80 54.20 54.28 54.97
40.58 41.00 41.11 39.51 39.21 38.37 37.60 36.59 35.65 35.31 34.57 34.31 34.43 34.28 33.98 32.54 31.57 31.81 29.67 29.83 30.18 34.22 34.15 37.32 38.06 39.07 39.75 39.97 41.84 42.83 43.96 45.43 48.28 48.80 50.15 50.61 50.71 50.80 51.34 52.49 52.96 53.66 55.33
40.05 39.60 39.00 38.40 37.80 37.58 37.20 36.11 34.49 33.94 32.75 31.48 31.58 31.84 32.64 32.07 33.58 32.55 31.32 29.08 28.89 29.76 32.52 34.56 36.77 37.43 38.68 38.56 39.29 41.63 43.58 44.84 46.96 47.83 48.38 49.44 49.22 49.42 49.18 49.39 49.79 50.99 52.69
38.09 38.65 38.31 37.20 36.71 38.90 37.14 38.18 36.15 33.18 32.62 31.50 30.49 30.19 30.79 31.46 31.97 31.73 31.05 29.21 24.65 26.43 28.02 29.35 34.02 36.07 36.78 38.18 39.74 41.18 41.72 44.19 44.75 45.50 47.14 47.43 48.61 48.49 48.02 46.40 46.33 47.18 49.42
39.48 38.13 36.63 38.33 38.44 37.55 36.53 35.81 33.58 34.18 32.98 31.98 31.36 31.28 30.43 30.93 29.87 28.56 30.35 29.08 26.92 21.84 23.15 27.56 30.11 35.01 36.53 38.38 38.89 38.38 38.04 41.70 44.31 44.21 43.30 43.55 44.43 46.82 47.43 46.28 46.05 45.60 46.03
38.16 38.65 39.47 37.56 37.67 36.16 36.57 35.46 32.78 32.37 32.34 31.44 31.98 30.06 28.11 28.81 28.32 28.05 27.09 27.75 27.27 24.61 21.41 27.96 29.59 33.18 35.82 37.30 38.38 37.61 36.91 39.50 41.29 42.94 42.16 42.72 42.96 43.93 45.88 46.87 46.79 45.93 45.04
37.31 36.97 37.22 37.06 34.85 34.76 34.41 31.39 30.55 30.47 31.15 29.97 27.99 27.90 27.62 27.23 26.50 26.51 26.37 25.97 25.17 25.55 22.56 25.32 29.37 31.43 31.79 34.66 35.38 37.06 37.03 35.97 36.65 39.78 41.03 41.62 41.27 41.30 42.74 43.49 44.08 45.52 44.92
34.87 35.59 35.65 35.33 35.06 33.14 31.40 29.90 29.70 29.76 28.27 27.49 27.09 26.55 26.48 28.09 25.22 24.63 24.35 24.05 24.45 25.47 24.33 23.44 26.95 28.46 30.52 32.97 33.32 34.30 36.04 35.36 34.11 37.98 38.72 40.54 40.90 40.71 40.70 41.94 41.75 42.48 42.59
33.74 34.44 35.18 33.63 32.12 31.08 30.24 29.64 29.35 28.48 26.66 26.52 26.52 25.89 25.67 25.36 23.69 23.56 23.62 23.99 24.85 27.11 27.70 27.27 26.33 28.11 29.09 30.57 31.03 33.20 33.05 32.78 33.56 36.40 36.49 36.84 39.38 40.36 40.28 41.12 42.03 41.27 41.49
34.71 33.42 32.86 32.57 30.91 30.24 29.75 29.08 27.69 26.36 26.01 26.60 26.80 26.07 25.38 25.02 24.21 23.81 24.77 24.36 25.56 24.55 25.32 26.10 26.21 26.24 27.08 29.31 28.27 28.04 27.90 29.79 29.70 32.25 34.04 34.55 35.35 37.91 39.40 40.01 41.00 41.02 41.11
35.96 33.26 32.70 29.58 28.75 29.24 29.03 27.13 26.99 26.41 25.80 25.50 25.60 25.85 26.45 27.63 30.06 28.72 26.31 24.61 23.95 24.36 24.26 24.84 24.64 25.62 26.38 25.01 24.48 26.58 25.61 26.10 27.66 29.91 30.34 31.17 31.84 32.68 35.64 38.14 39.65 40.96 40.62
32.71 29.30 26.79 27.78 27.93 28.71 31.86 32.28 31.40 28.28 27.00 25.44 26.40 26.59 26.23 26.77 26.58 27.23 26.48 26.80 26.07 23.65 23.01 23.72 23.30 23.37 24.99 26.57 26.59 25.36 24.26 23.43 23.01 29.04 29.20 28.83 31.26 30.83 31.69 34.99 38.33 38.80 39.33
30.57 29.19 27.58 27.56 26.26 28.40 32.21 32.05 30.20 25.83 24.93 24.24 23.64 22.47 22.77 24.35 24.08 23.88 24.81 25.88 26.37 27.61 27.96 26.55 24.33 24.45 25.78 26.59 26.30 24.66 23.48 23.45 23.42 26.35 28.16 26.41 28.59 28.53 31.06 32.29 36.00 37.86 37.62
30.52 25.41 25.96 26.22 27.00 27.79 29.70 29.31 27.78 23.70 23.05 22.26 21.83 21.89 21.52 21.58 22.97 23.84 24.29 25.33 24.78 25.88 26.18 25.90 25.84 26.06 27.05 27.43 26.57 26.17 25.34 24.76 25.03 26.43 28.70 24.61 26.93 27.30 29.59 31.69 34.27 36.64 37.33
28.06 27.07 27.04 25.75 23.78 23.95 28.01 27.34 25.70 22.36 21.72 21.19 22.42 22.23 22.18 21.85 24.09 26.65 24.19 23.12 23.28 24.29 27.02 27.68 27.62 27.72 27.75 28.18 29.07 26.90 23.77 23.56 22.13 24.10 27.21 26.53 25.81 26.14 26.13 29.07 31.06 34.58 36.30
27.01 26.61 25.18 23.32 24.81 22.20 25.34 25.68 24.66 20.20 16.33 19.90 21.68 22.16 22.70 23.04 24.87 25.74 24.46 22.41 20.76 23.08 24.45 25.44 25.19 25.56 26.13 25.87 27.05 26.30 26.02 24.05 24.38 22.42 25.86 25.13 25.02 25.24 23.93 26.02 27.10 28.82 29.56

GFSMA_sfc_wetblb_003.txt.gz
Wetbulb
63.77 62.72 60.92 59.87 59.38 59.37 58.59 58.64 58.69 57.64 56.70 55.87 55.96 55.20 54.17 54.02 54.28 54.80 56.15 56.85 57.44 59.31 60.92 62.04 62.45 62.92 63.29 63.77 64.64 65.13 65.37 64.95 63.99 63.38 64.26 64.66 65.04 65.08 64.62 64.35 64.35 64.22 64.34
61.50 58.22 57.01 56.71 56.75 56.88 56.78 56.70 55.65 54.34 53.47 53.09 53.01 53.82 52.73 53.06 53.28 55.83 56.42 57.18 54.50 55.65 56.51 57.73 59.04 60.19 61.00 61.22 61.07 61.81 63.36 64.72 64.36 63.66 63.80 63.67 63.84 64.24 64.15 63.80 63.78 64.11 64.48
57.00 56.12 56.53 55.46 55.30 55.35 55.05 54.50 53.10 53.65 52.39 51.41 51.15 51.55 51.69 52.33 52.51 55.21 54.97 54.70 54.12 52.43 53.11 53.67 54.11 54.64 55.63 56.71 57.81 59.35 60.24 62.30 63.41 64.29 63.45 63.72 63.34 63.78 63.89 63.78 63.49 63.56 63.82
55.97 55.70 54.81 54.05 53.34 53.11 53.21 52.84 52.05 51.44 50.83 50.10 49.58 50.53 50.74 51.20 54.76 54.58 53.36 53.26 52.87 52.64 52.60 51.04 51.18 51.25 52.21 53.45 54.65 55.91 57.32 58.95 60.17 62.58 63.33 63.19 63.27 63.23 63.49 63.29 63.14 63.08 63.17
53.30 54.22 53.53 52.50 52.64 52.15 51.65 50.92 50.16 49.59 48.94 48.38 47.54 49.42 49.25 50.08 53.99 53.78 52.46 52.18 51.89 52.02 51.60 50.55 49.48 49.36 49.72 50.89 52.06 53.70 55.21 56.37 58.23 59.69 62.23 63.06 62.47 62.66 63.01 62.75 62.73 62.62 62.36
52.66 53.10 52.42 52.25 52.15 51.32 50.48 50.07 48.88 48.76 48.83 48.05 46.36 47.49 48.50 50.56 54.17 52.91 51.39 50.83 50.68 50.60 50.49 49.91 49.90 49.52 49.06 48.97 49.75 51.37 53.55 54.79 55.59 56.93 58.91 61.80 62.72 63.00 62.51 62.64 61.86 61.55 61.36
51.98 52.49 51.64 51.53 51.49 50.44 50.23 49.66 49.06 46.82 46.92 48.00 46.38 45.69 46.28 49.99 50.81 50.58 49.68 49.06 48.51 48.30 48.99 48.69 48.47 47.86 48.32 48.19 48.43 49.60 50.83 52.90 54.18 54.77 55.41 57.38 59.94 61.38 62.22 61.70 60.62 59.99 60.53
50.82 50.62 51.26 51.20 51.30 50.64 50.09 49.30 47.50 45.94 46.64 47.08 43.04 42.77 40.53 43.15 46.41 47.67 46.94 46.61 46.62 46.91 46.69 46.77 46.80 46.64 46.97 47.50 47.60 47.84 48.16 50.00 51.38 53.25 54.30 55.03 56.27 59.54 61.01 61.01 59.65 58.98 59.22
50.68 51.13 51.48 51.39 51.00 50.49 49.58 48.68 47.31 45.43 43.54 45.44 45.16 41.75 37.94 36.88 39.90 43.93 43.72 44.76 44.54 43.79 44.62 44.62 44.96 44.45 45.61 46.46 46.98 46.80 45.58 46.27 48.08 50.84 53.03 54.13 54.98 56.45 59.33 60.32 59.69 58.72 58.53
50.65 50.32 50.41 50.26 50.24 50.16 48.27 47.21 46.39 45.15 43.91 40.61 42.26 42.99 42.03 40.63 35.27 34.07 40.12 40.77 41.67 40.59 41.45 42.84 41.97 43.21 44.59 45.38 45.78 45.42 45.12 45.64 45.72 47.94 51.58 52.96 54.61 55.13 57.95 59.00 58.96 57.82 57.75
49.37 48.85 48.98 48.71 48.97 47.94 47.25 46.24 44.97 43.24 42.08 39.92 39.09 38.56 38.17 37.70 37.76 34.55 30.98 34.55 37.72 38.98 40.13 39.20 41.00 41.65 42.38 43.18 44.53 44.26 44.52 44.41 45.40 46.92 50.32 51.77 53.36 54.36 56.54 57.35 57.44 56.51 56.96
48.83 49.00 48.18 47.66 47.69 46.89 45.95 44.58 43.18 41.52 40.56 39.93 39.49 38.31 36.04 34.27 33.57 33.78 32.31 33.08 32.97 35.52 37.52 38.56 38.84 39.47 39.92 40.99 42.96 42.38 43.33 43.76 45.08 46.47 49.61 50.34 51.70 52.64 52.78 54.91 55.35 55.54 55.67
45.79 47.36 47.36 46.84 46.40 44.83 43.53 44.04 42.58 41.26 40.35 39.01 38.01 37.11 37.74 36.73 36.90 35.59 33.90 32.50 31.85 34.53 35.23 37.41 37.90 38.38 38.73 40.43 43.06 42.66 42.90 42.37 43.70 46.69 48.11 48.48 49.37 50.32 50.98 51.24 52.00 54.23 55.02
43.70 46.14 46.48 45.25 44.19 43.82 43.60 42.98 42.13 40.95 40.91 39.58 38.72 38.28 37.77 37.99 38.31 37.36 34.31 32.70 29.85 31.38 33.41 33.83 36.96 37.55 39.22 39.67 40.64 42.23 43.17 42.25 42.60 44.89 45.90 46.83 46.97 48.31 49.45 48.60 48.32 48.53 50.18
44.28 44.99 44.34 44.25 43.66 43.25 42.55 42.48 41.41 40.15 39.81 39.62 39.07 39.07 38.00 38.01 37.41 36.20 35.35 34.68 31.26 27.19 28.03 32.02 32.02 36.39 37.11 38.38 39.87 41.11 43.01 40.89 41.29 43.02 43.91 43.81 43.71 45.53 47.42 47.66 46.64 45.83 45.79
44.14 44.28 43.46 42.81 42.97 43.13 42.09 40.74 40.35 39.70 38.71 39.30 38.43 38.05 36.64 35.94 35.57 35.81 34.93 34.15 32.94 29.74 25.72 31.18 31.95 34.01 35.40 36.08 38.37 39.57 41.84 40.24 39.97 40.45 41.03 42.86 43.15 43.66 45.74 45.66 47.38 47.03 45.27
43.17 42.84 42.36 42.25 41.80 40.63 40.56 40.00 39.10 38.12 37.47 38.19 37.13 35.54 34.87 35.25 34.32 33.86 33.44 32.86 31.51 30.93 27.23 29.86 31.86 33.78 34.38 35.08 36.41 39.21 40.80 40.22 40.09 38.59 39.67 41.35 41.78 41.72 43.45 43.84 43.09 43.97 45.88
40.97 40.53 40.95 40.78 40.59 40.06 39.22 38.37 37.76 37.65 36.80 35.57 35.39 34.34 33.95 33.48 32.87 33.32 32.49 31.33 30.76 31.11 28.55 26.19 30.17 30.70 32.46 34.88 35.43 36.80 38.49 38.82 39.17 38.59 36.87 38.22 39.75 41.13 41.07 41.62 42.06 42.00 42.93
39.93 40.86 40.55 38.79 38.36 38.35 37.47 37.02 36.20 36.03 35.24 34.80 34.12 33.22 32.66 32.07 31.50 31.91 31.12 29.93 29.16 28.84 28.27 27.10 26.98 30.09 31.37 33.50 34.01 35.59 36.97 37.92 37.17 37.04 37.15 36.49 37.71 39.45 40.95 41.09 41.67 41.70 42.04
39.95 39.88 38.85 38.87 38.18 36.30 35.84 35.68 35.06 34.45 33.84 33.45 33.25 32.69 32.08 31.50 30.62 30.17 29.80 29.80 29.20 27.36 26.46 25.61 25.80 26.82 28.93 31.74 32.33 32.50 33.22 35.67 34.99 35.34 35.85 34.98 35.64 37.49 38.86 40.89 41.29 41.73 41.46
40.30 39.08 38.01 35.21 35.21 35.06 34.08 34.70 33.75 33.40 33.35 32.74 32.45 31.47 31.05 29.96 29.19 28.95 27.79 27.56 26.65 25.10 25.04 25.04 24.15 25.75 26.75 27.75 28.83 30.83 31.62 33.27 34.06 35.12 35.07 36.27 37.16 37.75 38.43 40.54 41.40 41.16 40.88
39.65 37.01 36.33 34.92 33.72 33.17 33.00 32.76 32.25 31.87 30.18 28.92 27.82 28.25 28.13 27.10 27.50 26.29 26.08 26.38 26.59 24.77 24.70 24.13 25.58 24.47 25.93 27.52 28.99 28.78 28.76 29.45 28.59 35.67 33.49 33.84 35.44 35.64 36.85 38.21 37.68 39.48 39.86
38.94 37.93 34.51 33.92 33.59 33.43 31.06 30.11 28.23 29.30 28.02 27.42 26.56 25.81 25.81 26.35 25.89 26.35 26.22 26.52 27.16 27.12 27.15 26.77 25.10 25.78 26.16 28.03 28.76 28.25 28.05 27.91 28.00 32.12 31.49 30.11 34.67 33.09 35.62 35.51 35.88 37.97 37.83
37.00 36.67 33.93 33.22 32.61 30.60 28.65 28.20 27.36 28.66 27.62 26.50 25.68 25.56 25.13 25.43 25.98 25.16 26.16 26.14 26.07 26.78 27.57 27.51 28.02 28.06 28.75 29.61 28.64 29.07 28.61 28.71 30.03 30.98 32.05 27.31 33.15 32.04 34.56 35.71 35.17 35.55 37.74
35.88 34.97 33.43 31.57 29.53 29.30 27.07 26.78 27.02 27.25 25.88 25.12 25.67 25.99 25.37 24.94 25.00 26.25 25.40 24.44 24.76 25.54 27.89 27.90 28.51 28.41 28.52 28.51 28.82 28.46 27.40 26.39 25.85 27.72 31.60 29.23 30.41 30.95 32.84 33.88 36.33 34.19 35.18
32.52 32.97 30.22 29.25 25.89 27.50 25.14 25.80 26.23 26.79 24.75 24.88 25.48 25.50 23.94 23.92 24.59 25.15 24.48 24.07 22.28 24.73 24.91 25.94 27.04 27.79 28.36 28.68 27.67 28.55 27.88 25.81 26.86 25.99 30.59 28.27 29.40 30.30 28.27 34.31 34.99 36.28 37.30

GFSMA_sfc_wetblb_006.txt.gz
Wetbulb
63.50 64.29 64.34 63.60 63.04 63.12 62.05 61.11 60.41 59.38 58.54 57.91 58.43 57.94 57.00 57.06 56.90 57.57 58.68 56.27 57.10 58.27 59.33 60.01 60.08 60.12 60.44 60.83 61.14 61.78 62.64 63.75 64.69 64.03 64.20 64.40 64.49 64.99 64.73 64.55 64.13 64.17 64.42
61.46 61.95 61.42 60.73 61.36 61.41 61.03 59.30 57.91 56.82 56.58 56.66 55.98 56.35 56.05 55.89 55.58 57.00 56.87 57.72 54.40 54.90 55.57 56.24 56.52 56.80 57.14 57.26 57.30 58.37 59.78 60.78 61.78 63.12 64.00 63.85 64.12 64.00 64.09 64.16 63.81 63.85 64.06
60.67 59.54 59.38 60.20 60.11 59.73 58.41 57.61 56.87 56.52 55.69 55.36 55.17 55.17 55.24 55.22 54.75 56.52 56.61 56.28 55.89 52.97 52.48 52.62 53.10 53.35 53.92 54.47 54.71 55.48 56.46 57.66 59.24 60.37 61.97 63.72 63.12 63.74 63.67 63.83 63.85 63.70 63.76
58.57 58.96 58.40 56.76 55.66 55.81 55.61 55.66 55.27 54.58 54.32 54.17 53.70 53.45 54.27 53.88 53.92 56.44 56.00 55.94 55.62 55.20 53.43 51.28 50.64 50.53 51.35 52.47 52.97 53.61 54.48 55.52 56.57 58.00 59.69 62.35 62.86 62.92 63.50 63.48 63.41 63.19 63.30
55.69 57.12 56.67 56.55 56.99 56.28 55.56 54.47 53.95 52.99 52.00 52.29 51.79 51.88 52.77 53.10 53.59 53.81 54.72 54.96 54.97 54.61 54.36 52.96 51.45 49.67 49.60 50.22 51.23 51.95 52.94 53.69 54.56 55.81 56.50 57.77 60.26 62.25 62.77 62.99 63.15 62.53 62.23
56.38 58.04 57.10 56.18 55.49 54.54 53.89 53.29 52.62 52.96 52.05 51.76 50.57 50.84 52.39 51.85 52.31 53.28 53.35 53.43 53.12 52.56 52.58 52.25 52.21 52.15 51.02 49.57 49.95 50.75 52.02 52.37 52.70 53.92 54.96 55.69 56.44 58.17 61.01 62.39 62.47 62.29 61.46
54.93 55.12 55.37 55.15 54.70 53.77 53.57 53.52 52.56 51.50 50.72 51.50 48.50 48.36 48.49 49.41 50.89 51.24 52.07 50.65 50.69 50.77 50.57 50.33 49.87 49.23 49.06 49.52 49.06 49.81 50.88 50.92 50.96 50.98 52.01 53.59 54.53 55.57 57.57 60.11 61.99 61.44 60.59
54.07 54.10 54.62 54.25 54.05 53.20 53.28 52.86 51.29 49.23 48.98 49.97 46.28 45.20 42.46 44.61 47.13 49.15 48.98 48.47 48.59 48.79 47.63 47.67 47.50 47.38 47.11 47.27 48.12 48.01 48.96 49.22 49.35 49.38 49.86 50.78 53.07 54.26 55.88 57.94 60.34 61.47 60.58
54.14 53.86 53.91 53.77 53.48 52.88 51.54 51.52 50.40 48.69 46.49 47.65 47.10 44.07 40.28 38.78 41.66 44.99 46.41 45.65 46.69 45.30 45.40 44.99 45.42 44.73 45.19 46.23 46.08 46.98 47.16 45.99 47.11 48.00 48.12 49.22 50.82 53.01 54.72 56.38 59.17 60.34 60.60
53.90 53.40 53.09 53.20 52.82 51.96 51.08 50.59 49.52 48.16 46.32 43.62 45.03 45.00 44.37 42.58 38.24 36.83 42.52 43.61 43.31 42.79 43.24 43.01 44.20 43.07 43.47 43.83 43.86 45.07 45.24 43.69 44.17 45.95 47.18 48.20 50.14 51.97 53.38 55.02 57.51 59.23 59.66
53.03 52.40 52.21 52.20 51.67 50.98 50.78 50.14 48.62 46.53 45.82 44.09 43.15 42.32 42.07 41.29 40.68 37.29 34.61 37.76 40.78 41.67 41.68 41.82 41.91 42.91 42.75 42.72 42.67 43.25 43.77 43.76 43.72 44.38 46.02 47.86 49.51 51.12 52.41 54.01 55.21 58.52 59.06
47.29 48.09 48.44 50.67 51.50 51.06 50.36 49.28 48.06 45.57 44.47 43.40 42.23 41.06 39.57 37.87 37.13 36.58 35.27 36.14 36.27 38.90 40.60 41.12 41.32 41.36 41.79 41.70 41.71 42.65 43.67 42.92 43.51 43.26 44.92 47.73 48.95 50.32 51.48 53.26 55.10 57.51 58.25
45.20 46.13 47.51 48.38 49.84 50.58 49.24 47.53 46.18 44.41 43.75 42.14 41.06 40.13 40.29 39.58 39.48 38.32 36.78 35.51 34.70 37.29 38.19 40.30 40.73 41.06 40.60 41.40 42.20 41.91 41.06 41.79 42.12 42.57 45.07 46.55 47.14 48.66 49.69 51.57 52.27 54.55 56.74
45.54 47.64 48.77 49.72 49.71 48.00 45.63 45.04 46.00 44.44 43.32 42.12 40.98 40.79 40.40 40.19 39.94 39.01 36.92 35.08 32.55 34.19 36.21 36.71 39.58 39.60 39.88 40.16 39.85 40.01 40.93 42.28 41.40 40.84 42.32 45.43 46.03 47.09 48.40 49.40 49.25 49.68 51.14
45.63 47.29 48.87 48.24 47.06 45.63 45.18 45.63 44.44 43.08 42.47 41.78 41.34 40.84 40.01 39.99 39.66 39.06 38.48 37.28 33.82 30.33 30.94 34.88 34.95 39.00 39.05 39.23 39.20 39.57 40.11 40.59 40.93 40.00 40.47 42.44 44.47 44.87 46.02 47.44 48.50 47.35 47.25
45.64 46.61 47.16 46.65 44.83 44.99 45.15 44.41 42.92 42.23 41.04 40.66 40.50 39.70 39.22 38.93 38.75 38.77 38.12 37.42 36.17 33.19 30.63 34.53 35.46 37.01 37.96 37.65 39.00 39.61 39.58 40.12 40.80 39.19 39.27 41.53 42.39 43.23 43.69 45.77 46.96 47.62 47.65
44.53 44.77 45.68 45.56 44.54 43.76 44.09 43.28 41.72 40.87 39.68 39.76 40.11 39.20 38.17 38.39 37.69 37.70 37.48 36.78 35.60 34.64 30.92 33.21 35.10 36.27 35.52 35.72 37.07 38.03 39.56 40.04 41.72 38.40 38.31 38.73 40.20 41.20 41.99 43.46 44.54 44.95 45.41
44.06 43.65 43.83 43.74 43.70 43.30 42.97 41.11 40.13 40.11 39.51 38.71 38.71 38.23 37.34 37.17 36.93 36.96 36.34 35.36 34.70 34.53 31.04 29.01 31.89 32.06 33.14 34.37 35.53 35.70 36.71 38.33 40.75 39.76 38.31 37.89 38.79 39.93 41.14 41.52 42.33 42.23 42.37
43.36 43.59 43.51 42.61 41.70 41.58 40.74 40.34 40.36 39.75 39.11 38.61 38.09 37.12 36.63 36.32 35.31 35.40 34.97 33.94 32.99 31.74 32.29 30.47 29.24 31.02 31.70 32.98 33.00 35.17 35.24 37.97 38.93 38.90 37.71 37.63 37.29 38.69 39.52 40.99 41.83 41.94 41.92
42.69 42.85 42.89 42.78 41.94 40.73 39.99 39.86 39.33 38.97 38.50 38.07 37.57 37.04 36.18 35.08 33.94 33.10 31.92 31.35 30.58 29.34 30.04 29.25 27.74 28.24 30.56 32.37 32.68 31.79 33.13 35.95 36.56 38.13 37.86 35.83 35.80 37.50 38.79 40.22 41.12 41.73 41.54
42.66 43.11 41.47 40.59 40.34 39.72 38.18 38.17 37.97 38.25 37.49 35.99 35.69 34.62 33.99 31.73 28.91 29.03 29.27 29.41 28.47 27.53 26.84 25.70 26.73 27.53 27.38 28.35 29.27 31.25 30.73 32.64 34.21 37.31 36.49 36.37 37.21 38.65 40.91 40.62 40.08 40.85 40.73
42.16 42.28 41.86 40.73 39.99 38.57 32.97 31.27 31.59 35.38 35.00 33.84 32.59 32.48 32.43 30.45 30.04 27.45 27.59 27.24 27.59 26.58 25.02 25.51 25.79 25.94 26.37 28.29 30.50 30.12 30.12 29.63 28.44 35.79 35.51 34.21 37.26 36.86 38.62 39.83 37.00 37.66 37.51
41.63 41.10 41.10 40.32 39.24 38.84 31.15 29.28 28.62 34.10 33.81 32.79 31.57 30.97 30.34 30.36 29.57 29.98 28.38 28.09 28.51 28.27 28.02 27.71 25.13 25.95 27.38 29.29 29.85 29.03 29.05 29.72 29.73 31.93 32.53 31.61 35.12 34.98 38.02 37.84 36.03 37.56 37.35
40.43 39.70 39.64 39.63 38.80 35.51 28.65 27.71 27.74 33.46 32.90 31.87 30.96 30.33 30.11 29.76 29.63 27.09 27.52 27.94 28.83 29.80 29.08 28.93 28.74 28.96 30.04 30.66 30.34 30.12 29.79 30.29 31.67 32.13 33.82 28.71 34.14 33.29 36.36 37.49 36.19 35.18 36.17
39.69 39.29 39.09 38.23 36.67 34.99 27.34 26.73 27.69 32.19 31.05 30.14 30.31 30.29 28.81 28.33 26.82 25.66 26.14 25.79 27.27 28.20 29.42 28.41 28.36 28.44 28.83 29.35 29.55 29.44 27.32 26.78 27.24 29.60 33.43 31.25 31.78 32.24 33.81 35.72 37.46 35.29 34.07
38.93 38.01 36.71 36.59 30.00 33.24 26.07 25.97 27.53 31.44 29.31 29.18 29.91 29.14 26.40 25.84 24.28 24.92 25.16 24.95 24.04 25.55 26.07 26.55 27.35 28.46 29.34 29.74 29.08 30.05 28.29 25.87 26.73 27.51 32.27 29.84 30.16 31.08 29.31 35.14 36.55 37.79 37.79

GFSMA_sfc_wetblb_009.txt.gz
Wetbulb
64.39 63.70 62.75 62.31 63.75 63.02 62.64 62.32 61.66 59.64 58.58 58.47 57.77 57.32 56.76 57.03 57.09 56.34 57.62 58.09 58.14 57.76 58.18 58.65 58.95 58.97 58.78 58.13 58.35 59.13 60.05 61.00 61.70 62.75 64.24 64.46 64.51 64.57 64.67 64.32 64.41 64.17 64.17
64.15 63.21 62.97 62.39 61.87 61.92 61.45 59.93 58.45 57.30 56.62 57.19 56.69 57.46 55.91 56.14 56.38 56.48 56.36 57.82 56.98 56.68 55.87 55.39 55.87 56.55 56.85 56.44 56.00 56.47 57.15 57.59 58.57 60.05 61.00 62.80 63.77 64.09 63.95 63.90 63.99 63.91 63.86
64.55 62.87 59.91 60.13 60.45 59.43 58.31 57.69 57.37 56.72 56.12 55.88 55.67 55.44 55.16 55.32 55.43 55.17 55.95 56.68 56.29 54.85 54.45 53.77 53.28 53.15 53.86 54.84 54.68 54.70 54.93 55.56 56.53 57.25 57.95 58.96 60.87 62.78 63.46 63.55 63.51 63.55 63.66
58.87 59.22 58.92 58.44 57.53 57.88 57.30 56.67 56.05 55.08 54.88 54.22 54.20 54.11 53.87 53.92 54.38 55.29 54.75 55.61 55.92 55.28 54.41 52.02 51.00 50.42 50.72 51.57 52.62 53.30 53.78 54.21 54.47 55.06 56.12 56.82 57.24 58.88 60.72 62.59 63.18 63.22 63.00
58.30 59.48 59.02 58.64 58.11 57.09 56.65 55.73 54.95 54.65 53.61 53.42 53.18 53.25 53.72 53.65 53.94 52.64 52.34 54.74 55.69 54.76 53.58 54.93 53.90 53.56 49.37 50.71 51.18 51.77 52.41 52.31 53.28 53.32 54.04 54.38 55.27 56.06 56.83 58.57 61.13 62.85 62.83
57.99 58.26 58.26 57.38 56.56 55.80 55.56 55.56 54.73 54.61 53.67 52.97 51.42 51.03 52.47 51.10 51.68 51.69 51.87 52.80 53.00 52.43 52.30 51.66 51.13 50.98 52.07 51.20 49.96 50.65 51.61 52.26 52.26 51.88 52.05 52.21 52.62 53.53 54.72 55.93 57.46 59.60 62.48
56.47 56.57 56.52 56.58 56.56 55.08 54.86 54.90 53.91 52.85 51.62 51.86 49.12 48.62 48.30 50.37 51.29 49.78 50.55 51.07 50.56 50.08 50.32 49.96 49.18 48.15 48.10 49.83 48.84 49.44 50.30 50.83 50.99 50.75 50.40 50.43 50.87 51.09 52.01 54.18 55.66 58.00 60.23
56.57 55.97 55.93 55.14 55.20 54.03 53.81 53.59 52.86 50.86 49.55 49.58 46.25 45.82 41.80 43.58 46.36 48.04 47.87 47.92 49.63 48.13 47.83 47.35 46.75 46.14 46.50 45.72 46.68 47.16 47.84 48.53 48.46 48.50 48.56 48.83 49.17 49.97 50.95 52.25 53.87 55.81 58.34
55.62 55.22 54.87 54.25 53.83 53.15 51.14 52.23 51.22 49.90 46.56 47.52 48.02 44.19 39.61 38.12 41.24 44.39 45.05 45.96 47.75 46.28 46.08 45.38 44.99 44.50 44.87 44.21 44.67 45.21 46.19 45.04 45.63 46.55 46.95 47.80 48.46 49.09 50.25 51.53 52.58 54.07 55.97
53.95 52.86 52.10 52.13 52.31 51.88 51.00 50.49 50.61 49.33 47.63 44.61 45.81 45.87 45.39 43.27 38.10 37.29 41.75 42.70 43.84 43.65 45.52 44.29 43.43 43.41 43.32 43.90 44.95 44.82 43.88 43.70 43.79 45.04 46.49 46.91 47.83 48.61 49.47 50.87 51.94 52.95 54.72
49.06 48.19 48.37 49.22 50.23 50.34 50.97 50.60 50.14 48.88 47.15 45.41 44.27 43.12 42.40 41.66 41.11 37.76 34.95 37.64 40.66 41.76 42.51 43.31 42.67 42.60 42.89 42.78 42.88 43.44 43.65 44.61 42.54 43.04 45.12 45.77 47.27 48.04 48.95 49.97 51.25 52.44 53.48
47.29 47.96 48.04 48.48 48.79 49.10 50.15 50.23 49.44 47.57 46.04 44.88 43.78 42.41 40.14 38.51 37.42 36.88 35.50 36.19 37.14 39.19 40.77 41.81 42.75 42.59 43.26 43.11 42.97 43.65 43.31 41.40 41.33 41.84 43.68 44.33 46.54 48.49 48.49 49.38 50.52 52.12 53.39
46.10 47.03 48.07 48.51 48.53 49.46 49.72 48.57 46.62 45.55 44.93 43.49 42.79 41.32 41.13 40.19 40.19 38.71 36.83 35.73 35.57 37.53 38.48 40.78 41.83 42.31 41.26 42.69 41.94 42.40 41.13 40.06 40.95 42.15 42.12 42.30 44.72 46.96 46.84 48.06 49.40 50.44 51.92
45.92 47.01 47.71 48.68 48.88 48.78 47.29 47.06 46.07 45.72 44.84 43.44 42.32 41.66 40.84 40.26 40.24 39.34 37.06 35.79 33.82 34.71 36.65 36.83 40.73 40.76 41.15 41.37 41.17 41.32 40.14 40.52 40.32 41.44 41.08 40.94 43.17 45.31 45.81 46.30 47.41 48.48 50.02
45.46 46.20 47.23 47.63 47.96 47.29 46.80 46.58 45.35 44.35 44.12 42.90 42.07 41.41 40.32 40.23 39.87 39.21 38.78 37.66 34.86 31.19 31.66 35.83 36.71 39.54 40.22 40.60 40.53 40.42 40.15 40.32 40.68 40.13 39.72 40.24 42.35 43.54 43.89 44.26 45.11 46.76 48.67
45.46 45.39 45.63 46.38 46.11 46.49 46.41 45.16 43.98 43.94 42.25 42.01 40.79 40.31 40.08 39.86 39.54 38.90 38.04 38.08 37.42 35.03 31.74 35.89 36.38 38.32 38.88 37.87 38.93 39.04 38.90 39.86 39.51 39.87 38.69 38.41 39.77 40.75 41.78 42.81 43.82 45.66 46.58
44.85 44.47 44.42 44.82 44.72 43.85 44.45 43.82 43.22 42.89 41.28 40.92 40.87 39.67 38.97 39.23 38.18 38.06 38.35 37.92 36.50 36.42 33.23 35.36 36.52 37.16 36.10 35.52 35.86 37.40 38.06 38.56 39.62 39.52 38.55 38.35 38.55 39.36 40.22 41.42 42.23 42.92 43.89
44.51 44.11 44.12 43.83 43.66 43.25 42.98 41.89 41.23 41.20 40.28 39.42 39.36 38.92 37.98 37.92 37.26 37.21 37.22 35.66 35.63 35.70 34.13 30.71 33.35 33.78 33.20 34.37 35.08 34.87 35.97 36.92 38.45 38.84 39.08 38.60 39.08 38.32 39.07 40.20 41.31 41.58 42.64
43.62 44.01 43.80 43.36 42.80 42.67 41.97 41.99 40.93 40.33 39.95 39.66 38.94 38.10 37.42 36.98 35.39 35.64 35.29 34.15 33.86 33.49 32.91 30.55 29.68 32.18 32.74 33.69 33.28 34.10 34.21 35.69 36.91 39.11 37.90 37.67 39.18 38.03 38.73 39.91 41.50 41.84 41.95
42.91 43.30 43.59 42.85 41.93 41.62 40.94 40.44 40.13 39.61 39.37 38.90 38.59 37.51 36.36 35.10 33.86 32.51 31.35 31.08 31.28 30.26 30.15 29.04 28.63 28.94 30.28 31.91 32.39 31.13 31.62 34.57 34.66 36.96 37.47 38.47 37.73 38.72 38.90 39.61 40.02 40.29 40.69
42.97 43.19 42.54 42.68 42.14 41.55 39.91 38.84 39.01 38.71 37.82 37.13 36.92 36.38 35.53 33.05 30.17 29.60 29.12 29.12 28.83 27.44 27.26 26.48 26.00 26.74 27.50 28.52 28.26 30.45 29.87 31.97 33.92 35.64 35.66 37.06 37.31 38.32 39.49 39.40 39.76 38.03 37.90
42.43 42.49 41.90 41.32 41.14 40.27 32.68 31.64 31.10 35.78 36.41 35.79 34.72 34.60 34.25 33.67 32.47 30.54 29.70 28.97 28.59 26.72 26.21 25.85 25.60 24.82 26.28 27.87 29.89 29.76 29.68 28.19 26.66 35.09 32.94 33.52 37.19 36.59 37.91 38.77 38.14 37.59 36.43
42.26 41.74 41.40 40.90 40.73 40.23 32.18 29.92 29.00 33.57 35.47 35.18 34.13 32.98 32.34 32.74 31.63 31.55 30.15 29.53 29.54 30.24 29.74 28.60 26.12 26.54 27.07 28.62 28.69 28.66 28.82 28.70 28.37 32.02 32.36 30.03 34.86 34.11 37.26 37.63 36.16 37.17 37.12
41.73 40.98 40.41 40.33 39.78 35.68 30.46 28.82 28.28 32.82 35.29 34.56 33.34 32.64 31.81 31.26 29.64 27.41 27.04 27.18 28.30 29.50 30.22 29.74 28.90 28.56 28.75 29.05 28.97 28.63 28.25 28.56 30.39 31.75 32.84 27.61 33.74 33.03 35.84 37.31 36.87 35.48 36.46
41.35 40.93 40.42 39.40 38.68 35.48 29.77 28.19 27.77 33.45 33.54 32.45 32.57 32.40 30.97 29.42 27.11 25.92 25.65 25.34 26.18 27.59 30.55 30.34 29.29 29.07 29.35 29.55 29.36 29.17 27.05 25.88 26.19 27.96 32.30 30.71 31.61 32.26 34.52 35.07 37.48 35.66 35.69
40.69 40.37 39.32 38.78 31.90 36.49 28.83 27.86 27.73 32.37 31.39 31.06 31.77 31.63 28.69 26.72 25.38 25.21 24.85 24.33 23.21 25.66 25.19 25.76 27.10 28.12 29.73 30.25 30.71 30.01 28.60 25.64 25.83 26.11 31.05 29.63 30.83 31.30 28.78 35.04 36.31 37.83 37.55

GFSMA_sfc_wetblb_012.txt.gz
Wetbulb
62.33 61.60 60.94 60.69 61.14 61.11 60.00 57.65 55.99 55.39 54.35 54.22 54.19 54.39 53.45 53.13 53.22 53.07 52.35 57.92 58.84 58.22 57.32 58.26 58.42 58.32 58.09 57.48 57.11 57.42 57.80 58.17 58.79 59.45 60.22 61.23 62.66 63.45 63.78 63.82 63.94 63.78 63.98
62.31 60.96 60.39 57.83 58.26 56.68 56.36 55.99 55.08 53.74 53.67 53.59 53.30 54.38 53.63 53.01 53.01 53.59 51.96 53.71 57.27 58.01 56.73 56.71 56.37 55.76 55.72 55.64 55.50 55.71 56.14 56.37 56.51 56.84 57.38 58.27 58.75 60.12 61.14 62.71 63.04 63.85 63.83
59.53 57.78 56.70 57.73 56.16 56.13 55.60 54.59 53.53 52.61 51.90 52.60 51.66 52.11 51.98 51.24 51.22 51.94 52.07 51.32 53.80 56.42 56.03 54.54 53.61 53.23 53.16 53.47 53.45 53.52 54.05 54.22 55.14 55.57 55.59 55.97 56.44 57.13 58.05 59.37 59.78 62.40 63.36
57.42 57.15 56.80 55.86 55.52 54.62 53.61 52.88 52.51 51.36 50.77 50.59 50.04 49.92 50.25 50.04 49.59 50.48 51.18 49.78 50.18 52.85 53.84 53.97 52.74 52.34 51.33 51.76 52.35 52.63 52.92 53.12 52.78 53.95 53.92 54.15 54.06 54.17 54.99 56.13 57.37 59.05 61.62
57.44 56.77 56.14 56.11 54.85 54.36 53.52 53.16 52.14 51.18 50.04 49.53 50.35 48.22 47.90 47.25 48.03 49.04 47.87 48.59 49.62 51.20 50.98 54.59 54.88 53.83 51.79 51.25 51.13 51.61 52.52 52.45 52.88 52.95 52.47 52.88 52.90 52.78 52.81 53.43 54.79 56.47 58.09
56.61 55.25 55.75 54.09 53.59 53.05 52.27 52.24 51.10 51.10 49.96 48.53 48.53 47.16 46.32 46.21 46.13 46.54 46.19 47.84 46.89 47.77 47.71 48.16 46.64 46.24 50.61 49.25 49.51 49.97 51.27 51.79 51.70 52.23 51.88 51.58 51.36 51.52 51.44 51.76 52.64 53.87 55.66
55.19 54.46 53.78 53.63 53.32 51.75 51.35 51.01 49.90 48.57 47.62 47.06 43.47 43.22 43.62 44.15 43.22 43.59 43.34 43.15 44.09 45.34 47.04 46.26 43.56 42.40 43.22 48.03 47.33 48.25 49.27 49.72 50.19 49.82 49.58 49.20 49.21 49.70 50.41 50.84 51.40 52.52 53.87
54.20 53.22 53.04 51.74 51.93 50.32 50.10 49.46 47.53 46.18 45.78 45.81 41.05 40.62 37.04 39.07 41.28 42.73 42.05 42.36 40.58 42.90 43.56 43.44 43.06 42.36 41.35 40.62 42.11 46.22 46.75 46.79 46.93 47.07 47.15 47.55 47.98 48.52 49.56 50.33 50.82 51.60 52.79
53.07 51.94 51.21 50.53 49.92 49.15 47.78 47.44 46.25 45.93 43.00 43.29 43.49 39.40 35.80 33.27 36.77 39.71 39.25 39.93 40.02 40.10 40.64 41.58 41.69 41.87 40.36 39.30 41.26 42.34 45.13 43.34 44.00 45.39 45.95 46.12 46.94 47.75 48.36 49.54 50.23 50.76 51.82
48.43 47.12 47.17 47.24 46.47 47.65 47.35 47.16 46.93 45.54 44.15 40.49 41.33 43.61 39.85 37.52 33.22 32.13 35.96 36.92 37.91 38.78 38.27 38.97 38.83 39.90 39.78 38.94 42.87 44.82 44.39 44.23 42.45 43.10 44.39 45.10 46.07 47.11 47.61 48.81 49.69 50.34 51.06
47.41 46.97 46.40 46.31 45.68 45.61 45.68 46.88 46.95 45.25 43.86 41.28 39.43 38.32 37.09 36.63 35.85 32.21 30.16 31.96 35.57 36.94 38.11 38.02 37.61 37.74 39.19 39.28 38.24 40.52 44.19 42.51 41.71 41.83 43.00 43.96 44.85 45.96 46.57 48.41 49.44 49.84 50.42
45.26 45.99 46.60 45.82 46.26 46.13 45.92 46.72 45.17 43.32 42.64 41.06 40.71 40.14 36.99 34.48 32.86 31.87 30.55 31.09 31.66 34.26 35.89 37.27 36.44 37.02 37.87 37.25 41.20 43.72 42.85 42.07 41.63 41.38 41.66 42.74 44.33 44.61 45.41 47.82 48.73 48.79 50.01
43.46 44.06 44.58 45.02 45.35 46.29 46.19 44.89 43.50 42.57 42.01 40.31 39.82 37.78 37.27 36.35 35.95 34.46 32.53 31.74 30.65 33.29 32.72 34.78 36.03 36.41 38.21 36.00 37.04 42.67 42.05 41.60 42.01 41.63 41.38 41.58 42.18 42.49 43.83 46.05 47.55 47.99 48.59
43.05 43.59 44.08 44.90 45.61 45.94 44.24 44.06 43.28 42.71 42.24 40.98 38.24 38.06 36.53 37.17 36.17 35.04 32.67 30.58 28.60 29.99 31.51 31.09 34.49 34.61 35.10 35.95 38.25 41.81 36.74 40.29 40.13 40.74 40.84 40.24 40.99 41.42 42.53 44.73 45.68 45.90 46.62
43.49 43.19 43.75 43.85 44.75 44.13 43.96 43.20 42.56 41.46 39.64 39.75 37.51 38.77 36.18 35.89 35.81 35.11 33.94 32.91 29.78 25.81 27.49 31.03 31.68 34.32 35.06 34.40 36.11 35.38 34.68 38.23 39.46 39.39 39.48 40.57 40.93 40.96 42.15 43.23 43.79 44.21 45.16
43.23 43.11 42.93 42.62 42.98 43.62 44.04 42.62 41.80 41.38 39.44 38.36 39.33 37.67 35.91 36.30 35.97 35.49 33.18 33.44 32.36 30.45 26.82 31.10 32.18 32.77 33.63 35.52 36.11 34.31 34.37 37.55 37.64 38.31 38.38 39.65 39.55 39.15 39.53 40.60 42.01 42.67 43.63
42.88 42.38 42.50 42.22 41.86 41.60 41.56 40.45 40.19 39.34 38.98 37.52 38.69 35.97 36.26 37.60 33.71 33.26 33.30 32.99 31.49 31.15 27.81 29.96 32.00 31.51 31.15 31.33 32.68 33.26 34.21 33.21 34.00 37.84 38.86 38.97 39.05 39.69 39.76 39.45 40.52 41.52 42.20
42.57 41.99 42.23 41.88 41.99 41.69 40.46 39.72 38.67 38.30 37.52 36.34 36.80 36.48 35.07 36.97 33.01 32.64 31.47 30.40 30.27 29.81 27.83 25.61 28.46 29.01 28.87 30.55 30.57 30.48 32.79 34.48 33.46 36.72 38.27 38.62 39.11 39.29 39.06 38.94 39.45 41.43 41.91
41.51 41.45 41.94 41.49 41.33 40.59 40.03 39.68 38.83 38.11 37.16 36.65 36.54 34.57 34.84 33.29 29.78 29.44 28.38 27.53 27.86 29.75 27.75 25.64 25.22 27.83 28.12 29.02 28.71 30.07 30.82 31.50 34.49 37.04 37.33 37.80 38.14 38.75 39.44 39.05 40.08 40.97 41.04
40.79 40.83 41.48 41.90 40.96 39.90 39.74 39.07 38.09 36.44 35.97 36.16 35.51 34.47 33.15 31.13 27.97 26.33 26.60 24.95 26.20 24.64 24.97 24.25 24.29 24.73 25.30 26.91 28.03 27.04 26.43 29.38 29.75 33.59 35.72 36.63 36.55 37.98 38.97 39.17 39.37 38.56 39.00
41.19 41.14 40.68 41.08 40.48 40.30 39.96 35.67 35.55 34.13 33.29 32.85 33.13 33.77 32.11 31.82 31.72 28.35 26.63 24.27 24.19 23.02 22.84 22.69 22.71 23.52 23.75 23.52 23.42 25.92 25.92 27.31 28.42 30.50 32.07 32.79 34.15 34.98 35.96 37.68 38.89 37.39 37.21
40.90 40.13 39.73 39.91 39.02 40.66 33.79 32.86 32.34 30.28 32.24 32.12 30.95 30.70 30.65 32.82 31.59 30.53 31.55 30.93 28.02 23.42 22.53 22.32 22.45 22.23 22.97 24.18 26.70 26.37 24.96 24.82 23.45 29.90 29.58 28.61 33.46 33.29 35.53 37.50 38.06 36.97 36.70
40.50 39.97 39.55 38.87 37.69 34.33 33.38 31.87 30.06 28.64 30.30 31.09 30.14 28.87 29.41 31.70 29.54 26.83 27.98 27.92 27.51 29.38 29.64 25.93 24.05 24.36 25.69 24.23 25.00 22.90 22.64 22.74 23.20 26.49 26.90 25.16 30.57 30.63 33.29 36.04 37.48 37.32 36.57
39.75 39.09 38.63 38.50 37.79 34.19 32.80 31.20 29.47 27.22 29.57 30.27 28.93 28.32 27.38 26.51 24.31 24.97 23.60 23.24 24.08 25.11 26.01 27.68 23.71 23.40 24.54 25.13 25.02 25.24 24.33 24.46 25.13 26.20 26.91 22.63 28.37 27.98 30.86 32.25 36.38 37.32 36.77
38.60 38.68 38.99 37.71 36.36 31.08 31.61 30.08 28.13 27.55 29.36 28.65 29.96 29.40 28.08 25.57 26.24 26.72 23.57 22.73 22.21 23.22 28.63 27.70 27.20 28.09 29.61 30.19 29.78 26.67 23.42 23.01 21.03 23.40 26.22 25.75 25.28 27.75 26.59 27.34 28.91 35.99 37.01
38.45 38.79 37.61 36.74 33.26 30.10 31.00 29.68 27.98 27.01 27.33 27.49 27.63 27.84 28.92 25.70 26.08 26.14 22.54 21.66 20.07 21.67 21.65 22.01 23.52 26.03 27.43 27.92 30.92 29.70 26.59 23.58 23.08 21.95 25.38 25.37 26.97 28.09 22.69 25.05 26.49 27.40 27.62

GFSMA_sfc_wetblb_015.txt.gz
Wetbulb
58.66 58.78 57.79 57.00 55.63 54.38 53.73 52.72 53.32 51.67 50.89 51.52 50.97 51.71 51.19 50.22 50.30 50.52 51.04 58.01 58.19 58.23 57.41 58.28 58.15 57.56 56.78 55.93 55.34 55.48 55.88 56.14 56.70 57.06 56.91 57.33 57.81 58.37 58.73 59.25 59.92 61.80 62.91
59.23 56.36 54.61 54.77 52.91 52.56 52.36 51.39 50.28 49.35 49.46 49.58 49.82 50.37 49.99 49.14 48.25 48.30 49.06 50.38 57.34 58.40 57.30 56.53 55.33 54.90 54.77 54.35 53.82 53.89 54.14 54.20 54.34 54.91 55.35 55.37 55.60 55.48 55.86 56.72 57.97 59.08 59.96
55.06 53.43 54.12 52.49 51.74 51.21 50.42 50.46 49.68 49.73 49.05 50.00 48.99 49.54 48.70 47.75 47.53 47.19 47.95 48.04 53.02 56.51 56.68 54.63 53.48 53.02 53.53 53.21 53.06 52.82 52.75 52.68 53.31 53.84 53.96 53.71 53.99 54.29 54.39 54.51 55.24 56.60 58.16
54.45 53.12 52.19 51.40 51.11 51.35 50.91 50.06 49.52 48.76 48.41 48.02 46.88 46.47 46.01 46.23 45.78 45.63 46.45 46.01 46.34 51.60 54.52 55.11 54.13 52.58 52.11 52.20 52.00 51.89 52.03 52.60 52.64 52.66 52.64 53.08 52.88 52.36 52.60 52.97 53.26 53.93 55.38
53.78 52.69 52.17 51.07 50.54 50.36 50.22 49.92 48.70 47.97 46.94 46.53 45.87 43.52 43.71 43.65 43.25 46.17 43.52 43.63 44.25 45.10 48.06 53.59 52.99 52.16 49.48 49.74 50.15 50.76 51.39 51.17 51.61 51.66 51.99 51.90 51.16 50.60 50.70 51.22 51.93 52.40 53.31
52.39 51.36 51.51 50.80 50.40 49.39 48.52 47.68 47.00 47.28 47.00 44.72 46.50 43.81 41.89 42.13 42.09 41.13 41.01 43.22 42.53 42.50 43.36 43.64 43.31 45.18 49.24 47.92 47.75 48.53 49.52 49.82 50.02 50.68 50.36 49.84 49.66 49.27 49.52 50.02 50.74 51.61 52.36
51.77 50.03 49.51 49.02 48.96 47.47 46.73 47.05 46.06 44.01 43.48 43.24 40.33 39.46 40.07 40.40 39.86 39.21 39.99 39.59 40.18 41.53 41.92 41.53 43.24 41.87 42.33 45.95 45.99 46.73 47.41 47.88 48.04 47.72 47.71 47.46 47.70 47.73 48.14 48.92 49.54 50.44 51.31
50.41 50.50 48.16 47.45 46.83 46.18 45.64 45.05 43.55 42.09 42.69 41.38 38.56 36.94 34.13 36.22 38.20 39.29 37.78 38.71 36.61 38.65 40.04 41.54 40.87 40.02 38.02 37.81 40.34 44.29 44.33 44.83 45.20 45.88 45.90 45.76 46.21 46.82 47.22 48.09 48.73 49.41 50.50
44.76 44.08 44.27 43.16 42.60 43.58 43.83 43.47 42.99 42.59 40.04 40.51 39.65 37.20 32.59 30.44 32.46 35.73 36.27 35.93 35.47 35.78 36.32 37.58 38.55 38.89 38.25 37.32 39.26 41.05 44.51 43.51 43.77 43.95 44.91 44.86 45.05 45.96 46.58 47.33 47.93 48.54 49.78
43.75 43.58 43.85 42.74 42.06 42.21 41.27 42.61 45.27 42.23 40.43 37.56 38.55 40.08 36.21 34.66 29.68 28.40 32.79 33.93 35.06 36.06 34.83 35.21 36.75 37.27 37.41 36.97 40.45 42.79 45.00 41.64 40.80 42.46 43.51 44.35 44.89 45.08 45.64 46.69 46.95 47.47 49.38
43.11 43.43 43.21 42.11 42.43 42.70 42.09 42.52 41.46 40.74 39.94 37.77 36.95 35.90 34.40 33.57 32.15 29.45 26.76 29.17 32.25 33.89 34.68 34.50 34.75 35.19 37.01 36.14 35.14 38.03 44.41 42.54 41.67 41.52 42.46 43.31 43.85 44.18 44.92 45.97 46.12 46.79 48.63
41.62 42.56 43.25 42.18 42.46 42.43 42.60 41.89 41.13 40.66 39.48 38.55 38.80 36.83 34.71 32.08 30.95 29.61 27.81 27.98 28.52 31.17 32.70 33.79 33.69 34.21 34.66 34.58 39.33 42.83 43.10 42.08 41.64 40.69 41.31 41.97 42.69 43.03 43.90 44.75 44.92 45.99 47.48
40.01 39.62 40.64 40.81 41.65 43.18 42.34 41.78 40.94 40.07 39.35 38.27 37.49 35.79 35.13 34.40 34.06 32.24 29.97 27.94 27.26 29.11 29.97 31.81 33.13 34.11 35.75 33.98 34.76 40.20 39.69 40.32 40.03 39.27 39.86 40.46 40.92 41.41 41.91 43.24 43.78 44.63 46.49
39.13 39.45 39.97 40.63 41.32 43.07 41.78 41.38 40.34 39.78 39.74 38.07 37.63 35.74 35.50 34.45 34.41 32.91 30.79 27.81 25.06 26.09 27.27 28.70 31.88 32.51 33.25 33.07 35.50 38.81 34.25 37.75 38.69 39.26 38.39 38.45 39.10 39.89 40.80 41.65 42.42 43.28 44.95
41.25 39.74 39.58 39.71 39.97 41.17 41.22 41.26 39.95 39.40 38.59 36.69 35.57 34.68 36.46 34.02 32.97 32.61 31.84 30.45 27.40 24.06 25.55 27.83 27.46 31.49 31.83 32.13 33.97 32.93 32.33 36.13 38.42 38.05 37.62 38.26 38.56 39.41 40.10 40.96 41.41 42.00 43.16
39.69 39.44 38.98 38.97 39.20 39.14 39.31 40.46 38.90 38.51 37.40 38.22 36.83 36.02 36.00 35.96 35.13 33.80 30.87 31.17 29.45 26.43 22.42 27.25 27.65 28.90 30.05 32.83 33.92 32.50 32.20 36.21 35.71 36.85 37.26 38.36 38.59 39.07 39.38 39.56 40.16 40.50 40.94
41.48 39.32 39.57 39.29 39.21 38.65 38.25 36.75 36.41 36.15 36.52 35.16 35.88 35.10 34.32 35.65 32.09 31.35 30.14 29.01 27.67 26.24 22.57 25.45 27.43 28.03 27.47 27.88 29.83 30.33 31.93 31.26 31.86 35.78 37.03 37.63 38.23 38.49 39.05 39.86 39.81 40.07 39.89
39.57 38.99 39.26 39.13 39.75 39.49 38.43 37.87 37.20 36.22 35.61 35.65 35.70 34.60 33.78 35.89 30.63 28.75 27.29 25.40 24.59 24.77 23.40 21.83 24.16 25.09 25.24 26.95 26.99 27.06 30.29 32.82 31.54 34.57 36.70 36.61 37.34 37.74 38.22 38.42 39.00 39.72 39.93
38.42 39.99 39.43 39.14 39.43 38.93 37.98 37.81 37.00 36.07 35.12 35.47 35.17 33.41 32.78 30.91 26.47 25.44 24.84 23.78 23.58 26.40 23.30 21.39 22.09 24.07 24.42 24.89 25.91 27.03 28.16 28.71 31.37 34.21 34.58 35.49 36.32 36.87 36.59 37.28 38.73 39.22 39.70
39.38 39.14 39.07 40.01 39.78 39.00 38.58 37.34 36.10 34.37 34.13 33.78 33.37 32.24 31.05 28.14 26.29 24.84 25.04 23.26 24.10 22.42 22.21 21.45 21.74 22.61 23.51 25.05 24.69 23.55 24.12 27.11 27.34 30.86 32.45 34.47 34.58 36.02 35.77 37.31 37.81 39.06 38.34
39.58 39.54 39.20 39.09 39.48 39.12 38.66 35.01 33.85 32.23 32.04 31.53 31.19 31.55 30.27 30.87 33.13 27.88 25.76 22.76 22.83 21.76 21.37 21.41 21.07 21.92 22.19 22.62 22.16 25.46 24.46 23.94 24.84 26.69 28.08 28.28 30.12 31.92 33.38 35.58 36.74 37.79 37.21
39.71 39.06 38.34 38.27 38.06 39.42 35.25 35.33 32.57 29.31 30.31 30.07 29.13 28.83 28.20 30.60 31.09 31.22 29.83 29.16 27.05 22.03 20.74 20.13 21.77 21.29 21.94 21.90 25.93 22.90 21.64 20.57 18.83 25.16 24.47 24.64 28.35 28.34 32.74 33.93 35.90 35.59 36.88
38.98 38.21 38.08 37.92 36.86 35.52 34.61 33.70 31.95 28.19 28.27 28.20 28.58 26.69 27.63 29.55 26.82 25.02 25.74 26.45 25.49 27.26 27.08 23.28 20.86 19.82 19.67 21.93 22.67 21.62 21.50 21.13 20.94 23.82 24.33 22.60 24.86 25.10 31.89 33.46 35.00 36.00 37.14
37.57 37.05 37.21 37.30 35.48 34.29 34.13 33.15 30.77 26.71 27.40 28.46 27.24 26.58 25.49 23.92 24.53 24.66 23.06 22.28 22.19 23.01 23.76 24.65 21.19 20.62 21.76 23.63 23.49 24.43 23.68 23.35 23.72 25.01 24.38 20.64 24.18 24.96 29.85 31.20 33.79 36.67 37.10
36.38 35.91 36.64 36.10 33.91 32.14 33.39 31.62 28.68 27.07 27.99 27.28 28.18 27.81 27.03 24.09 26.94 26.84 23.34 22.13 21.49 22.19 26.13 27.50 26.83 27.42 28.03 28.73 28.56 27.46 25.18 24.31 20.46 22.46 24.12 22.44 22.78 22.73 26.63 28.23 27.85 34.29 36.57
36.05 36.24 35.61 34.74 33.32 29.73 32.51 31.04 28.90 25.24 25.87 25.86 26.13 26.03 28.45 24.64 26.72 26.58 22.82 20.74 19.28 20.61 21.49 21.84 22.52 23.76 25.52 25.74 28.97 26.41 25.61 23.50 23.25 22.58 24.08 23.60 24.24 25.06 22.38 24.53 25.50 25.31 25.34

GFSMA_sfc_wetblb_018.txt.gz
Wetbulb
57.24 55.60 53.61 52.46 52.03 52.33 51.56 50.20 49.49 49.08 49.18 49.45 49.47 49.09 48.45 47.51 46.64 47.01 47.19 55.96 57.83 57.96 57.67 58.69 57.69 56.38 55.66 55.17 55.04 55.06 54.74 54.54 54.70 54.98 55.25 55.09 55.20 55.23 55.35 55.58 55.98 56.91 58.32
55.15 54.08 52.76 51.77 51.05 50.31 50.21 49.10 48.68 48.46 48.10 48.34 48.49 48.21 47.41 46.10 45.51 44.97 45.43 45.41 55.39 58.72 58.33 56.68 55.41 54.55 54.46 53.99 53.85 53.44 53.33 53.00 54.03 54.14 53.61 53.58 53.58 53.36 53.33 53.62 54.13 54.63 55.62
54.38 53.20 51.31 50.77 50.65 49.98 49.25 49.16 48.37 48.22 47.66 48.33 47.25 47.09 46.01 45.22 44.52 43.96 43.75 46.03 47.93 55.67 56.59 54.31 53.08 52.83 52.97 53.01 52.33 52.13 52.52 52.66 52.71 52.58 52.82 52.87 52.64 52.13 51.54 51.68 52.24 53.27 53.84
53.70 51.67 50.74 49.54 49.37 49.84 49.02 48.34 47.83 47.27 46.95 46.17 44.34 42.85 43.66 43.92 43.32 42.68 42.18 42.50 42.90 47.70 51.21 53.29 53.06 52.12 51.35 51.13 50.99 51.05 51.35 50.98 51.06 51.24 51.70 51.83 51.50 50.78 50.57 50.45 51.07 51.59 52.59
52.80 51.30 49.90 48.83 49.44 48.75 48.18 47.80 46.81 46.52 45.37 44.30 44.22 41.66 42.27 40.82 41.06 42.63 41.14 41.02 41.45 42.10 43.38 50.14 49.27 48.97 47.84 47.84 47.99 48.68 49.20 49.90 49.73 50.19 50.25 49.69 49.53 49.24 49.20 49.22 49.83 50.39 51.13
51.96 50.21 49.09 48.83 48.24 47.44 46.50 45.64 44.34 44.10 44.38 42.94 44.79 41.82 39.36 39.61 39.27 38.51 38.61 40.69 39.80 40.19 40.75 40.75 40.41 43.55 48.35 46.74 46.51 46.98 47.63 48.18 48.52 48.17 47.96 48.05 47.98 47.98 47.82 48.02 48.58 49.57 50.09
49.55 48.40 47.44 47.32 46.41 45.54 44.74 45.12 43.41 42.07 41.36 40.70 38.59 38.34 38.21 37.95 37.41 37.06 37.32 37.02 37.52 38.52 38.57 38.80 38.53 37.94 38.78 44.70 44.87 45.72 46.48 46.55 45.91 45.84 46.16 46.60 46.39 46.44 46.64 47.08 47.63 48.58 49.32
48.41 47.02 45.31 43.05 43.31 43.76 43.46 42.92 42.05 40.59 41.16 39.57 37.38 35.50 33.04 35.27 36.38 36.82 35.92 36.65 33.89 36.05 37.12 37.86 37.54 37.61 36.96 36.18 39.34 45.60 45.63 45.08 44.87 45.20 45.16 45.04 45.10 45.89 46.29 46.56 47.01 47.45 48.46
43.37 43.38 42.58 41.64 41.06 41.09 40.17 40.19 41.32 40.94 38.89 38.05 37.18 36.11 31.48 29.69 31.07 34.03 33.79 33.38 33.93 34.46 34.34 34.87 36.96 36.71 36.43 35.56 38.14 40.54 44.15 42.97 42.41 42.91 43.96 44.41 44.77 45.15 45.64 45.64 45.96 46.65 47.70
42.72 42.96 42.33 41.65 41.34 41.17 40.22 40.51 42.16 39.75 38.36 36.25 36.82 38.13 35.05 34.36 29.02 26.84 31.26 32.12 33.31 34.46 33.44 33.33 34.19 35.11 35.84 35.19 38.36 41.43 43.87 43.07 40.56 41.66 42.79 43.59 44.28 44.50 44.67 45.10 45.14 46.07 47.27
42.21 42.44 41.85 41.63 40.80 42.20 41.41 40.61 39.97 39.07 38.38 36.75 35.89 34.98 33.62 31.95 30.43 28.07 25.63 28.24 30.98 32.11 32.92 32.66 32.45 33.25 34.92 34.56 33.49 36.36 43.42 42.58 40.73 40.75 41.83 42.53 43.19 43.62 43.92 44.20 44.58 45.23 46.38
40.73 40.57 41.68 41.01 40.83 41.72 41.05 40.29 39.97 39.32 38.18 37.18 36.84 35.33 33.57 31.15 30.06 28.60 26.22 26.61 26.87 29.54 31.55 31.78 31.84 32.47 33.30 33.06 37.47 40.20 39.69 39.28 38.81 39.46 40.30 41.07 41.77 42.53 42.79 43.03 43.66 44.37 45.24
38.52 37.87 39.52 39.33 40.70 41.86 41.29 40.72 39.99 38.83 38.27 37.01 36.48 35.49 34.42 33.38 32.95 31.48 28.94 27.55 26.07 27.87 28.58 30.59 31.81 32.06 34.43 31.76 33.70 38.30 37.91 37.64 37.45 38.17 38.81 39.58 39.73 40.09 40.71 41.46 42.27 43.26 44.39
38.77 39.67 40.49 40.94 40.20 41.74 41.45 40.32 39.11 38.00 38.43 37.52 36.30 36.10 34.35 33.22 33.25 32.06 30.01 27.35 24.97 26.05 26.35 27.46 30.02 30.38 30.50 30.93 33.83 37.42 32.36 35.73 36.29 36.98 37.20 37.20 37.67 38.47 39.09 40.27 41.04 42.16 42.97
40.44 40.99 39.65 40.08 38.87 39.04 39.85 39.76 38.42 37.97 37.71 36.57 35.01 34.52 33.63 33.06 32.63 32.31 31.99 30.27 27.13 21.51 23.60 25.39 25.94 29.26 29.55 30.27 31.66 31.39 30.28 34.57 35.90 35.52 35.86 36.62 37.12 37.82 38.27 39.13 40.07 41.05 41.56
40.57 39.97 40.27 38.91 38.42 38.01 37.76 38.12 37.00 36.72 35.39 35.07 35.17 34.10 33.40 34.95 34.74 32.59 30.67 30.57 28.60 25.58 21.87 25.04 25.23 26.48 28.22 30.55 31.51 30.11 29.75 33.79 33.56 34.53 35.78 35.79 36.75 36.99 37.69 38.22 39.09 39.78 40.35
40.57 40.43 40.08 38.66 39.55 37.98 38.42 37.29 36.60 35.74 35.49 34.97 34.71 34.02 33.78 34.57 32.15 30.98 29.07 27.95 25.75 24.39 21.41 23.15 24.77 25.31 24.69 25.08 27.19 28.04 29.49 28.56 29.69 33.51 34.17 35.34 35.38 36.72 36.96 37.47 38.00 38.47 38.94
39.92 40.01 38.46 39.54 39.33 38.39 38.27 36.89 36.21 36.26 35.48 34.46 34.44 34.33 34.30 35.63 30.10 27.84 26.10 24.68 23.93 23.51 22.63 20.52 21.92 22.74 23.11 24.14 25.05 24.72 28.18 30.66 28.93 32.42 33.68 33.43 34.57 35.55 35.70 36.41 36.37 37.36 37.98
39.30 39.06 38.76 38.24 38.32 38.54 38.45 37.78 36.60 35.93 35.14 34.85 35.21 33.74 33.12 31.41 27.33 26.33 25.05 23.75 23.22 25.72 22.67 20.85 21.31 22.36 22.63 23.83 24.40 25.28 25.78 25.95 30.08 31.95 31.53 31.91 34.12 33.76 34.52 34.95 35.56 37.16 38.18
37.31 37.38 38.51 38.58 39.49 38.88 38.19 37.60 35.48 33.52 33.22 33.12 32.98 31.89 30.79 28.62 26.73 25.08 24.34 22.97 23.47 21.93 22.03 21.12 21.49 21.94 22.32 24.11 23.42 22.55 24.07 26.03 25.45 27.88 29.16 30.10 31.71 31.95 32.75 34.02 34.77 36.71 38.18
38.19 38.88 38.24 38.97 39.28 38.65 38.33 36.06 34.67 32.64 32.04 30.88 30.59 30.53 29.33 29.96 32.75 27.62 24.86 22.86 22.49 21.46 20.97 20.62 20.48 21.15 21.46 21.75 21.58 23.34 23.60 23.01 23.20 24.57 24.18 26.07 26.47 27.11 28.60 31.81 34.30 35.63 37.20
39.84 38.50 38.70 37.97 37.39 38.26 37.18 36.58 33.80 30.22 30.28 29.44 28.63 28.30 27.40 30.33 31.22 31.27 30.00 28.64 25.64 21.06 19.79 19.36 20.20 19.25 19.31 19.70 21.41 20.80 21.11 19.96 19.32 24.16 22.78 23.26 25.73 25.29 27.09 28.91 33.59 33.84 34.61
39.33 39.01 38.04 37.55 36.34 35.93 36.36 36.32 34.23 28.87 29.71 28.47 27.84 26.80 27.14 28.94 27.33 25.39 26.55 26.12 24.78 26.03 25.38 21.50 18.77 19.05 18.76 20.06 20.75 21.11 21.52 21.50 21.00 24.06 23.43 22.27 23.72 23.17 26.48 30.49 33.39 34.09 34.71
36.76 35.91 35.72 36.16 35.57 35.51 35.19 34.84 32.27 28.77 28.08 28.75 27.29 26.21 25.69 24.73 24.46 24.74 23.20 22.62 22.36 22.60 23.03 23.70 21.28 20.82 21.41 23.27 23.96 25.03 24.85 25.52 24.71 24.72 24.13 21.17 22.72 22.46 25.52 28.45 32.22 33.75 34.95
36.06 34.57 35.45 35.82 34.85 32.84 34.53 33.29 29.75 26.39 28.01 27.43 27.96 27.54 26.60 24.71 26.34 28.65 23.76 22.61 21.76 22.06 25.74 27.02 27.23 27.48 27.80 27.38 27.60 26.44 22.84 22.17 20.15 22.46 24.78 24.10 21.99 21.93 23.37 24.13 27.58 33.03 33.86
35.17 35.28 34.48 34.27 34.47 31.82 34.01 32.79 29.95 26.47 26.18 26.12 26.37 26.36 28.88 25.74 28.13 27.61 23.13 21.49 19.35 21.17 21.07 22.18 22.84 23.45 24.88 24.15 27.12 24.42 23.77 21.50 21.70 20.61 24.30 24.99 23.59 22.04 20.72 24.63 25.43 25.56 27.06

GFSMA_sfc_wetblb_021.txt.gz
Wetbulb
54.87 52.71 51.26 51.21 50.74 50.27 49.49 48.39 48.12 47.94 47.82 48.32 47.92 47.26 45.74 44.50 44.10 44.31 44.25 53.56 57.30 58.03 56.70 58.31 57.64 55.99 55.57 55.16 55.03 54.65 54.24 54.42 55.11 54.56 53.83 53.88 53.67 53.34 53.10 53.22 53.49 54.00 54.94
53.49 51.99 50.66 50.07 49.52 49.13 48.48 48.04 47.41 47.43 46.88 47.12 46.54 45.93 44.66 43.28 42.45 42.31 42.97 44.73 56.29 58.41 57.95 56.81 55.22 54.53 54.40 54.22 53.35 53.23 53.55 53.65 53.39 53.08 53.21 53.03 52.41 51.92 51.69 51.78 51.88 52.47 53.27
53.53 51.12 49.88 49.67 49.10 48.36 48.16 47.81 47.32 47.35 46.60 46.90 44.50 44.25 43.56 42.04 41.68 41.16 41.36 41.72 45.84 54.02 54.07 54.15 53.41 53.84 53.77 53.04 52.19 51.70 52.37 51.69 52.00 51.96 51.85 52.28 51.73 51.13 50.71 50.45 50.67 51.35 51.84
52.09 50.11 48.85 48.17 48.76 48.58 48.03 47.40 46.68 45.93 45.52 43.80 41.04 41.30 40.88 41.42 40.47 40.03 40.29 40.42 41.41 43.87 49.27 50.81 51.40 50.53 50.25 50.44 50.47 50.62 50.88 51.04 50.75 50.80 51.44 50.84 50.17 49.75 49.43 49.43 49.43 49.77 50.61
51.63 49.48 48.33 48.45 48.05 47.28 46.66 46.67 45.55 45.15 43.42 42.04 41.62 40.34 38.88 38.26 38.54 40.31 38.79 39.10 39.63 39.56 39.35 45.29 47.96 48.68 48.44 48.03 48.29 48.86 49.43 49.72 49.69 49.78 49.57 49.08 48.94 48.66 48.54 48.39 48.47 48.68 49.31
50.46 49.06 48.01 47.16 47.05 45.80 44.76 44.13 41.94 41.68 42.06 41.17 42.32 39.50 37.33 37.22 37.13 36.35 36.46 38.64 37.69 37.49 37.46 37.92 38.06 39.34 46.96 46.23 46.50 47.14 47.96 48.64 48.70 47.79 47.18 47.28 47.24 47.15 47.25 47.31 47.53 47.90 48.39
48.57 47.19 46.67 45.78 44.97 44.01 43.64 43.18 41.53 40.43 40.02 38.69 37.87 37.22 36.28 36.05 35.80 35.05 35.34 34.85 35.68 36.53 36.46 36.64 36.75 36.03 37.06 43.81 44.73 46.46 46.96 47.59 47.65 47.23 46.90 46.83 46.02 45.80 46.25 46.71 47.06 47.33 47.61
47.21 46.74 43.06 41.38 41.83 41.16 40.89 41.18 40.85 39.77 39.69 37.87 36.32 34.49 32.78 34.64 34.89 34.82 33.66 34.99 32.88 34.35 35.18 36.19 35.92 35.62 34.95 34.67 39.47 44.26 44.92 45.17 45.66 45.46 45.26 45.34 45.37 45.58 45.79 46.17 46.31 46.46 46.69
42.74 41.88 41.36 40.90 40.49 40.03 38.90 38.59 40.37 39.93 37.72 36.55 36.00 35.74 31.02 29.57 30.61 32.88 32.73 32.68 32.59 33.46 33.58 33.93 34.82 35.07 35.20 33.90 36.06 38.58 43.16 42.56 42.92 43.99 44.33 44.61 44.79 45.22 45.22 45.41 45.45 45.92 46.13
42.15 41.71 41.44 41.15 40.79 40.87 40.19 41.15 41.32 39.20 37.61 35.62 36.16 36.95 34.04 32.69 28.95 27.57 30.45 31.12 32.26 33.48 32.00 32.26 32.48 33.65 34.31 33.96 36.88 39.04 41.33 43.28 42.28 42.79 43.56 43.83 44.25 44.26 44.41 44.80 44.88 45.21 45.54
41.12 41.25 41.53 40.60 41.52 42.45 42.01 40.97 39.39 38.23 38.25 36.79 35.36 34.19 32.69 31.22 29.49 27.39 25.61 28.07 30.27 31.26 31.74 31.76 31.37 31.91 33.28 32.92 32.01 36.28 40.59 39.96 39.94 40.89 41.87 42.63 43.28 43.57 43.76 43.96 44.27 44.52 44.76
39.20 40.46 40.89 40.63 42.13 42.07 42.45 41.75 39.38 38.27 37.31 36.78 36.06 34.87 33.04 30.98 29.23 27.69 25.75 26.09 26.37 29.26 31.59 32.15 31.44 32.15 31.99 31.47 36.30 39.40 38.96 38.29 38.30 39.04 40.02 40.99 41.87 42.56 42.77 42.79 43.02 43.45 44.01
37.58 38.46 38.53 39.69 43.33 43.70 42.58 41.68 39.58 38.80 37.53 36.26 35.71 34.99 34.00 32.73 32.08 30.39 28.04 26.35 26.09 27.59 28.94 30.69 31.60 30.75 32.81 30.15 31.66 36.86 37.69 36.64 36.48 37.24 38.24 39.01 39.33 39.75 40.22 40.84 41.78 42.79 43.55
37.76 38.63 39.74 41.56 43.25 43.20 40.10 39.95 39.82 37.27 38.49 36.56 35.72 35.31 34.33 33.31 32.52 31.33 29.40 27.36 24.86 25.66 27.45 27.83 29.39 29.47 28.89 28.99 32.20 35.71 30.85 34.70 35.14 35.89 36.38 36.38 37.07 38.06 38.55 39.18 40.24 40.97 41.86
39.48 38.93 41.05 40.82 40.63 40.53 39.61 39.33 39.37 37.21 37.43 36.42 34.74 34.21 33.54 32.62 31.93 31.86 30.57 29.83 27.06 22.43 23.74 25.06 25.13 27.42 28.05 28.22 29.30 29.47 28.48 32.93 34.04 33.84 34.19 35.34 36.43 37.04 37.81 38.24 39.08 39.79 40.26
41.36 40.68 40.26 40.22 39.70 39.07 38.98 39.11 37.04 36.37 35.35 34.42 34.72 33.20 32.71 33.01 33.63 32.21 29.72 29.69 28.47 25.79 20.41 24.30 24.27 24.81 26.04 28.39 28.90 27.58 27.22 32.54 32.27 33.02 33.55 34.30 35.15 36.14 36.27 36.96 37.62 38.27 38.94
40.67 40.66 39.82 39.39 39.28 39.01 37.89 36.24 35.92 34.99 34.88 33.63 34.25 33.66 33.55 33.43 32.02 29.58 28.18 26.88 24.99 23.93 21.28 22.53 23.87 24.14 23.11 23.24 24.99 25.35 27.26 26.54 27.45 32.03 33.14 33.57 33.48 33.58 35.32 36.01 36.23 36.87 37.21
40.56 40.46 39.88 39.54 39.82 39.02 38.52 37.19 35.84 35.33 34.30 33.34 33.60 32.96 32.97 34.60 30.98 29.05 26.68 24.88 23.93 23.03 22.42 20.42 21.54 21.86 22.16 23.01 23.78 23.45 26.61 28.86 27.32 31.09 32.36 32.20 31.99 32.33 34.19 34.29 34.51 35.10 35.86
38.82 38.82 38.72 39.06 38.99 38.75 37.92 36.87 35.80 35.20 33.88 33.63 34.08 33.58 32.74 31.68 28.81 26.58 25.30 23.99 23.02 24.95 22.57 20.72 20.85 22.09 21.88 22.79 23.15 24.34 24.89 25.53 28.26 30.99 30.29 30.40 30.71 31.46 32.28 32.65 33.21 33.92 35.49
38.73 38.27 39.08 39.10 39.11 37.60 37.67 37.18 35.73 34.53 33.44 33.16 33.31 32.57 31.45 29.66 27.46 25.75 24.69 23.26 23.01 21.46 21.63 20.82 20.67 20.66 20.97 22.93 22.68 21.60 21.81 24.47 24.16 26.90 27.99 28.52 29.92 31.21 31.25 31.53 32.37 33.41 34.96
38.75 38.52 38.47 38.84 37.84 37.53 37.49 35.62 34.46 33.11 32.08 31.23 30.68 30.27 29.56 29.78 31.65 28.02 24.72 22.57 21.81 21.06 20.35 19.43 19.26 19.87 19.87 19.77 19.16 20.58 20.12 21.61 22.84 24.37 24.06 24.81 26.17 26.46 26.93 29.56 30.82 32.36 34.44
38.76 38.71 39.19 38.14 36.85 37.90 37.34 37.46 35.02 32.26 31.50 29.88 28.53 29.66 29.50 31.61 31.99 32.83 31.47 29.40 25.10 20.78 19.29 18.32 18.71 17.93 18.41 18.50 18.76 19.10 19.68 20.31 19.55 24.22 23.19 23.68 25.81 24.88 26.24 26.95 30.33 32.25 34.27
39.61 39.71 37.96 37.05 36.71 36.73 36.40 37.37 36.25 30.75 29.42 28.40 28.98 28.95 27.20 28.06 28.73 27.35 29.91 28.62 27.16 26.78 26.07 20.54 17.47 18.33 18.15 19.62 20.53 20.57 21.40 21.95 21.73 24.22 23.91 22.28 23.57 22.91 26.03 28.11 31.01 32.44 33.63
37.76 36.83 36.33 35.84 34.77 34.63 35.67 36.30 34.71 28.93 28.41 28.19 27.84 27.19 25.62 25.42 25.31 24.82 23.49 22.75 22.41 23.04 22.97 23.08 20.97 20.86 21.02 22.36 22.48 24.00 24.93 24.36 23.93 24.04 24.23 21.03 22.71 22.97 25.47 26.67 30.77 33.41 34.38
37.56 35.83 34.81 34.53 34.20 32.91 34.91 35.25 31.51 27.15 26.65 26.69 28.40 26.99 26.32 25.22 27.74 29.77 24.38 23.06 22.31 22.86 26.01 27.09 27.46 27.62 27.67 27.88 26.73 22.33 20.56 20.45 18.79 20.79 23.37 23.38 21.80 22.64 24.54 24.99 27.02 31.92 32.66
35.33 34.71 33.51 32.95 33.28 31.80 33.65 34.85 30.74 25.87 26.23 26.73 26.37 26.89 31.22 27.15 28.73 29.36 24.17 21.80 20.30 22.22 21.62 22.08 22.58 24.01 24.72 24.05 26.40 22.96 22.28 19.84 19.94 18.39 23.17 22.03 22.92 25.18 21.44 22.30 24.87 24.84 25.50

GFSMA_sfc_wetblb_024.txt.gz
Wetbulb
53.63 51.66 50.60 50.21 49.57 49.27 48.34 47.85 47.78 47.41 47.48 47.35 46.10 45.21 43.71 43.15 43.06 43.31 44.70 57.60 58.66 58.61 57.77 59.18 57.45 56.86 55.84 55.34 54.78 54.55 54.49 55.17 54.39 54.06 54.16 53.75 53.27 53.07 52.92 52.59 52.24 52.30 52.63
51.69 50.27 49.48 49.13 48.64 48.38 47.61 47.24 47.00 46.57 45.98 45.93 44.61 43.98 42.51 41.80 41.47 41.50 42.36 47.89 55.39 56.28 56.72 56.47 55.41 55.20 55.16 54.31 53.26 53.00 53.67 53.12 52.86 52.90 52.84 53.12 52.61 52.02 51.62 51.31 51.19 51.17 51.47
51.71 49.40 49.11 48.73 48.14 47.58 47.40 47.39 47.06 46.70 45.95 44.38 42.84 42.22 41.46 40.97 40.64 40.63 41.20 42.58 46.35 53.03 54.55 54.32 54.64 54.19 53.59 52.81 52.04 52.10 52.30 51.80 51.62 51.23 51.47 51.42 50.99 50.46 49.95 49.97 50.08 50.21 50.43
50.84 49.45 48.45 48.18 47.78 47.64 47.24 46.64 46.09 45.33 43.61 41.83 40.25 40.12 40.00 39.93 39.58 39.88 40.58 40.96 40.78 41.11 45.42 50.08 50.26 49.90 49.16 49.38 49.74 49.95 50.18 50.17 50.23 50.41 50.66 50.24 49.90 49.63 49.16 49.18 48.94 49.16 49.48
50.36 48.46 48.20 47.71 47.54 46.52 45.85 46.24 44.90 44.49 41.98 41.31 40.73 38.80 37.94 37.53 38.16 39.46 38.50 38.52 39.17 38.58 39.02 45.52 46.81 48.34 48.17 48.38 48.32 48.40 48.79 49.17 49.39 49.58 49.09 48.42 48.04 47.98 48.07 47.82 48.15 48.39 48.59
49.65 48.60 47.66 46.85 46.13 44.79 44.23 42.83 41.43 41.55 41.60 40.71 41.25 38.40 36.57 36.67 36.66 36.17 36.71 38.27 37.40 37.51 37.77 38.58 38.46 39.74 45.33 45.93 46.11 46.69 47.72 48.81 48.69 48.78 48.37 48.10 47.61 47.41 46.85 46.88 47.09 47.46 47.99
48.35 46.85 45.62 44.80 44.11 43.52 42.80 42.64 40.92 39.78 39.14 38.49 37.72 36.55 36.48 36.29 35.26 35.19 35.57 35.61 36.65 36.71 37.18 37.43 36.92 36.57 37.46 43.05 44.68 45.24 46.30 46.88 47.15 47.26 47.43 47.21 46.54 46.23 46.36 46.55 46.78 46.98 47.26
46.43 46.11 43.19 42.14 42.49 40.90 40.18 41.14 40.53 39.65 38.37 37.31 36.70 35.23 33.24 35.28 35.30 34.91 34.40 35.37 34.58 35.69 36.35 37.38 36.91 36.68 36.69 36.15 40.62 43.21 43.99 44.73 45.27 45.18 45.43 45.60 45.72 45.79 46.03 46.33 46.35 46.20 46.45
42.64 41.25 40.79 40.17 39.56 39.37 38.57 39.37 40.10 39.74 37.44 37.50 36.51 36.10 32.69 31.14 31.37 33.83 33.87 33.64 34.00 34.58 34.78 35.51 35.79 35.95 36.52 35.89 36.77 38.44 41.61 42.53 43.53 44.23 44.53 44.65 44.65 45.13 45.34 45.61 45.63 45.70 45.99
41.07 41.11 40.97 40.80 40.51 40.30 40.42 41.42 41.77 39.88 38.70 36.06 36.29 36.40 34.36 33.87 31.51 29.72 31.94 32.35 33.03 34.18 33.81 34.30 33.93 34.70 35.52 35.28 36.83 38.51 41.64 41.80 42.00 43.13 43.35 43.82 44.12 44.47 44.68 44.88 45.09 45.42 45.53
40.60 41.07 40.90 41.64 41.20 40.96 41.03 40.83 40.36 38.61 38.22 36.33 35.44 35.08 33.62 32.27 31.48 28.97 27.23 29.25 31.53 32.79 33.07 33.33 33.43 34.01 34.23 34.10 34.05 37.83 40.35 39.56 39.66 40.42 41.39 42.13 42.89 43.65 44.04 44.36 44.48 44.46 44.44
39.31 40.08 40.71 41.17 41.36 41.61 42.13 41.53 40.80 38.26 37.72 37.28 36.57 36.92 34.25 32.34 30.76 28.46 26.83 27.41 27.50 30.35 31.86 33.26 32.90 32.84 33.01 32.66 35.38 37.69 38.17 38.50 38.22 38.70 39.55 40.51 41.51 42.16 42.55 42.68 42.73 42.92 43.34
38.17 38.27 39.30 40.84 41.71 42.95 42.00 41.89 40.35 38.38 37.24 36.53 36.54 36.19 34.60 33.65 32.50 30.91 29.13 28.17 27.33 28.94 29.71 31.54 32.62 31.91 33.19 31.19 32.41 35.53 36.19 35.57 35.77 36.73 37.40 38.12 38.90 39.44 39.65 40.26 41.25 41.96 42.44
39.12 38.77 40.86 42.77 43.26 43.80 42.62 41.92 39.99 38.89 38.56 37.78 36.02 35.38 34.52 34.18 33.30 32.21 30.17 28.38 26.29 26.82 27.68 29.78 30.57 30.67 29.85 29.63 31.83 33.81 30.36 33.30 33.69 34.48 35.32 35.69 36.10 37.07 37.85 38.72 39.50 40.37 41.25
40.77 41.90 41.48 41.54 42.92 42.77 41.60 41.12 40.53 38.95 37.85 36.54 35.97 34.97 34.28 34.15 32.60 32.21 31.55 30.26 28.01 25.04 26.72 27.78 27.29 29.44 28.91 29.22 29.62 30.25 28.75 31.43 33.21 33.42 33.67 34.19 34.86 35.78 36.60 37.65 38.25 38.54 39.40
41.75 41.20 41.03 40.65 39.89 39.58 39.69 40.28 39.05 38.04 36.29 35.70 35.44 33.76 32.92 32.83 32.53 32.65 30.69 30.60 29.61 27.70 24.48 26.66 26.59 27.12 27.88 28.68 28.94 29.32 28.21 32.06 31.67 32.32 32.80 33.44 34.14 34.83 34.85 35.06 35.85 36.93 37.75
41.60 40.85 40.44 39.98 39.40 39.06 38.92 37.95 36.59 35.03 34.20 33.65 33.93 33.47 32.86 33.31 32.85 31.93 29.83 28.90 27.53 26.27 23.78 25.18 25.58 26.10 25.34 25.43 26.41 26.82 27.81 27.59 28.26 31.35 32.23 32.72 32.92 32.91 32.94 33.16 33.84 36.22 36.24
41.20 40.62 40.13 39.71 39.69 39.05 38.69 37.19 35.47 35.34 34.30 33.03 33.03 32.83 32.99 34.14 31.58 30.42 28.50 27.23 26.07 24.99 23.87 21.98 23.18 23.96 23.99 24.80 25.06 24.83 26.65 28.51 28.22 30.08 31.55 31.49 31.49 31.41 31.68 31.94 32.78 33.91 34.40
40.14 40.09 39.71 39.29 39.37 39.14 38.54 37.01 36.18 35.16 33.92 33.44 33.26 32.37 32.49 32.02 30.47 28.46 27.04 25.87 24.87 25.91 23.94 22.42 22.19 23.92 23.73 24.15 24.40 25.51 25.70 26.07 27.26 29.93 29.94 30.25 30.70 31.31 31.86 32.21 32.53 32.71 33.02
39.45 38.95 39.36 39.39 39.24 39.04 38.01 37.81 36.46 34.61 33.92 33.64 33.11 32.91 32.34 31.03 30.43 28.24 26.67 25.24 24.39 23.01 22.56 21.91 21.87 21.81 22.05 23.95 23.83 22.35 21.66 24.33 24.16 26.57 28.19 28.85 30.13 30.76 31.23 31.41 31.74 32.33 32.81
39.25 38.96 38.66 38.58 39.29 38.57 37.69 36.64 35.08 34.28 32.80 32.05 32.10 31.72 31.08 31.64 33.35 29.24 26.20 24.59 23.04 22.03 22.05 21.19 20.17 20.36 20.33 20.13 20.30 21.47 20.48 22.36 23.62 25.52 25.79 26.95 28.08 28.57 28.62 29.88 30.40 31.29 32.01
38.14 37.08 37.75 39.65 39.11 38.48 37.17 37.21 36.49 33.15 32.37 30.73 29.99 28.92 29.04 33.15 33.10 34.18 33.62 30.06 25.54 22.66 21.24 19.61 19.73 18.86 19.03 19.96 20.97 20.28 20.88 20.48 19.67 26.96 25.25 25.00 27.47 26.89 28.31 29.06 30.06 31.59 32.46
39.78 39.49 39.91 38.66 37.05 36.43 36.40 36.97 36.43 33.28 30.96 30.97 29.29 29.16 28.52 28.81 29.77 27.86 31.52 31.46 29.41 28.64 26.91 22.37 19.53 19.38 19.40 21.27 21.82 21.14 21.66 21.73 21.80 24.76 25.28 22.67 26.32 25.14 28.27 29.04 30.45 31.94 34.01
40.09 39.77 38.47 37.80 35.61 35.17 35.61 35.88 35.25 32.95 30.41 29.44 28.62 28.49 28.02 27.35 26.38 26.22 25.74 24.94 24.14 24.14 24.40 24.21 21.99 21.60 22.14 23.20 23.13 23.87 22.87 22.68 23.61 24.39 25.22 20.27 25.29 24.77 27.66 28.48 30.06 31.89 33.10
39.10 38.34 37.37 35.33 35.06 33.66 34.78 35.07 34.25 29.80 28.12 27.70 28.31 28.23 27.35 26.35 28.45 31.12 25.04 23.58 23.01 23.54 27.03 28.51 27.82 27.38 28.01 28.57 27.53 24.28 20.86 19.86 18.55 20.52 24.40 22.56 24.40 24.11 26.56 27.50 28.85 30.93 31.74
37.65 35.93 34.89 34.61 33.29 31.16 33.18 34.65 34.40 26.79 26.78 26.92 26.95 27.59 31.57 27.55 29.57 30.55 26.79 23.45 21.33 22.98 23.90 23.21 23.44 24.78 26.67 25.35 27.00 24.87 22.37 19.02 19.14 18.19 24.43 21.67 22.76 24.29 22.67 27.11 27.49 29.84 29.34

GFSMA_sfc_wetblb_027.txt.gz
Wetbulb
58.83 57.60 56.68 56.40 55.99 56.09 56.15 55.64 55.67 54.92 53.79 53.21 52.47 51.59 50.93 51.25 52.52 53.89 57.31 57.49 59.42 58.94 59.64 59.37 57.82 56.91 55.89 54.81 54.51 54.40 54.71 53.69 53.64 53.37 53.51 53.69 53.12 52.40 52.02 51.86 51.69 51.66 51.73
57.42 56.48 56.15 56.00 55.63 56.07 55.89 55.52 55.12 54.35 52.89 52.54 50.84 50.07 49.57 49.73 50.89 53.13 55.59 56.43 56.17 56.95 57.21 56.61 56.00 56.10 55.66 54.11 52.90 52.83 52.60 52.16 52.04 51.95 51.71 51.62 51.14 50.88 50.22 50.27 50.11 50.34 50.87
57.62 56.94 55.95 55.58 55.31 55.60 55.19 54.87 54.68 54.11 51.96 50.99 49.35 48.92 48.94 48.88 49.21 50.99 53.50 54.11 53.45 52.68 54.85 54.70 53.80 52.80 52.35 51.90 51.20 50.71 50.76 50.65 50.70 50.95 51.11 51.15 50.79 50.06 49.64 49.20 49.06 49.36 49.65
57.14 56.73 55.99 55.39 55.23 55.25 55.17 55.00 54.24 52.43 51.38 50.62 49.12 48.55 48.07 48.00 48.40 48.63 49.22 50.19 49.62 50.20 50.75 50.08 50.43 50.23 49.87 49.79 49.87 49.91 50.28 50.29 50.32 50.35 50.13 49.76 49.27 48.64 48.36 48.01 47.86 48.02 48.44
56.37 56.86 56.08 54.97 55.37 54.42 54.34 53.65 53.04 53.08 50.84 49.58 48.18 47.45 46.96 46.95 46.90 46.48 46.34 46.61 46.81 47.16 47.45 46.86 47.55 48.07 47.91 47.78 47.88 48.10 48.75 49.23 49.52 49.84 49.88 49.28 48.88 48.21 47.99 47.78 47.55 47.63 47.76
55.91 56.19 55.07 54.44 54.11 53.11 52.47 51.89 51.35 50.86 50.95 49.81 46.63 45.43 45.88 46.22 46.11 46.19 45.72 45.32 45.77 45.65 46.11 45.89 46.64 45.91 45.00 45.11 45.18 45.96 47.22 48.11 48.58 48.73 49.05 48.99 48.92 48.23 47.51 47.17 47.25 47.60 47.82
55.28 55.33 53.91 53.16 53.04 52.60 51.74 51.15 50.17 49.34 48.19 48.88 46.65 45.70 45.02 44.97 44.48 44.67 45.72 46.00 44.52 44.85 45.46 45.41 45.78 45.63 45.05 42.65 44.14 44.50 45.26 46.10 46.81 46.79 46.96 46.83 46.91 46.87 46.83 46.74 47.14 47.27 47.29
54.38 53.70 53.10 52.17 52.13 50.92 50.66 50.54 49.94 48.44 47.50 47.70 46.89 46.52 43.19 43.21 43.86 43.48 43.85 43.75 44.35 45.02 44.57 44.07 44.34 44.26 44.90 44.35 43.41 42.84 43.49 44.12 44.86 45.29 45.73 45.84 46.05 46.29 46.43 46.47 46.62 46.84 46.95
53.08 51.84 51.33 50.86 49.62 48.99 47.97 49.03 49.35 48.63 45.55 45.31 45.99 46.61 41.97 41.22 43.17 43.68 42.40 43.02 43.32 44.15 44.54 44.18 43.40 42.82 43.70 43.25 42.00 41.84 41.44 42.74 43.51 44.18 44.51 44.89 45.25 45.65 45.92 46.02 46.11 46.21 46.48
49.91 49.03 48.67 48.77 48.36 48.23 48.15 48.54 48.56 48.35 47.36 44.56 44.90 44.52 45.34 44.85 40.60 38.82 42.25 42.68 42.93 42.46 43.19 43.61 43.39 43.04 42.87 42.64 40.53 39.89 41.42 40.95 41.42 42.63 43.29 43.47 43.98 44.35 44.79 45.05 45.24 45.68 45.99
48.44 47.83 48.42 48.52 48.42 48.68 48.88 48.17 46.49 47.16 47.03 43.82 45.50 44.60 44.05 43.20 42.52 39.16 36.36 39.36 41.87 42.76 42.91 42.61 42.60 42.30 41.75 41.47 41.51 40.51 39.04 38.95 39.39 40.78 41.55 42.36 42.80 43.24 43.63 43.94 44.25 44.72 44.76
47.11 47.41 47.50 48.42 48.74 48.48 46.78 45.72 46.43 45.44 44.26 45.79 45.50 44.28 42.76 41.13 40.40 39.32 37.35 37.92 37.59 40.27 41.75 41.98 41.91 41.84 41.77 41.08 37.93 36.70 37.31 37.20 37.16 37.74 38.68 39.74 40.52 41.35 41.85 42.33 42.99 43.27 43.38
46.09 46.47 47.92 47.71 47.86 48.23 47.93 47.14 45.41 45.40 46.16 45.16 44.79 43.92 43.91 42.90 42.90 41.09 39.09 37.84 36.76 39.50 39.42 41.10 41.53 41.56 40.09 40.00 38.78 35.85 36.30 34.63 34.69 35.37 36.09 37.15 37.99 38.58 39.25 40.01 40.97 41.80 42.43
46.51 46.82 47.45 47.66 47.11 46.44 47.73 47.59 45.66 46.53 46.20 45.32 44.61 44.09 43.96 43.59 42.76 41.73 40.00 38.01 35.71 36.66 37.65 37.36 40.80 40.26 39.80 38.80 36.59 34.52 35.71 33.59 33.44 33.80 34.87 35.56 35.96 36.60 37.12 37.74 38.81 39.86 40.94
46.03 45.68 46.54 46.35 45.24 47.11 45.85 46.92 46.53 45.95 45.64 45.55 45.19 44.68 43.83 44.10 43.02 42.38 41.35 39.88 37.33 33.05 34.02 37.37 36.23 38.98 38.51 37.68 35.93 35.71 35.07 33.40 33.11 33.47 33.40 33.86 34.84 35.62 36.05 36.54 37.47 37.77 38.44
45.40 45.39 45.62 43.60 45.31 45.75 46.01 45.15 44.68 45.78 44.83 45.17 44.55 43.67 43.21 42.91 42.06 41.62 40.73 40.03 39.13 36.70 32.43 36.90 36.39 36.77 36.62 35.05 35.08 34.57 33.61 32.60 32.60 32.17 32.53 32.91 33.44 34.44 34.71 35.25 35.73 35.78 36.32
43.67 43.74 42.05 44.52 43.64 42.89 44.21 44.22 44.17 43.80 43.60 43.60 42.63 41.99 41.65 41.83 41.35 41.01 40.84 39.97 38.50 37.26 33.49 35.27 35.71 35.64 34.33 33.95 34.01 33.75 33.17 32.98 33.70 32.25 31.76 31.98 32.32 32.99 33.01 33.14 33.51 33.88 34.45
43.82 42.65 43.29 42.56 43.29 42.45 43.23 42.99 42.51 41.92 41.65 41.25 41.57 41.21 41.00 40.56 40.77 41.23 40.00 38.61 37.68 37.53 34.50 32.01 34.36 33.07 32.56 33.49 32.47 31.36 31.31 32.15 32.43 31.51 31.09 31.53 31.78 32.01 32.32 32.70 32.96 33.28 33.62
42.49 43.18 43.64 43.22 42.90 42.85 42.92 42.19 41.27 41.40 41.03 41.33 41.58 41.06 40.93 40.73 40.12 39.89 38.98 37.91 37.25 35.03 34.27 32.15 31.58 32.76 32.08 32.28 30.85 31.04 31.18 31.38 31.43 30.92 30.69 30.69 31.16 31.78 32.10 32.39 32.75 33.07 33.29
41.94 43.00 43.26 43.31 42.56 42.13 41.54 41.00 41.50 41.63 41.06 41.13 41.05 40.63 40.55 39.95 39.79 39.75 38.53 37.27 35.83 33.92 33.32 31.58 30.78 30.44 30.84 31.10 29.72 28.31 28.05 30.33 29.67 30.91 31.05 31.01 31.10 31.64 31.84 32.12 32.28 32.55 32.96
41.23 41.19 40.55 41.71 41.87 41.17 42.15 41.44 41.07 41.13 40.92 40.68 40.59 40.00 40.06 39.93 38.52 38.80 37.18 36.97 34.77 32.99 32.11 30.95 29.73 29.45 29.08 28.57 26.80 28.39 26.90 28.17 29.50 31.07 30.72 31.50 32.04 32.59 33.62 32.87 32.94 32.50 32.35
39.95 41.57 40.27 41.68 43.29 42.55 38.64 37.88 38.17 40.57 40.01 39.52 39.31 40.07 39.85 37.13 37.19 35.29 33.98 33.15 34.16 33.24 31.30 30.38 29.24 27.88 28.17 27.95 28.16 27.21 26.62 25.39 23.99 31.69 28.92 28.49 31.86 31.29 32.91 34.03 32.20 31.79 32.12
40.49 41.60 42.48 42.35 41.78 42.59 37.51 37.23 36.57 39.28 39.29 39.58 39.56 39.39 38.46 36.63 35.70 36.72 34.42 33.71 31.41 29.83 30.43 31.89 28.67 28.66 28.00 28.06 27.94 26.60 26.79 26.24 25.86 28.43 28.03 26.17 30.84 30.19 33.08 32.91 32.64 32.02 32.10
41.75 41.50 40.96 41.95 41.76 38.93 36.32 36.30 35.51 38.62 39.01 39.12 39.11 38.90 38.49 37.72 35.95 35.44 34.36 33.76 33.51 32.99 31.77 30.23 30.72 30.59 30.15 29.56 29.03 28.01 27.14 27.32 28.09 28.96 29.61 23.71 29.75 29.18 31.85 33.08 32.98 32.29 32.18
40.95 41.57 42.12 40.25 37.69 37.87 37.43 35.44 35.10 37.63 37.41 37.52 37.89 37.45 37.25 37.18 35.17 32.41 32.51 31.55 31.51 31.36 30.32 29.37 29.14 29.39 27.86 27.81 29.19 29.32 26.50 25.42 23.79 25.78 29.21 26.98 28.10 27.74 30.04 31.41 34.07 31.94 31.93
41.38 40.00 37.63 37.58 37.36 39.76 36.14 34.60 34.97 37.10 36.01 36.02 36.79 35.54 32.74 35.04 33.29 31.72 32.54 31.47 29.20 30.70 30.68 29.52 29.92 29.38 29.27 30.05 29.01 29.73 28.66 24.87 24.15 23.34 29.00 24.74 25.71 26.14 24.76 31.16 32.00 33.75 34.29

GFSMA_sfc_wetblb_030.txt.gz
Wetbulb
63.88 63.56 62.21 61.50 61.40 60.99 60.53 60.06 59.51 58.54 57.84 57.34 56.98 56.22 55.45 55.45 55.69 55.61 57.43 57.77 58.89 59.53 60.11 59.20 58.35 57.02 55.76 54.65 54.06 54.42 53.63 53.27 52.78 52.57 52.51 52.32 51.64 51.24 50.76 50.70 50.43 50.68 50.98
63.64 61.81 61.12 60.94 60.14 60.92 60.64 59.92 58.88 58.20 57.62 57.14 55.86 55.11 54.17 54.31 54.32 54.66 55.75 56.78 55.89 57.32 56.99 57.05 57.01 56.85 55.38 53.75 52.85 52.72 52.32 51.87 51.76 51.83 51.80 51.69 51.40 51.16 50.56 49.95 49.72 49.65 49.87
62.82 62.50 61.56 60.88 60.58 60.60 59.74 59.27 58.63 57.94 57.28 56.01 54.21 53.96 54.38 54.17 53.65 54.17 55.14 55.11 55.36 53.53 53.32 53.49 52.90 52.01 51.66 51.46 51.16 50.91 51.15 51.39 51.10 51.37 51.30 50.85 50.83 50.50 49.62 49.22 48.60 48.60 48.77
63.10 62.50 61.54 60.77 60.29 59.80 59.08 58.77 58.30 57.36 56.75 55.95 54.68 54.30 54.57 54.01 53.63 53.44 54.43 54.88 55.08 53.93 51.17 49.92 50.33 49.77 49.81 50.03 49.96 50.02 50.07 49.82 50.15 50.42 50.55 50.70 50.16 49.90 48.76 48.90 48.58 48.24 48.52
62.46 62.41 61.27 60.33 60.12 58.92 58.75 58.02 57.48 57.74 54.44 54.57 53.88 53.02 52.85 52.14 51.59 51.19 51.37 51.64 51.40 52.34 51.62 46.92 47.45 47.58 47.48 47.04 47.03 47.34 48.19 49.04 49.25 49.49 49.83 50.18 50.21 50.22 49.51 49.19 48.26 48.16 48.34
61.70 61.73 60.83 59.76 59.33 58.22 57.64 57.33 55.45 55.35 55.34 54.43 50.19 50.67 51.46 51.43 51.54 51.19 50.33 50.07 51.18 51.21 50.28 49.14 49.65 48.14 45.18 45.21 45.07 45.45 46.58 47.40 47.93 47.99 48.01 48.19 48.15 48.14 48.29 48.27 48.07 48.11 48.27
61.15 61.24 60.03 59.08 58.69 57.79 57.24 56.37 54.30 52.48 52.35 53.69 51.37 50.70 50.36 50.07 49.64 49.84 50.06 49.88 48.79 49.06 49.58 48.96 48.17 47.54 47.46 43.81 43.25 44.10 44.58 45.46 45.97 46.71 46.62 46.87 46.97 47.11 47.23 47.65 47.85 47.74 47.88
61.10 60.43 59.64 58.37 58.17 56.91 55.72 54.44 52.95 51.54 52.56 52.22 50.91 50.45 49.28 49.26 48.61 48.47 48.95 48.13 48.52 48.57 47.58 46.97 46.68 46.07 46.02 46.01 44.94 41.64 42.59 43.82 44.93 45.78 45.58 45.61 45.90 46.19 46.54 46.92 47.38 47.64 47.60
60.72 59.69 59.04 58.15 57.38 56.20 53.97 53.65 53.01 51.25 50.30 51.25 51.38 48.28 47.94 46.01 48.48 48.90 47.48 47.60 47.37 47.28 47.40 46.68 46.11 45.58 45.56 45.68 44.37 44.34 42.01 41.98 42.91 43.85 44.29 44.44 44.67 44.85 45.21 45.74 46.13 46.54 46.87
59.58 58.53 58.06 57.35 56.04 53.80 52.61 52.02 51.87 52.08 51.56 48.78 49.53 49.71 49.93 47.56 43.59 43.12 46.78 46.74 46.92 45.90 46.72 46.37 46.26 45.95 45.52 45.65 43.58 41.58 39.94 40.04 40.55 42.02 42.65 43.15 43.66 44.03 44.31 44.64 44.95 45.52 46.02
56.69 57.07 56.13 54.96 53.58 52.61 52.23 51.71 51.66 51.06 51.75 50.65 49.04 50.13 47.98 47.14 46.24 43.04 41.54 43.78 45.61 45.81 46.19 46.14 46.02 45.43 45.43 45.17 45.03 43.27 38.40 38.46 38.61 39.55 40.01 40.74 41.60 42.18 42.70 43.25 43.64 44.15 44.48
52.81 53.49 53.50 53.55 53.13 51.94 51.24 51.57 50.11 50.33 51.25 49.62 50.09 48.33 46.16 45.19 44.92 43.56 41.78 42.32 42.21 43.93 45.37 45.18 45.03 45.08 45.27 44.79 42.93 36.52 38.16 37.70 37.12 37.23 37.77 38.45 39.45 40.32 40.99 41.67 42.01 42.50 42.97
50.54 52.77 52.28 51.25 49.05 49.81 50.91 49.98 48.51 48.18 48.79 49.58 48.27 47.37 47.95 46.52 45.77 44.20 42.44 41.48 40.88 43.14 43.38 44.35 44.58 44.69 43.95 43.88 43.10 37.46 38.29 37.88 35.90 35.77 36.25 36.90 37.70 38.52 39.08 39.68 40.38 41.06 41.78
49.17 51.10 47.70 49.24 49.65 49.18 49.24 47.80 48.29 48.13 50.19 49.06 48.48 48.13 46.96 46.51 46.10 44.87 43.04 41.32 39.09 40.13 41.78 42.11 44.56 44.21 43.64 43.20 41.22 37.51 39.43 38.47 36.29 34.88 34.95 35.60 36.00 36.61 37.23 37.91 38.48 39.33 40.19
50.96 49.10 48.12 47.90 49.14 48.70 47.89 47.66 48.03 49.39 47.82 48.89 48.67 48.12 46.62 46.02 46.39 45.81 44.70 43.50 40.11 36.18 37.32 40.86 40.44 43.14 42.84 42.12 41.19 39.89 39.02 37.91 35.26 34.20 34.04 34.15 34.89 35.53 35.78 36.36 37.13 37.50 38.20
52.06 50.39 48.29 47.57 46.19 46.52 47.16 47.95 48.90 47.91 47.98 47.92 47.97 46.98 45.90 45.54 45.09 45.21 44.19 43.56 42.38 39.75 36.37 40.61 40.83 41.78 41.69 40.24 40.25 38.81 38.44 36.42 35.76 35.30 33.97 33.65 33.67 33.98 34.28 34.87 35.38 35.81 36.07
52.36 48.81 45.72 45.06 44.78 46.74 48.05 47.06 46.61 46.81 45.40 45.47 46.77 45.52 45.17 44.78 43.93 44.07 44.03 43.19 42.18 41.26 37.76 39.75 41.17 41.45 40.03 39.00 38.71 39.07 38.22 37.06 36.91 36.01 34.33 33.34 32.64 32.49 33.11 33.56 33.75 34.36 34.76
47.83 44.76 44.91 44.49 44.89 47.64 46.97 44.74 45.06 43.87 43.16 43.41 44.42 44.94 43.99 43.49 43.96 44.38 43.85 42.68 42.20 42.00 39.70 37.25 39.50 39.09 39.12 39.10 38.00 36.76 35.96 35.96 36.56 35.93 33.83 32.81 32.32 32.17 32.49 33.01 33.12 33.49 33.84
45.07 45.56 44.44 43.16 44.06 43.83 44.71 44.10 43.73 42.34 43.12 43.83 44.80 44.28 43.94 44.16 43.62 43.90 43.49 42.57 42.29 41.09 40.69 38.10 37.05 38.84 38.52 37.99 36.62 36.27 35.49 35.89 35.85 35.24 34.54 34.18 32.81 32.55 32.65 32.76 33.05 33.35 33.80
46.52 44.59 44.06 44.55 43.09 44.60 44.37 42.72 43.28 44.30 45.26 44.88 43.74 44.55 44.48 44.17 43.71 43.74 43.23 42.78 41.84 40.60 40.14 38.01 36.81 36.54 36.69 36.86 35.83 33.48 32.91 34.77 34.03 34.90 34.97 34.46 33.32 33.30 33.50 33.33 33.29 33.74 33.88
46.23 43.14 42.81 42.39 44.28 43.04 44.52 44.29 44.04 42.98 44.48 43.90 44.55 44.58 44.67 43.72 41.33 41.79 42.66 42.08 41.63 39.67 38.89 37.02 35.89 35.66 34.66 34.07 33.00 33.72 31.68 32.97 33.70 34.79 33.98 34.64 34.75 34.85 35.83 35.34 34.96 34.65 33.45
42.70 41.42 42.23 41.65 43.82 43.82 39.29 39.02 39.78 42.66 43.45 42.91 43.00 43.49 44.22 42.18 41.01 38.10 37.80 37.25 38.75 40.03 37.76 36.42 35.70 33.70 33.53 33.84 34.07 32.23 31.34 30.06 28.39 35.38 32.59 31.82 34.46 33.51 35.03 36.19 34.96 33.75 33.44
41.49 40.74 42.20 42.98 42.74 43.62 39.81 38.35 37.03 39.68 41.22 42.93 42.57 42.40 42.11 42.46 40.68 42.23 37.47 35.19 33.72 32.85 33.31 37.10 35.20 34.47 33.45 34.28 33.76 31.32 31.16 30.56 29.76 32.46 31.95 29.74 33.69 32.24 35.18 35.61 34.88 34.17 34.01
42.25 43.18 42.95 43.05 42.46 43.00 38.34 36.84 36.41 39.28 42.39 41.97 41.95 41.73 41.44 41.59 42.11 41.43 41.01 39.61 37.89 38.39 35.65 34.17 35.25 35.59 35.54 35.42 33.87 32.36 31.59 31.42 32.25 33.29 33.47 28.03 32.63 31.62 34.13 35.21 34.74 34.88 32.70
44.53 43.24 42.49 42.85 41.88 43.40 37.68 37.69 38.02 41.29 40.13 40.14 40.84 41.21 41.25 40.87 38.76 37.23 39.00 38.33 38.40 38.11 35.67 34.38 33.65 32.43 30.38 29.44 29.68 31.45 29.64 28.89 28.26 30.20 32.92 30.42 30.72 30.08 31.90 32.89 35.43 34.38 34.12
43.62 42.40 40.69 39.50 37.65 38.73 38.82 37.79 37.03 39.84 38.43 38.99 40.15 40.23 36.61 37.57 36.09 34.67 37.74 37.70 36.05 37.20 37.16 34.94 33.12 31.65 30.93 32.21 29.65 31.12 31.18 28.33 28.51 27.74 32.13 29.07 29.46 29.12 26.53 31.86 33.26 34.09 34.89

GFSMA_sfc_wetblb_033.txt.gz
Wetbulb
65.19 64.30 64.53 63.80 63.04 62.82 61.89 61.43 60.68 59.42 59.05 58.40 57.56 56.55 55.31 55.71 55.73 55.67 57.40 57.80 59.37 60.06 60.78 59.48 58.76 57.87 56.13 54.67 54.71 54.26 53.58 52.95 52.84 52.54 52.53 52.49 51.84 51.53 51.55 51.05 50.62 50.26 50.44
65.36 63.74 63.24 62.74 62.77 62.64 62.41 61.33 59.99 59.10 58.50 57.74 56.49 55.11 54.54 54.81 54.71 55.48 56.37 56.40 57.30 58.21 58.09 58.03 58.16 57.16 55.63 53.91 52.94 52.33 51.95 51.76 51.93 52.20 52.18 51.74 52.02 51.61 51.23 50.25 49.72 49.48 49.74
65.16 64.50 63.52 62.69 62.46 62.84 62.03 60.75 59.76 59.13 57.80 56.55 54.81 54.64 54.70 54.31 54.11 54.67 55.04 55.75 55.39 55.01 54.54 54.08 53.43 52.81 52.21 51.88 51.64 51.22 51.04 50.99 50.98 51.16 51.27 51.29 51.51 51.12 50.86 49.64 49.80 49.72 49.31
65.16 64.59 63.22 62.84 62.72 62.06 61.01 59.54 58.89 57.71 56.68 55.87 55.01 54.67 54.73 54.38 53.91 53.61 54.08 54.08 54.60 54.33 51.97 51.57 50.68 50.28 50.05 49.40 48.95 48.88 48.86 49.11 49.73 50.27 50.29 50.67 51.01 51.11 51.07 50.68 50.47 49.97 49.22
64.94 64.43 63.67 63.06 62.39 61.34 60.25 59.39 58.59 57.75 55.36 54.61 54.34 54.58 54.52 54.08 53.61 52.50 52.19 52.42 52.17 51.43 51.82 49.16 48.77 47.88 46.98 46.45 46.43 47.06 47.96 48.31 48.57 48.85 48.93 48.84 48.92 49.13 49.23 49.34 49.51 49.55 49.14
64.65 64.38 63.59 62.52 61.77 60.50 59.59 58.91 58.03 55.81 55.59 55.04 52.16 51.84 53.52 53.50 53.19 52.66 51.74 51.39 51.41 51.18 50.71 50.42 49.61 48.47 47.05 45.92 43.85 44.54 45.94 46.61 46.79 46.89 47.27 47.41 47.69 47.69 47.97 48.01 48.18 48.56 48.84
64.35 63.92 63.03 62.05 61.38 60.07 59.28 58.82 56.38 54.74 53.12 53.76 53.02 53.51 53.40 53.06 52.45 51.79 51.67 50.98 50.49 50.06 50.31 49.25 48.68 48.34 47.07 45.19 44.60 43.98 43.02 44.76 45.61 46.23 46.69 46.58 46.67 46.85 47.08 47.39 47.68 48.03 48.57
64.12 63.40 62.96 61.30 60.68 59.48 58.94 57.61 55.84 53.83 53.55 53.99 52.81 52.72 50.60 50.73 51.29 51.20 51.08 50.15 50.03 49.76 49.19 48.60 48.13 47.37 46.98 46.71 46.44 43.55 42.81 42.97 44.36 45.36 45.83 45.46 45.61 45.60 45.78 46.10 46.38 46.77 47.26
63.91 63.08 62.67 61.72 60.86 59.86 57.68 56.85 55.44 53.76 51.63 52.93 53.75 51.31 49.21 48.04 49.39 50.95 49.86 49.69 49.62 48.90 49.20 48.41 48.20 47.42 47.06 46.50 46.01 45.67 42.97 41.82 42.00 43.21 43.94 44.06 44.10 44.25 44.71 45.04 45.37 45.83 46.36
63.64 62.77 62.25 61.62 60.32 59.09 57.91 56.25 54.87 54.03 53.04 51.68 53.82 52.52 52.58 50.90 45.59 44.93 49.12 49.04 49.06 48.08 48.37 48.05 47.64 47.38 47.28 46.76 46.92 43.53 41.46 39.94 39.39 40.76 42.18 42.36 42.43 42.66 43.05 43.47 44.05 44.41 44.90
63.15 62.35 61.70 60.86 59.51 57.94 56.87 56.12 54.07 53.16 53.43 51.02 50.85 49.57 51.56 49.92 48.89 45.02 43.10 46.23 47.84 47.67 47.63 47.40 47.37 46.95 46.65 46.27 46.07 42.03 39.69 37.95 38.28 39.73 40.26 40.65 41.06 41.33 41.76 42.29 42.88 43.24 43.68
60.57 60.82 59.60 58.50 56.90 54.16 53.90 53.85 53.40 51.74 50.46 51.39 49.95 50.79 49.16 47.08 46.87 46.33 44.51 44.60 44.37 46.27 47.15 47.10 46.46 46.07 46.21 45.91 45.74 40.68 38.81 38.00 38.62 38.83 38.58 39.30 39.55 39.93 40.66 41.28 41.84 42.21 42.66
55.77 54.91 54.45 53.85 52.22 51.29 49.72 49.98 49.91 49.39 49.44 49.26 50.50 50.03 49.14 48.80 48.62 46.42 44.33 42.96 42.21 44.72 45.10 46.30 46.04 45.79 45.42 45.61 44.90 39.65 40.38 40.14 39.70 37.83 37.97 37.75 37.98 38.51 39.12 39.68 40.35 40.93 41.41
52.14 53.66 51.86 52.97 51.01 48.88 49.84 50.33 49.29 48.13 48.71 49.70 50.27 49.53 48.99 48.55 47.98 46.62 44.43 42.55 40.36 41.37 42.57 43.20 45.87 45.97 45.69 45.31 42.72 39.97 41.69 41.12 39.81 37.82 36.28 36.63 36.63 37.03 37.45 37.88 38.43 39.01 39.64
54.31 53.58 53.71 51.96 49.43 48.95 48.31 47.70 47.46 48.53 47.45 50.56 49.86 49.04 48.40 47.78 47.64 47.33 46.29 44.56 41.17 36.91 37.90 41.73 41.77 45.46 44.71 44.52 43.54 42.37 41.21 40.79 39.81 38.07 37.08 36.03 36.08 36.10 36.21 36.33 36.65 37.11 37.81
54.42 53.45 52.39 50.32 49.57 49.17 47.31 47.59 47.57 47.51 48.28 47.82 48.78 48.02 47.82 47.94 47.21 46.20 45.14 44.51 43.30 40.59 36.88 41.39 41.99 43.73 43.86 42.61 43.10 41.61 40.80 41.06 39.32 38.71 37.91 36.59 35.23 35.20 35.00 35.07 35.25 35.67 36.09
54.30 53.44 51.97 51.04 48.69 46.95 45.61 45.89 47.67 47.73 47.20 47.45 47.18 46.18 46.78 47.22 45.97 44.95 44.57 44.01 42.57 41.99 39.00 41.03 42.42 44.00 42.81 42.03 41.89 42.01 41.08 39.56 39.14 38.68 37.85 36.71 35.20 34.15 34.00 33.90 33.83 34.31 34.97
56.27 53.90 52.57 49.12 46.79 45.35 46.01 46.91 45.71 45.58 46.33 44.84 45.11 45.78 45.84 45.81 45.12 44.88 43.95 43.89 43.01 43.50 41.12 38.99 41.70 41.62 41.55 42.09 42.01 39.97 38.60 38.70 37.87 37.89 38.22 35.74 35.40 34.73 33.93 33.64 33.60 33.80 34.01
52.71 49.95 47.40 45.79 45.33 45.30 45.60 46.06 46.16 45.66 45.29 44.51 44.49 46.02 45.72 45.87 44.72 44.54 44.50 43.62 43.29 42.79 43.00 40.79 39.56 41.92 40.83 41.18 39.84 39.40 38.35 37.77 37.33 38.61 37.72 36.89 36.31 35.55 34.54 34.69 34.22 34.33 34.34
46.75 45.71 45.96 44.83 44.16 44.83 44.79 44.15 44.18 44.69 44.28 44.31 45.33 46.31 45.17 44.88 44.83 44.51 44.20 44.16 43.35 42.86 42.57 40.66 39.95 39.93 39.68 40.48 38.97 36.02 35.61 37.23 35.37 36.35 36.96 36.15 36.22 36.10 36.09 35.98 35.57 34.88 34.83
49.22 47.15 44.38 43.51 43.29 43.96 43.90 44.13 44.49 44.22 43.27 43.61 45.13 45.34 45.54 44.79 42.01 41.97 43.23 43.75 43.59 42.19 41.20 40.03 38.87 38.65 37.73 37.68 35.82 36.29 34.29 34.49 34.86 36.12 35.40 35.27 35.52 35.55 36.34 36.61 36.92 36.78 36.01
47.89 45.55 43.77 44.63 43.07 43.24 39.96 40.17 42.62 43.86 42.69 42.65 42.64 43.71 44.84 42.67 42.86 38.81 39.19 38.60 40.50 41.48 40.62 39.75 39.01 37.45 37.39 37.26 37.11 35.52 33.90 31.53 28.96 36.22 33.96 32.92 35.37 34.23 35.68 36.46 35.91 34.46 34.64
45.39 43.36 42.87 42.64 42.73 44.09 39.34 39.18 37.88 41.05 39.62 39.95 40.46 41.65 42.72 43.52 41.58 43.49 40.61 37.04 37.06 36.27 36.33 39.21 38.88 38.69 37.75 37.82 36.68 34.43 33.11 31.75 31.00 33.47 33.04 31.13 34.65 33.21 35.56 35.42 35.93 35.13 35.19
43.76 43.90 43.87 44.29 44.82 44.32 39.31 38.40 36.84 39.02 38.98 40.28 42.58 43.02 42.33 42.41 42.48 41.40 42.03 41.50 42.26 42.62 40.88 38.28 37.70 39.82 39.94 38.66 36.72 35.19 33.71 32.31 32.66 33.60 34.74 29.51 33.67 32.35 33.92 35.12 34.98 35.66 35.24
45.61 45.05 45.09 44.15 43.14 43.21 38.36 37.29 37.47 39.86 41.23 40.99 41.41 41.56 41.31 40.96 39.27 38.28 39.45 39.32 40.12 40.85 39.50 37.15 36.83 35.41 31.78 31.18 31.32 34.53 30.67 29.07 29.25 29.90 34.18 31.42 31.50 31.26 32.80 32.94 34.83 33.12 34.22
44.38 44.65 42.95 42.19 39.35 41.67 39.51 37.62 37.89 39.37 38.04 38.77 39.41 40.11 37.51 38.42 36.17 35.79 38.58 38.25 36.94 39.25 39.19 38.91 37.37 34.54 32.87 33.32 30.51 32.08 31.38 28.43 28.76 28.52 33.09 30.40 29.98 29.74 27.18 31.98 33.13 33.99 34.82

GFSMA_sfc_wetblb_036.txt.gz
Wetbulb
62.73 62.06 61.45 60.77 59.18 59.83 59.48 58.91 57.46 56.41 55.45 55.09 54.19 53.12 52.66 51.85 51.73 54.27 54.72 59.13 60.18 61.90 60.93 60.09 59.70 57.97 56.55 55.37 55.48 54.36 53.36 52.63 52.57 52.67 52.72 52.31 52.27 52.33 51.85 51.50 50.50 50.35 50.50
62.41 62.26 62.14 61.47 60.72 60.18 59.91 58.61 57.07 55.52 54.99 54.08 52.89 51.75 51.60 51.28 51.12 52.86 53.00 55.04 58.18 59.54 59.85 59.20 58.68 57.64 56.16 54.49 53.27 52.15 51.88 52.25 51.62 51.66 51.80 51.61 51.61 51.76 51.85 50.99 50.25 50.59 50.61
61.95 62.30 60.76 60.87 60.57 60.23 59.44 57.57 55.91 55.17 53.71 53.10 51.72 51.27 51.31 50.59 50.65 51.02 52.83 53.24 53.81 56.34 56.42 55.41 54.87 54.11 53.33 52.90 52.13 51.22 50.56 50.13 50.13 50.36 50.87 51.21 51.58 51.48 51.49 51.35 51.28 51.21 50.88
63.33 62.89 61.62 60.70 60.42 59.36 58.29 56.44 55.25 53.98 53.24 52.09 50.35 50.17 49.96 50.32 50.08 49.77 50.03 50.70 51.90 51.96 53.75 54.07 52.79 52.29 50.97 49.75 48.75 48.44 48.43 48.79 49.20 49.28 49.67 49.61 49.35 49.23 49.44 49.80 50.03 50.15 50.23
63.73 62.54 62.13 61.15 60.32 58.79 58.03 56.70 55.54 54.36 51.65 50.48 50.78 49.49 49.36 49.17 49.37 50.65 48.74 48.47 47.22 49.12 48.55 52.06 51.54 50.23 48.58 47.90 46.95 46.36 47.16 47.48 47.92 47.94 47.79 48.17 48.34 48.26 48.32 48.42 48.60 48.65 48.84
63.60 62.63 62.57 61.35 59.28 58.24 57.05 55.48 54.50 52.26 51.95 50.97 51.86 50.06 49.33 49.67 48.98 48.13 47.79 48.87 47.96 47.18 46.61 45.95 45.39 45.55 49.19 47.12 46.31 45.93 45.56 45.47 46.07 46.59 47.02 47.44 47.57 47.30 47.24 47.51 47.74 47.88 48.21
63.12 62.37 61.44 60.01 58.67 57.80 56.32 56.41 53.39 50.87 48.84 49.19 48.14 48.26 48.54 49.43 48.76 48.03 47.68 46.95 46.91 46.63 46.01 45.32 44.03 43.16 43.57 46.81 45.69 45.72 45.31 43.88 44.50 45.51 46.21 46.47 46.54 46.23 46.25 46.35 46.57 46.85 47.16
62.56 62.25 61.06 59.32 58.87 57.47 56.82 55.10 52.84 50.17 50.09 49.85 47.82 47.78 45.74 45.81 46.94 48.08 46.85 46.93 45.25 45.81 46.16 46.24 44.56 43.95 42.41 41.82 42.40 46.31 44.65 44.30 44.07 44.05 44.54 44.76 44.95 44.73 44.96 45.08 45.49 45.77 46.24
63.02 61.40 61.11 59.78 58.79 57.98 55.85 54.62 52.77 51.04 48.03 48.84 49.33 46.75 43.80 43.26 44.71 46.06 46.19 45.41 45.04 44.35 44.38 45.30 44.86 44.43 43.59 41.73 44.52 44.36 44.40 43.71 42.65 42.26 43.14 43.69 43.67 43.85 43.67 44.00 44.21 44.71 44.97
62.91 61.80 60.99 60.34 59.40 57.60 56.06 54.21 53.61 51.06 49.16 47.51 49.84 50.83 48.84 48.10 42.55 39.79 43.66 44.65 45.28 45.19 44.22 43.46 43.31 44.11 43.90 42.56 45.57 44.44 43.84 41.89 40.66 40.04 41.44 42.22 42.69 42.63 42.74 42.93 43.26 43.68 43.99
62.47 61.37 60.94 59.57 58.15 56.69 54.61 54.09 52.47 50.58 50.06 48.39 47.15 46.76 48.11 48.88 45.96 42.19 38.96 42.35 42.84 43.70 43.97 44.45 42.93 42.80 43.45 42.33 41.00 42.13 42.09 40.34 39.27 39.14 40.54 41.16 41.80 41.98 41.78 42.02 42.48 43.00 43.27
61.87 60.85 59.30 58.04 53.87 52.72 51.72 50.98 51.35 49.97 50.00 49.21 48.57 47.95 48.00 46.73 43.23 41.23 40.10 40.07 40.51 41.99 42.93 42.74 42.32 41.41 41.73 41.47 44.71 42.98 41.14 39.99 39.59 39.71 39.60 39.81 40.70 40.79 41.07 41.17 41.64 41.92 42.32
58.26 56.57 53.91 52.56 52.50 52.30 51.47 50.85 49.89 48.99 48.69 47.44 48.19 48.79 49.51 47.10 46.07 43.94 41.28 38.03 37.06 39.63 40.90 42.17 41.61 41.40 42.81 41.13 41.04 41.97 41.72 40.73 40.68 39.66 38.37 38.74 39.23 39.50 39.17 39.74 40.23 40.90 41.29
56.18 54.06 53.22 52.44 52.11 51.03 49.52 49.18 48.82 47.80 47.86 47.72 47.66 47.50 47.78 46.74 45.53 44.10 41.42 38.61 35.57 36.86 38.10 39.10 41.70 41.52 40.83 40.64 39.50 42.98 38.25 41.57 40.52 39.62 37.82 37.86 38.79 38.09 37.74 38.09 38.55 39.02 39.34
54.00 53.03 52.87 51.95 50.79 49.42 48.64 47.98 47.42 47.07 47.61 47.61 47.21 47.62 45.79 45.72 45.54 44.61 42.84 41.63 38.24 32.72 33.05 37.15 36.81 40.23 40.26 39.25 40.45 38.18 36.75 41.68 40.88 39.41 39.12 39.35 38.83 37.79 37.32 37.36 37.42 37.28 37.74
53.94 53.63 52.80 51.85 49.55 47.91 48.03 47.93 46.89 47.50 47.21 46.50 46.76 45.48 45.65 45.43 44.59 44.31 41.81 40.95 39.72 36.34 32.46 37.20 37.22 38.50 40.05 40.42 40.59 37.02 37.34 41.88 40.84 40.20 39.60 39.83 39.22 37.34 36.70 36.69 36.27 36.25 36.44
54.76 53.45 52.08 49.84 48.37 48.14 47.70 46.46 46.27 46.27 46.29 45.88 44.98 44.96 45.01 45.70 45.28 44.15 41.91 40.64 39.54 38.03 35.01 35.39 37.39 37.89 37.85 37.02 37.54 37.59 38.22 35.81 35.25 39.97 39.68 39.04 38.68 37.10 36.38 35.83 35.61 35.74 35.81
54.62 52.49 51.35 49.73 48.54 47.45 46.79 45.51 45.67 45.98 45.03 43.97 44.79 44.20 43.91 45.43 44.36 44.20 42.20 39.17 38.18 38.42 35.68 32.82 35.42 35.70 36.37 36.88 36.11 35.01 37.41 37.76 34.32 38.97 38.94 38.92 38.59 37.47 36.44 36.38 35.63 35.55 35.30
53.47 52.25 50.23 48.54 46.56 45.55 45.15 45.20 45.66 45.05 44.12 43.95 43.88 43.74 43.38 43.94 43.19 42.67 40.32 39.16 38.56 40.66 37.82 36.05 35.22 35.66 35.53 35.34 34.37 34.95 34.27 33.12 36.36 39.45 38.92 38.48 38.23 37.78 37.41 36.87 36.56 36.45 36.42
46.16 45.83 46.16 46.02 45.46 45.31 45.10 45.05 45.48 44.46 43.71 43.98 43.98 43.37 43.25 44.08 41.20 41.08 41.19 40.50 40.03 38.48 38.84 38.09 37.39 36.69 34.76 35.26 33.59 31.20 29.90 31.21 30.83 35.58 36.45 35.78 36.81 37.50 38.12 37.74 37.35 37.55 37.23
46.52 45.62 44.92 44.62 44.45 44.12 44.84 43.63 43.73 43.15 42.56 41.90 42.24 43.66 43.75 43.20 41.57 40.60 40.62 38.48 38.45 38.07 37.65 36.27 35.29 35.55 35.78 32.28 30.00 31.06 28.71 28.58 29.06 30.18 28.91 29.42 29.41 29.47 30.71 34.96 36.49 37.77 37.29
47.95 45.14 43.78 42.81 42.36 43.28 39.01 41.88 42.49 42.55 42.00 41.78 40.56 42.06 42.25 41.50 41.80 39.99 39.40 38.83 38.59 37.28 36.10 35.87 35.92 35.04 35.17 34.31 32.69 30.31 28.80 25.99 24.03 29.19 27.55 26.95 28.90 28.19 30.16 30.50 35.56 34.62 34.75
44.50 42.59 42.57 42.14 42.48 42.07 40.24 39.36 38.54 40.04 39.40 38.32 39.22 39.77 40.61 41.92 40.43 41.01 39.21 37.54 36.20 36.22 36.19 36.25 35.53 35.59 34.83 35.86 33.33 30.29 27.88 27.61 25.35 27.15 27.14 24.46 27.06 28.27 29.76 33.54 35.20 35.57 35.95
41.67 41.44 41.55 42.21 42.03 42.49 39.09 38.76 36.83 37.83 38.34 39.10 39.40 39.19 39.40 39.58 38.45 37.55 36.72 35.21 35.96 37.12 37.41 36.99 35.31 36.17 36.47 36.96 35.71 33.40 30.67 28.96 26.74 26.83 27.60 23.95 26.67 26.03 28.06 29.01 34.93 35.53 34.86
43.16 43.50 43.06 42.80 42.25 40.54 38.39 37.53 37.30 38.15 39.12 38.21 38.30 37.46 36.74 35.84 35.82 36.04 33.76 32.90 33.82 35.04 38.13 37.68 37.64 37.72 36.97 36.05 34.84 32.85 29.77 23.97 20.68 23.82 26.76 25.66 26.04 24.98 25.64 25.33 27.34 34.61 34.12
43.01 42.90 42.06 41.13 39.14 41.01 38.02 36.35 36.02 33.79 31.81 30.00 31.71 33.08 33.61 33.86 33.66 33.43 30.05 29.00 28.59 30.21 33.00 34.25 35.13 35.55 33.51 31.57 33.27 32.41 30.94 25.28 23.57 21.06 26.61 25.40 24.85 22.96 20.01 25.07 25.89 26.79 27.04

GFSMA_sfc_wetblb_039.txt.gz
Wetbulb
59.33 59.13 58.58 56.11 56.17 56.13 53.54 55.32 54.36 54.15 53.15 52.58 51.44 50.38 49.75 49.52 51.69 52.90 54.10 59.91 61.08 62.22 61.17 61.08 60.00 58.41 56.71 56.66 55.22 54.34 52.89 52.72 52.70 52.71 52.36 52.05 52.03 52.14 52.41 51.38 50.55 50.92 51.04
60.12 59.44 59.70 58.04 57.13 57.18 56.88 55.70 54.80 53.50 52.23 50.91 49.31 49.41 49.01 48.71 51.48 52.29 53.17 55.60 59.98 60.96 60.72 60.41 59.24 58.04 56.32 55.33 53.73 52.32 52.30 51.72 51.32 51.41 51.50 51.78 52.06 51.84 51.68 51.54 51.44 51.42 51.21
60.47 60.81 59.31 58.46 58.12 57.45 57.03 55.75 53.97 52.62 51.10 51.11 48.97 49.16 48.80 48.48 48.69 50.85 52.57 52.65 54.60 58.18 58.88 59.48 57.84 56.57 55.17 53.70 52.58 51.10 50.06 49.79 50.04 50.35 50.38 50.37 50.36 49.70 49.83 50.00 50.16 50.34 50.48
60.05 59.76 58.53 58.56 58.23 57.54 55.16 53.34 52.35 51.26 49.86 48.53 47.34 47.40 48.06 47.80 48.05 48.28 51.21 51.21 50.79 52.13 55.29 56.41 55.33 54.25 53.68 52.32 50.50 49.05 48.74 48.91 48.88 49.41 48.83 48.64 48.71 48.98 48.67 48.61 48.77 48.90 49.06
60.62 60.32 59.14 59.10 58.11 56.36 55.28 54.33 52.57 51.52 49.45 47.74 47.69 46.97 46.49 46.77 47.06 49.17 46.66 49.70 49.47 48.81 48.31 54.30 54.30 53.40 51.10 49.65 48.44 47.88 47.56 47.59 47.65 47.52 47.51 47.83 48.08 48.00 47.98 47.79 47.63 48.00 48.06
61.72 60.51 59.95 59.59 57.18 55.76 55.00 53.54 51.97 50.42 48.76 47.88 50.29 48.03 45.80 46.63 46.36 45.06 45.44 46.94 45.69 48.18 46.51 46.39 46.68 46.74 50.70 49.12 47.73 47.36 47.34 46.74 46.12 46.14 47.09 47.17 47.26 47.08 46.79 46.73 46.77 47.03 47.11
62.07 59.78 59.09 57.63 57.35 55.81 54.48 52.68 51.77 48.31 46.70 46.56 45.56 44.89 44.84 45.77 45.70 45.29 45.02 44.54 45.33 44.87 44.11 43.61 42.56 41.81 45.21 48.59 47.60 47.61 47.54 46.05 44.97 45.71 45.21 45.34 45.45 45.51 45.42 45.59 45.73 45.90 46.32
61.51 60.46 58.67 56.63 55.90 55.53 54.33 52.78 49.96 47.47 46.71 45.90 44.47 44.99 43.02 43.81 44.95 45.77 44.93 45.02 43.57 43.91 44.26 44.01 42.90 42.06 41.00 40.87 42.03 48.06 47.58 45.78 45.80 44.85 43.85 43.57 44.11 44.26 44.65 44.58 44.82 45.03 45.18
58.64 60.40 58.88 57.11 56.01 55.58 54.28 51.94 49.66 48.61 45.95 45.99 46.56 45.34 42.03 41.15 41.96 43.87 45.91 44.01 42.68 42.30 43.13 43.67 43.23 42.72 41.65 39.82 44.12 45.77 47.27 46.35 45.87 44.22 43.10 42.91 43.36 43.75 43.96 44.00 43.96 44.21 44.42
59.87 60.53 59.39 58.25 57.22 56.17 54.68 52.47 52.02 50.38 48.58 45.88 47.52 49.20 47.11 46.37 41.10 39.26 44.34 44.36 42.73 42.46 41.99 42.12 42.09 42.70 41.85 40.20 43.84 44.54 46.32 45.91 44.49 43.90 42.58 42.42 42.73 42.96 43.20 43.27 43.18 43.46 43.93
60.77 60.48 58.98 57.92 56.73 55.78 54.68 54.03 51.73 50.23 50.61 49.65 47.84 46.98 48.02 47.92 46.24 43.01 39.43 40.95 41.53 42.48 42.69 42.51 41.77 40.82 41.73 40.92 40.10 43.58 45.66 43.95 43.24 42.98 42.20 42.05 41.84 41.98 42.25 42.78 42.76 42.68 43.10
60.48 60.15 59.50 58.48 56.84 52.08 51.36 51.58 51.69 50.73 50.11 49.91 48.69 48.09 47.69 47.05 45.78 43.77 40.11 38.54 39.75 41.49 41.77 41.44 41.03 40.33 40.31 39.87 43.01 45.27 44.73 43.13 42.43 42.12 42.14 41.59 41.11 41.33 41.60 41.78 41.50 41.79 42.02
57.46 58.63 57.09 54.67 52.44 52.15 52.33 52.14 50.29 48.19 48.36 48.33 48.24 48.64 49.39 48.91 48.55 45.72 43.04 37.28 36.12 36.96 39.76 39.85 40.29 39.85 41.23 39.43 41.00 44.44 44.37 42.08 42.01 42.16 41.62 40.83 40.64 40.44 40.77 40.28 40.33 40.58 40.84
59.37 56.26 53.24 52.89 51.69 52.52 51.13 49.83 48.61 47.78 48.10 48.10 47.58 48.11 48.58 48.44 47.84 44.48 41.99 39.35 34.28 34.91 36.51 39.07 41.52 40.91 38.41 37.93 40.72 44.58 41.12 41.86 41.76 42.14 41.47 40.53 40.13 39.94 39.81 38.96 38.98 39.28 39.48
56.06 54.27 53.09 51.30 50.14 48.88 48.55 47.24 47.03 47.72 47.67 47.58 47.30 47.40 47.23 47.51 45.34 44.24 43.43 40.79 36.56 31.48 31.96 36.33 37.24 39.48 39.20 38.58 39.48 40.61 37.02 41.98 42.00 41.43 40.82 40.54 40.19 40.21 39.45 38.78 38.66 38.40 38.35
55.35 53.50 53.54 52.55 51.39 48.61 47.10 47.82 47.38 47.63 47.24 47.08 47.10 46.54 45.96 45.63 45.04 44.37 42.68 39.95 39.20 35.71 31.96 34.80 35.73 36.58 37.31 39.66 39.05 37.55 36.18 41.65 41.90 40.74 40.19 40.41 40.87 40.56 39.45 38.58 38.06 37.86 37.59
54.30 53.48 54.01 52.00 48.32 47.29 47.93 47.20 46.71 47.44 46.12 46.01 45.85 45.14 44.55 45.09 44.12 44.06 42.21 41.14 39.01 38.01 32.63 33.30 35.11 36.01 34.69 35.30 36.45 36.78 36.66 36.74 36.40 41.08 40.37 40.31 40.03 39.95 39.62 38.74 37.92 37.37 37.17
54.22 54.20 52.83 50.72 48.97 48.12 47.27 46.41 45.82 46.02 45.22 44.87 44.68 44.26 43.80 44.84 43.41 43.62 43.06 40.65 38.14 36.87 34.50 32.33 33.00 34.04 34.50 35.15 35.08 33.48 36.71 37.95 35.33 38.79 40.48 39.98 39.48 39.04 38.72 37.99 37.72 37.53 36.99
53.80 52.28 50.39 49.03 47.66 47.15 46.14 46.02 45.74 45.47 45.36 44.67 44.11 43.57 43.22 42.70 42.12 41.49 40.38 38.87 39.72 40.26 37.62 34.00 33.47 33.89 34.13 35.01 35.33 34.67 34.51 33.93 35.06 38.69 39.29 38.71 38.96 39.24 39.09 38.22 37.92 37.71 37.88
50.73 50.56 49.21 47.89 47.06 46.00 45.90 45.20 45.19 44.61 43.75 44.00 43.91 43.05 42.67 42.28 42.13 41.99 39.76 37.79 37.90 36.58 36.72 37.36 38.05 37.68 35.34 36.00 35.73 34.31 33.18 32.58 33.21 35.74 37.14 35.05 36.44 37.88 38.52 38.71 38.44 38.38 38.20
47.25 46.30 45.59 45.43 45.49 44.98 44.88 44.69 44.82 44.03 42.96 42.52 42.53 42.89 43.11 42.75 41.50 40.36 40.37 39.61 39.10 37.58 37.50 37.73 37.39 37.56 36.22 34.83 32.97 36.34 33.30 36.04 30.30 29.82 27.98 28.27 28.44 28.56 29.49 34.60 35.51 37.08 37.18
45.44 44.83 44.13 44.13 43.67 44.17 40.17 40.66 42.73 42.58 41.82 41.04 40.64 40.39 40.49 41.41 41.22 39.40 39.35 38.75 38.14 36.60 35.09 34.23 34.51 33.61 34.27 33.17 34.01 32.92 32.18 29.66 29.51 28.82 26.87 26.20 29.44 27.12 28.22 28.38 33.72 35.23 35.74
41.65 40.45 40.16 39.70 39.34 39.23 39.25 39.59 39.33 40.01 38.53 36.86 36.04 37.02 40.05 40.97 38.53 38.11 35.42 34.94 34.32 35.26 35.34 33.91 33.12 33.56 33.66 34.62 35.15 33.52 29.73 31.71 30.83 29.99 29.25 25.75 27.92 25.39 27.63 31.92 35.22 35.61 35.52
39.19 38.99 39.30 40.32 39.60 39.33 38.36 38.17 36.93 36.36 35.91 38.05 39.20 39.04 36.26 34.86 33.54 33.16 31.43 29.82 30.20 31.52 32.46 33.63 33.12 33.45 33.91 34.82 34.57 35.33 34.87 33.92 29.93 30.14 28.97 26.64 26.40 23.94 26.52 27.47 33.77 35.55 35.14
38.81 38.84 39.56 39.25 39.12 38.79 38.51 36.80 36.59 36.85 38.81 34.72 33.86 32.27 31.64 30.24 33.46 32.63 28.38 26.48 26.08 25.79 30.01 31.47 32.22 33.02 33.63 33.61 34.63 34.34 33.49 30.45 29.38 26.27 27.45 28.02 24.76 23.98 24.41 24.48 26.10 33.09 34.43
40.15 41.59 40.49 40.67 38.40 38.84 36.37 36.49 34.75 29.38 27.40 26.31 27.61 29.41 30.71 30.15 31.42 30.45 26.34 24.51 23.68 24.38 25.54 26.71 27.72 28.94 30.48 30.52 33.23 33.43 33.76 31.50 30.19 24.94 26.00 26.35 23.42 22.63 19.58 23.17 24.33 24.92 24.54

GFSMA_sfc_wetblb_042.txt.gz
Wetbulb
56.89 56.49 56.34 55.36 53.59 52.96 52.32 54.07 53.15 52.80 52.00 51.03 49.68 49.76 50.45 50.10 51.21 52.74 53.67 59.41 61.52 61.98 61.46 61.09 59.74 57.73 57.61 56.56 55.20 53.85 53.24 53.28 52.81 52.55 52.33 52.45 53.17 52.69 52.32 52.01 51.62 51.56 51.48
57.00 56.59 56.61 54.11 53.48 53.78 52.58 54.59 52.93 52.03 50.46 48.89 48.78 48.94 49.07 50.79 51.08 52.47 53.57 56.97 60.73 61.39 61.32 60.73 59.81 58.23 56.70 55.95 54.08 52.69 52.68 51.78 51.18 51.23 51.39 51.42 50.78 50.63 50.42 50.69 50.55 50.47 50.65
58.34 58.31 58.01 55.69 55.01 55.15 55.32 54.32 53.25 51.96 50.03 49.63 48.09 47.94 47.83 50.27 50.50 51.61 52.95 53.72 56.51 59.27 60.04 60.52 58.78 57.96 56.56 54.98 53.12 52.15 50.61 49.96 50.01 50.27 50.06 49.32 49.13 49.22 49.18 49.17 49.19 49.26 49.36
59.77 58.80 59.18 57.81 56.94 55.89 55.55 54.13 52.43 50.43 49.65 47.96 46.41 46.61 46.70 47.11 49.06 50.35 51.70 51.63 52.11 53.28 56.84 58.31 58.10 56.21 55.29 54.37 52.92 50.93 49.63 49.14 49.19 49.07 48.29 48.39 48.29 48.40 48.32 48.22 48.16 48.12 48.32
59.31 58.47 57.87 57.68 56.92 55.51 53.42 53.39 51.11 50.46 47.81 46.51 46.53 45.85 45.52 45.40 45.86 50.39 49.92 50.31 49.87 50.03 49.98 55.90 56.09 55.55 54.61 53.45 51.34 49.62 49.33 48.60 48.40 47.53 47.39 47.55 47.40 47.36 47.07 47.18 47.20 47.20 47.42
59.59 59.14 57.81 57.92 56.43 54.44 52.94 52.01 50.98 50.20 48.76 47.54 48.98 46.71 44.21 45.05 44.78 44.81 46.70 49.90 48.46 48.37 47.93 48.95 50.02 49.65 53.25 51.40 50.32 49.70 49.13 48.86 47.97 46.84 46.94 46.12 45.73 45.61 45.61 45.85 46.27 46.19 46.41
60.24 58.72 57.83 57.60 55.80 55.13 54.45 52.90 50.61 48.35 46.40 46.22 44.34 43.42 43.74 44.17 44.19 43.69 43.30 44.63 45.83 47.20 46.06 45.92 44.55 42.82 46.44 51.89 49.94 49.70 49.61 49.12 47.89 46.75 46.18 44.76 44.14 44.18 44.56 45.03 45.28 45.50 45.65
60.42 59.54 58.10 57.36 55.79 54.44 53.50 51.82 49.86 46.51 45.69 45.04 43.37 43.40 41.61 44.07 43.75 44.43 43.07 43.29 42.83 46.78 45.70 44.13 42.65 41.81 42.14 43.20 43.39 49.69 49.92 49.56 48.14 47.68 46.09 44.75 43.94 44.03 44.06 44.51 44.75 44.92 45.21
60.42 60.33 58.35 57.31 55.71 55.18 53.87 51.68 49.49 47.89 45.62 44.74 45.59 44.59 41.08 40.99 42.10 43.05 43.82 43.74 44.12 42.14 42.40 42.83 42.44 42.57 42.22 40.80 44.77 47.76 50.07 49.29 48.47 48.61 46.91 45.29 44.15 44.02 44.01 44.07 44.04 44.31 44.54
59.99 59.50 58.97 57.30 55.57 55.11 53.65 52.85 49.94 47.70 47.84 46.41 47.79 49.07 48.14 46.25 41.99 40.26 42.31 44.98 44.44 42.56 41.16 40.97 41.54 41.46 41.32 39.89 43.12 44.98 48.24 47.71 48.31 48.27 47.15 46.00 44.59 43.93 43.65 43.76 43.68 44.10 43.96
59.46 58.37 58.39 57.62 55.99 55.16 54.83 53.29 49.53 48.43 49.84 49.41 48.98 47.31 47.81 47.68 45.79 43.67 41.09 42.67 43.11 43.30 42.67 41.51 41.70 40.96 41.05 39.71 39.24 42.39 47.07 46.36 47.03 47.11 46.88 45.98 45.16 44.33 43.49 43.47 43.45 43.37 43.19
58.97 58.64 58.50 58.57 57.12 56.63 55.22 53.58 51.66 49.29 49.28 48.55 48.51 48.80 48.16 46.91 46.39 44.83 42.14 41.64 41.01 42.37 41.35 41.02 40.37 40.14 39.90 39.93 42.06 44.56 46.54 45.45 45.62 46.23 45.86 45.25 45.08 44.51 44.08 43.52 43.00 42.52 42.15
56.40 57.99 59.14 58.21 57.05 55.07 54.43 53.52 51.27 50.52 48.86 48.35 47.92 48.69 49.15 48.39 47.48 46.69 44.18 43.39 39.52 39.08 37.85 39.41 40.85 41.73 42.16 38.97 40.25 45.23 46.89 44.60 44.40 45.25 44.73 44.54 44.17 43.79 43.30 42.85 42.42 41.41 41.34
59.01 59.30 59.38 58.34 57.17 53.11 52.34 52.79 50.62 50.45 48.74 48.79 48.60 48.76 49.01 48.92 48.03 46.56 43.45 41.63 36.88 36.56 36.22 39.00 39.42 38.71 38.66 38.43 39.20 45.48 43.36 44.09 43.41 43.40 44.01 44.12 43.50 43.01 42.44 41.81 41.16 40.45 40.38
59.42 58.57 57.35 55.78 54.12 53.17 52.48 51.26 50.28 48.64 48.83 48.54 48.59 48.59 47.95 47.90 47.79 46.32 43.82 42.02 39.23 34.75 35.25 36.57 37.40 39.32 38.78 38.40 38.86 41.61 40.33 44.28 42.96 42.09 42.37 43.18 43.48 42.58 41.94 41.63 40.67 40.02 39.48
55.90 55.62 54.39 53.52 51.71 51.35 50.04 50.30 49.42 48.21 48.06 48.31 47.94 47.04 46.86 46.87 45.62 44.80 43.76 42.91 40.94 38.23 34.87 34.81 35.73 36.85 37.23 38.71 38.53 39.93 39.83 41.93 42.71 41.55 41.31 41.52 42.03 42.53 42.27 41.54 40.42 39.63 39.29
56.26 54.57 53.21 51.69 50.81 50.54 49.32 48.53 47.83 47.76 47.51 46.96 46.80 46.48 45.52 45.09 44.39 44.07 43.95 43.61 42.12 39.17 36.82 34.78 34.13 35.38 34.07 34.65 35.98 38.73 38.30 37.49 38.26 41.83 41.24 40.79 40.48 40.68 41.02 41.06 40.66 39.77 39.12
57.00 55.72 53.45 53.27 51.05 49.29 48.85 47.42 46.77 47.35 46.43 45.37 45.10 44.67 44.13 44.91 43.27 43.43 43.16 41.99 41.35 40.80 38.22 36.26 33.45 32.91 33.03 34.24 33.84 33.09 37.39 37.63 36.68 38.81 41.47 40.78 40.41 39.99 39.83 39.52 39.32 39.13 38.98
57.30 54.21 53.83 52.08 50.09 49.26 47.66 46.71 46.71 46.11 45.53 45.28 44.78 44.09 43.66 43.12 41.49 41.72 41.60 41.11 39.89 39.43 36.69 32.85 35.84 33.60 33.53 34.25 35.34 36.60 35.02 36.40 37.94 40.23 39.75 40.04 40.34 40.00 39.55 39.14 39.18 38.89 38.68
53.56 52.80 51.29 50.35 48.67 47.39 46.80 46.32 45.69 45.14 44.63 44.59 44.38 43.81 43.19 42.01 41.51 41.32 40.58 39.24 39.05 37.08 37.07 36.40 36.01 35.90 35.30 37.76 35.19 36.77 37.82 37.65 35.62 38.08 39.35 38.59 39.10 39.58 39.56 39.43 39.00 38.90 38.76
51.58 50.53 49.85 48.47 46.70 46.09 45.56 45.21 44.78 44.10 43.70 43.30 43.35 42.70 42.55 42.47 41.49 40.14 40.15 39.17 38.27 37.99 37.94 36.96 35.32 34.97 36.17 35.81 34.73 34.95 34.65 35.49 35.70 33.27 34.57 33.62 34.39 34.77 35.85 38.06 37.78 39.00 38.72
47.71 46.29 45.91 45.11 44.53 44.91 40.44 41.42 43.20 43.29 42.91 41.95 40.91 40.80 40.74 40.66 40.67 37.58 35.46 35.19 34.07 30.56 28.97 28.71 29.36 29.84 30.72 30.87 32.66 32.15 33.31 32.78 31.96 34.90 30.08 30.79 30.34 30.05 30.73 31.54 34.33 35.35 35.95
44.03 43.36 43.52 43.83 42.81 43.26 39.69 40.34 39.98 41.77 40.39 39.33 37.99 38.08 39.32 38.52 35.91 34.25 32.79 32.35 31.53 32.77 32.82 29.23 27.40 27.50 29.11 29.83 32.94 32.51 32.83 33.11 32.09 34.39 27.44 30.13 26.44 28.72 30.22 32.39 34.03 35.15 35.99
41.16 38.92 38.61 39.36 39.38 39.43 38.41 38.14 36.83 36.81 35.46 37.06 37.87 35.62 33.76 32.25 32.88 30.11 28.06 26.51 26.16 26.70 26.23 27.01 24.94 25.73 26.49 28.17 28.38 29.22 28.21 28.91 30.94 33.72 30.87 29.96 32.53 29.37 30.70 31.05 34.20 35.56 35.96
38.48 38.16 39.02 38.16 37.85 37.16 37.45 36.61 35.62 34.79 33.58 31.54 32.19 32.31 30.86 28.55 30.67 30.61 26.66 24.83 24.46 25.29 29.36 30.55 31.06 31.84 31.95 32.22 31.93 29.62 26.89 26.38 24.79 27.53 30.21 28.97 30.34 29.29 26.99 26.89 27.28 33.52 35.19
38.18 38.96 37.76 37.31 36.57 35.25 36.65 36.84 36.36 32.65 28.78 27.75 27.27 27.04 28.73 27.89 28.92 28.33 25.10 24.03 23.94 24.49 25.22 25.30 25.75 27.72 29.55 29.09 31.39 29.61 28.54 26.97 27.39 26.29 28.53 27.32 29.55 27.25 24.40 24.02 24.36 24.66 26.01

GFSMA_sfc_wetblb_045.txt.gz
Wetbulb
56.84 55.65 55.19 54.06 53.09 51.35 51.23 52.12 50.90 50.73 49.31 49.27 50.20 51.41 50.58 50.74 51.90 52.97 53.83 61.04 61.79 61.97 61.67 60.92 59.87 58.95 57.68 56.12 55.13 53.79 53.61 52.99 52.63 52.41 52.48 52.56 52.02 51.70 51.68 51.52 51.32 51.10 51.00
56.31 55.26 54.12 52.89 51.72 50.74 52.44 52.07 50.85 49.45 48.32 48.50 48.50 49.72 49.30 49.72 50.84 51.80 53.28 56.03 60.61 61.53 61.82 60.99 60.04 58.46 57.93 56.26 54.44 53.21 52.92 51.69 51.23 51.44 51.16 50.72 50.41 50.48 50.23 50.03 49.95 49.83 49.93
55.99 55.77 54.43 52.56 52.64 51.52 52.74 51.72 50.53 48.86 47.22 47.82 47.27 48.53 49.87 50.03 50.59 51.34 53.39 55.08 58.17 59.84 60.52 61.27 59.86 58.23 57.63 56.58 53.92 53.01 51.80 50.46 50.20 50.65 49.90 49.36 49.29 49.23 49.05 48.86 48.82 48.80 48.94
57.41 56.14 55.30 53.81 53.64 53.28 53.73 52.55 51.10 48.87 47.74 46.28 45.76 45.58 47.17 49.41 48.72 50.45 51.81 52.89 54.00 55.58 58.73 59.92 59.74 58.65 57.14 56.01 54.50 52.55 50.87 50.14 49.56 49.31 48.65 48.51 48.23 47.93 47.56 47.49 47.47 47.68 48.07
58.54 57.03 57.10 55.91 55.46 54.53 54.05 53.52 50.56 49.45 47.44 45.31 45.38 44.86 44.52 45.80 47.12 49.99 50.24 51.34 51.67 52.13 52.06 57.73 57.72 57.03 56.73 55.48 54.32 52.27 50.58 49.83 49.66 48.59 48.15 47.87 46.89 46.02 45.81 45.96 46.50 46.76 47.07
58.51 57.75 56.82 56.89 56.33 55.07 53.26 52.29 50.07 48.80 47.40 45.99 47.44 45.29 43.31 43.66 43.72 46.37 48.03 50.14 49.75 49.73 49.61 50.63 51.61 51.69 55.58 54.83 52.85 51.66 51.02 50.47 50.05 48.80 48.36 47.37 45.56 44.67 44.65 45.13 45.66 46.05 46.20
58.39 57.14 56.27 56.23 55.33 54.44 53.69 52.51 49.52 48.40 46.26 45.76 44.35 43.15 43.15 43.39 43.34 43.12 44.28 46.61 47.64 48.38 47.35 48.05 47.66 46.62 49.47 53.94 51.93 51.73 51.86 51.52 50.81 49.57 48.78 47.48 45.68 44.30 44.15 44.50 44.89 45.28 45.50
57.46 57.88 56.93 56.39 55.20 53.64 52.20 51.01 49.67 46.61 46.00 45.15 43.05 41.96 40.19 42.77 43.36 44.79 42.67 43.54 44.41 46.32 46.16 46.15 45.71 43.84 42.80 44.85 45.72 51.91 51.57 51.57 51.40 50.30 49.41 48.07 46.44 45.33 44.74 44.49 44.64 44.78 44.84
58.33 58.22 57.36 56.86 55.42 53.96 52.60 51.50 49.12 47.70 44.91 43.87 44.91 45.27 40.35 40.79 43.67 44.89 44.29 43.76 43.52 43.69 46.67 46.57 44.81 42.51 41.38 41.81 46.39 49.08 51.26 51.47 51.11 50.71 50.17 48.74 47.55 46.40 45.56 44.94 44.46 44.41 44.84
58.15 59.16 58.53 57.12 55.79 54.63 52.92 52.49 50.67 47.73 47.35 44.19 46.72 47.78 48.12 45.93 43.01 42.25 42.33 44.51 44.99 44.30 43.83 43.49 43.50 41.46 41.33 40.81 44.03 45.84 48.13 49.49 50.74 50.42 50.67 49.85 48.79 47.49 46.64 45.39 44.73 44.67 44.73
57.51 58.31 58.17 57.31 56.19 55.16 54.14 53.70 51.51 51.22 48.94 48.30 47.22 47.28 47.02 46.82 45.30 43.85 40.87 43.72 43.09 44.46 43.92 43.44 43.58 42.76 41.20 40.26 39.61 42.82 47.10 47.77 48.46 49.71 49.77 50.25 49.44 48.36 47.37 46.09 45.21 45.05 45.07
56.07 56.91 56.98 57.42 56.49 55.26 54.35 54.69 54.31 51.50 50.16 49.69 48.46 47.69 46.56 46.87 45.33 44.43 41.27 40.18 41.70 44.05 44.15 44.31 42.87 42.25 40.41 39.28 42.23 44.42 45.84 46.25 47.24 48.41 49.29 49.40 49.21 48.67 47.96 46.86 45.84 45.42 44.70
54.25 56.39 56.53 55.91 56.27 56.57 55.87 55.06 53.44 52.13 50.75 49.63 48.70 49.40 49.46 49.12 48.47 46.83 44.76 41.75 41.65 41.98 38.21 40.51 40.02 40.34 41.88 41.15 41.77 45.28 46.06 45.28 45.95 47.09 48.15 48.81 48.49 48.02 47.55 46.91 45.98 45.29 44.53
55.52 55.85 56.95 57.81 58.20 57.05 54.73 54.31 53.85 53.06 51.50 50.29 49.09 49.60 49.58 49.50 48.84 47.26 45.31 43.39 39.57 38.03 37.41 37.80 38.14 38.52 41.25 42.30 42.29 44.11 43.34 45.00 45.16 45.41 46.19 47.07 47.43 47.13 46.25 45.77 45.32 44.61 43.99
57.38 56.49 56.91 57.76 58.31 57.11 55.97 54.29 53.73 51.66 50.51 49.89 49.61 49.96 49.53 49.52 48.72 47.50 44.81 42.16 39.62 36.16 36.36 39.41 37.79 40.12 40.62 38.74 38.85 39.11 40.31 43.55 45.15 44.37 44.35 44.93 46.01 46.17 46.02 45.69 44.47 43.89 43.30
55.93 55.77 55.27 55.69 55.31 54.52 54.41 53.83 52.30 51.05 49.88 49.13 49.19 49.26 48.58 48.46 46.17 45.78 43.57 43.25 41.39 39.34 36.22 38.63 38.49 36.24 37.28 38.42 38.43 38.68 39.02 43.40 43.92 43.67 42.95 43.12 43.58 44.47 44.77 44.82 44.40 43.62 42.70
55.85 56.37 56.07 54.94 53.48 53.60 50.91 50.75 49.34 48.38 48.76 48.01 48.28 48.47 47.29 46.65 44.92 44.53 44.04 43.62 42.42 40.56 38.08 39.78 37.71 37.71 35.45 34.58 35.81 35.39 37.96 37.94 39.03 42.54 43.05 42.15 41.89 42.01 42.50 42.81 42.91 42.99 42.77
57.38 56.25 55.17 53.70 52.08 50.90 50.23 50.05 48.22 48.17 47.89 47.24 47.04 46.73 45.24 45.16 43.70 43.68 43.19 42.21 41.72 41.51 39.07 36.77 37.50 35.94 35.34 34.73 34.29 33.19 35.62 37.85 36.24 39.47 40.80 42.09 42.08 41.27 40.80 40.91 40.94 40.92 41.18
58.01 57.77 57.63 54.74 52.91 51.94 49.82 48.95 48.46 47.68 47.31 46.93 46.04 45.37 44.28 43.66 42.27 41.90 41.65 41.40 40.40 40.08 38.04 35.80 35.91 34.54 33.19 33.24 33.55 34.57 34.44 34.68 36.59 39.82 39.38 39.32 40.19 41.28 41.51 40.90 40.36 40.02 39.92
57.80 57.31 54.64 53.64 52.22 50.23 49.71 48.20 47.36 46.57 45.96 45.69 45.00 44.49 43.76 42.90 41.44 41.31 40.84 39.47 38.98 36.82 36.79 36.39 36.69 35.82 34.80 34.90 35.33 36.20 36.09 36.82 36.94 39.16 40.02 39.70 39.98 40.39 40.30 40.78 40.19 40.35 40.10
57.33 54.43 52.67 51.08 49.63 48.13 47.74 46.84 46.07 45.06 44.32 43.88 43.83 43.68 42.82 42.50 40.90 40.00 39.79 37.30 35.53 33.55 32.27 31.35 30.52 31.64 29.38 28.94 29.07 31.28 32.56 33.81 34.77 34.58 35.50 35.86 35.51 36.29 36.80 38.68 40.07 40.42 39.70
51.09 51.57 49.55 47.60 46.80 47.18 43.68 41.41 43.52 44.05 43.74 43.01 41.90 41.21 41.18 40.31 37.32 36.08 35.75 34.54 32.39 28.43 26.06 25.57 25.92 25.11 24.85 26.11 27.60 27.72 28.11 27.68 26.29 32.98 33.43 33.04 34.11 34.17 34.02 34.56 37.08 38.22 38.77
46.64 46.33 45.76 46.14 45.14 43.71 39.97 40.60 40.25 42.93 42.11 40.82 40.13 38.94 38.66 36.68 34.34 32.55 31.26 30.41 29.55 30.24 30.96 25.95 23.27 22.84 22.94 23.69 25.18 25.15 25.51 25.59 25.15 27.81 27.83 26.58 30.57 30.58 32.84 32.88 35.44 36.33 37.42
44.20 43.66 43.23 43.62 43.36 42.64 39.09 38.81 38.03 39.17 38.49 38.25 37.74 36.36 33.31 32.13 31.47 30.16 27.96 25.77 25.39 25.59 25.98 26.28 23.97 23.94 24.45 26.31 26.32 27.30 27.66 27.65 28.11 28.53 28.50 25.21 28.57 28.39 31.87 31.48 34.23 35.73 36.28
41.09 40.76 41.27 40.70 40.41 39.30 37.60 36.82 37.06 36.64 33.54 31.66 31.77 31.21 30.54 29.83 30.17 29.88 26.04 24.61 24.83 25.71 28.62 29.38 28.91 28.49 28.90 29.08 29.14 27.83 25.91 25.41 24.19 24.97 27.34 26.04 27.40 27.97 30.12 28.33 28.17 35.58 36.29
37.90 38.24 35.97 35.38 36.42 36.06 36.57 36.71 34.96 31.28 28.98 27.53 27.80 27.66 28.94 28.16 27.77 27.45 24.77 24.30 24.17 24.31 23.87 23.44 23.26 24.27 25.08 25.48 27.68 26.42 23.40 19.66 20.22 19.48 24.53 24.78 26.09 28.51 27.13 24.06 26.99 30.49 31.96

GFSMA_sfc_wetblb_048.txt.gz
Wetbulb
56.70 55.37 54.19 52.84 51.53 51.47 51.77 50.45 49.80 49.22 49.80 50.97 52.38 52.86 53.16 53.68 54.62 55.50 57.26 61.42 62.00 61.84 61.51 60.88 59.89 58.67 57.81 56.26 55.36 54.84 54.68 54.05 53.47 53.34 52.96 52.17 51.65 51.23 51.03 50.81 50.55 50.53 50.47
56.01 54.55 52.89 51.96 50.50 51.54 51.92 50.67 50.09 48.55 48.62 49.80 50.37 50.98 51.29 51.24 52.28 53.52 54.91 58.62 60.59 61.65 61.95 60.92 60.08 59.54 58.48 56.60 54.91 54.84 53.99 52.90 52.39 52.47 51.83 50.86 50.65 50.33 50.03 49.60 49.18 49.12 49.22
55.50 54.69 52.91 51.42 50.94 51.16 52.20 50.61 49.71 47.61 46.74 48.51 48.83 49.49 49.41 49.96 50.25 51.65 53.86 55.55 58.10 60.05 60.92 61.53 60.05 59.08 58.71 57.23 54.91 54.41 53.07 51.77 51.64 51.57 50.45 50.12 49.70 49.16 48.49 47.94 47.82 47.92 48.08
55.84 54.08 53.08 51.98 51.21 51.39 52.39 51.14 49.72 47.54 46.61 46.30 46.34 47.70 48.71 49.39 49.67 50.89 53.35 55.33 56.49 57.18 59.33 60.25 60.63 59.70 58.26 57.28 55.45 54.10 52.37 51.40 51.03 50.76 50.09 49.75 48.86 47.57 46.60 46.21 46.54 46.82 46.99
56.53 55.25 53.91 53.09 52.83 52.48 53.12 52.14 50.25 49.33 47.05 45.67 45.47 45.42 46.60 47.78 47.84 50.64 51.59 53.11 54.28 55.10 55.61 58.96 59.04 58.71 58.72 56.93 55.69 54.39 52.63 51.71 51.20 50.38 49.89 49.38 48.18 46.39 45.25 44.98 45.37 45.84 46.22
57.52 56.65 56.00 54.44 54.36 53.12 53.26 52.40 50.25 49.00 48.48 46.35 46.78 44.99 43.67 44.35 45.87 47.93 49.09 51.30 51.88 52.70 52.87 54.27 55.54 54.53 56.91 57.10 55.57 54.39 53.20 52.68 51.93 50.95 50.02 49.37 47.70 46.04 44.87 44.58 44.96 45.44 45.61
58.24 57.47 56.80 56.68 55.91 54.13 53.35 52.02 49.50 48.36 46.41 45.54 44.28 43.77 43.94 44.12 44.02 43.97 46.56 48.22 50.23 50.88 50.44 51.00 51.48 50.47 53.06 56.58 55.73 54.19 53.76 53.51 52.90 52.29 50.79 50.01 48.52 46.54 45.36 44.98 45.06 45.23 45.39
58.28 58.28 56.19 55.83 55.01 53.77 52.12 50.59 49.88 47.49 47.06 45.88 43.93 42.57 41.28 42.89 43.93 44.01 43.42 45.32 47.24 48.99 48.95 49.42 49.57 49.01 48.91 50.40 50.25 53.65 53.68 53.51 53.27 52.76 51.63 50.49 49.40 47.98 46.83 45.85 45.59 45.18 45.20
56.96 57.26 56.90 55.87 55.22 53.87 52.01 50.50 49.42 47.74 45.77 44.82 44.79 44.77 41.62 41.40 44.01 44.86 43.96 43.79 44.01 45.13 48.06 48.36 48.06 47.65 46.49 46.13 48.90 51.06 53.18 53.12 53.03 52.99 52.49 51.38 50.37 49.10 48.13 47.48 46.71 45.79 45.50
55.14 56.71 56.96 56.11 55.31 54.06 52.71 51.83 50.46 48.05 46.70 44.75 44.49 46.30 47.08 46.83 42.55 42.11 42.99 43.58 43.89 44.25 45.17 46.47 46.58 46.05 45.18 43.78 45.47 47.50 48.60 50.35 51.76 52.16 52.42 52.16 51.72 50.55 49.51 48.69 47.79 46.84 46.30
54.62 56.02 56.78 56.03 54.99 54.44 53.83 52.79 50.84 48.59 48.15 47.16 48.11 47.69 47.60 47.21 46.07 44.77 42.50 42.71 43.53 44.32 44.93 44.23 45.39 45.41 44.62 43.99 43.26 44.53 47.74 47.79 49.33 51.62 51.83 51.94 52.10 51.76 50.79 49.74 48.96 47.98 47.09
53.07 54.78 56.01 56.23 55.75 54.87 53.92 53.40 52.32 50.75 51.40 50.64 50.42 49.86 48.47 47.44 45.75 44.10 43.30 43.13 43.15 44.08 44.53 44.35 44.05 44.33 44.06 43.06 43.94 45.26 45.79 46.62 47.53 49.63 51.44 51.96 51.21 51.65 51.32 50.73 50.12 49.34 48.26
51.98 52.97 53.98 54.15 54.43 54.59 54.49 53.71 53.15 52.79 52.06 51.71 50.79 50.04 50.66 50.30 49.29 47.52 45.58 43.67 43.06 43.58 42.52 42.39 42.92 43.49 42.90 41.80 41.95 45.61 46.18 45.12 45.90 47.62 49.07 50.34 50.94 51.02 50.93 50.59 50.34 50.00 49.23
52.32 53.03 53.94 54.59 54.60 54.66 54.31 53.77 53.24 53.93 53.01 52.11 51.75 50.92 50.96 50.61 49.52 48.63 46.80 45.08 40.62 40.07 39.36 41.63 41.14 41.19 41.80 42.70 43.18 44.69 44.30 44.75 45.06 45.40 46.63 47.79 48.79 49.15 49.82 50.23 49.89 49.32 48.62
53.95 54.31 54.78 54.30 54.29 55.21 54.77 54.12 54.34 53.53 53.31 53.20 51.86 51.28 50.42 50.31 49.90 48.79 45.58 45.01 44.54 39.06 38.08 39.49 40.20 41.80 42.21 41.18 41.54 40.93 41.46 43.15 44.27 44.48 44.81 45.54 46.97 47.79 48.13 48.60 48.94 48.74 48.20
53.97 54.62 54.96 55.41 55.99 56.45 55.99 55.83 55.87 56.11 54.97 53.53 51.68 50.13 49.70 49.92 49.25 48.26 46.19 43.88 42.23 40.97 38.53 40.55 39.19 40.24 40.20 39.96 40.58 40.81 39.56 42.10 43.12 43.04 43.40 44.18 44.74 45.84 46.49 46.86 47.11 47.18 47.29
55.25 54.94 55.75 56.05 56.29 56.21 56.13 55.61 54.78 51.93 51.61 52.00 50.88 50.03 48.99 49.00 47.91 46.19 44.58 43.92 42.10 41.26 38.77 40.64 40.17 39.52 38.23 39.44 39.51 38.97 38.62 38.51 39.53 41.94 42.32 42.84 43.05 43.21 43.42 43.98 44.25 44.92 45.17
55.86 56.08 56.01 55.83 56.49 56.19 53.42 52.55 51.31 50.57 50.83 49.71 49.02 48.71 47.15 47.58 45.69 45.15 44.14 42.87 42.61 42.31 40.23 37.83 38.66 37.55 37.43 39.17 37.11 35.80 37.61 37.95 38.13 39.41 41.04 41.32 41.66 42.29 42.14 41.88 41.72 41.80 42.20
56.24 56.37 56.57 56.25 55.67 52.30 50.91 50.83 50.14 50.01 48.96 48.44 47.53 47.10 45.91 45.32 43.59 43.26 42.64 41.76 41.53 40.69 38.70 36.62 36.22 36.66 35.40 35.43 35.65 36.20 36.43 37.19 37.91 40.40 40.60 40.12 40.13 40.62 40.93 41.38 41.55 41.40 41.30
56.20 56.79 57.16 56.92 56.47 52.07 50.61 49.86 49.76 48.50 47.56 47.02 46.61 46.56 45.56 44.54 42.94 41.90 41.63 40.24 39.29 37.89 37.43 36.55 36.93 36.94 35.08 35.33 34.35 33.00 32.23 34.26 33.78 36.66 38.33 38.61 39.56 40.19 40.69 40.74 40.84 41.25 41.50
56.84 57.48 57.16 55.43 52.56 51.46 49.66 48.79 48.09 47.04 46.17 45.00 45.06 44.68 44.24 43.14 41.54 41.30 40.17 38.29 37.08 35.55 33.98 32.45 31.30 30.39 28.95 28.93 27.86 29.98 27.24 27.96 29.17 31.01 31.36 34.49 35.69 36.19 36.58 37.31 38.01 38.69 39.10
57.29 57.05 55.15 51.41 50.00 49.48 43.78 43.89 45.87 46.05 45.07 43.98 42.17 41.56 41.45 39.79 37.73 36.42 36.16 34.82 34.20 31.57 29.27 28.34 26.92 25.26 24.84 25.49 26.72 25.79 25.54 24.98 23.83 29.93 28.87 28.33 30.65 29.78 31.47 32.88 34.91 36.02 36.87
52.61 51.53 49.55 48.98 47.89 47.73 41.42 41.86 42.70 44.26 43.01 41.98 40.85 39.89 38.47 36.21 34.25 32.81 32.01 31.14 30.31 30.70 29.61 26.45 23.72 23.98 23.81 24.96 25.27 24.46 24.82 24.75 24.41 27.84 28.26 25.84 29.32 28.32 31.12 32.31 34.12 35.16 35.95
49.37 46.97 46.28 46.10 44.83 43.24 40.23 39.56 38.62 40.87 39.57 39.14 39.11 37.26 34.33 32.23 31.88 30.44 28.67 27.29 26.32 26.40 26.76 27.08 25.59 25.64 26.18 26.87 26.92 27.56 27.34 26.58 27.14 28.16 29.22 24.38 28.30 27.34 30.20 31.70 33.53 34.85 35.78
45.34 44.49 43.72 43.17 41.69 39.62 37.81 37.18 37.91 35.96 33.25 31.61 31.90 32.24 31.34 30.09 30.77 30.27 27.16 25.37 25.55 26.43 28.82 28.40 27.46 27.28 27.16 26.82 26.78 26.20 24.44 22.66 19.79 21.61 24.86 23.20 24.47 25.59 27.00 27.22 30.55 33.63 34.14
39.38 38.79 36.90 37.65 37.55 36.75 36.63 36.34 35.05 32.79 29.87 28.13 28.33 28.83 29.59 28.14 28.24 28.24 26.22 25.81 24.80 24.74 23.93 23.62 23.59 23.72 24.16 24.39 25.60 24.67 22.95 18.81 18.78 17.45 24.36 20.93 21.85 22.23 21.67 28.00 28.79 29.83 31.22

GFSMA_sfc_wetblb_051.txt.gz
Wetbulb
60.49 59.32 59.18 58.17 58.26 59.24 59.97 59.82 59.65 59.47 59.34 59.50 59.86 59.75 59.97 60.69 61.34 61.48 61.64 61.45 61.87 61.81 61.19 60.57 59.67 58.88 57.71 56.73 55.91 55.73 54.96 54.78 54.43 54.35 53.31 52.63 52.31 51.75 51.49 51.11 50.86 50.54 50.30
59.70 58.34 57.75 57.52 57.47 57.96 58.39 58.59 58.77 58.83 58.59 58.89 58.65 59.39 59.53 60.15 60.62 61.19 61.55 61.79 61.00 61.63 61.70 61.21 60.48 59.55 58.33 56.80 55.64 55.32 54.42 53.48 53.63 53.08 52.39 51.87 51.45 50.81 50.13 49.53 49.43 49.11 49.31
59.79 59.23 57.63 57.19 58.00 57.93 57.11 56.56 56.23 57.42 57.25 57.57 57.65 58.23 58.31 58.45 58.62 59.20 60.71 61.38 61.39 60.16 61.06 61.79 60.71 60.04 59.09 57.55 55.68 55.45 53.88 52.73 52.90 52.50 51.45 51.24 50.40 49.57 48.46 47.96 47.63 47.81 47.93
59.44 58.44 57.20 57.36 58.43 58.11 57.09 55.93 54.91 55.51 55.71 56.12 55.34 55.56 55.27 55.47 55.84 56.71 58.94 60.75 60.96 60.54 60.49 60.67 61.08 60.60 59.51 58.16 56.31 55.58 53.95 52.55 52.52 51.83 51.19 50.90 49.70 48.20 46.82 46.08 46.38 46.70 47.03
58.98 58.68 57.77 57.77 57.76 57.78 56.93 55.97 54.33 54.66 53.56 53.71 54.01 54.52 54.71 55.01 54.84 54.60 56.24 58.83 60.65 60.90 60.76 59.98 59.74 59.47 59.69 58.60 57.06 56.09 54.71 53.28 52.59 51.81 51.32 50.60 49.44 47.49 46.08 45.45 45.36 45.71 46.01
59.39 59.02 58.05 57.85 57.75 58.22 57.48 56.77 55.74 55.30 54.20 53.07 51.49 51.58 52.88 54.87 54.81 55.17 55.96 56.36 58.65 60.34 60.66 60.79 60.67 59.65 58.19 58.99 57.43 56.45 55.57 54.42 53.28 52.84 51.85 51.46 49.94 48.02 46.77 45.82 45.47 45.68 45.75
60.23 60.03 59.34 58.54 57.94 56.98 58.45 58.13 56.61 55.41 53.68 53.24 51.61 51.43 51.63 52.18 52.42 53.30 54.39 54.94 55.09 57.55 59.20 59.62 59.96 59.30 57.39 58.09 57.79 56.54 55.97 55.10 54.47 53.83 52.64 51.77 50.80 49.13 47.91 46.90 46.61 46.30 46.15
60.06 60.37 60.37 59.52 58.92 57.91 58.25 58.03 56.81 55.31 55.44 53.62 52.57 52.43 49.84 50.70 50.99 51.64 51.68 52.91 54.47 55.21 56.47 57.54 58.35 56.43 57.30 56.67 56.50 56.60 55.50 55.31 55.24 54.62 53.83 52.36 51.88 50.58 49.21 48.42 47.80 47.45 46.88
60.41 60.91 61.43 61.33 60.13 60.34 58.48 58.70 58.09 56.72 55.14 53.63 53.97 54.37 49.70 50.22 52.24 52.86 52.20 50.65 50.48 53.86 55.09 55.82 56.33 56.30 56.22 54.29 54.41 54.76 54.40 54.50 55.13 54.80 54.44 53.73 52.74 52.03 50.99 50.01 49.17 48.68 48.11
60.10 61.00 61.85 61.17 60.31 60.64 60.19 60.09 58.50 58.21 57.77 55.08 53.16 52.56 54.25 54.28 50.86 48.74 50.24 51.90 52.11 51.13 53.05 53.17 54.40 54.94 55.00 54.90 52.65 51.46 50.32 51.25 53.07 54.31 53.84 54.04 53.95 53.15 52.40 51.49 50.54 49.88 49.36
58.56 59.25 60.02 60.93 61.06 60.88 60.78 60.52 58.71 57.39 57.19 57.81 55.07 53.92 52.48 50.90 50.08 47.56 49.68 47.90 47.78 51.58 52.04 51.88 51.02 53.66 53.17 52.72 52.68 50.73 48.57 48.31 49.67 52.50 53.20 53.63 53.28 53.62 53.24 52.89 52.14 51.43 50.60
57.50 58.22 58.60 60.15 61.02 61.08 60.83 60.50 60.20 58.53 57.75 56.75 56.25 55.77 53.80 49.99 47.41 46.42 45.61 49.68 47.13 52.05 48.73 48.73 50.22 50.54 51.71 50.65 47.55 47.64 46.97 46.84 47.82 49.66 51.44 52.09 52.50 52.39 52.88 53.09 53.08 52.56 51.89
56.16 57.11 58.16 59.02 59.62 60.21 60.80 60.78 59.86 59.27 58.54 57.33 56.86 55.92 55.13 53.89 51.99 49.77 49.40 48.37 48.48 47.67 47.30 48.75 48.85 48.66 47.96 48.23 46.73 46.41 47.18 45.40 45.89 47.51 48.96 50.30 51.21 52.25 52.64 52.50 52.09 52.41 52.30
57.30 57.69 58.13 58.88 59.34 59.44 60.06 60.50 60.15 60.04 59.51 58.74 57.83 56.55 53.53 53.03 52.64 52.44 50.79 48.14 43.94 47.34 43.67 48.03 45.36 43.61 45.05 46.50 46.27 44.78 47.14 45.14 45.02 45.49 46.27 47.34 48.53 49.57 50.17 50.88 51.55 51.82 51.58
57.11 57.86 58.01 58.25 58.91 59.34 59.79 59.79 59.29 59.13 58.69 58.37 56.95 55.77 53.27 53.42 54.16 54.09 52.29 50.29 49.67 43.63 42.83 43.09 42.30 45.04 44.29 45.82 47.55 47.62 44.89 44.35 43.90 43.91 44.18 45.37 46.50 47.16 47.97 48.76 49.34 49.87 50.45
57.02 57.59 58.41 58.90 58.95 59.38 59.23 59.17 59.19 59.15 58.24 56.38 56.32 54.38 53.59 54.40 54.74 52.15 50.00 49.78 49.21 48.46 44.95 45.45 42.82 43.21 45.38 45.33 45.69 45.27 45.74 42.92 43.07 42.53 42.64 43.09 44.05 45.03 45.87 46.45 46.75 47.44 48.18
55.76 56.48 57.60 58.29 58.53 58.78 59.30 59.11 59.33 58.84 55.38 55.86 55.87 54.08 53.74 53.75 51.48 50.80 49.86 47.23 46.12 45.64 44.07 42.20 43.79 43.42 44.03 45.76 44.03 44.75 44.79 46.17 46.50 41.67 41.49 41.91 42.19 42.50 43.20 43.76 44.03 44.72 45.21
55.51 55.72 56.71 57.63 57.95 58.53 59.15 58.13 57.64 55.76 54.58 53.94 53.70 51.97 52.04 50.70 50.17 49.16 47.54 45.45 44.48 44.72 42.63 40.99 43.63 41.13 40.16 41.63 42.17 44.72 44.26 44.30 45.48 43.05 41.11 41.23 41.78 41.53 41.42 41.37 41.78 42.24 42.54
57.17 57.88 57.38 57.27 57.57 56.97 57.89 57.88 57.35 53.90 52.81 54.13 54.22 52.29 50.54 49.13 47.82 46.18 45.35 44.86 43.54 43.27 42.08 39.47 38.74 39.42 39.90 40.59 42.90 43.18 42.71 42.60 42.08 40.41 39.60 40.18 40.80 41.15 41.17 40.90 40.77 41.07 41.29
57.44 57.98 58.27 58.17 58.31 57.54 57.52 55.86 55.31 56.12 54.97 53.66 52.93 49.79 48.58 47.76 47.02 44.29 43.65 42.82 41.44 39.64 39.29 38.65 37.99 38.38 39.06 41.65 39.95 38.66 37.39 37.91 35.80 35.94 36.35 35.88 37.04 37.80 38.77 39.24 39.33 39.46 39.19
57.76 58.34 58.40 58.55 58.89 58.23 55.67 54.75 53.71 52.41 51.78 49.44 48.44 47.40 47.13 46.06 43.11 43.14 42.62 40.93 40.17 38.45 37.94 36.11 34.86 34.33 36.42 35.06 35.66 35.71 32.51 33.31 34.12 35.03 35.33 35.94 36.07 35.92 36.28 35.75 35.67 36.02 35.97
57.72 58.19 58.03 57.89 57.59 56.36 48.16 45.62 49.62 51.30 50.25 46.75 44.55 43.11 42.97 41.07 39.14 37.88 37.50 37.14 39.36 36.12 33.09 32.50 33.66 34.22 35.30 32.54 33.26 31.61 30.60 29.82 29.18 36.05 32.87 32.63 35.20 34.23 35.42 36.06 34.76 34.32 34.87
58.36 58.28 57.96 57.05 55.42 54.16 43.63 43.45 42.36 47.64 46.39 45.16 42.05 40.44 38.81 37.41 36.92 35.25 33.02 32.32 31.73 31.04 32.22 33.49 32.24 31.96 30.28 32.33 31.03 29.90 30.33 29.75 29.58 32.43 31.44 30.19 34.10 32.37 34.44 34.09 33.93 34.05 34.19
56.87 55.20 53.03 51.02 49.01 46.41 41.09 40.33 40.55 43.65 42.38 41.81 41.40 39.45 36.59 34.76 33.91 31.95 29.77 28.40 28.09 28.73 28.72 30.30 31.65 32.22 32.56 31.52 30.53 29.83 29.29 29.42 30.86 32.15 31.87 26.83 31.18 29.45 32.36 33.08 32.41 32.05 32.42
46.37 45.28 45.27 45.05 44.08 40.88 38.79 38.01 38.84 37.45 35.22 34.64 34.93 34.64 33.40 32.15 32.45 32.23 29.21 27.46 27.66 28.26 30.04 28.60 27.69 26.75 26.17 26.22 27.05 29.07 27.62 26.43 25.48 26.97 29.44 27.01 28.48 27.69 28.98 29.79 33.22 32.54 32.52
39.95 38.87 37.45 38.61 37.69 37.82 36.97 36.85 36.63 34.13 31.56 30.40 30.63 30.50 30.60 30.05 30.22 29.46 28.51 28.23 26.79 28.01 27.48 28.33 28.60 27.27 26.18 27.03 24.81 27.20 26.87 23.57 23.73 23.76 29.22 24.52 25.41 26.27 23.61 29.21 30.33 30.92 32.82

GFSMA_sfc_wetblb_054.txt.gz
Wetbulb
63.59 63.39 64.20 64.88 64.88 65.11 64.44 63.39 63.19 62.52 61.78 61.44 61.80 61.98 62.19 62.52 62.94 62.86 62.60 61.43 61.80 61.81 61.02 60.78 59.85 58.95 57.96 57.16 56.72 56.16 55.73 55.52 55.36 54.34 53.68 53.28 52.86 52.17 51.81 51.29 50.90 50.80 50.68
62.80 61.12 61.75 61.94 62.84 64.32 64.22 63.03 62.32 61.47 60.84 60.95 61.07 61.28 61.57 62.25 62.76 63.03 62.83 62.43 61.24 61.64 61.83 60.93 60.51 59.48 58.54 57.21 56.52 55.75 55.30 54.91 54.69 53.87 53.01 52.50 51.87 51.09 50.34 50.00 49.48 49.42 49.36
61.61 61.31 60.03 60.55 61.34 62.14 62.43 61.84 61.90 61.19 60.45 60.38 60.42 60.78 60.83 61.42 61.66 62.24 62.60 62.79 61.89 60.31 61.15 61.79 60.71 60.04 59.00 57.82 56.52 55.93 54.82 54.20 54.05 53.50 53.00 52.28 51.09 49.84 48.94 48.38 48.07 48.00 47.88
60.87 60.87 59.95 60.31 60.87 61.05 60.65 60.56 60.74 59.93 59.64 59.39 59.49 59.77 59.79 60.08 60.51 60.94 61.54 62.34 62.22 61.83 60.73 61.16 61.40 61.05 59.60 58.71 57.14 56.74 55.18 53.99 53.89 53.30 52.87 52.16 50.64 49.05 47.60 46.99 46.61 46.63 46.89
59.89 60.48 59.69 60.41 61.62 60.69 60.36 59.73 59.17 59.36 58.40 58.52 58.15 58.23 58.25 58.13 58.36 58.38 59.66 61.00 61.80 61.57 62.31 60.31 60.16 60.21 60.58 59.62 58.20 57.36 56.17 54.69 54.17 53.66 52.86 52.40 51.07 49.23 47.70 46.99 46.31 46.11 46.15
60.77 60.78 59.84 60.96 61.96 60.80 60.57 59.72 58.81 58.86 58.15 57.69 55.53 56.10 57.52 57.94 58.08 57.97 58.09 58.98 60.37 61.33 61.41 61.80 61.86 60.21 58.95 60.14 59.03 57.91 57.52 56.22 54.89 54.55 53.59 52.78 51.87 50.24 48.84 47.85 47.05 47.16 47.05
60.92 61.28 60.37 60.94 61.59 61.16 61.18 60.94 59.68 58.13 57.22 58.07 55.41 55.33 55.87 57.24 57.48 57.66 58.36 58.52 58.61 59.96 61.14 60.96 60.97 61.04 60.02 59.10 59.69 58.47 58.12 57.39 56.29 55.51 54.41 53.59 52.77 51.59 50.16 48.95 48.33 48.12 47.78
61.14 61.34 61.22 60.59 60.84 61.34 61.83 61.29 60.50 58.40 58.75 57.90 55.92 56.79 54.32 55.49 56.33 56.79 57.42 57.05 57.64 57.27 58.23 59.40 60.12 60.40 60.57 60.34 59.32 58.83 57.93 57.50 56.97 56.47 55.47 54.38 53.56 52.90 51.58 50.45 49.39 48.86 48.80
61.98 61.80 61.85 61.62 61.15 61.26 60.81 61.47 61.31 60.29 58.68 58.76 59.52 58.08 55.15 53.31 57.28 58.01 56.28 56.84 57.19 56.94 57.31 58.49 59.27 59.47 59.81 59.55 58.49 57.56 56.12 55.99 57.14 56.50 56.29 55.47 54.60 53.81 53.20 52.11 51.14 50.41 50.07
62.11 61.72 61.92 62.09 62.48 61.80 61.16 61.60 61.73 61.27 61.16 58.91 58.74 58.81 60.31 59.96 56.07 54.52 57.39 57.06 54.29 54.97 56.22 57.71 58.55 58.70 58.97 59.03 57.54 54.91 52.85 52.67 54.03 55.96 56.12 55.70 55.51 55.11 54.46 53.73 53.10 52.25 51.66
62.22 61.62 62.09 62.79 63.13 63.47 63.04 63.05 62.61 62.15 62.00 61.80 59.95 59.63 58.75 58.89 58.83 56.03 54.98 56.49 54.37 52.49 53.37 56.41 58.10 57.56 57.51 58.25 58.37 55.98 51.00 49.85 50.90 53.48 54.57 55.14 54.71 54.60 54.86 54.94 54.50 54.05 53.45
60.87 62.03 62.10 63.27 63.66 63.28 63.39 63.73 63.88 63.12 62.48 61.83 62.06 61.22 59.92 58.02 57.17 56.30 55.00 56.04 53.93 51.51 51.30 53.43 54.70 56.14 55.72 57.37 55.45 51.19 49.37 48.15 48.60 50.37 52.07 52.68 53.29 53.51 53.56 53.71 53.76 54.41 54.46
56.74 57.96 60.68 61.39 61.29 61.98 62.86 63.22 63.19 63.19 62.90 61.98 61.88 61.09 61.11 60.28 59.64 58.74 56.18 52.28 53.16 52.82 51.51 52.05 54.45 52.80 55.12 54.15 53.75 49.55 48.91 46.12 46.52 47.65 48.59 49.29 50.70 50.92 51.71 51.98 52.40 52.87 53.02
59.44 59.29 60.28 60.78 60.92 61.21 61.40 61.90 61.62 61.99 62.44 62.45 62.28 62.06 61.45 61.39 60.40 57.48 52.01 49.96 46.61 48.64 49.15 51.51 52.64 51.72 50.27 49.67 49.17 47.14 48.81 45.61 45.49 45.84 46.62 47.06 47.71 48.07 48.79 49.30 50.10 50.66 50.93
60.74 61.64 60.88 60.34 60.24 60.43 60.88 61.16 61.26 60.70 61.75 62.62 62.06 62.27 61.88 61.17 60.42 57.38 56.01 52.77 49.86 47.75 47.90 48.65 49.07 47.54 47.12 48.45 46.78 47.48 49.86 46.41 44.82 44.31 44.45 45.15 46.20 46.41 47.00 47.29 47.68 48.06 48.44
61.77 61.29 60.90 60.70 61.09 61.21 61.34 60.87 61.36 61.34 61.14 62.10 61.63 61.62 60.80 60.64 57.74 56.49 54.05 54.19 52.92 49.98 47.66 49.59 48.62 46.87 45.23 45.50 44.49 47.66 49.12 46.39 44.31 42.89 42.75 43.08 43.82 44.37 45.03 45.56 45.82 45.98 46.25
61.58 61.01 61.29 61.11 60.72 61.19 61.29 61.22 61.41 61.43 61.02 61.34 61.32 60.12 59.15 58.60 56.90 54.75 54.26 52.35 50.66 50.24 48.18 45.05 44.93 45.22 44.25 45.46 44.22 45.47 48.23 49.16 49.36 43.40 42.38 42.03 42.18 42.39 42.97 43.20 43.32 43.54 43.68
61.36 61.41 61.36 60.99 60.41 61.24 61.39 60.98 60.20 60.06 60.02 59.81 60.00 58.73 56.69 54.40 53.49 53.01 52.42 51.03 49.91 49.18 47.58 44.14 44.46 42.19 43.73 43.76 44.22 44.38 45.18 47.31 49.00 45.33 42.26 41.32 41.24 41.17 41.10 41.18 41.42 41.58 41.82
60.24 60.11 59.77 59.50 58.76 59.92 59.48 59.65 58.15 60.20 60.22 59.59 59.81 56.94 55.05 55.56 53.17 52.61 50.09 48.09 47.21 46.01 46.17 42.86 42.16 41.56 44.08 41.63 42.75 44.20 45.65 48.19 47.56 43.67 39.84 39.23 39.58 40.10 40.50 40.73 40.19 39.57 39.81
59.32 59.47 60.00 59.53 59.77 59.26 59.18 59.24 58.79 59.42 59.52 59.42 59.42 57.84 57.92 55.58 53.20 49.71 47.15 46.27 45.16 43.10 41.83 40.79 41.56 39.24 40.17 41.12 41.93 40.83 41.58 45.27 43.44 41.97 39.70 37.05 36.91 37.75 37.85 38.01 38.49 39.12 38.29
59.54 59.43 59.70 59.65 59.89 59.77 59.63 59.83 59.88 59.72 59.08 57.51 56.35 56.32 57.04 52.45 46.58 47.01 45.96 44.34 42.77 40.63 39.47 39.43 38.49 39.21 38.36 37.78 36.94 40.74 39.21 40.57 40.13 39.93 38.95 39.82 39.41 39.44 39.49 38.81 37.96 37.66 37.24
59.33 59.58 59.28 59.37 59.69 59.55 50.06 47.42 53.69 57.91 56.74 55.23 50.73 49.49 48.96 45.26 42.88 40.70 41.48 41.15 41.58 40.89 40.02 39.43 38.95 35.53 35.70 37.13 38.34 37.47 37.88 35.46 33.76 40.15 37.60 37.01 38.18 37.06 38.42 39.46 37.29 35.50 35.38
59.94 59.37 59.32 59.41 59.30 60.39 44.61 45.16 45.34 56.88 53.64 51.53 47.55 44.15 42.90 41.48 39.98 37.97 35.44 34.25 32.90 33.11 36.29 38.34 36.08 35.65 35.67 37.25 36.43 36.30 35.18 34.68 34.21 36.77 36.10 33.51 37.23 35.99 38.42 36.93 35.75 34.79 34.04
59.46 59.72 58.77 58.97 58.41 58.30 44.43 44.25 41.89 48.92 45.87 44.91 43.35 41.93 38.97 37.71 36.86 34.94 33.40 31.19 31.43 31.09 30.65 30.90 32.60 33.89 34.25 35.28 35.34 34.66 33.60 33.09 33.82 34.93 35.86 30.22 35.13 33.97 36.01 36.20 34.69 34.39 34.08
58.21 54.87 53.59 52.49 50.91 46.12 41.33 39.69 42.00 41.11 38.86 37.26 37.97 37.39 35.86 33.56 33.92 33.93 30.55 28.79 28.26 28.41 29.85 29.35 28.36 27.90 27.13 26.43 27.65 31.26 30.48 29.85 29.49 31.48 34.30 31.42 32.92 32.48 32.94 32.92 35.33 33.96 32.68
42.19 40.29 38.36 39.36 38.65 38.85 37.96 38.67 38.51 35.52 33.24 31.46 31.08 32.19 33.22 32.33 31.73 31.89 30.35 29.37 27.93 27.79 27.33 27.54 27.62 26.69 27.30 29.13 25.85 28.92 30.07 27.16 27.89 27.44 33.18 28.71 30.07 29.83 27.42 32.40 32.51 33.10 33.95

GFSMA_sfc_wetblb_060.txt.gz
Wetbulb
62.36 63.09 62.92 61.47 60.10 60.28 59.01 57.38 57.97 58.81 58.65 58.32 60.42 59.87 60.63 59.99 59.16 59.02 58.71 61.34 61.34 61.75 61.08 60.73 60.14 59.65 58.86 57.77 57.11 57.03 57.23 56.40 55.98 55.40 55.02 54.20 53.61 53.22 52.37 51.93 51.67 51.77 51.49
61.65 62.90 62.80 61.08 60.35 60.15 59.94 58.52 59.99 58.59 58.03 58.55 59.28 60.00 60.33 60.44 59.03 58.75 58.57 58.75 60.81 61.27 61.60 60.89 60.38 59.70 59.26 58.35 57.27 56.90 56.81 56.66 55.93 55.24 54.57 53.65 53.12 52.12 51.51 50.86 50.56 50.42 50.02
61.31 62.75 62.27 61.44 60.93 60.85 60.66 59.34 59.50 58.40 57.72 58.78 58.57 59.01 59.42 59.72 59.75 58.68 58.30 58.32 58.87 60.31 60.80 61.40 60.81 59.89 59.40 58.98 57.85 57.05 56.59 56.70 55.85 55.14 54.47 53.66 52.94 51.83 51.03 50.24 49.79 49.32 48.96
62.35 62.13 62.05 61.94 61.61 61.49 60.92 60.11 57.99 56.78 56.72 56.91 56.70 57.05 57.79 58.54 59.16 59.55 58.82 58.37 58.22 58.95 59.79 60.94 61.07 61.04 59.87 59.28 58.77 57.90 56.93 56.42 56.04 55.70 54.91 53.85 52.96 51.77 50.86 50.03 49.29 49.03 48.62
61.70 61.04 60.55 60.67 61.50 60.80 59.78 59.02 57.69 56.82 55.69 56.03 56.98 56.52 56.89 56.77 57.92 58.98 59.40 59.03 58.24 58.50 58.46 59.49 60.09 60.10 60.47 60.42 59.30 58.86 58.10 56.64 56.35 56.08 55.42 54.49 53.60 52.40 51.15 50.23 49.36 49.14 48.77
60.11 60.20 59.65 60.11 59.55 59.05 58.35 58.02 57.54 57.73 56.25 55.62 57.43 56.71 55.67 56.08 56.33 56.28 56.78 58.63 59.24 59.24 58.90 58.67 58.45 58.45 59.30 60.33 60.36 59.48 59.49 58.37 57.00 56.83 56.01 55.42 54.63 53.49 52.06 50.87 50.12 49.74 49.36
59.04 58.95 58.52 58.77 58.93 57.33 56.66 57.96 58.02 56.71 56.00 56.42 53.91 53.27 53.41 54.17 54.72 54.39 55.26 55.37 56.67 58.00 58.79 59.94 58.28 58.00 58.23 59.71 60.77 60.35 60.35 60.05 59.02 57.43 56.97 56.18 55.49 54.66 53.48 52.15 51.19 50.57 50.19
58.40 59.14 58.56 58.39 58.26 58.37 58.20 57.52 56.59 55.46 55.83 56.26 52.25 50.86 48.07 50.09 52.69 54.61 53.93 54.30 54.06 55.84 57.62 58.87 59.08 58.59 58.28 57.68 57.95 60.61 60.93 60.52 60.10 59.27 57.60 56.99 56.10 55.65 54.89 54.00 52.83 52.03 51.41
58.45 58.51 58.82 58.57 58.48 58.93 58.29 57.87 57.75 56.64 53.41 54.09 54.14 51.60 47.78 46.59 50.26 52.37 53.18 53.69 53.45 54.84 54.81 56.21 57.38 58.79 58.53 57.75 58.26 58.48 57.98 58.35 60.09 60.51 59.92 58.61 57.88 56.53 56.10 55.39 54.62 53.67 53.14
58.63 58.56 58.80 58.95 58.42 58.27 59.31 59.37 59.74 58.28 57.32 53.44 53.43 55.42 54.78 55.23 52.46 49.80 52.15 53.57 54.87 54.35 53.81 54.04 54.72 56.60 57.42 57.49 57.94 56.74 55.09 54.80 56.82 59.36 60.30 60.30 59.24 58.13 56.95 56.52 55.98 55.56 55.08
60.61 58.95 59.10 59.31 58.27 58.10 58.55 59.94 59.52 58.94 58.34 57.05 55.00 54.68 54.10 54.43 55.30 52.70 49.83 51.37 52.70 53.47 54.13 54.62 54.20 53.64 54.73 56.44 57.09 56.71 54.34 53.25 54.07 56.93 58.62 59.53 59.93 59.59 59.00 57.92 57.28 56.69 56.42
59.62 59.86 59.11 59.14 59.67 59.77 59.01 59.65 59.72 59.29 58.96 58.37 57.67 57.20 56.02 54.15 53.29 53.04 51.45 51.71 51.37 52.57 54.09 53.71 53.14 53.55 53.90 54.30 55.08 54.00 51.60 51.51 52.69 54.49 56.29 57.47 58.13 58.40 58.41 58.17 57.60 56.84 56.70
57.21 58.55 58.68 58.62 59.74 59.64 60.29 60.51 59.62 59.41 59.91 58.96 58.03 57.53 57.94 56.38 56.52 55.75 53.52 51.93 51.59 53.34 52.47 52.52 52.53 52.93 53.31 52.68 53.02 52.85 51.82 48.97 49.95 51.86 53.74 55.03 55.73 55.86 55.89 55.73 55.37 55.35 55.32
57.39 58.67 58.66 58.53 59.25 60.10 60.37 60.59 60.03 59.84 59.21 58.79 58.69 58.09 58.07 57.80 57.31 56.92 55.40 52.79 49.87 51.28 51.43 50.87 52.57 53.40 53.10 53.34 53.35 51.49 51.97 47.69 47.77 48.60 49.53 50.38 50.78 51.27 51.54 52.10 52.29 52.59 52.80
57.54 58.85 59.79 59.39 59.40 59.56 60.20 60.23 59.85 59.05 58.65 58.99 58.92 58.89 58.38 58.32 58.57 57.47 56.88 55.27 53.02 49.64 50.73 51.47 51.81 53.36 54.01 53.83 52.46 51.32 49.95 48.90 47.28 46.07 45.91 46.91 47.97 48.81 49.24 49.73 49.35 49.32 49.41
56.97 57.57 58.73 59.73 59.67 59.63 60.20 60.46 59.64 59.20 58.79 58.87 58.85 58.26 58.53 58.49 58.47 57.75 57.32 56.35 55.59 54.04 51.31 52.36 52.48 52.07 52.43 51.21 50.60 50.54 49.16 48.37 46.46 45.30 44.74 44.97 45.79 46.85 47.36 47.43 47.66 47.53 47.33
58.14 57.55 57.85 58.13 58.73 59.57 59.87 59.32 59.09 58.66 58.39 58.15 57.98 57.73 58.08 58.57 57.84 57.74 57.37 57.05 56.33 55.26 53.09 53.65 50.12 48.97 46.11 47.23 47.86 48.14 48.19 47.58 46.51 44.54 43.97 44.00 44.13 44.26 44.36 44.48 44.74 45.02 44.98
59.19 58.53 57.97 58.41 58.39 58.63 58.91 58.62 58.26 58.50 57.73 56.94 57.26 57.00 56.99 57.66 57.00 57.62 57.45 56.82 55.75 54.92 54.03 51.17 50.48 44.75 45.84 45.84 47.16 45.42 46.65 47.47 46.64 45.51 44.35 44.39 43.41 42.54 42.02 41.88 41.61 41.69 41.75
59.92 59.69 58.77 57.94 58.01 58.18 58.07 58.24 58.23 57.75 57.36 57.17 56.96 56.58 56.59 56.67 56.29 56.74 57.10 56.99 56.55 55.08 54.28 52.25 50.54 42.79 43.60 43.74 43.92 44.11 44.49 45.13 46.29 46.76 45.27 43.26 42.62 42.09 41.64 40.85 39.97 39.73 40.07
59.81 59.97 59.93 59.31 58.82 58.67 58.59 58.35 58.13 57.54 57.51 57.57 57.59 57.27 57.67 57.11 56.48 56.72 56.29 56.58 55.53 53.59 52.38 51.05 48.42 40.65 41.80 41.65 43.04 41.81 40.72 42.79 42.90 45.82 45.00 42.99 42.04 41.71 41.06 39.32 38.92 39.10 39.04
61.08 60.72 60.29 59.72 59.65 59.21 58.70 57.90 57.92 57.38 57.08 57.03 57.18 57.71 57.83 56.04 51.43 53.44 56.07 55.99 54.40 52.56 51.04 48.17 45.51 39.07 39.96 38.43 39.53 40.59 39.49 40.22 41.46 42.85 40.85 39.92 38.94 37.83 36.17 39.03 38.87 39.45 38.90
60.76 60.90 60.25 59.90 59.41 59.47 51.91 47.27 53.34 57.70 57.39 56.74 56.19 56.56 56.41 49.57 49.41 45.77 46.53 47.84 52.16 52.19 48.98 45.75 45.01 41.27 40.91 38.29 39.27 38.22 37.45 35.14 33.66 40.22 37.21 35.51 37.43 35.59 36.08 35.83 38.34 38.31 38.70
60.38 59.74 59.63 59.67 59.03 59.25 47.84 46.31 44.81 56.66 57.07 56.59 55.84 55.05 54.54 51.48 48.42 46.25 37.00 35.91 35.18 35.33 37.96 44.10 40.45 36.64 35.79 37.44 37.44 35.78 34.36 32.68 31.81 34.98 33.99 31.10 34.05 31.20 34.30 36.84 37.79 36.06 35.29
59.47 59.21 58.97 58.85 58.66 58.59 47.19 45.63 44.08 53.44 55.76 55.49 54.35 53.94 55.54 46.57 44.26 40.12 36.42 33.78 32.88 33.06 34.14 35.75 34.49 32.08 32.15 32.83 33.65 33.13 31.32 31.30 31.09 32.57 33.03 26.61 30.60 29.05 32.27 32.50 36.14 37.29 36.97
59.07 58.68 58.80 58.05 57.62 57.13 40.56 41.96 42.83 48.60 42.26 37.30 37.84 38.45 38.37 37.66 38.07 38.78 35.52 32.40 30.68 29.77 32.35 32.55 32.11 31.54 30.96 29.81 29.94 30.91 28.83 28.67 29.02 28.47 31.88 29.67 27.78 27.21 27.92 28.10 30.60 35.34 35.36
58.13 53.94 42.20 40.81 38.45 41.13 38.91 39.81 43.53 39.96 34.36 32.48 32.54 32.76 33.68 33.59 34.16 34.47 31.96 29.85 26.95 26.79 27.33 27.01 27.12 27.80 28.95 29.06 29.54 28.25 27.44 26.81 26.90 25.09 28.05 26.33 25.22 25.31 22.09 26.06 26.67 27.40 27.62

GFSMA_sfc_wetblb_063.txt.gz
Wetbulb
62.85 62.12 61.66 60.44 59.28 58.44 56.97 55.70 55.51 55.92 55.11 56.12 57.55 58.76 57.83 57.30 57.45 58.14 58.21 61.22 61.39 61.89 61.43 61.27 60.61 59.95 58.75 58.10 58.08 57.76 57.20 56.70 56.48 56.02 55.63 54.80 54.30 53.42 53.09 52.85 52.71 52.67 52.56
62.48 61.79 59.67 58.81 58.00 57.19 55.39 55.76 56.29 55.62 55.21 55.79 57.12 59.02 58.09 57.68 57.37 57.62 57.80 58.21 60.44 61.32 61.23 60.85 60.76 60.10 59.31 58.17 57.61 57.76 57.13 56.62 56.07 55.57 55.08 54.24 53.40 52.58 52.12 51.64 51.44 51.10 50.96
61.68 61.92 59.57 58.44 58.97 57.68 55.56 55.62 56.23 57.06 55.46 57.37 56.86 58.08 58.64 57.53 57.36 57.51 57.51 57.23 58.51 59.73 60.72 61.28 60.63 60.19 59.75 58.68 57.89 57.33 57.35 56.72 56.06 55.56 54.81 53.91 52.99 52.11 51.39 50.78 50.25 49.97 49.71
61.30 61.99 60.63 58.66 59.83 58.33 57.74 56.78 57.48 56.10 55.52 55.75 55.17 55.73 57.36 57.34 57.00 57.18 57.41 57.41 57.32 57.77 59.31 60.63 61.07 60.88 60.15 59.60 58.72 58.15 57.48 57.32 56.53 56.05 55.32 54.43 53.49 52.48 51.59 50.68 50.03 49.55 49.11
60.88 61.80 61.17 59.94 60.02 58.69 58.89 58.57 56.62 55.79 54.60 54.37 55.08 54.54 55.00 56.36 56.69 57.36 56.63 56.75 56.89 57.21 57.25 59.50 59.91 60.07 60.43 60.33 59.71 59.16 58.54 57.50 57.41 56.85 56.07 55.44 54.34 53.19 52.11 51.26 50.43 49.98 49.59
60.07 60.86 60.83 60.31 60.31 59.28 57.98 56.95 56.53 54.89 54.92 55.51 57.16 55.23 53.88 54.41 55.93 55.95 56.44 57.00 56.60 57.03 57.11 57.13 58.28 57.84 59.12 60.33 60.65 59.99 60.12 59.16 58.19 57.67 57.13 56.42 55.63 54.59 53.25 52.16 51.30 50.77 50.41
59.25 57.79 59.21 58.85 58.02 58.51 57.94 57.03 56.07 54.86 53.41 54.16 52.27 51.66 51.54 52.88 53.29 53.72 54.95 56.63 56.46 57.07 57.02 56.98 57.21 57.30 57.81 59.43 60.72 60.50 60.96 60.86 59.88 58.58 58.12 57.14 56.57 55.70 54.70 53.38 52.31 51.73 51.32
58.32 57.40 57.75 57.41 57.43 57.70 56.74 55.78 55.15 54.33 54.17 54.35 51.67 49.96 46.53 48.30 49.96 51.99 51.77 53.03 54.88 57.21 57.47 57.49 57.16 57.19 57.05 57.51 57.77 60.59 61.10 61.32 61.03 60.36 58.77 58.03 57.20 56.49 55.91 55.08 54.14 53.19 52.68
57.85 57.70 57.54 57.05 56.80 57.07 56.29 54.92 54.11 54.16 52.73 53.38 52.50 49.48 45.49 44.90 46.58 48.87 50.60 50.85 51.37 51.99 55.24 57.70 57.93 57.59 57.35 56.99 57.61 58.15 58.12 58.60 61.11 61.75 60.91 59.77 59.06 57.38 56.71 56.33 55.83 54.96 54.17
56.93 57.07 57.54 57.31 56.77 56.94 56.43 55.38 55.86 55.64 53.77 51.94 51.09 53.33 51.57 51.89 48.82 47.48 50.04 50.43 51.22 52.11 52.33 53.26 57.41 57.91 57.74 57.28 57.17 56.44 55.18 55.48 57.43 60.40 61.34 61.16 60.04 59.40 58.45 57.19 56.75 56.42 55.73
56.69 56.70 57.13 56.94 55.76 55.85 56.52 56.77 56.38 56.51 56.48 54.20 51.46 50.28 50.21 51.91 52.70 50.38 48.25 49.46 51.29 52.32 52.78 53.06 53.82 55.53 57.60 57.79 57.31 56.74 53.77 53.67 54.85 57.67 59.73 60.52 61.12 60.31 59.56 59.02 58.64 57.75 57.13
57.03 56.73 57.02 57.53 56.72 55.90 55.86 57.93 57.75 57.05 56.68 56.52 55.30 54.28 53.09 51.53 51.30 51.09 49.12 49.07 49.31 50.34 52.89 53.16 52.97 53.50 53.31 53.77 54.96 54.82 53.05 52.34 53.14 55.34 57.41 58.82 59.67 60.37 60.14 59.67 59.34 58.19 58.26
56.79 57.57 56.74 55.79 56.86 57.32 56.31 57.40 58.30 58.19 57.23 57.13 56.70 56.32 56.29 55.95 55.35 53.85 52.33 51.33 50.33 51.66 50.97 51.53 54.16 54.23 53.63 52.58 52.92 52.22 52.82 50.92 51.41 53.32 54.98 56.41 57.27 58.14 58.81 59.02 59.04 58.72 58.29
55.97 58.23 58.14 57.20 56.89 57.95 58.30 58.53 58.14 58.35 58.50 58.06 57.11 56.77 57.12 56.98 56.40 55.18 53.29 51.39 48.00 49.30 50.36 50.84 51.49 52.17 52.33 51.56 51.84 50.55 52.59 48.56 47.87 48.95 50.77 52.41 53.86 54.99 55.52 55.66 55.76 55.50 54.96
55.89 56.54 58.18 57.60 57.26 57.58 58.33 58.79 58.45 57.47 57.83 57.68 56.94 57.21 56.53 56.23 56.90 57.28 56.21 55.03 52.47 48.25 48.08 49.95 50.00 51.57 53.07 52.84 51.79 50.53 52.00 49.85 48.36 47.55 48.15 49.48 51.00 51.62 51.40 51.38 51.41 51.67 51.51
55.17 55.74 57.53 57.78 57.54 57.42 58.27 58.56 58.51 59.00 57.87 57.43 57.71 56.93 57.33 57.26 56.87 57.74 57.28 56.20 54.93 53.62 50.25 51.36 51.80 51.69 52.33 52.15 51.86 52.00 51.51 50.11 47.57 46.83 46.37 46.67 46.96 48.03 48.58 48.64 49.01 49.38 49.67
54.97 54.78 56.46 57.52 57.99 57.59 57.45 58.23 58.79 58.57 57.76 57.53 57.50 57.23 56.91 57.37 56.64 56.72 56.57 56.28 55.06 54.75 52.40 53.86 51.89 50.64 49.01 50.57 49.47 49.83 50.16 49.80 49.78 45.95 45.20 45.27 45.06 45.27 45.44 46.00 46.34 46.86 47.01
55.77 55.37 55.22 56.31 57.45 57.94 57.79 57.13 57.09 58.30 57.59 56.72 56.77 56.62 56.11 56.97 56.36 56.78 56.24 55.79 55.86 55.86 54.22 52.84 54.19 48.13 48.44 46.76 47.59 46.89 48.52 49.21 48.50 47.26 45.55 44.93 44.14 43.41 43.20 43.47 43.40 43.63 43.88
56.76 56.67 56.06 55.18 55.54 56.23 56.92 57.74 57.81 57.62 57.84 57.68 57.28 56.56 56.52 55.99 55.62 56.40 56.26 55.96 55.71 55.68 56.11 54.55 53.93 47.68 47.88 44.00 44.66 44.94 45.93 47.00 47.76 47.45 44.04 43.49 43.23 43.25 42.72 42.36 42.23 42.06 41.60
57.09 56.87 57.07 56.63 56.25 56.37 56.49 56.54 57.01 57.38 57.48 57.47 57.13 56.79 56.75 56.36 55.71 55.59 55.03 54.67 55.00 55.11 55.15 54.35 53.86 46.52 43.76 43.21 45.32 44.11 42.24 44.69 44.31 46.48 45.68 43.81 43.47 43.17 42.49 41.90 41.30 40.90 39.84
57.68 57.83 57.54 57.32 57.09 56.44 56.58 56.65 56.67 56.36 56.27 56.14 56.52 56.54 56.37 54.86 50.79 52.88 55.61 55.08 54.65 54.48 54.81 54.22 52.48 43.88 42.29 39.15 41.12 43.22 43.18 41.93 42.53 43.85 43.25 43.64 42.63 41.95 41.69 41.49 40.21 40.00 39.77
57.65 58.04 57.26 57.70 57.75 57.52 50.77 46.41 52.54 56.10 55.99 55.60 55.20 55.58 55.71 49.42 49.18 45.69 45.44 47.15 52.63 54.30 54.08 53.11 51.86 49.63 46.15 44.51 42.26 40.66 38.99 36.40 35.68 41.61 39.99 38.04 39.02 36.37 37.32 36.96 38.55 38.14 38.79
58.58 58.07 58.19 58.53 57.85 58.25 48.20 45.97 44.99 55.80 55.77 55.30 55.09 54.96 54.97 54.96 49.61 53.00 38.59 38.31 38.08 38.25 37.67 51.64 52.46 47.43 38.59 38.20 38.88 36.75 35.25 34.57 33.70 35.69 34.29 31.62 33.15 31.94 34.80 36.41 37.61 37.49 36.68
58.52 58.37 58.46 58.51 58.72 59.02 48.58 46.94 44.10 52.68 56.12 56.65 56.44 55.99 55.59 53.81 49.88 44.49 37.93 33.67 32.32 32.44 33.26 34.79 33.74 32.00 32.10 33.98 34.34 34.37 32.79 32.01 32.16 32.47 32.96 28.95 31.83 30.05 32.67 33.41 35.79 36.96 36.88
58.43 58.29 58.80 58.60 58.43 58.41 45.48 44.84 44.46 52.57 53.52 39.86 37.58 39.41 41.96 41.45 38.79 39.58 34.86 30.65 29.25 29.34 32.40 32.73 31.93 31.32 30.99 32.06 33.08 31.60 29.55 29.05 28.21 28.20 30.33 29.14 28.22 27.61 28.52 28.83 31.25 32.76 32.46
57.77 57.68 47.34 41.11 38.57 43.53 38.06 41.03 44.08 46.22 35.62 32.87 32.99 33.75 34.98 35.67 35.41 34.92 31.99 29.95 27.14 26.89 27.88 28.36 29.22 30.10 30.81 30.97 30.53 29.62 29.25 27.02 27.16 25.70 27.38 25.23 25.45 25.08 21.76 25.17 26.00 26.70 26.69

GFSMA_sfc_wetblb_066.txt.gz
Wetbulb
63.15 62.88 61.90 61.55 60.22 59.48 57.58 55.41 54.12 54.31 55.18 56.34 57.57 56.88 56.52 56.44 56.69 57.81 58.05 61.26 61.70 61.99 62.03 61.89 60.99 60.21 59.57 59.53 58.43 57.94 57.75 57.39 56.84 56.41 55.75 55.30 54.68 54.04 53.90 53.83 53.64 53.50 53.51
62.60 61.77 60.89 59.92 59.35 58.42 57.06 53.76 53.78 52.89 53.53 55.06 56.87 56.63 56.59 56.28 56.59 57.09 57.72 58.85 60.76 61.52 61.77 61.42 61.11 60.33 59.81 59.17 58.50 57.67 57.45 57.24 56.48 56.33 55.27 54.83 53.83 53.21 52.68 52.63 52.45 52.06 52.03
61.78 60.64 58.93 58.04 58.10 57.62 53.97 53.12 53.66 53.76 53.74 55.87 57.09 56.88 56.48 56.31 56.62 56.65 56.61 56.84 58.42 59.76 60.72 61.46 60.71 60.30 59.58 59.09 58.58 58.32 57.56 57.07 56.57 56.28 55.25 54.64 53.76 52.94 52.26 52.12 51.62 51.33 51.04
61.89 59.41 58.22 57.51 56.67 56.10 54.43 53.85 54.03 53.95 53.27 54.86 55.09 56.69 56.20 56.10 56.33 56.24 56.18 56.67 56.45 57.33 59.16 60.57 61.05 61.07 59.95 59.55 59.01 58.73 58.60 57.70 56.98 56.54 55.90 54.93 53.98 53.18 52.43 51.84 51.45 51.15 50.82
61.83 59.32 57.64 58.00 56.78 55.99 53.59 55.12 54.51 54.32 53.79 53.94 55.28 55.35 56.14 55.15 55.45 56.73 55.59 55.70 55.93 56.10 56.39 59.30 59.84 59.96 60.56 60.34 59.78 59.39 59.13 58.65 58.15 57.39 56.62 55.85 55.04 53.95 53.15 52.27 51.61 51.06 50.76
61.69 61.17 58.57 58.93 57.30 56.32 54.97 55.50 54.49 54.73 55.70 55.07 56.43 55.16 54.28 55.25 55.27 55.21 55.60 56.27 55.76 55.79 55.84 56.27 57.74 57.59 58.92 60.61 60.84 60.26 60.05 59.84 59.04 58.71 57.98 57.05 56.19 55.20 54.06 53.29 52.47 51.85 51.42
60.42 61.36 59.53 59.09 59.09 57.27 56.98 56.26 54.74 54.64 54.01 54.54 52.89 51.38 51.35 53.24 54.47 54.72 55.05 54.91 55.27 55.76 55.29 55.78 56.20 56.42 57.39 59.38 60.55 60.78 61.35 61.38 60.44 59.48 58.88 58.21 57.29 56.31 55.49 54.29 53.52 52.92 52.43
59.28 59.96 60.26 58.72 59.16 58.00 56.16 55.41 54.93 52.89 53.76 54.45 52.40 50.60 48.18 49.11 50.96 52.79 53.57 54.69 54.30 55.61 55.72 56.11 55.90 56.49 56.24 56.75 57.63 60.70 61.07 61.74 61.59 60.92 59.53 59.23 58.69 57.42 56.67 55.75 54.85 53.98 53.44
58.63 58.45 59.75 57.79 58.27 57.92 56.49 54.70 54.39 54.12 53.03 52.78 53.57 51.17 46.30 46.69 46.84 48.49 50.49 52.69 54.06 54.64 55.62 56.04 56.19 56.50 56.67 56.55 57.17 57.62 57.94 58.62 61.34 62.53 62.00 60.64 59.83 59.17 57.55 57.13 56.33 55.54 54.83
57.63 57.66 58.08 57.30 56.92 57.75 56.68 56.00 54.91 53.15 53.46 53.37 51.45 52.65 51.51 50.03 46.58 44.88 48.82 49.64 51.15 53.53 55.08 56.22 56.47 56.40 56.63 56.34 56.78 55.90 54.71 54.98 56.96 60.44 61.90 62.04 61.03 60.13 59.47 58.60 57.39 56.90 56.44
56.92 56.75 56.96 57.32 56.19 56.98 57.23 56.55 54.96 53.43 53.81 53.31 51.62 50.65 50.12 51.02 51.09 48.90 46.86 48.15 49.19 50.73 52.30 53.72 56.02 56.83 56.87 56.93 56.52 55.88 53.39 52.89 54.30 57.48 59.78 61.30 61.88 61.06 60.24 59.71 59.32 58.62 57.56
55.91 56.20 56.57 56.69 56.61 56.39 56.87 56.58 55.76 54.17 54.15 54.06 53.87 51.91 50.65 49.60 50.07 49.99 48.31 48.21 48.50 49.50 52.00 52.29 51.93 55.09 56.87 57.11 57.14 55.24 53.26 51.77 52.50 54.93 57.06 58.74 60.31 61.13 61.28 60.46 60.01 59.71 59.06
55.15 55.50 56.26 56.31 56.24 56.47 56.64 57.43 56.10 54.50 54.26 55.16 54.90 53.16 53.94 52.89 53.42 52.43 51.19 49.33 48.76 49.67 49.95 50.41 52.10 52.78 53.20 53.86 55.67 54.00 53.91 51.03 51.11 52.72 54.47 56.20 57.35 58.63 59.58 60.21 60.33 59.75 59.16
55.89 56.52 56.25 56.67 56.94 56.71 56.12 56.29 57.20 56.87 56.11 55.65 55.36 55.78 55.97 55.51 55.47 54.37 53.06 51.52 47.52 48.29 48.67 50.58 51.11 52.91 53.11 53.55 52.91 51.17 53.15 49.35 49.39 49.78 51.16 52.72 54.01 55.18 56.12 57.11 58.12 58.73 59.06
56.19 57.13 56.94 56.08 56.43 56.67 57.18 56.58 55.41 56.11 57.13 57.04 56.67 56.42 56.41 56.51 56.82 56.59 55.28 52.96 51.44 46.38 46.93 49.97 50.34 51.91 53.17 53.80 52.66 52.41 51.94 50.74 48.43 47.75 48.50 49.99 52.13 53.25 53.66 54.48 55.20 56.13 56.55
54.14 55.36 57.38 57.18 56.76 56.63 56.74 56.58 56.41 56.54 56.41 56.94 57.24 56.97 56.85 56.81 56.12 55.98 55.40 53.98 53.52 52.72 50.02 50.95 51.07 52.62 52.55 52.28 52.38 51.86 51.51 50.33 48.29 47.47 47.54 48.25 49.24 50.91 51.68 52.10 52.87 52.98 53.16
53.65 53.66 55.55 57.31 57.13 56.48 55.43 55.60 56.33 57.07 56.73 56.62 56.74 56.40 56.28 56.90 56.10 55.59 55.71 55.81 54.98 54.61 52.11 53.30 52.69 52.26 51.35 52.09 52.03 51.83 52.31 51.68 51.84 47.09 46.41 46.41 46.54 47.20 47.96 48.22 48.40 48.92 48.91
53.93 53.80 53.63 55.52 56.62 56.78 56.27 55.48 54.95 55.81 56.43 56.38 56.43 56.18 55.86 56.57 55.61 56.24 55.59 54.91 54.88 54.87 53.20 51.40 53.19 49.98 49.14 50.83 53.16 51.31 51.39 51.32 51.12 48.57 45.96 45.69 45.78 45.10 44.93 44.60 44.94 45.05 45.67
54.87 54.19 54.02 53.50 54.46 56.26 56.59 56.56 56.12 55.65 55.74 56.53 56.86 56.27 56.09 55.91 55.19 55.42 55.29 54.81 54.67 54.67 54.63 53.57 52.95 53.63 51.13 44.29 45.88 45.87 47.80 49.65 49.88 49.00 45.31 44.13 44.43 44.69 44.11 43.52 43.48 43.67 43.60
56.59 55.79 55.06 54.50 54.10 54.07 55.33 56.43 56.43 55.93 55.66 55.82 56.63 56.87 56.78 56.08 55.55 55.24 54.88 54.85 54.96 54.24 53.98 53.56 53.79 54.14 51.69 46.70 45.42 46.41 47.00 46.90 48.33 48.83 47.27 45.17 44.24 43.99 43.30 42.77 42.49 42.50 42.40
57.32 57.30 56.63 56.27 55.47 54.89 54.42 54.19 54.83 55.01 55.40 55.57 56.08 56.43 57.05 55.71 51.69 53.45 55.35 55.23 55.10 54.43 54.06 53.47 53.45 53.69 49.70 40.55 43.64 48.79 47.09 48.94 45.00 46.75 45.16 44.16 43.32 43.36 43.00 42.57 42.59 42.45 41.58
56.75 56.77 56.86 56.65 56.26 56.04 50.16 46.12 50.63 54.66 54.70 54.46 54.82 56.04 56.72 50.07 49.71 45.60 45.76 47.09 52.18 53.83 53.03 53.34 53.34 52.45 53.26 49.36 49.85 48.93 45.63 37.62 38.27 41.87 41.36 39.83 41.17 39.45 40.28 41.43 41.22 39.81 40.15
56.29 56.41 56.69 56.87 56.30 56.60 48.18 45.85 44.42 54.14 54.99 54.87 54.46 54.43 54.40 54.73 49.35 53.82 44.93 41.84 36.85 36.14 37.61 48.64 53.20 53.65 52.30 51.74 49.98 38.91 36.52 35.97 33.97 34.01 35.02 32.04 34.05 33.25 35.43 36.36 37.15 38.13 37.99
56.59 56.01 56.07 56.37 56.46 56.70 48.00 45.06 43.69 52.37 54.13 54.80 55.00 54.86 55.04 54.79 53.84 52.52 44.59 35.39 32.98 32.71 33.61 35.56 36.31 32.75 33.70 34.86 37.42 36.72 34.22 32.22 31.57 31.66 33.50 29.98 32.18 31.23 32.57 33.32 35.44 35.38 34.30
55.78 57.14 57.20 56.87 56.34 56.56 48.87 45.56 45.54 53.71 54.10 54.26 54.63 49.45 49.47 53.07 49.68 44.65 38.60 32.19 30.22 30.24 33.08 33.35 33.29 33.34 33.55 34.07 34.94 34.47 32.02 31.62 28.37 27.73 28.98 29.73 27.64 27.94 29.07 30.01 32.57 31.46 30.63
45.52 53.26 57.54 57.28 53.34 56.40 45.51 42.96 45.57 54.95 54.04 51.37 36.88 35.77 36.92 41.61 39.14 39.25 38.80 32.39 28.10 28.17 29.55 29.12 29.04 29.61 30.18 30.29 30.76 30.78 30.96 28.89 27.37 25.39 26.02 26.53 25.57 25.38 23.88 25.51 26.17 26.88 26.79

GFSMA_sfc_wetblb_069.txt.gz
Wetbulb
63.29 63.67 62.88 61.76 59.34 58.83 58.42 56.19 54.23 55.18 56.24 56.46 56.73 56.44 56.21 55.69 55.81 56.99 57.32 61.36 61.93 62.36 62.22 62.05 61.72 61.10 60.34 59.86 59.41 58.95 58.57 57.96 57.59 56.90 56.37 56.10 55.40 55.27 55.38 55.13 55.07 54.90 54.60
63.51 62.51 61.66 60.78 59.30 58.14 56.78 55.95 54.09 54.23 55.96 56.33 56.25 56.16 56.01 55.79 56.07 55.95 56.92 58.61 60.76 61.71 61.95 61.44 61.22 60.94 60.84 59.76 58.88 58.53 58.46 57.65 57.23 56.66 56.12 55.50 54.47 54.36 54.30 54.08 53.81 53.62 53.57
63.06 62.23 61.01 59.19 58.67 57.04 54.47 53.64 52.59 52.21 53.95 56.58 55.91 55.66 55.50 55.30 55.76 55.79 56.09 56.66 58.32 59.87 61.00 61.65 60.76 60.53 60.34 60.23 59.00 58.40 58.09 57.69 57.08 56.67 55.92 55.23 54.31 53.84 53.40 53.14 52.86 52.67 52.69
62.71 61.18 59.56 58.91 58.58 56.54 55.05 53.80 52.81 52.13 53.45 55.75 55.00 55.14 54.95 55.24 55.39 55.41 55.38 55.81 56.05 57.00 59.45 60.74 61.03 60.64 59.91 59.97 59.75 58.91 58.26 57.63 57.28 57.09 56.24 55.50 54.71 53.92 53.26 52.94 52.68 52.33 51.98
61.12 59.68 58.31 57.53 57.21 56.35 55.16 53.91 53.34 53.73 53.06 54.44 55.26 55.04 54.35 54.70 55.00 56.16 55.11 55.26 55.34 55.51 55.67 59.49 60.05 60.07 60.43 59.81 59.60 59.93 59.85 58.67 57.94 57.57 56.89 56.14 55.47 54.46 53.59 53.10 52.71 52.27 51.92
60.32 58.09 57.38 56.82 56.54 53.82 53.81 54.12 54.34 53.31 53.25 54.65 55.97 54.85 54.69 54.07 54.92 54.19 54.76 55.51 54.98 55.10 55.18 55.77 57.07 57.36 59.24 60.37 59.97 60.05 60.46 60.15 59.63 58.81 58.21 57.25 56.33 55.44 54.59 53.85 53.29 52.81 52.57
60.45 58.27 57.40 56.68 55.87 52.27 53.51 54.95 52.93 52.79 52.14 53.80 52.85 51.66 51.97 53.98 53.76 54.19 53.99 54.17 54.41 54.94 54.63 54.96 55.31 55.32 56.61 59.65 60.91 60.80 61.20 61.27 60.84 59.96 59.54 58.75 57.71 56.79 55.82 55.03 54.34 53.72 53.33
61.28 59.27 57.48 57.29 55.93 54.44 54.63 55.01 53.11 51.90 52.12 53.46 52.14 51.39 48.76 50.67 52.50 52.84 53.13 53.48 54.12 55.22 55.27 55.15 54.72 55.34 55.14 56.04 57.03 60.74 61.16 61.87 61.94 61.36 60.40 60.30 59.68 58.23 57.40 56.56 55.76 54.89 54.32
59.97 60.79 58.50 58.05 57.56 56.32 55.76 54.98 53.36 53.44 51.91 52.00 53.24 51.39 46.97 48.02 48.72 50.08 51.93 53.30 53.65 53.82 55.16 55.10 54.99 55.33 55.83 55.82 56.73 57.68 57.88 58.52 61.41 62.62 62.45 61.52 60.58 60.26 59.23 58.06 57.26 56.46 55.64
59.14 58.89 60.01 58.43 58.42 58.11 56.73 55.37 55.05 54.50 53.96 52.76 50.95 52.05 51.85 50.82 48.00 46.46 49.13 52.21 53.43 53.07 53.76 53.86 54.92 55.38 55.70 55.81 56.21 55.34 54.55 54.74 57.09 60.43 62.02 62.61 62.34 61.19 60.59 59.92 59.19 57.83 57.20
57.83 57.30 58.72 57.91 57.73 58.15 57.65 56.37 54.27 52.84 54.95 54.20 51.22 50.33 50.69 51.06 50.69 48.82 46.27 47.53 48.53 52.31 54.40 54.33 55.18 55.48 55.74 55.73 55.57 55.19 53.33 52.78 54.10 57.45 59.65 61.24 62.10 62.47 61.56 60.83 60.11 59.71 59.30
57.05 56.68 57.79 57.26 57.41 57.28 57.15 56.76 55.58 53.94 53.76 55.12 53.32 52.08 51.32 50.89 50.68 49.99 47.59 47.32 47.46 49.12 51.57 52.71 53.88 55.19 55.72 55.78 56.26 54.72 53.05 51.92 52.60 54.84 56.96 58.66 59.96 61.00 61.93 61.67 61.02 60.54 60.11
56.25 55.57 56.36 56.89 56.46 56.67 57.16 57.28 56.31 55.83 53.96 53.40 54.05 52.54 53.10 52.54 53.24 53.15 50.82 49.24 48.47 49.40 49.37 50.92 51.99 53.31 54.78 55.51 55.97 54.13 54.02 50.94 51.18 52.78 54.61 55.94 57.30 58.51 59.58 60.56 61.08 61.36 60.88
56.36 55.89 56.22 56.83 57.28 56.91 56.58 57.16 56.57 55.95 55.59 54.25 53.84 53.91 53.09 53.05 52.79 52.52 51.14 49.35 46.37 47.21 48.24 50.04 50.57 52.04 52.15 53.05 54.23 52.67 55.36 50.86 50.10 50.56 51.64 53.25 54.41 55.38 56.18 57.38 58.52 59.40 60.01
56.49 55.08 55.48 56.14 56.82 56.82 56.42 56.06 56.48 55.89 55.90 54.77 54.31 55.01 54.94 54.70 54.74 54.02 53.19 52.31 50.88 47.62 47.26 49.54 50.07 51.70 52.77 53.22 52.42 53.03 53.39 52.54 49.71 49.10 49.22 50.31 52.11 53.22 53.66 54.41 55.59 56.74 57.74
54.49 55.91 55.64 55.53 55.85 56.54 56.42 55.78 55.22 55.37 56.03 55.82 55.03 53.97 54.37 55.47 55.68 55.73 55.17 54.41 54.12 53.21 49.96 49.48 50.21 52.03 51.88 52.61 53.22 52.79 52.91 51.05 48.71 47.03 46.94 47.96 49.35 50.96 51.77 52.44 53.39 54.09 55.00
53.07 53.72 56.67 56.16 55.61 55.74 56.08 55.60 55.19 54.95 54.37 55.27 55.61 55.30 55.38 56.01 55.75 55.84 55.46 55.14 54.49 53.90 51.94 53.36 51.77 51.41 49.98 51.55 52.29 51.71 52.11 51.33 51.60 47.43 46.61 46.46 46.46 47.30 48.22 49.30 50.11 50.94 51.90
53.62 53.43 53.25 55.63 56.93 56.05 55.74 55.58 55.78 56.27 55.74 54.82 54.77 54.68 54.84 56.10 55.89 56.35 55.59 54.86 54.70 54.99 53.62 52.10 53.68 51.99 49.14 52.20 52.13 50.67 51.45 51.99 52.27 50.57 46.96 46.44 46.43 46.34 45.99 46.33 46.94 47.29 48.06
53.85 53.51 53.74 53.02 54.80 55.62 56.33 56.14 55.37 55.02 54.99 55.52 55.79 55.57 55.42 55.29 54.76 55.38 55.88 55.45 55.39 54.96 54.71 53.32 52.81 53.83 52.87 46.84 48.34 46.94 48.92 49.89 51.25 50.72 46.27 45.32 45.74 46.08 45.52 45.27 45.61 45.59 45.47
55.16 54.25 53.64 53.61 53.54 53.80 54.99 55.54 55.32 54.83 54.52 54.35 54.42 55.00 55.31 55.28 55.14 54.99 54.68 55.03 55.05 54.47 54.06 53.00 52.79 52.71 52.83 49.94 45.81 49.57 50.03 48.13 50.06 50.67 48.54 46.66 45.43 45.35 44.86 44.50 43.94 43.95 43.92
55.75 55.55 55.29 54.84 54.43 53.56 53.38 53.36 54.57 55.16 54.85 54.53 54.75 54.80 55.28 54.50 51.30 52.94 55.02 54.67 54.04 53.27 53.07 52.86 52.58 52.94 52.94 48.58 47.79 51.60 49.23 52.07 52.21 49.92 49.55 47.88 46.80 45.05 44.18 43.29 43.56 43.41 42.67
56.81 56.60 55.50 55.40 55.23 55.06 49.03 45.50 48.77 53.06 53.69 54.14 53.95 54.52 54.90 49.58 49.46 45.67 45.43 47.20 52.16 53.34 52.59 52.62 52.85 52.09 52.58 53.22 52.72 51.02 51.38 48.44 46.15 43.13 44.54 40.18 41.65 40.66 41.28 42.44 41.94 41.65 41.28
56.48 56.31 56.50 56.36 55.75 56.05 47.47 45.58 44.03 52.75 53.22 53.04 53.15 53.38 53.49 54.36 49.81 54.36 47.20 43.35 44.24 43.43 46.16 54.09 53.14 53.02 52.90 53.49 53.73 50.94 49.69 50.69 47.16 34.85 36.91 32.14 34.69 33.15 36.02 36.12 36.64 37.06 37.34
47.43 51.26 55.67 56.32 56.22 56.50 47.94 46.14 45.89 52.76 54.13 54.07 53.87 53.75 53.56 53.50 53.44 52.95 52.98 50.97 48.07 47.39 39.10 39.79 46.77 48.32 41.19 38.82 41.21 42.42 41.56 32.70 32.08 31.50 33.46 32.27 31.99 31.04 32.89 33.53 35.14 35.21 35.00
43.90 44.96 47.09 47.85 53.23 56.28 48.11 44.16 45.04 52.77 53.33 53.80 54.80 54.55 54.21 53.55 50.51 46.55 50.59 49.43 37.33 33.10 34.27 34.83 34.51 33.97 33.73 34.24 35.73 36.10 33.40 34.14 28.75 26.55 27.86 29.93 27.32 28.32 29.09 29.68 31.70 31.72 30.67
40.86 42.10 40.16 36.46 34.93 34.70 36.04 36.03 38.67 51.46 52.63 52.62 53.11 52.01 35.50 35.38 36.92 40.91 49.38 49.48 37.70 30.78 30.08 28.62 28.06 28.43 29.37 29.80 30.36 29.58 31.87 28.85 27.02 24.56 26.12 26.54 26.04 26.52 24.98 26.98 27.24 27.20 27.08

GFSMA_sfc_wetblb_072.txt.gz
Wetbulb
62.67 61.62 62.70 62.28 61.95 59.74 57.41 55.65 56.03 57.06 55.81 56.01 56.68 56.77 56.61 56.48 56.73 57.35 58.09 61.49 62.02 62.49 62.23 61.95 61.80 61.66 61.16 60.49 60.08 59.63 59.13 58.69 58.64 58.38 58.01 57.38 57.04 56.83 56.58 56.46 56.23 56.14 55.59
62.79 62.56 62.60 61.49 59.48 59.76 56.86 54.54 55.98 56.02 55.61 55.76 55.71 56.31 56.52 56.26 56.88 57.16 57.62 59.30 60.77 61.76 62.34 61.88 61.83 61.41 61.23 60.49 59.72 59.38 58.77 58.43 57.92 57.44 57.07 56.33 56.06 55.94 55.75 55.69 55.27 55.18 54.97
62.83 63.11 61.98 60.48 59.08 57.79 54.76 52.88 52.61 54.31 55.02 55.59 55.16 55.98 56.31 56.32 56.40 56.37 56.92 57.44 59.52 60.02 60.99 62.05 61.74 61.30 60.88 60.45 59.70 59.26 58.75 58.06 57.50 57.20 56.69 56.05 55.26 55.18 54.81 54.65 54.38 54.21 53.99
63.44 62.65 61.52 59.73 57.80 56.63 55.01 53.12 53.09 53.92 54.51 54.34 54.07 54.89 55.63 55.91 55.94 56.02 56.21 56.96 57.01 57.74 59.60 60.71 61.19 61.37 60.85 60.57 59.82 59.46 58.83 58.05 57.79 57.23 56.61 55.94 55.09 54.70 54.16 53.90 53.77 53.32 53.32
63.10 61.94 60.62 59.16 57.52 56.26 55.25 53.42 52.05 54.17 54.52 53.56 53.99 54.82 54.94 55.03 55.25 56.16 55.64 56.04 56.19 56.42 56.97 59.59 59.71 59.91 60.55 60.61 60.14 59.87 59.50 58.82 58.21 57.75 57.09 56.38 55.76 54.88 54.30 54.00 53.59 53.32 53.03
61.77 60.50 59.04 57.85 57.85 56.57 55.41 54.24 52.71 52.78 54.93 54.33 54.98 53.30 53.81 54.76 54.71 54.53 54.85 55.83 55.78 56.05 56.11 56.91 58.25 58.12 59.00 60.38 60.19 60.47 60.67 60.13 59.26 58.72 58.22 57.49 56.66 55.97 55.06 54.48 54.06 53.65 53.38
59.56 58.55 57.18 56.47 56.11 55.42 54.88 54.24 53.52 53.18 53.08 54.84 52.37 51.17 51.73 53.81 54.16 54.12 54.44 54.80 55.42 55.71 55.70 55.79 56.25 56.74 57.68 59.64 60.69 60.48 61.05 61.41 60.94 60.50 59.54 58.94 58.08 57.01 56.23 55.54 54.85 54.46 54.20
58.69 57.83 56.96 55.89 55.20 53.15 53.86 54.32 53.86 52.34 53.08 54.82 51.94 50.69 48.40 50.89 53.46 53.95 53.95 54.32 54.32 55.61 55.46 55.71 55.70 56.29 56.14 56.74 58.17 60.82 61.09 61.76 61.72 61.16 60.84 60.61 59.99 58.75 57.84 57.04 56.30 55.61 55.21
59.57 58.37 58.00 55.58 55.01 53.60 53.27 53.94 52.79 52.42 51.34 52.06 54.32 51.02 47.67 48.46 50.44 51.97 52.65 53.27 53.85 54.11 55.39 55.65 55.62 55.83 56.14 56.09 56.77 57.93 58.07 58.80 61.73 62.92 62.80 61.86 61.07 60.64 59.95 58.90 58.05 57.23 56.53
60.58 58.90 57.86 57.35 55.47 54.60 54.55 54.61 54.26 53.26 53.15 52.28 50.65 52.21 52.40 50.95 49.49 47.47 50.16 52.68 53.87 53.89 54.24 54.98 55.47 55.40 55.95 56.35 56.42 55.45 54.48 54.76 57.04 60.57 62.12 62.91 62.65 61.81 61.25 60.56 60.15 59.16 58.16
59.87 59.94 58.21 58.13 57.00 56.69 56.11 55.28 54.48 53.10 53.43 53.09 51.71 50.79 50.62 50.71 50.96 49.73 47.74 48.62 50.45 53.50 54.80 54.43 54.83 55.18 55.72 56.21 56.25 55.47 53.08 52.71 53.91 57.11 59.66 61.05 62.25 62.79 62.57 61.70 61.08 60.69 60.10
58.24 58.66 59.66 57.82 57.87 57.73 56.66 56.27 55.32 54.18 53.88 53.76 53.62 52.28 51.69 50.52 50.17 49.99 48.55 48.69 48.54 50.24 53.29 54.66 54.59 55.07 55.65 55.89 56.20 54.49 52.67 51.57 52.23 54.68 56.92 58.72 60.05 61.18 62.01 62.40 62.47 61.71 61.14
56.66 56.50 58.17 57.64 58.09 57.53 57.40 56.75 55.33 54.17 53.60 53.70 53.64 53.20 53.35 53.22 53.13 52.30 51.54 50.16 49.44 50.74 49.94 51.88 53.87 55.25 55.70 56.07 56.15 53.85 53.62 50.70 51.07 52.63 54.42 55.77 57.04 58.65 59.72 60.55 61.42 62.21 62.01
57.28 57.28 57.15 57.20 57.23 57.52 57.42 57.37 56.36 55.67 55.63 54.37 53.58 53.99 53.36 53.89 53.34 52.81 51.79 50.85 47.80 48.31 49.47 50.72 51.58 52.70 53.63 54.92 55.24 52.55 55.58 50.55 50.08 50.72 51.63 53.14 54.36 55.34 56.15 57.55 58.69 59.50 60.42
57.52 56.61 56.77 56.98 56.80 57.14 57.16 57.14 56.94 56.58 56.54 56.28 55.05 53.99 53.95 53.94 53.67 53.28 52.92 52.22 51.11 47.60 47.51 50.25 50.59 52.38 52.77 52.79 52.79 53.99 54.95 53.31 50.11 49.49 49.44 50.46 52.11 53.24 53.91 54.58 55.56 56.47 57.52
56.65 55.14 55.55 56.39 56.70 56.72 56.62 56.44 56.34 56.40 55.90 56.08 55.94 54.79 54.24 54.76 54.27 54.05 53.42 52.81 51.85 50.77 48.40 51.41 51.82 53.43 52.94 52.42 52.88 52.92 53.17 51.28 49.47 48.00 47.73 48.32 49.28 50.84 51.67 52.26 52.99 53.85 54.70
55.05 54.83 54.93 55.20 55.34 56.08 56.47 55.86 55.50 55.44 55.51 55.43 55.78 54.93 54.17 54.46 53.92 54.72 54.87 54.34 53.58 53.33 51.07 53.21 52.80 52.70 51.44 52.41 53.03 53.48 53.52 53.35 53.38 48.23 46.99 46.96 46.94 47.31 48.27 49.00 50.06 50.83 51.72
53.41 53.99 55.77 54.42 54.70 55.24 55.85 55.89 55.03 54.93 54.21 53.99 54.97 54.63 54.03 54.40 53.93 54.17 54.28 54.15 54.56 55.09 53.74 52.28 54.48 54.79 50.92 53.21 53.65 53.15 52.61 52.46 53.48 50.71 47.74 46.85 46.35 45.58 45.42 46.06 46.78 47.44 48.21
53.05 52.70 52.86 54.72 55.61 55.14 54.66 55.13 55.46 55.04 54.30 53.77 53.76 53.54 53.92 54.94 54.24 54.90 54.87 54.87 54.99 54.97 54.83 53.61 53.50 55.32 55.35 51.53 51.02 51.48 52.90 53.05 51.91 50.94 47.47 46.31 45.85 45.96 45.56 45.12 45.67 46.13 46.13
53.09 53.70 54.12 53.79 54.08 54.78 55.51 55.22 54.68 54.52 54.92 55.48 55.80 55.60 55.43 54.72 54.14 53.96 54.04 54.47 54.78 54.87 54.87 53.84 53.69 53.91 54.52 54.91 49.55 51.54 51.31 49.36 51.23 52.05 50.19 49.08 47.69 46.61 45.69 45.32 44.89 45.24 45.28
55.49 54.79 53.83 53.21 53.88 53.94 53.74 53.90 54.85 54.84 54.24 53.79 53.93 54.10 54.59 54.02 50.63 52.59 54.83 54.60 54.53 53.72 53.62 52.96 52.50 52.79 52.55 52.45 50.00 52.81 50.63 52.11 53.46 52.66 53.07 51.29 49.87 48.69 47.79 44.55 45.96 44.52 44.02
56.45 56.11 55.34 54.83 54.20 53.78 47.22 44.91 49.05 53.26 53.70 53.90 53.69 54.15 54.42 49.09 48.73 45.07 45.02 46.46 51.90 52.92 52.02 52.10 52.00 51.38 51.92 52.85 53.56 52.86 51.78 51.26 49.68 49.75 50.61 49.38 42.62 41.15 40.03 41.26 42.71 42.36 42.23
47.63 48.92 52.89 55.31 55.62 55.68 46.61 44.90 43.18 51.86 53.15 53.37 53.24 53.18 53.31 54.09 49.32 53.34 47.93 42.82 43.47 42.66 45.55 53.41 52.30 52.28 52.44 53.51 53.94 53.11 52.41 51.92 51.69 44.36 40.85 35.08 35.43 32.87 35.83 36.41 36.97 37.16 37.29
43.95 44.92 45.55 45.87 44.34 41.99 35.33 35.59 36.61 48.82 52.82 53.90 54.17 54.32 53.61 53.73 53.74 52.98 52.90 52.04 50.04 48.93 48.54 48.43 51.01 51.55 38.84 37.68 43.15 46.72 47.46 43.43 32.23 30.59 32.95 31.55 32.21 30.60 32.50 32.62 34.26 33.88 33.61
40.75 41.02 37.95 36.44 33.76 34.82 33.67 34.98 36.06 40.89 50.02 52.39 53.99 54.60 54.17 53.72 50.19 46.30 50.31 50.22 50.16 38.07 33.75 35.57 34.09 31.76 31.45 32.12 34.03 37.78 35.68 34.55 31.11 26.55 27.43 29.75 27.79 27.72 28.39 27.64 29.74 31.73 31.16
37.10 36.33 32.66 31.64 31.25 30.94 32.55 34.27 35.18 38.95 40.90 45.87 49.18 34.53 33.42 33.78 35.32 38.33 42.47 49.39 49.09 34.93 28.86 27.93 27.46 27.77 27.85 28.06 28.64 27.66 31.15 31.85 29.55 24.57 25.57 26.49 25.82 27.31 23.44 26.92 26.59 27.10 27.01

GFSMA_sfc_wetblb_075.txt.gz
Wetbulb
64.53 63.84 63.04 64.78 63.39 62.01 64.84 64.42 63.91 63.13 62.66 62.05 62.16 61.51 61.22 61.56 61.53 61.43 62.13 61.72 62.27 62.42 62.84 63.23 62.83 62.34 61.78 61.57 60.61 60.09 59.68 59.49 59.54 59.36 59.04 58.75 58.49 58.05 57.61 57.36 57.21 57.21 56.94
64.69 62.60 63.29 63.61 61.78 60.89 62.92 63.15 63.16 62.39 62.18 61.96 60.97 61.31 61.05 61.32 61.49 61.78 62.06 62.00 60.91 62.30 63.21 62.76 62.91 61.98 61.62 61.00 60.36 59.95 59.50 59.25 59.27 58.93 58.42 57.92 57.68 57.43 57.14 56.93 56.85 56.55 56.25
63.46 62.99 63.39 62.49 61.19 60.43 61.22 62.00 61.98 61.89 61.46 61.29 60.63 60.86 60.73 61.06 60.44 61.47 61.97 62.00 60.91 60.22 61.40 62.34 62.63 61.77 61.51 60.96 60.17 59.92 59.33 58.91 58.63 58.25 57.55 57.03 56.85 56.72 56.54 56.33 56.09 55.79 55.72
64.28 62.89 62.35 61.74 60.84 58.81 59.78 60.15 60.62 60.34 60.52 60.16 59.84 59.95 60.18 60.51 60.43 61.24 61.51 61.61 61.58 61.24 60.34 60.96 61.81 62.05 61.12 60.71 60.37 60.11 59.47 58.81 58.24 57.69 57.26 56.65 56.15 56.22 55.91 55.60 55.34 55.13 54.96
63.64 63.27 61.95 60.98 59.74 59.77 59.01 59.52 60.15 60.41 59.62 59.47 59.15 59.47 59.57 59.57 60.15 59.85 60.84 61.36 61.81 61.62 61.33 60.07 60.03 60.14 61.25 61.18 60.43 60.46 60.07 59.19 58.73 58.33 57.77 57.06 56.18 55.89 55.50 55.09 54.96 54.75 54.67
63.11 62.51 61.44 60.11 59.72 59.36 58.49 58.71 58.93 60.01 59.76 59.32 58.26 58.12 59.13 59.57 59.92 59.47 60.10 60.53 61.29 61.55 61.77 61.44 61.18 60.08 59.11 60.76 61.13 60.66 60.83 60.38 59.71 59.29 58.60 57.73 57.15 56.40 55.77 55.21 55.00 54.98 54.67
62.82 61.47 59.96 59.12 59.55 59.17 59.36 58.59 58.34 58.57 58.53 59.64 57.52 57.03 57.63 58.79 58.95 59.03 59.51 59.64 60.13 60.66 60.99 61.33 61.28 60.94 59.92 59.62 60.81 60.92 61.54 61.64 60.90 60.09 59.66 59.05 58.17 57.44 56.72 56.16 55.71 55.38 55.13
61.22 60.08 59.04 59.03 58.90 59.95 59.12 58.81 58.63 57.92 58.36 58.90 57.13 56.40 53.34 55.18 57.14 57.91 57.64 58.29 59.27 59.76 59.52 59.93 60.41 60.66 60.55 60.11 59.82 60.70 61.09 61.76 61.81 61.73 60.99 60.83 60.11 59.34 58.25 57.66 56.81 56.39 56.01
59.51 58.80 58.90 58.31 58.54 58.91 57.98 57.99 58.25 57.93 56.04 57.84 59.12 57.61 53.27 53.09 54.49 56.83 57.09 57.47 58.06 58.04 59.02 59.73 59.33 59.60 59.77 60.03 59.76 59.45 58.03 58.91 61.74 63.02 62.75 61.91 61.49 60.96 60.46 59.67 58.75 57.94 57.32
59.66 58.66 57.19 57.28 57.70 58.12 58.25 58.00 57.95 57.04 56.63 55.15 57.52 57.68 59.25 57.53 54.19 52.01 54.84 56.73 57.20 57.05 57.47 58.24 59.24 58.92 59.29 60.01 59.03 56.80 54.90 54.89 57.13 60.55 62.26 63.17 62.93 62.28 61.48 60.92 60.53 60.09 59.62
59.51 59.19 57.93 56.86 55.80 56.98 58.19 57.59 57.73 57.75 58.76 58.21 57.22 56.57 56.66 56.82 57.94 56.00 53.09 53.03 55.52 56.95 58.64 58.92 58.84 59.18 59.66 59.83 59.76 58.02 53.57 52.71 53.81 57.17 59.64 61.04 62.46 62.78 62.96 62.02 61.59 61.22 60.89
59.71 58.67 58.49 57.30 56.50 55.75 55.58 55.82 56.33 58.39 58.23 58.82 58.55 58.59 56.82 55.67 54.44 54.39 53.02 53.81 54.19 55.01 57.65 58.65 59.27 59.26 59.47 58.89 58.15 55.11 53.20 51.67 52.25 54.57 56.83 58.58 60.00 60.94 61.82 62.57 62.87 62.48 62.02
58.00 58.95 58.75 58.33 57.90 56.95 56.41 56.42 55.73 55.63 57.21 57.37 58.61 57.29 57.82 57.59 57.21 55.97 55.27 53.57 53.27 55.07 55.30 56.11 57.76 58.48 58.00 59.32 59.45 54.75 54.22 50.68 50.89 52.66 54.20 55.71 57.10 58.50 59.58 60.54 61.41 62.41 62.78
58.13 58.15 58.92 58.40 58.37 58.27 57.48 56.91 56.26 55.39 55.72 57.06 57.78 58.45 57.57 57.47 57.77 57.43 55.72 55.34 52.91 53.41 55.94 54.88 55.46 57.36 58.85 59.42 59.11 53.48 57.89 50.42 49.72 50.46 51.55 52.88 54.30 55.20 56.00 57.33 58.61 59.74 60.63
58.52 58.18 58.51 57.98 58.46 57.92 57.86 57.40 56.39 55.71 55.22 55.42 56.18 57.30 55.79 57.67 57.28 57.16 57.18 57.45 54.23 51.03 51.78 55.54 54.87 58.05 57.71 58.81 57.71 59.43 59.14 54.99 50.04 49.29 49.38 50.40 52.03 53.14 53.67 54.32 55.24 56.16 57.61
58.56 58.28 58.84 57.91 57.38 57.94 57.89 57.43 57.16 56.95 56.09 56.16 56.19 55.56 55.50 56.23 56.15 56.55 54.10 55.68 54.16 54.22 50.77 55.23 57.17 58.39 58.98 57.39 57.08 57.34 58.44 53.32 50.31 48.46 47.80 48.30 49.31 50.82 51.55 52.07 52.70 53.59 54.57
57.14 56.68 57.48 57.34 57.12 57.61 57.77 57.17 57.08 57.03 56.63 56.61 56.60 56.25 56.00 56.58 56.10 55.42 55.18 54.44 53.63 53.28 52.59 54.64 57.88 59.73 58.70 58.34 58.17 57.79 55.96 56.14 56.46 48.61 47.31 47.47 47.31 47.72 48.36 48.91 49.54 50.47 51.48
57.35 56.18 56.62 56.84 57.69 57.97 58.99 58.32 57.74 56.53 56.00 55.82 56.29 55.88 55.50 55.87 55.46 56.34 55.14 54.26 56.31 57.15 55.10 54.08 57.19 58.12 59.17 59.91 60.25 59.63 57.79 56.21 57.08 52.79 48.73 47.42 46.79 46.30 46.16 46.26 46.58 47.13 47.95
58.19 57.42 56.88 56.14 56.61 57.98 58.55 57.66 58.09 58.49 57.83 57.28 57.14 56.63 56.42 56.04 55.61 55.56 55.70 56.08 56.23 55.62 55.88 54.92 55.70 58.52 59.36 60.69 59.71 58.57 58.76 59.48 59.14 53.75 48.61 46.95 46.95 46.90 46.72 45.82 45.87 45.87 45.98
57.51 57.77 57.98 58.15 58.11 57.66 56.98 57.06 57.46 57.81 58.08 58.06 58.21 57.64 57.43 58.04 58.00 58.12 57.96 57.85 56.69 55.56 55.90 55.11 55.08 57.20 58.39 59.45 59.87 58.02 58.06 59.54 57.52 57.68 53.54 50.80 49.97 48.31 46.40 46.01 45.13 45.02 44.88
56.99 57.09 57.34 57.20 57.77 57.53 57.09 57.21 56.54 56.12 56.52 57.38 58.68 58.29 58.75 56.97 51.38 54.36 57.58 57.93 58.07 56.99 56.18 55.32 54.69 56.33 56.69 57.04 57.05 58.51 56.96 57.42 58.39 59.17 58.36 58.31 58.17 57.36 56.06 47.08 46.99 45.38 44.68
49.12 53.47 54.93 54.65 54.30 49.99 36.50 38.42 44.82 55.85 56.60 56.54 56.87 57.92 58.55 51.27 51.40 45.00 45.25 46.19 52.86 55.81 54.78 54.31 54.22 53.15 54.48 56.77 57.80 57.17 56.86 55.75 54.01 58.42 55.62 54.80 50.11 43.18 38.79 38.54 40.21 41.79 42.40
45.84 46.12 45.14 44.98 41.92 36.17 35.03 36.21 36.36 43.90 50.99 53.98 54.65 55.24 55.81 56.42 51.66 56.57 48.07 42.73 43.63 43.17 45.01 53.36 52.78 53.02 52.82 53.97 53.78 53.17 53.35 52.90 52.63 55.36 49.40 50.60 36.25 32.61 34.63 35.31 36.33 36.57 36.69
42.59 39.75 38.16 36.42 37.38 35.07 34.39 35.01 34.87 42.17 45.89 49.27 52.31 53.52 52.80 52.55 53.38 51.61 53.34 52.77 51.44 50.73 47.65 47.58 49.83 51.10 41.54 34.56 37.30 44.46 46.87 46.20 34.22 30.56 32.97 32.16 31.68 28.94 30.70 32.04 33.32 33.26 33.04
38.25 35.05 34.04 33.22 33.35 32.77 32.87 33.38 35.10 40.64 43.26 44.51 36.55 34.53 33.69 35.45 36.22 36.95 41.46 48.00 50.01 35.39 32.85 32.27 32.08 31.08 30.10 30.20 31.19 37.40 37.22 37.15 32.85 27.00 27.12 29.80 28.49 25.77 26.05 26.15 29.25 30.93 31.08
33.60 32.82 31.43 31.78 31.27 31.92 31.34 31.97 34.90 38.91 38.04 35.01 31.69 30.59 31.77 32.87 33.11 33.54 36.90 38.01 34.21 30.32 28.91 27.07 26.11 26.13 26.36 26.41 27.46 27.04 30.16 33.21 32.05 28.01 25.61 27.20 26.41 28.09 23.68 26.95 27.07 27.69 27.64

GFSMA_sfc_wetblb_078.txt.gz
Wetbulb
66.81 66.12 65.99 65.91 64.43 64.96 64.69 67.56 67.08 65.72 65.90 66.13 65.98 65.27 64.77 64.34 63.62 63.29 63.48 62.29 63.11 64.07 63.32 62.95 62.58 62.35 62.21 62.18 61.58 60.85 60.23 60.20 60.06 59.98 59.55 59.40 59.34 59.26 59.04 58.61 58.25 58.11 57.95
65.61 64.77 64.30 65.20 64.32 63.74 64.47 66.69 65.69 65.32 65.28 65.63 65.15 64.90 64.18 63.05 62.90 63.17 63.17 62.82 61.47 62.62 63.45 63.32 63.18 62.75 62.45 61.91 61.03 60.24 60.06 59.96 59.94 59.70 59.47 59.06 58.75 58.35 57.91 57.63 57.63 57.44 57.30
65.64 64.32 63.42 64.23 63.79 63.78 63.70 65.63 65.44 65.15 64.40 64.64 64.39 64.04 63.33 62.52 62.45 62.57 62.76 62.81 60.96 60.54 62.22 63.32 63.20 62.49 62.27 61.89 60.73 60.01 59.68 59.62 59.58 59.34 58.87 58.39 58.01 57.66 57.56 57.39 57.24 56.92 56.87
65.50 64.87 63.35 62.98 62.31 61.59 62.90 64.14 64.06 63.73 63.78 63.48 63.13 63.07 62.87 62.60 62.02 62.42 62.15 62.83 62.19 60.94 61.00 61.60 62.21 62.52 62.04 61.54 60.88 60.35 59.72 59.40 59.28 59.07 58.40 57.82 57.53 57.30 57.04 56.87 56.63 56.42 56.46
65.09 64.67 63.60 63.54 61.77 60.18 61.00 63.44 63.75 63.84 62.48 62.55 62.39 62.48 62.75 62.45 62.12 61.35 62.10 62.39 62.99 62.69 62.57 60.71 60.67 60.71 61.35 61.69 60.82 60.69 60.39 59.86 59.21 58.83 58.31 57.75 57.08 57.11 56.66 56.51 56.28 56.11 56.02
63.80 63.45 63.98 61.87 62.11 59.43 59.38 62.43 63.12 63.31 63.02 62.41 60.71 61.22 62.25 62.45 62.47 61.72 61.56 61.83 62.25 62.30 62.55 63.04 62.16 61.18 59.66 61.20 61.13 60.64 60.92 60.79 60.00 59.65 59.21 58.49 57.88 57.13 56.63 56.36 56.21 55.88 55.66
63.10 63.11 62.03 60.79 61.28 58.78 58.93 60.24 62.93 62.44 61.64 62.50 59.60 59.29 60.29 60.93 61.18 61.04 61.50 60.90 61.55 62.00 62.37 62.28 62.33 61.82 60.94 59.72 61.02 60.91 61.29 61.76 61.31 60.45 60.15 59.70 58.67 57.98 57.16 56.86 56.46 56.23 56.11
63.24 62.27 60.92 60.21 59.58 58.73 58.72 61.39 62.23 61.22 61.04 61.85 59.22 58.78 54.24 56.41 58.78 60.65 61.55 61.20 61.51 61.59 61.35 61.70 61.91 61.93 61.80 61.59 60.59 60.72 61.46 61.98 62.06 61.66 60.92 60.84 60.51 59.74 58.46 57.95 57.55 57.00 56.80
61.98 61.79 61.16 60.15 59.97 59.67 58.88 60.74 62.38 61.92 59.27 61.02 61.92 58.93 54.79 53.68 56.51 59.82 60.03 60.52 60.64 60.07 60.53 60.94 61.09 61.34 61.78 61.72 60.54 59.60 58.15 58.88 61.75 63.12 62.97 62.28 61.47 61.04 60.57 60.18 59.55 58.53 57.99
60.67 60.47 60.36 60.09 59.85 60.72 59.81 60.96 62.26 62.20 61.38 58.99 60.64 60.79 61.33 59.52 55.73 54.85 59.43 60.11 60.70 59.72 60.38 60.32 60.76 61.02 60.81 60.94 59.91 57.25 55.04 55.21 57.30 60.71 62.32 63.19 63.05 62.41 61.76 61.43 60.89 60.61 60.05
59.77 59.01 59.28 59.01 59.31 60.12 61.75 62.46 61.83 61.58 61.50 60.45 59.46 60.10 60.28 60.26 60.41 57.33 54.57 56.62 59.22 59.16 60.29 61.29 60.66 61.44 61.75 61.67 61.57 59.49 54.02 52.89 54.23 57.50 59.92 61.41 62.39 63.06 63.20 62.63 61.95 61.54 61.19
59.40 59.27 58.60 58.58 58.61 59.00 61.17 61.45 61.24 61.36 61.10 60.94 60.19 58.99 59.34 58.23 57.73 57.38 55.78 57.08 57.26 58.99 59.83 60.40 61.43 62.13 62.35 62.27 60.44 56.31 53.78 52.12 52.49 54.86 57.12 58.87 60.12 61.04 61.67 62.39 63.02 62.91 62.32
58.68 58.20 58.28 58.19 56.80 57.57 59.42 60.36 60.15 59.98 60.02 60.17 60.71 60.40 60.61 60.03 59.89 58.60 57.24 56.01 55.83 58.76 59.45 61.17 61.45 61.45 61.08 62.13 61.30 55.62 54.95 51.03 51.27 53.04 54.53 55.85 57.32 58.31 59.43 60.37 61.17 62.04 62.69
60.24 61.18 58.87 57.90 57.62 56.55 56.84 57.26 57.54 57.65 59.04 59.08 60.22 60.47 60.53 60.22 60.21 59.52 57.99 56.52 53.55 55.46 56.99 57.23 59.59 60.57 60.87 60.83 59.55 54.15 59.94 50.70 50.16 50.35 51.57 53.13 54.29 55.11 55.99 57.23 58.32 59.37 60.25
60.18 60.05 59.41 59.13 58.56 57.56 56.66 56.56 55.92 55.87 56.22 57.88 57.50 58.24 58.71 59.96 61.13 60.48 60.04 58.99 56.39 52.33 53.65 56.94 57.09 60.49 60.49 61.23 59.52 61.80 61.11 55.64 50.22 49.05 49.08 50.34 51.93 53.09 53.60 54.19 55.12 56.06 57.32
60.39 60.00 59.30 58.50 58.37 58.19 58.66 57.26 56.19 56.44 55.62 55.68 56.61 56.38 56.95 57.20 59.52 59.88 59.03 58.47 58.55 56.00 53.01 55.46 57.32 59.61 60.76 59.73 59.10 61.33 61.23 54.86 51.40 48.75 47.73 48.39 49.28 50.73 51.57 52.06 52.69 53.27 54.39
59.87 58.77 59.77 59.62 58.78 58.08 57.92 57.26 57.32 55.93 55.18 55.69 56.10 55.54 55.87 56.46 55.94 56.56 57.30 56.80 56.85 56.62 53.35 55.63 56.70 59.04 59.38 61.07 61.02 61.62 60.79 61.20 61.46 49.75 48.11 47.73 47.27 47.63 48.41 49.18 49.81 50.59 51.41
59.35 59.61 59.55 59.18 58.49 57.85 57.96 57.66 57.05 57.00 55.87 54.45 55.30 56.11 55.84 56.32 56.18 56.53 56.07 55.26 55.00 55.38 53.49 52.01 55.49 55.41 56.87 59.17 61.59 62.21 61.39 61.56 62.22 55.66 48.79 47.30 47.16 46.86 46.79 46.70 46.89 47.39 47.91
58.52 58.41 58.70 58.33 58.35 58.38 58.50 58.69 59.08 59.04 59.08 58.39 57.55 56.00 55.82 55.61 55.19 55.54 55.81 55.29 55.90 55.80 55.24 53.67 54.55 58.92 60.18 61.02 60.80 61.85 62.14 63.03 62.30 55.70 50.19 47.75 47.17 46.87 46.40 45.94 45.92 45.94 46.20
59.16 58.34 58.12 58.10 58.59 58.86 58.85 59.59 59.99 60.19 59.16 59.04 59.82 59.47 59.36 59.38 59.18 59.25 59.29 58.86 58.38 57.87 58.47 57.55 58.00 58.09 59.19 60.42 60.73 59.59 59.62 61.96 61.72 61.56 56.81 53.67 51.87 49.18 46.93 47.01 46.24 46.02 45.63
58.06 59.63 59.37 59.42 59.25 51.98 40.95 43.95 57.02 58.53 58.17 58.51 59.31 59.15 59.66 57.70 51.75 54.74 60.05 60.19 59.41 58.69 59.20 58.09 56.30 57.73 58.29 58.43 58.26 59.99 59.11 60.13 61.64 62.55 61.83 62.37 61.95 60.79 48.28 42.42 42.72 43.38 43.99
48.72 47.55 46.09 44.58 42.12 38.93 35.69 36.42 39.44 52.08 55.24 56.40 56.41 57.22 57.91 52.19 51.52 45.35 45.72 46.04 51.68 56.54 56.28 55.77 55.83 54.54 55.22 57.02 58.60 57.78 57.15 55.85 54.57 60.64 58.22 56.93 41.84 35.12 35.59 36.69 37.75 39.20 39.97
42.81 40.77 40.77 40.34 36.08 34.51 34.26 34.86 34.85 40.76 46.20 49.76 51.25 50.06 52.17 54.10 48.69 52.14 48.08 43.08 43.51 42.12 42.97 51.62 53.10 53.85 53.70 53.89 50.00 53.39 54.00 53.76 53.46 49.25 44.02 48.94 33.35 30.77 32.99 33.75 34.68 35.19 35.13
38.45 36.77 36.50 36.52 34.96 33.13 33.23 33.58 34.05 42.36 45.82 38.85 34.92 34.95 36.79 38.50 36.76 36.48 41.11 45.73 50.49 37.14 35.27 39.51 36.52 32.37 30.48 31.06 32.87 38.29 39.69 40.04 37.08 34.16 35.49 31.89 29.03 27.21 29.97 31.40 33.26 33.57 33.51
37.04 35.62 34.99 34.81 35.28 32.91 32.40 33.21 39.39 45.45 38.04 34.46 32.80 32.16 32.79 33.03 32.47 33.72 39.27 41.38 36.88 30.23 31.64 31.17 30.00 29.12 28.67 28.93 28.48 34.64 34.59 35.34 36.45 33.00 28.62 32.07 28.47 26.59 27.25 27.82 29.83 31.27 31.30
35.71 35.50 34.70 35.47 33.10 34.40 30.94 31.86 36.46 36.34 32.67 31.20 29.79 29.84 29.72 30.18 30.41 31.18 34.34 36.69 28.80 26.81 26.72 25.81 25.55 25.38 25.27 25.18 25.90 24.84 24.64 29.83 31.49 30.32 25.54 27.79 28.38 27.88 24.03 28.23 28.33 29.82 29.79

GFSMA_sfc_wetblb_081.txt.gz
Wetbulb
66.77 65.47 65.88 65.94 66.38 67.15 65.70 65.07 65.24 67.40 66.68 65.84 65.54 64.36 64.52 64.54 64.49 64.72 63.63 63.12 63.70 64.72 63.92 63.70 63.51 62.85 62.47 62.11 61.86 61.71 60.78 60.72 60.56 60.43 60.11 59.85 59.97 59.85 59.62 59.36 58.72 58.47 58.25
67.42 66.20 64.48 65.92 66.66 66.34 64.57 64.10 64.48 65.81 66.19 64.35 64.21 64.22 64.26 64.07 63.58 63.46 63.27 63.52 61.98 63.15 63.74 63.41 63.25 62.80 62.69 62.39 61.59 60.56 60.22 60.24 60.34 59.79 59.64 59.53 59.45 59.18 58.87 58.51 58.25 58.27 57.96
68.00 67.30 66.62 65.61 65.48 64.53 63.47 63.63 63.74 66.18 65.55 63.74 63.64 63.76 63.79 62.80 62.48 62.78 62.78 62.90 61.95 60.94 62.29 63.75 63.63 62.92 62.80 62.37 61.21 60.39 60.25 60.14 60.03 59.68 59.56 59.31 58.87 58.52 58.09 57.84 57.80 57.52 57.34
67.35 64.98 64.11 64.15 64.66 63.60 63.42 63.09 62.86 64.79 63.40 63.59 61.18 63.01 62.72 62.13 62.15 62.38 62.18 62.22 61.92 61.25 61.41 62.24 63.08 63.26 62.91 62.25 61.08 60.31 59.95 60.02 59.91 59.65 59.26 58.87 58.52 58.20 57.89 57.79 57.51 57.17 57.05
65.90 65.15 64.91 63.38 63.74 63.18 62.69 62.35 62.04 64.66 62.83 61.51 61.09 62.37 62.47 61.67 61.27 61.40 62.02 62.21 62.09 61.63 61.79 60.90 61.18 61.51 62.19 62.47 61.24 60.94 60.73 60.22 59.88 59.69 59.18 58.51 58.09 57.78 57.72 57.41 57.37 57.11 56.89
64.66 65.27 63.75 62.47 62.77 61.94 61.65 61.87 61.55 63.84 62.95 62.29 60.52 60.51 62.10 61.71 61.36 61.17 61.52 61.98 62.16 62.22 62.11 61.68 61.34 60.57 60.29 61.71 61.93 61.13 61.25 60.94 60.41 59.84 59.41 58.85 58.25 57.78 57.40 57.28 57.09 56.82 56.84
65.63 65.14 63.10 61.95 61.59 61.56 60.87 61.40 60.92 61.61 61.76 61.82 59.87 58.42 60.28 61.34 61.96 60.83 61.24 60.91 61.48 61.72 62.52 63.33 62.16 61.12 60.24 60.42 61.48 61.28 61.48 61.79 61.36 60.71 60.02 59.64 59.07 58.66 57.72 57.47 57.28 56.98 56.81
64.48 62.84 62.65 61.27 61.66 60.57 59.58 59.76 60.58 60.19 61.27 61.95 57.74 58.15 54.25 56.87 59.41 60.29 60.65 60.77 61.44 61.45 61.15 61.98 61.98 61.57 62.04 60.98 60.27 61.33 61.45 61.83 62.17 61.99 61.12 61.03 60.81 60.21 59.18 58.45 57.81 57.66 57.30
64.54 64.08 61.88 60.87 60.66 59.90 58.77 59.31 60.09 59.78 58.92 60.98 61.71 58.40 53.80 52.90 56.20 59.48 60.18 60.45 61.97 60.93 61.48 61.30 61.36 61.66 62.30 61.99 60.52 59.80 58.43 59.34 61.89 63.23 62.84 62.12 61.54 61.16 60.96 60.43 59.84 59.22 58.58
64.23 63.60 61.34 60.76 60.19 59.73 58.86 59.50 60.91 60.63 60.29 59.12 61.23 61.63 60.47 59.16 55.31 54.46 59.04 59.78 60.70 60.20 61.37 60.88 60.80 61.36 61.92 61.85 60.55 57.72 55.49 55.27 57.27 60.81 62.42 63.28 62.89 62.11 61.68 61.53 61.16 60.73 60.51
61.51 61.01 60.90 60.25 59.70 59.51 59.12 59.40 60.09 60.64 61.03 60.17 60.49 60.89 60.35 59.90 58.59 56.78 54.37 56.78 59.71 60.13 60.82 61.45 61.31 61.39 61.77 61.89 62.02 59.76 53.30 53.24 54.21 57.51 59.92 61.51 62.57 63.21 63.01 62.27 62.05 61.74 61.44
59.78 59.14 59.98 60.29 60.40 59.95 59.23 59.50 60.59 61.49 61.65 61.79 61.42 60.81 59.52 58.23 57.49 57.36 56.37 56.97 57.70 59.44 60.57 61.10 60.76 61.14 61.92 61.94 60.62 56.53 53.94 51.76 52.36 55.00 57.42 58.94 60.25 61.35 62.16 62.95 63.36 63.16 62.64
58.47 58.21 58.46 58.66 58.82 60.09 60.49 60.55 60.39 61.24 61.60 60.96 60.97 59.76 60.29 60.43 60.26 57.91 57.76 56.69 54.85 58.84 60.00 61.49 61.74 62.28 62.03 63.39 62.76 56.34 54.79 51.43 51.41 52.98 54.96 56.48 57.58 58.73 59.64 60.40 61.20 62.07 62.77
59.65 58.80 58.39 58.23 58.00 58.72 59.20 60.27 61.09 61.48 61.58 61.60 61.11 60.98 60.38 59.09 58.71 60.33 56.73 56.23 55.01 56.00 57.32 59.50 62.23 62.80 63.14 63.43 61.33 54.23 60.00 50.73 49.95 50.29 51.71 53.21 54.49 55.33 56.24 57.19 58.34 59.33 60.14
61.31 60.84 58.98 57.49 56.95 57.40 57.94 58.51 58.66 59.66 60.87 60.73 60.23 60.81 59.84 58.67 58.90 59.83 59.81 58.76 56.51 52.53 53.87 57.64 57.60 61.43 61.60 61.68 60.18 62.32 61.69 56.25 50.76 49.51 49.43 50.65 52.25 53.37 53.78 54.29 55.17 56.05 57.11
61.05 61.27 60.34 59.07 57.31 56.68 57.08 56.68 56.61 56.77 56.53 57.17 57.40 56.91 57.38 57.66 58.14 57.70 57.38 59.00 58.10 56.03 52.99 56.39 57.79 56.96 59.60 60.27 58.96 62.30 62.13 55.57 51.51 48.79 48.05 48.29 49.22 50.81 51.69 52.04 52.66 53.29 54.25
60.63 59.97 60.23 59.53 58.35 57.03 56.33 55.83 56.35 55.31 55.00 55.23 56.04 56.19 56.06 57.10 56.63 56.57 56.82 56.91 57.24 57.77 54.50 57.45 58.34 59.89 59.57 60.47 60.11 60.48 61.89 62.22 61.52 50.28 48.66 47.98 47.45 47.66 48.39 49.11 49.80 50.60 51.41
60.00 59.56 59.53 59.41 58.93 58.41 57.88 57.19 56.05 55.53 54.95 54.82 54.70 54.56 54.76 55.24 56.15 56.28 56.01 56.01 55.85 55.89 53.96 52.62 54.92 55.54 57.52 58.80 57.26 57.25 58.24 59.22 61.31 55.65 49.37 48.14 47.68 47.16 46.65 46.65 46.95 47.29 47.86
58.68 58.78 59.16 59.28 59.41 59.28 58.57 57.92 57.30 57.08 56.61 55.19 55.87 54.88 55.07 55.57 55.18 55.71 56.22 55.39 55.24 55.29 54.68 53.43 53.21 55.54 56.80 58.21 57.72 57.71 58.71 59.78 60.85 55.81 50.72 47.80 47.67 47.55 46.91 46.35 46.35 46.26 46.22
58.47 58.17 58.25 58.57 58.85 58.22 55.59 56.62 58.11 57.91 57.92 58.28 58.94 58.81 57.97 57.17 56.55 56.06 55.75 56.58 57.38 57.20 57.50 56.49 56.17 57.00 58.48 59.73 59.98 58.41 58.30 60.25 60.33 61.36 56.91 53.78 52.66 49.50 45.68 41.83 43.71 44.04 44.16
51.98 52.13 55.63 48.30 44.23 41.48 38.50 40.66 48.94 55.79 58.57 58.91 60.49 59.15 59.19 57.35 51.53 53.78 57.82 57.71 58.81 57.34 56.92 57.41 56.99 57.88 58.01 58.13 57.68 59.20 58.15 59.20 60.18 61.33 60.83 61.57 56.65 44.00 39.55 38.50 39.95 40.57 41.48
44.34 44.80 40.82 39.58 38.50 36.86 34.90 35.61 38.35 50.93 54.74 53.45 53.10 50.10 51.77 43.00 42.95 40.36 40.80 41.30 43.65 51.94 55.55 55.34 55.02 54.42 56.73 57.88 58.42 57.37 57.18 56.19 54.45 54.51 49.24 53.53 38.83 34.88 34.22 35.20 36.70 37.38 37.68
39.43 38.82 38.37 36.36 34.04 33.91 34.36 35.49 35.47 44.61 43.44 38.87 38.10 38.62 41.36 40.10 36.63 37.71 39.85 40.64 34.44 34.19 35.73 42.00 45.65 44.86 38.48 33.82 34.82 40.15 45.14 44.44 44.53 37.52 41.40 38.95 32.87 31.05 32.87 33.64 34.61 35.32 35.35
36.40 36.48 36.60 35.47 33.57 32.70 33.51 34.85 35.78 39.98 36.29 34.12 33.19 34.23 34.61 33.84 32.49 33.76 38.00 41.94 32.38 30.76 30.87 30.98 29.22 28.17 27.93 28.53 29.60 33.52 35.65 36.55 37.22 34.26 33.76 36.49 31.61 29.29 30.98 31.53 33.31 33.47 33.59
36.37 35.57 35.36 35.76 34.01 31.84 32.99 34.63 39.45 37.55 34.32 32.59 31.99 31.49 32.57 32.83 31.39 34.07 40.45 36.16 30.04 28.36 29.93 30.09 29.27 28.45 28.74 28.96 28.48 32.05 27.99 31.31 34.34 30.80 26.53 28.44 29.44 27.99 28.38 28.25 30.03 31.25 31.20
36.79 36.46 34.93 34.15 33.57 31.84 31.33 33.76 36.24 34.74 32.10 30.70 30.58 30.31 29.95 30.06 30.47 32.03 34.19 31.03 26.64 25.66 25.97 25.98 26.16 26.37 26.63 26.84 27.63 26.58 26.07 27.38 24.78 28.11 26.37 27.71 29.70 28.49 25.93 28.59 29.72 30.54 30.43

GFSMA_sfc_wetblb_084.txt.gz
Wetbulb
65.97 66.56 65.67 65.04 65.32 65.53 65.48 64.89 64.82 65.15 65.01 64.80 64.62 63.95 61.84 62.40 62.67 62.44 62.39 63.57 64.19 64.95 64.48 64.26 64.03 63.15 62.89 62.88 62.03 61.44 61.17 60.52 60.80 61.22 60.81 60.59 60.86 60.15 60.45 60.26 59.70 59.20 58.93
66.15 65.62 65.41 65.18 64.84 65.20 65.35 64.49 64.17 64.01 63.72 63.78 63.25 62.23 61.24 61.09 61.90 61.03 61.73 61.90 62.58 63.55 64.14 63.77 63.46 62.90 62.65 62.53 62.07 61.41 60.98 61.05 60.51 60.25 60.24 60.04 60.49 60.37 60.27 59.25 58.84 58.71 58.70
66.09 64.99 64.37 64.33 64.34 65.38 64.59 63.67 63.43 63.58 63.29 63.70 61.91 62.11 61.53 61.17 59.59 60.66 60.84 60.94 60.82 61.51 62.33 63.50 63.89 62.96 62.46 63.04 61.73 61.22 60.21 60.22 60.25 60.12 60.03 59.75 59.47 59.24 58.99 58.58 58.49 58.40 58.01
66.26 65.08 64.11 64.20 65.00 64.48 63.18 62.61 62.36 62.55 62.49 62.26 60.54 60.08 60.10 58.86 58.67 60.56 60.82 60.31 59.82 59.99 60.60 61.99 62.76 63.33 63.73 62.71 60.82 60.95 60.55 60.47 60.36 59.85 60.00 59.57 59.17 58.81 58.56 58.22 58.13 58.03 57.70
65.63 65.02 64.33 64.40 63.87 63.32 62.44 62.27 62.09 62.07 61.13 60.96 59.84 59.33 58.84 57.28 58.16 59.51 59.73 59.59 59.29 59.31 59.33 60.96 61.34 61.67 62.57 62.58 61.23 60.85 60.70 60.27 60.25 60.05 59.94 59.59 58.87 58.70 58.45 58.31 58.07 57.71 57.54
65.07 64.95 63.64 63.60 63.27 62.44 62.18 62.12 61.70 61.64 61.14 60.28 59.84 59.16 59.07 57.64 57.39 57.20 59.68 59.40 58.57 58.70 59.09 59.72 59.25 59.67 60.60 61.90 61.93 61.08 61.27 60.84 60.75 60.58 60.23 59.54 58.74 58.51 58.22 58.09 57.88 57.73 57.50
64.87 64.19 63.35 62.81 62.83 62.00 61.65 61.51 61.10 60.23 59.91 59.76 57.56 57.63 58.10 58.73 57.66 57.25 58.02 58.85 58.80 59.38 58.90 58.95 58.71 58.41 58.75 60.51 61.84 61.81 61.76 61.83 61.38 60.87 60.43 59.89 59.25 59.03 58.48 58.24 58.03 57.78 57.67
64.45 63.55 62.91 62.08 62.04 61.34 61.36 60.81 60.50 59.23 59.68 59.89 56.05 55.31 52.46 55.11 57.36 58.04 56.70 57.07 58.83 58.57 59.92 59.71 58.91 58.28 57.82 58.14 58.28 61.68 61.91 62.09 61.90 61.61 61.08 61.25 60.75 60.43 59.18 58.71 58.31 58.12 57.93
63.54 63.55 62.92 61.51 61.26 61.30 60.45 60.65 60.14 59.25 57.77 58.80 58.22 55.43 52.12 50.60 53.60 56.53 56.06 56.43 57.00 56.87 56.66 58.80 59.66 58.72 58.56 57.94 58.31 58.84 58.47 58.99 62.01 63.03 62.71 61.86 61.55 61.40 60.97 60.37 59.83 59.36 58.67
63.04 63.09 62.36 61.54 61.23 61.02 60.46 60.12 60.85 59.82 58.73 56.69 58.04 58.68 56.81 55.07 51.40 50.80 55.31 56.75 57.77 57.36 57.15 58.50 57.16 58.00 58.85 58.68 58.41 56.93 55.42 55.25 57.73 61.27 62.90 63.04 62.57 62.16 61.93 61.60 61.08 60.99 60.65
62.94 63.17 61.43 61.05 60.54 60.52 59.69 59.87 59.87 59.57 59.34 57.78 56.87 56.79 56.24 56.35 55.90 53.25 51.03 54.01 55.93 56.89 57.08 57.42 57.65 57.04 58.07 58.31 58.03 57.07 53.84 53.39 54.64 58.13 60.60 62.12 63.19 63.36 62.54 62.27 62.03 61.97 61.79
59.89 60.65 61.22 60.54 60.42 60.20 58.94 59.22 60.03 59.76 59.45 58.59 58.23 57.87 56.81 55.27 55.12 54.04 53.50 53.86 53.90 55.67 56.68 56.85 56.97 57.41 57.67 58.10 58.50 55.88 52.81 51.86 52.59 55.24 57.54 59.28 60.75 62.10 62.84 63.21 63.30 62.73 62.58
58.43 58.83 59.38 59.56 59.29 59.54 59.35 58.58 59.27 59.44 59.27 58.38 58.14 58.06 57.79 57.25 57.23 56.68 55.01 54.11 53.97 55.80 56.79 57.23 57.30 57.76 58.83 58.62 58.46 55.18 54.16 50.41 50.76 52.82 54.85 56.41 57.74 58.73 59.84 60.86 62.01 63.02 63.37
58.68 59.17 58.79 58.93 59.08 59.62 59.36 59.31 58.81 59.39 59.18 58.69 58.28 58.01 57.76 58.29 57.61 57.04 54.86 52.84 50.90 52.17 55.00 56.11 58.55 58.52 58.77 59.03 58.29 54.77 57.55 50.90 49.86 50.11 51.60 53.33 54.68 55.97 56.63 57.76 58.67 59.40 60.15
59.76 58.79 58.34 57.87 58.11 58.25 59.42 59.34 58.59 58.57 58.70 58.83 58.45 58.21 57.80 58.39 57.54 57.07 57.09 56.66 53.74 50.32 51.08 53.54 54.87 58.73 59.00 59.85 58.50 58.45 57.90 54.75 50.33 49.29 49.20 50.11 52.05 53.52 53.97 54.66 55.51 56.36 57.39
60.09 59.23 58.54 57.56 57.11 57.37 57.57 57.71 57.87 58.12 58.18 58.24 57.84 57.06 56.83 56.77 57.17 57.14 56.60 55.88 54.80 53.60 51.05 54.06 54.26 55.64 56.87 58.29 56.73 58.12 58.31 54.79 51.77 49.65 48.37 48.59 49.46 50.96 51.87 52.38 52.87 53.50 54.31
60.03 59.95 59.10 57.62 56.57 56.53 56.95 56.83 56.49 56.43 56.15 55.55 55.83 55.77 55.67 56.56 55.99 55.65 55.55 55.29 54.38 53.02 51.92 54.08 55.25 55.60 55.03 56.29 56.90 57.29 57.99 58.04 57.78 49.91 48.14 47.70 47.46 47.86 48.65 49.18 49.64 50.67 51.43
59.77 59.42 59.31 58.69 57.62 56.63 56.27 55.97 55.57 55.33 55.23 54.69 55.05 54.97 55.09 55.65 55.37 55.55 55.13 54.82 54.18 53.75 51.94 51.18 54.48 53.91 54.31 55.74 56.24 56.24 57.66 58.47 57.69 53.95 49.14 49.03 48.33 47.50 47.08 47.19 47.33 47.51 48.13
58.78 58.56 58.56 58.28 58.27 57.74 56.43 56.07 55.79 55.09 54.90 54.40 54.33 53.88 53.90 54.28 53.54 53.76 54.45 54.15 54.74 54.60 54.42 53.31 52.62 53.56 54.10 54.93 54.59 54.99 55.41 55.82 57.14 53.89 49.68 47.24 47.20 47.55 46.78 43.20 43.05 43.80 44.43
57.93 57.82 56.45 49.72 47.95 45.04 46.11 50.28 56.66 56.54 55.95 55.64 55.35 55.23 54.96 54.39 53.95 53.60 53.57 53.89 54.71 54.04 53.89 52.90 52.42 52.81 53.51 54.82 55.26 54.33 54.37 56.28 56.20 58.70 55.27 51.33 44.09 40.66 39.90 40.24 40.34 41.13 40.70
47.11 47.90 44.44 42.54 40.54 38.96 37.55 38.52 44.96 53.86 57.21 56.52 56.42 57.05 51.03 44.16 41.17 41.87 52.37 51.37 53.73 54.54 54.13 53.94 53.51 53.83 54.17 54.98 55.25 56.24 55.39 55.81 55.98 47.89 50.92 43.30 40.84 37.78 36.92 37.52 38.41 38.99 38.75
41.30 39.51 37.64 37.19 36.85 36.12 35.76 36.63 39.06 49.73 45.44 44.58 43.18 43.34 44.15 37.79 38.95 38.13 36.30 35.36 35.81 44.04 48.11 50.11 51.88 51.92 51.03 40.38 41.81 41.88 44.97 47.41 48.33 41.80 43.64 42.46 37.47 34.15 34.20 34.07 35.87 36.25 36.35
37.71 36.34 35.77 35.47 34.25 34.75 35.83 37.84 38.51 39.20 36.63 35.91 35.93 36.73 37.61 35.85 34.72 36.71 37.14 33.85 32.63 32.88 32.09 36.98 39.48 30.70 32.17 30.40 32.45 36.55 40.24 40.21 41.70 34.71 37.95 40.72 34.58 32.02 32.38 33.46 34.49 34.28 34.24
36.38 35.70 34.50 33.68 33.03 33.87 36.85 36.54 35.60 35.32 33.39 32.11 32.15 33.46 32.95 32.05 33.19 35.45 37.63 31.66 29.89 29.99 29.77 30.09 28.99 28.67 28.63 29.11 29.23 32.62 34.64 34.85 35.31 29.07 29.38 32.97 32.29 28.90 29.83 30.75 32.80 32.88 33.06
34.41 33.82 33.55 32.60 32.09 31.78 34.85 36.46 35.58 33.47 31.99 30.88 30.92 31.22 31.23 30.79 33.10 37.80 34.44 30.11 27.94 27.45 30.26 30.37 29.61 29.44 29.95 30.02 29.43 30.56 27.19 31.20 32.59 26.77 27.53 27.84 28.30 26.85 28.21 28.05 30.06 31.31 31.23
34.04 32.53 30.99 31.65 30.94 30.99 33.29 34.72 34.69 32.84 30.34 29.14 29.35 29.69 31.17 30.11 30.93 31.57 30.02 27.99 25.26 25.46 26.60 27.12 27.90 28.82 30.02 29.81 29.63 28.02 27.94 26.47 23.38 26.39 24.88 26.70 26.25 23.27 22.86 21.03 28.63 28.83 26.60

GFSMA_sfc_wetblb_087.txt.gz
Wetbulb
64.23 63.01 61.85 62.87 64.08 64.87 65.11 64.39 64.06 64.73 64.77 64.08 63.18 62.82 61.41 61.51 61.86 62.93 63.11 63.53 64.11 65.22 65.32 65.48 65.08 64.43 63.64 62.93 62.18 61.76 61.97 62.16 61.59 61.72 61.67 61.44 60.77 60.63 60.65 60.42 60.25 59.64 59.50
63.97 63.45 63.03 62.86 63.46 64.43 65.28 64.81 64.06 63.69 63.98 64.37 63.28 62.63 60.86 61.25 61.06 61.91 62.21 62.43 62.58 63.71 64.40 64.26 63.52 63.71 63.55 63.00 62.50 61.38 61.19 61.39 60.76 61.41 61.09 60.58 60.75 60.53 60.41 59.70 59.44 59.03 59.06
64.88 63.81 63.74 63.56 63.66 64.28 64.31 63.42 62.54 62.49 62.86 63.73 63.00 62.17 61.07 60.67 60.53 61.19 61.16 61.09 61.36 61.47 62.58 63.71 63.83 63.45 62.98 62.83 62.00 60.98 60.83 60.78 60.67 61.05 60.44 60.30 60.23 60.09 59.51 59.17 58.93 58.86 58.72
65.67 64.00 63.42 63.25 63.74 63.55 63.40 62.65 62.48 61.49 62.05 62.23 61.55 61.14 59.93 60.46 60.02 60.20 60.54 60.23 59.51 59.75 60.86 61.98 62.78 62.94 63.09 62.53 61.24 61.31 60.85 60.30 60.36 60.37 60.22 60.12 59.85 59.66 59.15 58.74 58.68 58.61 58.41
64.14 63.38 62.73 62.71 63.65 63.25 62.49 61.63 60.83 61.36 61.40 61.65 61.50 59.95 57.53 58.44 59.41 60.17 59.30 58.96 58.31 57.69 58.27 60.75 61.02 61.15 62.44 63.08 61.47 61.23 60.90 60.75 60.75 60.49 60.36 60.14 59.83 59.38 58.93 58.70 58.44 58.38 58.12
64.02 62.40 61.73 61.92 62.53 61.92 60.88 60.48 60.91 61.29 61.42 61.27 61.65 59.17 56.64 57.08 57.68 58.59 58.02 58.84 58.12 57.85 58.65 59.18 59.35 59.32 60.49 61.64 61.67 61.28 61.52 61.50 61.16 60.52 60.71 60.33 59.91 59.25 58.96 58.59 58.55 58.40 58.12
62.98 61.34 61.74 62.89 62.37 61.03 61.55 61.08 61.11 60.48 60.23 60.70 57.84 56.83 56.36 55.64 54.56 57.07 57.64 57.65 56.88 57.62 58.38 59.02 58.89 58.00 59.11 60.55 61.55 61.73 61.59 61.75 61.63 61.33 60.85 60.45 59.82 59.36 58.81 58.59 58.51 58.38 58.21
62.05 61.70 62.39 62.05 61.74 61.46 61.17 61.16 60.56 60.00 59.95 60.21 56.50 55.37 52.37 54.20 55.92 54.86 57.08 57.35 56.12 57.66 57.99 58.65 58.33 57.44 57.39 58.18 58.10 61.46 62.00 62.06 61.96 61.64 60.99 61.11 60.82 59.79 58.98 58.81 58.64 58.59 58.32
62.46 62.24 62.02 61.95 61.75 61.57 60.78 60.73 60.47 59.62 58.20 59.40 58.12 54.89 51.46 49.91 53.67 54.87 54.55 56.31 56.52 57.24 57.68 58.06 57.74 57.32 57.16 57.10 58.07 59.09 58.52 59.13 62.08 62.64 62.32 61.85 61.32 61.04 60.37 59.90 59.36 58.98 58.91
62.39 62.51 62.38 61.89 61.44 61.46 60.97 60.72 60.76 59.85 59.09 57.25 57.19 57.22 55.93 54.94 51.13 50.08 53.78 54.42 55.75 56.29 55.98 57.47 57.34 57.36 57.19 56.95 57.16 56.38 55.44 55.44 57.52 61.43 62.79 62.63 62.21 61.91 61.56 61.50 61.17 60.91 60.48
61.53 61.32 61.06 61.36 60.94 61.15 61.05 61.05 60.27 59.48 59.36 58.30 56.84 55.61 54.20 54.81 54.34 52.22 49.76 51.66 53.83 55.35 54.99 56.25 57.47 57.47 57.60 57.65 56.66 56.12 53.95 53.50 54.28 58.00 60.80 62.54 63.10 62.69 62.32 62.13 62.11 61.84 61.60
60.52 60.87 61.04 61.08 61.23 60.81 60.47 60.65 60.46 59.82 59.18 58.72 58.16 57.05 55.33 54.34 53.55 52.98 51.08 51.44 52.22 53.15 54.69 55.31 55.59 55.82 55.98 57.19 57.70 55.69 53.21 51.90 52.65 55.28 57.92 59.81 61.36 62.54 63.11 62.85 62.76 62.83 62.61
57.42 58.31 60.14 59.98 60.15 60.41 60.33 60.53 60.04 59.47 59.26 58.43 58.02 57.50 57.53 56.13 56.15 55.63 53.95 53.79 52.69 52.95 53.66 54.07 55.06 55.11 56.93 55.88 56.13 54.57 53.58 51.18 51.25 53.19 54.95 56.56 57.80 59.13 60.42 61.59 62.58 63.31 63.31
57.78 58.13 58.65 59.71 59.62 60.03 59.59 59.78 59.82 59.43 59.34 58.54 57.75 57.78 57.71 57.64 56.82 56.10 54.33 53.00 50.60 52.25 53.65 54.52 56.70 57.28 57.34 57.30 56.50 52.65 55.06 49.46 49.63 50.47 51.81 53.36 54.62 55.61 56.41 57.55 58.64 59.67 60.75
58.94 58.29 58.47 58.57 59.21 59.01 58.81 58.72 58.76 58.81 58.71 58.42 57.52 57.62 57.53 57.98 57.05 56.64 56.16 54.56 51.08 47.72 50.53 52.86 55.33 58.04 57.91 57.70 56.22 56.85 56.78 53.82 49.61 48.73 48.82 50.10 52.17 53.52 54.05 54.91 55.70 56.47 57.53
58.81 58.36 57.79 57.77 57.69 58.23 58.97 58.44 57.82 58.34 58.39 58.10 57.68 57.08 56.72 56.62 56.40 56.28 54.91 53.91 53.63 51.36 49.89 53.27 53.85 55.11 58.11 59.75 58.56 58.47 58.93 54.36 50.92 48.89 48.55 48.38 49.11 50.79 51.73 52.25 52.89 53.73 54.66
58.61 58.28 58.02 57.14 57.02 56.98 57.39 58.43 57.96 58.01 57.44 57.28 56.72 56.70 56.02 56.16 55.16 55.44 54.99 53.39 53.59 53.02 50.30 52.03 53.77 54.83 54.16 55.05 55.89 56.19 57.27 57.70 57.82 49.73 48.47 48.12 47.71 47.80 49.03 49.69 49.92 50.79 51.62
59.47 58.48 58.16 57.28 56.78 56.70 56.80 56.56 56.84 57.36 56.74 56.22 55.62 55.36 55.06 55.64 54.67 55.07 55.02 54.05 53.85 53.59 52.21 50.46 52.38 52.12 53.90 53.89 54.86 55.05 55.98 57.53 57.55 53.79 50.00 48.59 48.10 47.45 45.85 44.46 44.54 44.97 45.82
58.15 58.32 58.45 57.78 57.02 56.52 56.32 56.36 56.26 55.92 56.26 56.14 55.64 55.38 54.76 54.90 54.26 54.29 54.09 53.66 53.93 54.05 53.42 52.18 51.17 52.41 53.94 53.07 52.92 52.96 53.96 54.93 56.06 52.54 48.74 42.60 42.38 42.65 41.39 41.57 41.82 41.75 42.32
52.88 49.47 48.33 47.02 46.66 46.22 48.94 54.43 56.02 55.40 55.44 55.23 55.23 55.41 54.81 54.85 54.52 54.12 53.85 53.39 53.35 52.53 53.70 52.87 52.06 52.25 51.10 52.10 53.35 52.49 52.89 54.64 54.55 51.82 42.16 41.24 40.30 40.17 39.99 39.74 40.22 40.09 40.38
45.19 44.76 42.77 41.51 40.86 40.34 39.08 43.30 51.44 54.18 55.32 53.26 51.94 45.08 42.12 41.54 39.31 40.55 51.97 50.59 51.67 53.09 53.07 52.24 51.96 52.39 52.55 52.82 50.80 48.35 50.52 50.06 47.27 44.59 48.49 43.87 40.01 38.11 36.93 37.07 37.63 37.92 37.61
39.09 38.42 37.32 37.72 38.24 38.41 37.43 38.17 44.10 43.25 43.17 42.88 42.62 41.71 38.59 38.75 37.05 35.90 35.50 34.46 34.75 40.32 47.20 48.23 49.84 46.46 42.52 37.91 37.88 39.49 41.70 44.86 44.73 35.61 39.64 40.64 36.68 32.87 34.00 34.92 35.70 35.72 35.88
36.21 35.50 35.61 36.16 37.13 37.75 36.77 37.00 36.75 36.42 35.51 35.56 35.78 36.60 35.91 35.78 37.35 35.13 33.46 32.70 32.24 32.25 31.57 36.93 33.37 30.97 31.52 29.97 31.27 36.09 39.12 39.59 39.23 31.03 34.01 35.34 32.62 29.71 32.68 33.95 34.74 34.78 34.90
33.96 33.59 33.30 34.07 35.28 36.18 35.51 35.02 34.08 33.42 32.43 32.10 32.23 32.45 32.96 34.38 36.57 35.16 31.83 30.41 29.77 29.91 29.94 30.26 29.44 28.72 29.43 30.08 29.32 31.29 32.42 33.23 30.66 28.76 27.93 30.98 30.72 28.24 29.76 30.65 32.92 32.91 32.78
32.38 31.68 32.14 32.22 33.19 34.17 35.46 34.44 33.23 31.79 30.64 30.45 31.31 31.48 31.63 32.17 35.14 34.57 30.96 28.35 27.22 27.67 31.26 31.63 31.44 31.06 30.43 30.17 29.91 27.70 26.27 26.91 29.17 25.91 26.35 27.38 25.15 20.64 19.01 20.27 23.68 31.47 31.60
30.90 30.67 30.25 31.27 32.30 32.38 33.86 33.78 32.44 30.45 28.30 27.96 28.96 30.03 31.85 30.57 31.34 30.92 29.02 27.72 26.03 26.27 28.28 29.04 28.95 29.69 29.85 28.44 27.99 23.05 22.38 23.75 17.66 17.93 22.89 26.32 28.02 27.20 25.81 18.12 22.70 23.56 21.51

GFSMA_sfc_wetblb_090.txt.gz
Wetbulb
63.05 63.78 62.70 63.68 64.02 64.16 64.21 62.96 63.36 64.65 64.72 64.36 63.09 62.33 61.37 61.59 63.29 64.03 64.53 64.30 65.23 67.03 67.79 67.68 67.15 66.01 64.88 64.39 64.08 63.62 62.93 62.59 62.47 62.18 61.91 61.74 61.59 61.57 61.12 60.69 60.78 60.11 60.08
63.12 62.59 61.54 63.11 63.55 63.84 64.01 63.60 62.46 63.35 64.18 64.21 62.93 62.21 60.96 61.44 62.27 62.64 62.93 62.98 63.03 64.43 66.02 66.71 66.42 65.60 64.81 63.34 63.01 62.79 62.57 62.18 61.98 61.80 61.70 61.70 60.62 61.13 61.16 60.62 60.05 59.70 59.55
63.07 62.12 61.55 61.74 63.28 63.64 63.59 63.99 62.72 62.56 62.37 63.64 62.85 61.41 61.41 61.01 61.50 61.53 61.55 61.50 61.57 61.64 62.90 64.34 64.68 64.62 63.62 63.30 62.55 61.50 61.68 61.32 61.62 61.43 61.26 60.40 60.74 60.55 60.25 59.99 59.65 59.32 59.32
63.94 62.96 62.39 61.60 62.74 64.23 63.80 63.08 62.55 61.48 60.98 61.29 61.60 60.81 60.78 60.51 60.96 61.05 60.93 60.73 59.92 60.36 60.95 62.14 62.98 63.87 63.59 63.29 62.38 61.83 60.54 60.61 61.02 61.11 60.72 60.45 60.24 60.27 59.82 59.46 59.22 59.16 59.20
64.24 63.44 62.89 62.88 62.87 63.25 63.29 62.40 61.79 61.36 60.16 60.43 61.40 61.06 59.85 59.57 59.82 60.94 59.92 59.53 58.62 58.30 58.52 60.83 61.30 61.27 62.51 63.05 61.66 61.94 61.76 61.17 60.65 60.51 60.26 60.37 60.38 60.08 59.63 59.24 58.99 58.97 58.69
63.40 62.96 62.57 62.27 63.57 63.00 62.02 61.72 60.86 60.29 60.29 60.81 61.94 60.88 57.22 58.84 59.65 59.54 59.20 59.23 57.84 57.53 57.59 58.57 59.34 58.87 60.34 62.17 62.14 61.79 61.86 61.40 60.95 60.82 60.60 60.40 60.17 59.74 59.50 58.99 58.79 58.73 58.58
63.21 62.71 61.31 62.11 63.52 61.93 61.23 60.49 60.07 59.60 60.03 61.26 60.34 57.50 56.03 57.92 58.17 58.21 58.13 57.94 57.17 57.43 57.10 58.24 58.02 57.70 58.92 60.70 61.44 61.27 61.97 62.01 61.75 61.31 60.87 60.19 59.91 60.10 59.52 59.03 58.90 58.82 58.67
61.82 61.75 61.69 61.65 62.42 60.86 60.81 60.53 59.95 59.27 59.12 60.93 57.76 55.62 51.90 53.46 54.62 56.61 56.72 56.66 56.14 56.61 57.33 57.85 57.74 57.30 57.46 58.02 57.93 61.23 61.57 62.04 61.73 61.25 61.15 61.60 61.05 60.12 59.50 59.44 59.18 58.90 58.77
61.24 61.50 62.17 62.40 61.74 60.96 60.36 60.88 60.16 59.28 58.15 59.19 59.14 55.38 51.29 49.96 52.95 53.89 53.77 55.74 54.53 55.53 56.76 57.56 57.91 57.50 56.82 57.27 58.17 58.82 58.49 58.97 61.91 62.26 62.32 61.78 61.53 61.12 60.10 59.44 59.26 59.12 59.09
60.59 61.27 62.22 61.77 61.44 61.65 60.75 60.28 60.51 59.91 59.89 57.16 57.68 58.51 56.02 54.88 50.82 49.94 52.80 54.16 55.57 55.12 55.53 56.65 57.20 56.87 56.80 56.78 57.34 56.34 55.48 55.10 57.48 61.40 62.53 62.53 62.04 61.70 61.38 61.07 60.71 60.32 60.02
59.87 61.35 61.75 61.66 61.27 61.08 60.94 60.33 60.35 59.79 59.95 58.02 56.79 55.78 54.68 54.91 53.87 51.49 50.19 51.62 53.43 55.57 56.16 56.18 56.66 56.60 56.55 56.71 56.28 55.95 53.98 53.53 54.36 57.90 60.74 62.38 62.65 62.35 62.09 62.03 61.77 61.61 61.57
59.83 60.61 61.59 61.65 61.39 60.98 60.82 60.62 60.74 59.86 59.60 59.11 57.93 56.48 55.12 53.87 53.00 52.28 50.92 50.40 52.16 52.71 54.24 55.86 56.01 56.39 56.67 56.30 56.89 54.81 52.84 52.15 52.96 55.45 57.64 59.56 61.28 62.55 62.79 62.64 62.73 62.66 62.42
59.61 60.43 60.71 60.77 60.83 60.95 60.83 60.96 60.59 60.05 59.69 58.57 57.67 56.77 56.59 55.56 56.06 54.91 53.71 51.86 51.66 52.67 53.15 54.34 56.16 55.91 56.35 56.41 56.64 54.35 53.55 50.71 51.20 52.92 54.98 56.48 57.86 59.38 60.62 61.86 62.89 63.18 63.07
58.72 58.92 59.79 60.19 60.22 60.36 60.56 60.81 60.65 60.07 59.68 59.00 58.08 57.59 57.30 57.19 56.35 56.16 54.20 52.55 50.51 51.44 52.93 53.56 54.42 54.87 55.25 55.89 55.28 52.24 55.93 50.02 49.79 50.37 51.72 53.38 54.67 55.77 56.75 57.95 59.21 60.18 61.23
57.95 57.49 57.86 58.14 58.95 59.32 59.52 59.47 59.91 59.18 59.32 58.97 58.17 58.03 57.77 57.55 56.98 56.53 55.62 54.81 52.58 49.73 51.18 52.22 53.92 56.96 57.08 56.94 55.43 56.08 55.42 51.15 49.27 48.76 48.99 50.41 52.10 53.43 54.04 54.77 55.50 56.35 57.54
58.42 57.63 57.80 57.92 58.42 58.54 58.64 58.76 58.95 59.06 58.54 58.58 58.33 57.38 56.76 56.94 56.49 56.02 55.31 54.63 53.50 51.50 49.09 51.86 52.92 54.05 56.55 58.58 56.91 58.36 57.83 53.61 49.46 47.73 47.25 47.94 48.92 50.62 51.75 52.57 53.19 53.66 54.63
58.39 57.89 57.53 57.66 57.24 57.58 58.14 57.72 57.60 58.00 57.95 57.80 57.84 57.26 56.18 56.34 56.06 55.26 54.55 53.92 52.99 52.29 50.21 51.35 52.47 53.78 53.62 54.15 56.76 57.71 57.98 58.05 57.77 50.28 47.93 48.09 48.64 48.93 49.36 48.14 48.78 49.62 50.28
58.18 58.09 57.88 57.28 57.22 57.04 57.06 57.56 57.14 57.30 57.10 56.60 56.62 56.24 55.57 56.20 55.49 55.38 54.44 53.41 52.78 52.84 50.74 49.50 51.59 52.28 52.73 53.74 54.74 54.86 55.45 57.16 57.28 53.25 46.47 44.34 44.70 44.48 42.28 42.37 42.58 42.88 43.57
58.50 58.18 57.76 56.96 56.76 56.68 56.68 56.56 57.20 57.20 56.94 57.19 56.75 55.98 55.43 55.57 54.47 53.87 53.48 53.28 53.56 53.98 53.28 52.55 52.03 52.44 52.27 53.09 53.26 53.10 53.06 53.44 54.12 44.25 41.75 41.33 41.46 41.51 41.19 40.93 40.97 41.55 41.82
51.32 49.70 49.36 49.01 49.42 49.80 52.82 56.15 56.54 56.48 56.60 56.56 56.46 56.58 56.00 55.78 55.09 54.57 53.74 53.23 53.19 52.98 53.28 52.40 51.97 51.40 51.96 51.98 51.97 51.12 49.97 51.68 50.23 45.50 41.30 40.31 40.15 39.74 39.76 39.35 39.74 39.66 39.72
44.26 44.45 43.71 42.66 42.52 42.26 41.63 47.96 54.16 55.37 54.59 47.56 45.58 43.38 41.61 41.02 39.91 42.80 53.11 51.37 52.76 52.30 51.90 51.48 51.74 51.62 50.68 50.79 47.54 45.66 48.12 47.95 40.97 39.89 43.99 41.06 37.89 36.54 36.75 37.40 37.51 37.96 37.80
39.08 39.11 38.60 39.76 39.74 39.48 38.36 39.63 44.94 45.37 45.20 43.01 40.25 39.68 39.55 37.30 35.93 35.54 35.35 34.31 35.09 42.80 49.84 50.37 47.43 45.26 38.60 35.49 37.38 38.86 41.43 44.50 43.76 34.03 37.82 34.32 34.64 33.13 34.11 35.21 36.07 36.15 36.36
36.22 35.96 36.95 37.12 35.86 35.84 35.96 36.40 36.94 37.53 36.69 37.03 37.32 37.30 37.43 36.69 35.47 34.06 33.17 32.81 32.33 32.68 32.78 38.30 33.50 31.78 31.46 30.42 31.48 35.74 37.91 38.81 33.77 30.17 33.24 31.78 31.74 30.00 32.85 34.08 34.59 34.49 34.26
33.57 33.84 34.99 35.82 34.55 34.42 34.42 34.33 33.96 33.57 32.41 32.23 32.95 34.40 35.60 36.50 34.21 33.29 31.72 30.38 30.06 30.27 30.52 30.94 29.92 29.51 29.91 30.33 30.50 32.24 32.96 31.50 29.73 28.73 29.05 29.20 30.46 28.41 29.93 30.23 32.84 32.67 32.55
31.90 32.04 33.17 33.91 33.38 33.06 33.53 33.22 32.58 31.47 30.83 31.02 31.97 32.40 33.93 33.35 33.57 33.65 30.52 28.83 28.64 29.40 32.06 31.78 31.11 30.08 29.54 29.73 29.50 27.84 24.62 31.10 27.91 25.71 25.70 27.68 27.57 21.83 15.53 16.36 20.24 30.69 31.32
30.33 30.52 30.35 31.56 32.91 32.53 33.08 32.48 31.74 30.49 29.08 29.46 30.61 30.96 31.71 31.39 32.00 31.52 29.70 28.70 27.02 27.65 28.01 27.97 27.56 25.85 23.24 23.25 26.03 20.24 18.44 19.90 24.52 12.83 19.70 25.35 22.07 27.56 25.33 15.25 17.41 19.13 19.42

GFSMA_sfc_wetblb_093.txt.gz
Wetbulb
64.30 64.73 64.50 63.79 63.28 63.25 62.77 61.99 63.31 63.71 63.37 64.31 64.26 63.37 62.34 62.32 62.95 63.21 64.34 64.37 65.22 67.83 68.50 68.21 67.82 67.28 66.50 65.76 65.38 64.61 63.96 63.00 62.77 62.59 62.23 62.13 62.20 61.86 61.68 61.55 61.54 61.08 61.17
63.67 63.64 62.81 62.96 62.66 63.01 63.05 61.52 62.32 62.69 62.73 63.79 63.21 63.02 62.31 62.26 62.39 62.80 62.74 63.43 63.55 65.02 66.75 67.45 67.27 66.69 66.08 65.25 64.90 64.11 63.25 62.69 62.49 61.84 61.75 61.90 61.69 60.09 61.25 61.16 60.64 60.14 60.02
62.87 62.53 61.93 62.62 62.62 63.32 63.28 61.00 60.53 61.48 63.06 63.46 62.84 62.03 61.52 61.45 61.55 61.59 62.81 61.95 62.06 62.32 63.76 66.05 66.37 66.56 65.42 64.25 63.89 63.41 62.88 62.84 62.06 62.21 61.02 60.95 60.24 60.70 60.69 60.41 59.95 59.67 59.45
62.41 62.09 61.78 62.32 62.85 63.10 63.17 62.56 61.23 61.78 62.18 62.92 61.23 60.99 61.10 61.47 60.82 61.11 61.34 61.08 60.36 60.76 61.34 63.08 64.17 65.03 64.77 63.88 63.22 62.31 62.30 62.07 62.10 61.56 61.08 60.68 60.24 59.71 60.19 59.89 59.53 59.22 59.27
62.76 62.01 61.58 61.76 62.56 62.36 62.14 62.55 62.02 61.54 60.33 61.09 60.55 60.82 60.34 60.34 60.96 61.80 60.62 59.67 59.01 59.02 58.82 60.59 61.18 61.75 62.94 63.70 62.85 62.23 62.20 61.44 60.99 62.02 61.27 60.62 59.99 60.21 59.93 59.59 59.38 59.08 59.10
63.78 63.35 62.60 61.86 62.14 61.81 61.97 61.92 61.42 61.64 60.04 60.60 60.70 59.38 58.98 59.67 60.58 60.50 60.03 59.74 58.27 58.14 58.21 58.67 59.07 59.71 60.80 62.31 62.36 61.95 61.81 61.58 61.44 61.37 60.88 60.21 59.75 60.13 59.83 59.55 59.08 59.01 59.12
63.77 63.39 62.76 61.94 61.77 61.50 61.24 61.82 61.53 60.08 59.05 60.77 59.97 57.40 56.46 58.78 59.45 59.68 59.62 58.94 57.60 57.83 56.97 57.69 57.04 56.86 58.93 60.68 61.62 61.77 62.63 62.45 61.83 60.81 60.66 60.01 59.63 59.25 59.76 59.50 59.23 58.97 58.88
62.87 62.99 62.05 61.57 62.28 61.97 61.79 60.72 60.43 59.10 59.50 60.58 58.40 55.52 52.01 54.10 56.21 58.04 58.21 58.29 57.01 57.28 56.85 57.19 56.87 56.53 56.71 58.52 58.71 61.15 61.84 62.45 62.12 61.12 60.34 60.19 60.13 59.39 59.80 59.57 59.36 59.21 59.10
61.65 62.43 61.12 62.41 62.01 61.55 60.81 60.34 60.23 59.59 58.49 60.09 57.47 55.68 51.61 50.74 53.73 54.78 55.66 56.55 55.86 55.64 56.73 57.17 56.93 56.84 56.51 56.80 57.59 58.74 58.49 59.40 61.59 61.52 62.00 61.70 61.29 60.97 60.41 60.06 59.70 59.53 59.27
60.83 60.92 60.78 61.94 62.16 61.40 60.24 60.23 60.70 59.88 58.60 58.00 58.84 58.31 56.53 55.16 52.09 50.36 53.77 54.51 54.59 55.37 55.48 56.51 56.77 56.67 56.59 56.67 57.21 56.09 55.44 55.29 57.53 61.31 62.19 62.29 62.22 61.53 61.27 60.69 60.28 59.70 59.72
60.67 61.71 62.13 61.82 61.06 60.99 60.78 60.57 60.57 59.96 59.37 58.26 58.10 56.74 55.49 55.32 54.58 52.69 50.51 51.68 53.08 54.70 55.20 56.03 56.69 57.01 56.66 56.44 56.30 56.03 53.92 53.39 54.36 58.16 61.11 62.33 62.57 62.29 62.19 61.95 61.53 61.14 60.82
60.27 60.92 60.87 61.42 61.39 60.66 60.74 60.01 60.05 59.89 59.87 59.51 58.26 57.46 55.53 53.70 53.07 52.44 50.88 51.43 51.92 52.56 54.72 55.38 55.70 56.36 56.43 56.32 56.67 55.06 53.32 52.14 52.84 55.20 57.70 59.93 61.52 62.47 62.53 62.40 62.36 61.94 61.99
58.65 59.52 61.15 60.99 60.72 61.06 60.71 60.69 60.13 59.79 59.69 59.01 58.00 56.91 56.77 55.93 55.90 54.79 53.28 51.09 50.30 51.70 52.85 54.14 55.85 56.17 56.36 55.80 56.04 54.00 53.57 50.78 51.38 53.00 54.89 56.59 58.16 59.58 61.00 62.17 62.57 62.75 62.71
59.11 59.64 59.65 60.40 60.95 60.66 60.75 60.72 60.34 60.30 60.09 59.51 58.19 57.21 56.45 56.25 56.48 55.74 54.00 52.96 50.47 50.88 52.25 52.70 54.26 55.46 56.20 55.82 55.29 52.49 54.89 50.02 49.80 50.45 51.89 53.49 54.63 55.62 56.64 57.85 59.26 60.61 61.63
58.73 58.93 59.96 60.01 59.73 60.05 60.11 60.13 59.99 59.77 59.75 59.50 58.85 57.37 56.80 56.92 56.68 56.45 55.85 54.93 52.53 49.10 50.25 52.06 52.96 54.59 55.61 54.87 54.12 54.10 54.73 51.87 49.48 48.80 48.94 50.04 52.01 53.15 53.76 54.63 55.54 56.30 57.50
56.90 57.74 57.50 57.72 57.94 58.30 58.67 58.95 59.07 59.70 59.54 59.30 58.54 57.29 57.03 57.16 56.66 56.56 55.57 55.25 54.16 52.27 50.40 52.38 53.68 54.42 55.82 56.66 54.67 56.36 55.82 52.53 49.23 47.89 47.44 47.77 48.62 50.39 51.14 51.54 52.04 52.80 53.77
57.22 56.94 57.49 56.88 56.38 57.46 57.69 57.74 57.92 58.30 58.30 58.36 58.29 57.43 56.79 56.94 55.65 54.82 54.74 54.19 53.40 53.17 50.79 52.37 53.24 53.51 53.09 54.20 56.67 57.14 57.49 56.92 56.74 48.27 46.69 46.48 45.96 46.26 47.41 47.50 47.57 48.08 49.03
56.26 56.14 57.16 57.26 57.34 57.18 57.38 57.16 56.78 57.02 57.26 57.06 57.32 57.30 56.73 56.83 55.40 54.60 54.12 53.48 53.30 52.73 51.52 50.12 51.82 51.93 52.09 52.49 53.61 53.83 54.85 56.80 54.40 43.95 43.35 43.29 42.63 42.05 42.06 42.20 42.60 42.78 42.97
57.24 57.60 57.36 56.88 56.92 56.98 56.66 56.82 56.96 56.64 57.32 57.26 57.12 56.76 56.00 56.40 55.66 54.75 53.95 53.43 53.13 53.14 52.71 51.39 50.71 51.99 52.07 52.28 52.39 53.44 53.52 50.08 44.63 42.74 41.41 41.25 41.52 41.11 41.02 41.18 41.34 41.56 41.59
52.02 50.59 50.52 49.70 50.11 51.56 54.45 56.25 56.84 56.82 56.78 56.94 57.00 57.03 56.36 56.26 55.50 54.80 53.90 53.55 53.29 52.81 52.70 52.00 51.83 51.71 51.97 52.64 52.35 50.84 50.10 49.56 43.98 42.19 40.72 39.54 39.68 40.01 39.96 39.65 39.52 39.54 39.52
45.06 45.22 44.47 43.36 42.97 42.93 42.22 44.80 54.71 55.59 51.08 47.81 46.18 44.30 43.84 44.19 44.64 50.14 54.54 53.61 53.17 52.19 52.00 51.48 50.74 51.46 51.24 50.49 49.05 46.17 48.53 44.62 37.85 40.27 39.73 37.98 37.12 36.58 36.66 37.61 38.08 38.07 37.80
40.29 40.38 39.15 38.38 37.86 38.06 37.19 39.49 47.05 46.87 45.49 43.51 40.44 39.18 38.70 37.87 36.52 36.19 36.19 35.08 37.53 50.37 50.65 50.57 50.51 49.28 40.24 38.62 38.24 40.32 42.82 44.93 40.62 34.02 38.80 32.87 34.84 33.35 34.61 35.52 36.31 36.04 35.37
37.71 36.97 36.01 35.62 34.58 35.28 35.83 36.61 37.43 38.71 38.15 38.25 38.60 38.60 36.71 35.81 35.01 34.04 33.56 33.13 32.86 32.83 33.39 41.80 38.11 33.85 33.38 32.14 33.66 37.22 38.39 38.52 33.17 30.31 33.83 30.97 31.76 30.32 32.72 33.98 34.41 34.22 33.78
34.49 35.01 34.40 34.02 33.42 33.74 34.39 34.48 34.42 34.61 33.89 33.57 34.41 36.75 35.55 34.13 33.87 33.54 32.39 31.05 30.45 30.23 30.31 30.67 29.98 29.54 30.19 30.94 32.32 33.78 34.14 30.17 29.53 28.24 29.21 28.20 30.34 28.56 30.07 28.89 32.16 32.54 32.80
31.72 32.25 33.37 32.89 32.20 32.45 33.50 33.31 33.02 32.40 31.47 31.56 33.20 34.02 33.47 32.68 33.72 34.39 31.46 29.74 29.07 29.24 30.96 30.59 29.59 29.30 29.98 30.61 31.90 31.63 30.40 31.65 27.43 24.74 24.59 28.99 27.34 25.13 13.68 15.59 17.94 31.16 31.61
30.14 30.32 30.25 31.19 32.42 31.70 33.16 33.04 32.22 31.48 30.25 30.14 30.67 31.35 32.39 31.73 32.13 32.09 30.49 29.36 26.97 26.84 27.29 25.72 24.49 23.60 22.62 23.15 24.77 18.66 20.67 28.57 24.19 17.24 17.16 20.50 17.25 26.81 25.50 17.55 15.96 17.68 18.35

GFSMA_sfc_wetblb_096.txt.gz
Wetbulb
66.11 65.31 64.85 63.93 61.64 62.35 63.16 63.38 63.13 63.63 63.09 64.36 64.50 63.81 63.14 63.07 63.63 63.87 64.88 63.85 64.90 68.10 69.24 68.98 68.66 68.14 67.62 67.00 66.35 65.20 64.89 64.44 63.97 63.58 63.74 62.96 62.15 62.45 62.45 61.14 60.60 61.25 60.38
65.56 64.73 64.46 63.96 63.48 63.41 62.88 62.58 62.30 63.16 63.71 63.94 63.22 63.36 62.92 62.74 63.41 63.48 64.13 63.88 63.35 65.05 67.56 68.34 67.97 67.42 67.29 66.58 65.96 65.12 64.44 63.87 63.35 63.03 62.52 62.66 62.46 61.40 60.33 60.06 60.55 61.15 60.10
64.76 63.98 63.14 62.93 62.83 63.13 62.25 60.06 61.76 62.26 62.12 62.72 62.61 62.90 62.60 62.35 62.88 62.78 63.46 63.20 63.24 62.80 64.13 66.14 66.89 66.86 66.78 66.40 65.56 64.89 64.05 63.71 62.99 62.21 61.80 61.61 61.07 60.15 60.35 59.83 60.48 59.75 60.14
64.03 63.01 62.28 62.68 62.78 62.82 62.80 61.44 61.49 61.76 61.99 61.43 61.93 61.90 61.60 61.69 61.90 62.04 62.52 62.93 62.45 62.81 62.67 63.92 65.29 65.84 66.02 65.39 64.85 64.23 63.71 63.03 62.39 62.53 61.18 60.66 60.22 60.41 60.61 59.54 60.07 59.73 59.53
63.33 62.55 62.10 62.14 62.77 62.80 62.41 61.83 61.42 61.58 61.08 61.20 61.02 61.37 61.11 61.20 61.42 62.28 61.65 61.75 61.63 61.02 60.99 61.83 62.44 62.74 63.92 64.75 64.51 63.48 62.79 62.46 62.29 61.97 61.58 60.72 60.15 59.74 59.89 59.52 59.75 59.37 59.30
62.36 62.14 62.13 61.79 62.45 62.26 61.91 62.07 61.17 61.43 61.23 61.26 61.16 60.67 60.55 61.07 61.29 61.24 61.24 61.61 60.69 59.72 59.78 60.00 60.89 60.66 61.15 63.29 63.58 63.02 62.36 62.17 61.44 61.88 61.57 61.11 60.36 59.89 60.23 59.93 59.63 59.30 59.22
63.49 63.37 62.32 61.13 61.79 61.41 61.47 61.34 61.33 60.46 59.77 61.12 59.51 57.26 57.18 59.32 60.43 60.65 60.73 59.70 59.37 58.75 58.84 58.70 58.42 58.80 60.26 61.31 62.58 63.00 63.04 62.69 61.97 61.94 61.66 61.07 60.31 60.68 59.26 59.86 59.69 59.39 59.20
63.83 63.51 62.60 61.86 61.20 61.08 61.08 61.15 60.95 59.95 60.18 61.28 58.34 56.24 52.65 54.93 57.24 59.53 59.47 59.14 57.77 57.91 57.81 58.32 57.69 57.27 58.27 59.91 60.14 62.01 62.58 62.89 62.61 62.11 61.55 61.31 60.58 59.29 59.27 59.88 59.80 59.48 59.28
63.37 63.36 62.60 61.77 61.55 61.69 60.81 60.99 60.84 60.04 58.77 60.15 59.10 55.90 51.49 51.12 54.11 55.99 57.78 58.14 57.00 57.06 57.76 57.79 57.59 57.20 57.11 57.71 58.72 59.06 58.60 59.80 62.45 62.50 61.80 60.38 59.79 59.85 59.56 59.86 59.93 59.58 59.50
62.86 63.03 62.08 61.79 61.22 61.90 61.57 61.03 61.13 60.27 59.37 57.94 58.48 58.23 56.31 55.22 52.90 50.66 54.77 56.03 56.26 56.14 56.26 57.02 57.08 57.21 56.94 57.03 57.35 56.07 55.12 55.04 58.04 61.74 62.17 61.81 61.50 61.39 61.09 60.53 60.40 60.06 59.84
62.18 62.20 61.74 61.12 61.73 61.72 61.41 60.78 60.45 60.12 59.77 58.64 58.69 57.18 55.82 55.54 55.10 53.29 51.52 52.29 54.39 55.54 55.98 56.53 57.08 57.38 56.93 57.21 57.37 56.42 53.96 53.14 54.18 58.13 60.89 61.77 62.31 62.17 61.94 61.87 61.65 61.29 60.77
61.29 61.79 61.78 61.52 61.25 60.88 60.67 60.64 60.63 60.18 59.59 59.55 59.10 58.49 57.42 54.69 53.72 53.12 52.06 53.27 53.55 53.45 55.58 56.04 56.12 56.73 56.90 56.95 57.25 55.22 53.22 52.16 52.84 55.16 57.69 60.02 61.63 62.18 62.24 62.26 62.37 61.83 61.68
60.33 60.55 60.70 60.22 60.27 60.65 60.83 60.33 60.26 60.14 59.98 59.52 58.86 58.50 58.02 56.31 56.10 55.74 54.20 52.93 52.03 52.37 53.35 55.12 55.97 56.34 56.52 56.99 57.13 54.55 53.78 51.05 51.42 53.08 54.87 56.50 58.12 59.73 61.38 62.03 62.45 62.65 62.63
60.25 60.54 60.15 60.14 59.83 59.62 60.66 60.44 59.88 59.82 59.64 59.42 58.82 58.47 57.62 56.79 56.56 56.04 54.39 52.92 50.24 51.26 52.18 52.45 55.70 55.97 56.52 56.57 55.88 52.56 55.95 50.46 50.14 50.66 52.02 53.33 54.61 55.80 56.90 58.20 59.80 60.99 61.74
59.02 59.04 59.25 59.28 60.41 60.43 60.21 60.22 59.83 59.63 59.60 59.49 58.94 57.93 57.40 56.92 56.90 56.79 56.06 55.38 52.95 49.46 50.29 52.61 52.57 55.56 56.63 56.54 55.41 55.67 55.83 51.79 49.27 48.69 48.92 50.33 52.08 53.47 53.84 54.55 55.44 56.37 57.46
58.59 58.40 58.62 59.19 59.67 60.05 60.03 59.87 59.69 59.78 59.49 59.66 59.50 57.48 56.97 56.75 56.87 56.73 56.02 55.40 54.41 52.50 50.15 53.05 53.81 54.59 55.76 55.89 54.59 55.87 55.65 52.08 48.91 47.58 47.19 47.47 48.32 50.00 50.86 51.40 52.32 52.82 53.52
57.75 57.81 57.93 58.24 57.76 57.80 58.00 58.16 58.35 58.49 58.42 58.93 58.88 57.82 56.72 56.63 56.24 56.24 55.84 54.91 53.84 53.40 51.76 52.85 53.71 53.69 54.76 55.52 55.56 56.54 56.30 56.01 53.93 47.28 46.43 45.96 45.42 45.78 46.65 47.46 47.51 47.80 48.05
55.92 56.60 57.24 56.50 56.48 56.46 57.10 57.02 56.78 57.32 57.30 57.28 57.68 58.14 56.62 56.44 56.00 56.06 55.46 54.25 54.07 53.79 52.32 51.68 52.36 52.57 53.28 54.55 55.38 55.94 55.22 52.94 46.63 43.73 43.13 42.88 42.63 42.40 42.42 42.44 42.45 42.60 42.52
54.89 55.35 55.38 56.66 56.80 57.20 56.92 56.90 56.88 56.86 56.92 57.16 57.89 57.28 56.56 56.32 55.52 55.14 55.46 54.27 53.69 53.36 52.92 51.73 51.14 52.63 52.76 52.69 52.51 53.08 48.09 44.67 43.59 42.40 41.29 41.10 41.42 41.34 41.41 41.30 41.60 41.21 40.70
55.15 53.21 51.75 50.11 50.29 50.60 51.98 55.01 56.54 56.56 56.68 56.74 57.02 57.32 56.99 56.53 55.58 54.46 54.37 54.47 54.04 53.17 52.93 51.92 51.55 51.47 52.09 52.56 52.57 51.47 49.22 45.31 41.91 40.53 40.04 39.75 40.17 40.20 40.02 40.02 39.81 39.94 39.57
46.37 46.63 45.24 43.47 43.25 42.20 40.85 42.99 51.18 55.67 53.66 49.21 45.94 44.11 45.90 53.43 50.62 52.19 54.67 54.10 53.66 52.48 52.18 51.39 50.81 51.21 51.02 51.02 50.29 48.36 48.49 41.47 38.24 41.38 38.18 37.68 37.18 37.07 37.49 38.35 38.38 37.72 37.02
40.25 39.91 38.71 38.10 37.65 37.41 36.93 38.63 46.90 47.08 45.49 43.96 41.16 40.11 39.44 39.01 37.99 37.50 37.50 36.33 40.99 52.19 51.76 51.44 51.02 50.31 46.48 43.14 41.83 43.81 43.27 40.87 38.27 34.46 35.63 33.00 35.04 33.75 34.87 36.05 36.05 35.26 34.70
36.88 35.80 35.36 35.22 34.30 35.15 36.16 36.79 37.33 38.74 38.44 38.78 38.77 37.75 36.86 36.21 35.98 35.06 34.35 34.06 32.95 33.36 33.60 46.86 44.02 38.43 36.71 35.47 37.95 39.16 39.83 37.28 33.57 30.90 35.37 30.36 32.34 30.36 32.56 33.94 34.56 34.40 33.85
33.93 33.66 33.42 33.61 33.37 33.97 34.88 35.09 34.89 35.21 35.17 35.34 35.41 35.06 34.45 33.90 34.35 34.03 33.22 31.72 30.27 30.36 30.38 31.09 30.58 30.45 31.34 32.27 34.24 35.94 34.89 29.66 29.62 28.29 30.12 28.79 30.81 28.61 29.75 28.56 32.92 33.27 33.06
31.14 31.24 32.09 32.31 32.26 32.86 34.10 34.25 33.54 32.55 31.77 32.08 33.25 33.40 33.00 32.86 34.38 35.20 31.49 29.10 27.53 26.90 29.41 29.80 29.80 30.04 30.26 30.88 31.89 34.07 31.69 31.74 27.45 23.84 23.82 29.92 27.57 26.57 25.11 26.59 26.19 30.99 30.92
30.31 30.29 30.18 30.95 32.28 31.87 33.70 33.73 33.10 32.15 30.69 30.40 30.95 31.75 32.69 31.87 32.69 32.67 30.40 28.75 25.79 25.21 25.18 24.18 24.01 23.78 23.89 24.97 26.38 27.11 31.72 28.58 25.33 22.84 22.17 24.49 25.46 28.57 26.89 26.00 24.76 24.90 25.90

GFSMA_sfc_wetblb_099.txt.gz
Wetbulb
68.09 68.13 68.29 68.22 69.37 69.07 68.24 68.18 68.02 67.94 67.78 68.00 68.15 67.56 66.62 66.03 64.71 65.43 66.54 64.67 64.99 68.09 69.63 69.73 69.13 68.81 68.33 67.42 67.28 66.46 65.56 65.10 64.73 64.15 64.32 64.12 63.77 63.47 62.69 62.60 62.09 61.96 61.35
68.14 67.31 66.48 66.48 66.40 66.86 66.74 66.50 65.81 66.38 66.78 66.84 66.10 65.83 65.77 65.71 63.74 64.28 65.24 66.23 63.46 65.83 67.95 69.52 69.05 69.00 68.46 67.44 66.69 66.44 65.52 65.11 64.50 63.90 63.74 63.15 62.26 62.42 62.06 61.66 61.58 60.60 60.35
67.96 67.01 66.39 65.90 65.84 65.86 65.68 64.40 63.97 64.50 65.35 66.55 66.11 64.77 65.36 64.01 62.97 63.28 64.36 64.74 65.30 62.79 65.12 66.46 67.49 68.06 67.67 67.35 66.40 65.97 65.55 65.02 64.68 63.79 63.01 62.41 62.16 61.88 61.26 60.86 61.23 61.17 59.69
67.16 66.24 65.88 65.55 66.35 65.26 64.11 63.21 63.07 62.88 63.79 63.31 62.97 63.26 65.50 63.50 63.06 62.90 63.47 64.43 68.12 67.34 64.01 64.78 65.19 66.60 66.64 66.88 66.30 65.87 64.95 64.26 63.34 62.72 62.29 61.98 61.26 60.77 60.57 60.48 60.47 60.24 60.16
65.74 65.39 64.85 64.99 66.16 64.86 64.13 63.03 62.72 62.78 62.40 62.74 62.79 63.14 63.60 63.33 62.63 62.78 62.51 63.09 66.70 67.26 67.76 63.12 62.75 63.66 64.97 65.89 65.98 65.37 64.58 63.40 62.52 62.71 61.74 61.06 60.81 60.56 60.66 60.10 60.14 60.14 59.90
65.01 64.54 64.35 64.52 65.32 64.53 63.42 62.97 61.53 62.59 62.95 62.50 62.34 62.13 62.96 63.12 63.00 62.43 62.13 62.39 63.10 66.28 66.85 66.59 66.58 64.99 62.17 64.20 64.98 65.13 63.98 63.22 62.65 62.95 61.81 61.34 60.86 60.44 60.55 60.09 59.88 59.74 59.56
64.65 63.65 63.42 63.66 64.22 63.52 63.07 62.76 61.82 61.66 61.44 62.45 60.32 59.18 59.37 61.34 61.33 62.16 62.23 61.76 60.84 61.33 63.51 65.69 65.87 65.71 64.42 62.06 63.66 64.78 63.56 63.32 63.12 62.70 62.29 61.64 61.54 60.23 60.64 60.33 59.93 59.71 59.52
64.30 63.22 63.14 63.07 63.20 62.95 62.80 62.52 61.75 60.61 61.18 62.14 58.83 57.17 54.35 55.88 58.92 61.29 61.62 61.20 60.70 60.43 60.38 62.84 64.33 64.66 64.77 63.78 62.89 62.77 63.40 63.43 62.78 62.39 62.50 62.17 61.37 60.81 60.43 59.56 60.02 59.84 59.63
64.08 63.63 63.84 63.63 62.67 63.09 61.85 62.39 62.27 60.74 59.36 61.15 60.20 57.81 52.83 52.94 54.82 57.97 59.58 61.22 60.17 59.29 59.88 60.75 62.52 62.72 62.84 62.81 61.93 60.61 59.00 60.29 62.52 62.74 63.10 62.19 61.32 60.52 60.33 59.90 60.23 60.10 59.82
63.25 63.02 63.59 64.03 63.05 62.58 62.12 62.76 62.81 61.65 61.07 59.13 60.20 61.56 59.28 58.57 54.96 52.67 56.33 58.66 59.43 59.22 58.98 60.03 61.81 61.70 62.08 62.02 60.26 58.17 55.48 55.66 58.94 62.15 62.85 62.03 61.18 60.88 60.46 60.25 60.45 60.30 60.12
62.85 59.92 59.41 62.77 62.72 62.60 62.98 63.38 61.74 61.42 61.37 60.36 59.37 57.87 57.12 57.68 58.29 56.07 53.29 54.88 56.37 58.68 58.76 59.27 60.46 61.34 61.53 61.41 61.52 58.86 53.72 53.37 54.68 59.08 61.61 61.51 61.54 61.25 61.35 61.20 61.25 61.14 61.14
60.43 60.18 61.73 62.55 62.82 62.38 63.00 63.64 62.80 61.78 61.17 60.97 60.18 59.09 57.58 56.40 56.76 57.82 55.90 55.47 54.73 55.44 56.87 57.55 58.36 59.63 61.11 60.89 59.39 55.69 53.10 51.89 52.66 55.41 58.38 60.14 61.22 61.37 61.71 61.90 62.05 61.79 61.66
60.04 60.45 62.50 62.08 61.96 62.88 62.93 63.82 61.86 62.35 61.07 60.60 59.88 59.42 59.51 59.05 60.58 59.64 58.24 55.74 54.88 53.90 55.12 56.83 57.75 58.82 59.86 60.49 60.09 55.28 53.73 50.98 51.41 53.17 55.08 56.98 58.57 60.14 61.08 61.42 61.85 62.33 62.64
62.07 62.49 62.24 62.85 62.66 62.85 61.81 61.74 61.34 61.41 61.58 60.52 60.31 59.99 59.44 59.46 59.32 59.46 59.37 57.28 53.03 52.06 53.14 54.27 57.05 58.64 60.20 59.74 58.96 52.79 58.37 50.43 50.13 50.60 52.19 53.66 54.88 56.12 57.01 58.49 60.08 60.95 61.65
61.78 61.27 62.32 61.46 61.33 60.75 61.21 61.82 60.69 60.86 61.04 60.80 60.66 59.86 59.18 59.17 59.20 59.48 59.20 58.15 56.01 50.01 51.15 53.20 54.17 58.45 59.82 59.97 58.04 58.87 59.09 52.91 49.86 49.24 49.44 50.68 52.63 53.66 54.17 54.98 55.97 56.90 58.26
59.82 61.24 61.04 60.78 60.30 60.56 61.93 61.53 60.37 60.61 60.36 60.50 60.49 59.46 59.04 59.11 59.21 58.93 57.29 58.10 56.35 53.74 51.13 54.73 55.33 57.62 58.87 58.47 57.65 59.54 59.32 53.02 48.73 47.92 47.44 47.99 48.87 50.57 51.69 52.21 52.70 53.48 54.20
59.54 59.42 59.61 59.88 60.36 60.56 60.86 60.16 60.14 59.99 59.59 59.63 59.61 59.01 58.16 58.50 57.32 57.16 57.15 56.65 54.94 54.40 51.95 53.17 56.45 58.45 58.88 59.09 58.51 59.09 59.45 59.51 54.33 46.50 46.18 46.27 46.11 46.81 47.69 48.07 48.30 48.78 48.83
58.58 58.82 59.04 59.07 58.81 59.29 59.07 58.91 58.53 58.73 59.01 58.17 58.31 58.34 57.77 57.74 57.16 57.26 56.27 55.35 54.92 54.48 53.52 51.44 53.79 56.20 57.47 57.77 58.75 59.03 58.83 54.46 48.98 43.37 43.32 43.21 43.16 42.93 42.71 42.69 42.89 43.15 43.57
57.72 58.02 58.32 58.29 57.97 57.65 57.24 57.11 57.97 58.75 58.62 58.04 58.38 58.40 57.87 56.97 55.99 56.07 56.03 55.11 54.70 54.18 54.68 53.56 52.69 55.35 56.83 58.18 57.75 53.61 48.31 45.96 43.35 42.63 41.54 41.52 41.91 41.91 41.89 41.63 41.51 41.15 40.72
58.35 58.41 57.42 55.69 54.89 53.78 54.75 56.93 57.49 57.65 57.21 58.42 57.49 57.61 57.98 57.48 56.39 55.93 55.43 54.80 54.54 53.92 53.97 55.73 53.40 53.04 55.82 54.99 56.52 51.28 47.38 45.30 42.14 41.53 40.61 40.34 40.66 40.82 40.63 40.60 40.32 40.09 39.83
50.98 49.42 47.38 45.31 44.43 43.98 42.56 46.17 52.28 56.29 57.45 52.28 47.56 45.12 42.89 51.59 51.12 53.74 55.55 55.03 54.28 53.80 53.62 52.94 52.36 52.19 52.21 52.24 52.57 52.38 46.84 41.15 39.89 41.20 38.92 38.71 38.27 38.45 38.39 38.48 38.08 37.18 36.56
41.73 40.73 39.44 39.33 39.28 38.97 37.17 39.46 47.75 49.18 46.49 44.72 42.49 41.18 39.43 39.62 38.82 38.52 39.06 41.04 50.36 53.74 53.26 52.81 52.09 51.12 51.24 49.10 47.42 49.44 41.46 39.38 37.62 37.74 35.15 33.37 36.07 34.96 35.71 35.93 35.53 34.90 34.54
36.45 35.70 35.71 35.87 35.44 36.75 36.59 37.61 38.27 40.81 39.69 39.08 38.61 37.94 37.94 36.98 37.11 36.52 35.20 34.61 33.50 34.00 37.93 51.15 51.15 47.24 42.90 41.81 42.55 42.73 43.22 40.82 34.99 32.31 34.61 30.79 32.45 31.13 33.08 34.98 34.95 33.92 33.23
33.10 33.58 33.70 34.63 34.50 34.86 35.10 35.64 35.92 36.89 35.40 34.61 34.58 35.09 34.93 34.70 35.17 35.39 34.34 32.57 31.67 31.77 32.21 33.13 33.31 32.16 32.72 34.65 36.88 38.33 35.01 30.15 30.05 28.96 32.12 28.99 31.43 28.63 29.64 30.77 33.79 34.00 33.40
31.18 31.63 32.58 32.80 33.25 33.95 34.49 34.40 34.50 33.95 32.55 32.50 33.22 33.56 33.43 33.53 34.38 34.84 31.85 30.14 27.92 27.27 30.97 31.83 31.89 32.05 32.33 33.13 35.15 35.47 32.92 32.68 28.41 25.44 25.27 30.18 28.70 26.43 27.95 28.57 30.99 31.71 31.09
30.11 30.55 30.20 31.36 32.62 32.66 33.99 33.98 33.76 32.87 31.29 30.71 31.55 31.91 32.84 32.47 32.45 32.36 30.94 29.41 25.75 25.02 25.73 25.42 25.24 25.72 26.44 27.60 28.80 30.31 33.99 31.10 26.81 25.33 24.83 28.10 28.95 30.11 28.10 31.41 32.24 32.69 31.40

GFSMA_sfc_wetblb_102.txt.gz
Wetbulb
71.17 71.84 71.32 71.69 71.55 71.47 71.49 70.72 70.48 70.15 70.42 69.60 69.66 68.97 68.55 69.37 69.10 68.68 67.68 64.71 64.50 67.22 68.72 69.67 70.19 69.56 68.81 68.64 68.06 67.71 67.07 66.74 66.17 65.43 65.18 64.96 64.62 64.31 63.80 63.59 63.09 62.60 62.15
71.35 69.89 70.04 69.92 70.94 70.61 70.73 70.48 69.80 70.06 69.72 69.55 68.39 68.33 68.58 68.64 69.01 68.44 66.74 66.71 63.54 65.13 67.50 69.36 69.90 69.49 69.06 68.37 67.29 67.06 66.58 66.17 65.71 64.83 64.45 64.40 63.92 63.40 62.85 62.51 62.14 61.93 61.63
70.73 70.08 68.83 68.88 69.74 70.35 70.37 69.93 69.43 69.38 68.61 68.27 67.94 67.73 67.89 67.62 67.47 67.94 66.47 65.76 67.54 62.50 64.78 67.25 68.19 68.87 68.69 68.24 66.96 66.75 66.19 65.61 65.51 64.96 64.41 63.68 62.87 62.41 62.05 61.92 61.75 61.24 61.38
69.78 69.60 68.07 68.54 68.35 68.69 67.73 67.27 66.38 65.53 65.55 67.12 66.77 67.35 67.38 67.25 66.64 67.23 64.98 64.42 66.68 65.66 63.57 63.73 65.53 66.83 67.50 67.67 67.04 66.64 65.82 65.74 65.43 64.95 63.94 63.20 62.85 62.18 61.62 61.23 61.36 61.42 60.58
69.27 69.28 68.14 68.08 68.18 67.25 67.03 65.92 65.25 64.96 64.65 66.13 66.12 66.19 66.33 65.46 65.73 65.29 63.23 63.81 64.54 64.87 65.44 63.43 63.39 63.75 65.03 66.42 67.03 66.58 66.21 65.31 64.33 63.80 62.94 62.43 61.68 61.66 61.34 61.08 61.03 60.03 59.77
68.89 68.69 68.26 67.64 67.31 66.07 66.77 66.05 64.89 64.38 64.40 64.29 63.33 62.80 63.96 65.69 65.52 64.23 62.94 63.26 63.59 64.18 65.20 65.59 64.97 64.71 62.90 64.98 65.80 66.19 65.89 64.72 64.07 63.58 62.80 62.06 61.60 61.62 61.32 61.06 60.18 60.64 60.26
68.80 68.22 67.40 66.51 66.09 65.39 65.51 65.19 64.23 62.71 63.21 64.60 62.42 61.26 61.66 63.48 63.26 63.11 63.44 62.68 62.29 63.41 64.53 67.56 67.03 67.05 65.74 63.18 64.65 66.02 65.53 64.87 63.93 63.60 62.73 62.40 61.84 61.58 61.37 60.57 60.42 60.18 59.94
68.71 67.50 66.36 65.11 65.42 65.19 64.71 65.09 64.68 61.61 62.67 63.79 60.26 58.97 56.13 57.47 61.95 62.66 62.86 62.29 62.08 61.90 63.10 65.35 66.48 66.31 66.37 66.04 65.08 64.20 64.94 64.76 63.63 63.44 63.29 62.38 61.71 61.07 60.72 60.64 60.56 60.18 60.09
67.60 67.06 65.86 64.54 64.69 64.98 64.76 65.30 64.10 62.39 60.52 62.04 62.43 60.20 55.17 55.67 56.79 60.26 61.08 62.24 61.40 60.86 61.50 61.58 62.10 65.12 65.46 65.29 63.68 62.12 59.96 60.67 62.97 63.70 63.58 62.82 61.97 61.32 60.83 60.90 60.60 60.31 60.16
66.22 66.04 64.67 64.27 63.94 64.76 64.58 64.93 64.58 64.14 63.07 60.01 61.43 62.90 63.80 59.99 56.77 53.88 56.97 60.97 62.56 61.01 61.21 60.68 61.18 61.71 63.67 64.61 62.54 59.87 56.53 56.36 59.47 62.22 63.06 62.99 62.17 61.59 61.09 60.79 60.54 60.87 60.54
65.11 65.35 64.43 64.73 64.06 64.47 64.34 64.89 65.30 65.45 64.40 61.94 60.82 60.73 61.19 60.96 62.28 58.72 54.51 55.87 59.82 60.63 62.14 62.10 61.42 61.10 60.87 62.36 63.15 59.66 54.85 53.92 56.02 59.98 61.87 62.82 62.20 61.47 61.15 60.75 60.69 60.69 60.91
64.33 64.76 65.05 65.53 64.74 63.87 63.76 63.35 64.25 65.50 64.60 63.48 62.08 61.41 61.04 59.45 59.45 58.13 57.07 56.92 56.79 57.63 60.78 60.68 60.18 61.08 60.52 60.79 60.75 55.90 53.36 52.16 53.63 56.91 59.55 60.82 61.08 61.14 60.86 61.18 61.21 61.17 61.24
63.35 63.96 65.29 62.67 63.15 63.61 63.97 63.59 63.28 65.17 64.48 63.10 62.09 60.41 60.67 60.15 60.77 59.23 58.48 57.12 55.81 56.27 57.11 59.11 59.77 60.17 59.72 60.50 60.91 56.34 53.63 50.52 51.23 53.69 55.84 57.79 59.07 59.70 60.39 60.76 61.30 61.78 62.13
64.73 66.58 64.20 62.19 62.26 63.20 63.66 63.86 63.39 65.48 65.32 64.56 62.48 61.67 60.61 60.52 62.73 59.33 58.45 57.18 55.87 55.42 55.99 56.19 58.31 58.68 59.53 59.85 59.10 53.00 59.17 50.39 50.05 50.95 52.40 54.09 55.47 56.71 57.70 58.78 59.73 60.59 61.36
66.63 65.03 63.26 62.11 62.06 62.62 63.72 63.19 64.27 64.63 63.24 62.01 62.11 62.48 60.69 61.21 61.23 60.38 59.31 59.07 56.62 52.69 53.31 56.15 57.59 58.65 59.22 59.78 58.40 60.04 61.20 52.07 49.82 49.34 49.62 51.13 52.95 54.13 54.63 55.59 56.44 57.49 58.94
64.73 64.02 62.79 63.02 62.43 62.58 63.25 63.58 63.63 62.74 61.07 61.89 62.06 60.76 60.96 61.86 61.17 60.26 59.38 59.02 59.03 56.36 53.76 56.61 56.39 57.22 58.45 58.96 57.87 61.23 61.08 53.14 49.35 48.35 47.91 48.84 50.16 51.77 52.56 53.07 53.65 54.52 55.48
63.78 62.54 62.32 61.23 60.66 61.58 62.42 61.73 61.08 62.17 61.89 60.15 61.60 60.64 60.78 60.96 59.86 59.77 60.63 62.32 60.82 59.98 53.51 54.67 56.56 57.66 57.26 57.97 58.83 60.46 60.83 61.04 54.63 46.50 46.82 46.91 47.14 47.83 49.03 49.86 50.73 51.17 51.27
62.29 62.47 62.07 60.30 60.35 61.24 61.18 61.48 61.24 60.89 60.56 59.67 59.84 59.51 59.61 59.50 59.51 59.70 60.22 59.31 57.51 57.95 55.60 52.79 55.17 56.07 56.84 57.70 58.48 59.77 60.35 54.11 49.31 44.05 44.18 44.34 44.15 43.95 43.90 44.02 44.28 44.65 45.21
61.65 60.82 60.70 59.92 59.86 61.91 61.19 60.22 60.50 60.07 60.13 60.10 59.75 59.33 59.68 59.22 58.66 58.24 58.63 56.91 56.81 55.83 55.16 53.82 53.50 55.93 57.09 58.15 57.71 54.82 50.94 48.54 44.50 43.08 42.00 42.10 42.39 42.34 42.13 41.92 41.99 41.89 41.78
59.63 59.86 60.82 59.49 59.41 59.14 59.44 58.96 58.73 58.81 58.83 60.03 61.47 60.38 60.52 59.26 58.56 57.59 57.07 56.63 56.05 54.92 54.57 53.54 53.16 54.07 55.36 57.54 52.63 47.50 45.76 46.95 43.94 42.48 41.52 41.25 41.17 41.36 41.16 40.82 40.70 40.28 39.78
57.60 56.66 53.53 51.49 51.57 51.33 45.61 49.95 56.25 58.51 58.24 57.81 51.67 49.46 45.44 43.45 45.04 53.37 56.57 56.35 55.51 54.26 53.64 53.49 52.79 53.34 54.34 54.63 51.80 50.79 46.03 41.92 41.65 41.26 40.30 39.82 39.30 38.69 38.67 38.82 39.13 38.89 37.96
40.66 44.13 44.77 45.23 42.12 39.47 37.36 39.04 46.37 53.71 50.44 49.63 46.21 44.14 41.93 40.86 40.28 40.39 41.87 44.61 51.98 53.93 53.15 52.96 53.15 52.40 52.65 53.85 54.47 50.70 42.31 40.13 36.39 39.53 35.22 33.53 36.38 34.64 35.10 35.86 35.92 35.58 35.36
34.59 36.01 38.29 37.82 36.75 37.12 36.96 38.20 39.63 45.32 42.09 40.69 40.80 41.38 40.55 39.32 38.79 37.97 36.20 35.77 34.77 35.70 41.88 53.78 52.90 52.46 49.51 49.20 49.51 44.20 44.58 43.16 37.75 36.46 34.66 30.38 32.79 31.26 34.10 34.75 34.89 34.39 33.93
32.08 32.10 33.38 35.44 35.23 35.06 35.38 35.92 35.99 37.31 37.05 36.11 36.13 37.11 37.31 37.26 36.08 37.02 35.78 33.40 32.57 32.49 33.12 35.45 37.52 33.18 34.45 37.90 44.02 44.65 40.23 31.84 31.82 31.09 34.70 29.02 31.59 29.11 31.32 33.83 34.48 33.57 33.00
31.47 30.64 31.42 33.12 33.84 34.20 34.72 34.66 34.83 33.86 32.83 32.75 33.49 34.38 34.14 33.80 34.50 35.81 33.69 31.64 29.92 28.33 31.91 33.12 32.90 33.12 33.71 34.31 36.64 37.20 34.22 33.87 29.87 28.88 29.09 30.17 28.93 27.58 29.28 30.04 32.14 32.65 31.00
28.94 29.06 28.27 29.98 31.76 32.23 33.96 33.83 33.58 32.65 30.97 30.93 31.33 31.58 32.29 31.94 32.32 32.91 30.66 29.29 25.85 26.83 27.57 27.26 27.62 27.21 27.78 28.38 30.45 31.29 35.72 33.79 28.91 27.51 27.55 28.79 27.46 28.27 25.34 29.34 29.53 29.28 28.89

GFSMA_sfc_wetblb_105.txt.gz
Wetbulb
72.95 72.34 71.99 71.60 72.00 70.91 72.01 71.48 69.96 70.26 70.58 70.20 70.55 70.02 70.04 69.91 69.95 67.75 68.41 64.92 64.83 66.10 69.17 69.36 69.51 69.22 69.08 69.19 68.61 68.32 67.94 67.98 67.48 66.66 66.78 66.29 66.16 65.78 65.34 64.68 63.84 62.95 61.37
72.11 71.51 71.64 71.06 70.54 71.48 72.14 71.36 70.97 70.28 70.24 70.50 69.94 69.85 69.64 69.70 69.27 68.88 68.51 67.60 63.72 64.24 67.39 68.86 69.30 69.07 69.63 69.00 68.26 67.81 67.70 67.47 67.01 66.27 65.75 65.11 64.78 64.47 64.11 63.60 63.09 62.30 61.53
72.32 72.40 70.48 70.58 70.55 71.48 71.74 70.99 71.12 71.17 69.93 69.29 68.70 69.67 69.31 69.31 68.68 68.25 68.60 68.20 66.32 62.42 64.10 66.24 67.29 66.59 69.39 69.46 68.27 67.40 66.81 66.32 66.22 65.83 65.17 64.29 64.03 63.40 63.10 62.70 62.41 61.97 61.87
72.16 72.14 70.58 69.36 70.27 70.84 70.72 70.05 70.17 69.32 68.61 68.53 67.75 67.76 68.68 68.39 68.19 68.10 68.10 68.05 66.56 66.72 64.31 64.12 62.83 65.12 68.04 69.02 68.34 67.41 66.55 66.15 65.82 65.44 64.62 63.78 63.59 63.20 62.50 61.96 61.85 61.20 61.58
71.23 71.62 70.52 69.18 70.44 69.72 69.60 68.58 68.93 68.52 67.64 67.73 67.01 67.44 67.76 67.28 67.55 67.11 66.72 66.77 65.80 66.21 66.82 63.76 62.66 62.80 64.04 67.00 67.85 67.54 66.77 65.98 65.82 65.32 64.70 63.69 63.47 62.72 61.95 61.46 60.14 61.21 61.20
71.55 71.27 69.64 69.39 69.22 67.53 68.43 67.17 66.42 67.24 66.39 66.58 65.89 64.92 65.98 66.93 67.24 65.70 65.59 65.49 65.26 65.56 65.75 66.05 64.39 63.76 62.67 64.75 66.04 67.63 66.90 66.15 65.61 64.88 63.74 63.47 63.28 62.57 61.80 60.86 59.79 59.76 59.56
71.66 70.24 69.13 69.49 68.90 66.56 67.96 66.23 66.04 65.64 64.84 66.07 64.24 63.05 64.26 65.67 65.46 65.27 65.34 64.78 63.45 62.70 64.36 64.12 63.69 64.23 64.27 63.26 65.19 66.77 66.43 66.37 65.58 64.86 63.86 63.43 62.76 61.85 61.37 60.90 59.45 59.54 59.47
70.13 68.47 68.61 68.54 68.32 66.58 67.66 65.70 65.42 64.06 64.33 64.53 61.61 59.75 56.79 58.57 62.30 64.37 64.16 63.26 62.66 62.29 62.14 63.56 63.61 63.94 64.19 65.52 64.98 64.87 65.72 65.87 65.32 64.72 64.06 63.03 62.13 61.54 61.13 60.83 59.38 59.32 60.22
70.26 68.63 68.82 68.51 67.31 67.02 65.74 65.46 65.52 63.56 61.86 63.20 63.05 60.62 56.11 55.91 57.86 61.86 62.89 63.01 62.50 61.90 62.28 61.97 63.06 64.03 65.40 66.41 63.71 63.12 60.98 61.87 64.09 64.69 64.03 63.03 62.26 61.43 61.30 61.11 59.72 59.11 60.44
68.36 68.51 69.10 67.26 66.45 66.69 65.80 65.39 65.42 64.68 64.76 61.09 62.77 63.26 64.28 62.64 58.02 55.27 59.66 62.09 62.30 61.54 61.69 61.75 61.68 62.28 62.95 65.54 63.66 61.03 57.54 57.30 60.20 63.04 63.73 63.25 62.52 61.70 60.90 60.67 60.39 59.39 60.86
67.89 68.08 68.43 66.87 65.68 65.58 65.50 64.81 64.93 65.23 65.68 63.39 61.89 61.20 63.33 62.77 62.62 59.57 54.56 57.47 60.50 61.83 62.19 61.73 61.48 61.62 61.83 61.89 63.91 61.93 55.92 54.76 56.66 60.68 62.66 63.01 62.87 61.82 61.32 60.95 60.89 60.25 60.79
66.74 66.59 66.13 65.87 65.71 66.59 64.93 64.50 65.59 66.45 66.23 65.23 64.58 63.31 62.26 60.36 59.52 59.94 58.88 57.93 57.43 59.61 61.01 61.65 62.02 61.72 61.56 61.37 60.63 56.48 54.37 53.23 54.37 57.80 60.06 61.58 61.75 61.52 61.37 61.15 60.80 60.72 60.81
64.77 64.24 64.90 64.30 65.31 64.96 61.52 60.55 62.38 64.83 65.95 64.93 64.56 64.02 62.59 63.51 63.06 61.84 60.80 59.31 56.58 57.78 58.87 61.40 61.82 62.40 62.36 61.81 60.20 55.50 53.86 51.78 52.55 55.14 57.28 59.06 59.58 60.14 60.25 60.31 60.66 60.87 61.20
65.61 63.91 64.33 64.06 64.55 64.55 63.88 64.44 65.13 65.59 65.19 64.44 64.51 64.76 63.78 63.50 63.67 62.51 60.56 59.58 56.15 54.66 56.15 56.77 60.00 61.30 61.49 60.73 59.65 53.22 57.27 50.39 50.58 52.00 54.03 55.53 56.69 57.30 57.59 58.43 59.25 60.16 60.72
65.76 64.33 64.30 63.95 64.24 64.71 64.31 64.55 63.25 63.76 64.65 65.42 65.95 64.01 62.94 62.47 62.92 62.25 61.37 59.54 56.78 53.51 53.00 56.31 56.83 59.77 60.94 60.85 58.64 57.87 58.83 50.72 49.41 49.27 50.27 51.95 53.88 54.94 55.43 56.29 57.01 58.00 58.84
66.24 65.72 64.80 63.76 62.75 62.58 64.30 64.04 62.00 63.54 63.87 65.49 65.41 64.47 63.79 62.79 62.33 61.59 61.09 59.69 58.44 56.05 53.73 58.50 59.11 59.06 59.62 59.42 57.26 59.51 59.12 52.23 49.34 47.95 47.95 49.05 50.61 52.29 53.04 53.67 54.44 55.31 56.38
65.73 64.78 64.35 62.81 62.38 62.48 60.80 61.05 62.39 61.63 62.42 63.36 62.97 62.33 61.24 62.31 62.27 61.34 60.55 61.39 59.12 58.05 54.71 56.93 59.61 60.62 59.16 58.42 58.45 59.01 59.01 58.67 53.05 48.26 47.42 47.58 47.86 48.69 49.82 50.50 51.08 52.30 53.21
64.65 64.61 62.84 63.29 62.94 62.05 62.62 58.66 57.81 60.09 61.13 61.86 62.05 61.15 60.07 60.77 61.52 61.55 60.99 58.75 58.49 58.88 57.21 55.02 58.05 57.75 58.05 58.10 58.15 57.50 58.85 58.89 51.35 45.76 46.30 46.41 46.06 45.81 46.03 46.41 46.37 46.86 47.47
62.34 61.76 62.56 62.53 62.78 62.48 62.31 61.26 58.79 58.14 61.24 62.30 61.98 60.63 59.59 60.63 59.49 59.77 60.03 58.94 59.40 58.61 58.71 55.49 53.91 57.20 57.15 57.63 57.03 55.12 48.73 46.08 44.47 43.91 42.54 42.79 43.33 43.50 43.48 43.59 43.65 43.56 43.48
60.53 60.82 61.55 62.05 61.46 61.66 62.19 62.44 61.10 60.32 60.90 61.39 61.54 61.25 60.69 59.81 59.04 59.42 58.63 58.46 58.74 57.70 56.71 55.59 54.64 54.47 55.43 56.39 55.39 46.64 45.06 45.51 42.93 43.02 42.21 41.80 41.84 41.86 41.68 41.45 41.37 41.43 41.18
41.23 50.64 56.96 54.52 56.58 54.92 55.19 59.98 60.36 59.44 59.46 59.30 56.53 54.68 49.10 44.27 41.65 43.35 54.47 57.98 57.31 56.53 55.39 53.85 53.08 53.72 54.09 52.35 49.47 48.74 44.72 41.65 41.00 41.32 40.08 40.11 39.80 39.67 40.39 40.43 40.33 40.04 39.44
35.81 37.43 40.35 43.60 42.56 41.30 38.67 41.18 53.73 55.45 53.59 52.37 47.65 46.09 44.58 42.29 42.10 37.93 40.08 42.31 50.06 55.73 54.25 53.36 52.65 52.47 53.28 51.86 49.89 46.00 40.83 38.23 35.74 40.70 36.20 34.49 36.99 35.23 35.53 36.53 37.26 36.67 36.25
34.72 33.24 34.10 35.99 36.46 37.60 38.04 40.49 41.13 44.44 41.28 41.22 41.47 41.60 42.08 41.21 40.81 40.50 37.59 36.39 35.18 35.73 41.33 54.09 52.72 52.68 52.63 53.30 50.64 44.14 43.38 42.18 38.34 36.65 35.20 30.68 33.60 31.51 34.20 35.48 36.04 35.39 34.71
32.29 31.79 31.59 32.79 34.16 34.87 35.79 36.71 36.72 37.94 36.51 35.54 35.74 36.59 37.61 38.42 37.57 39.23 36.68 33.47 32.64 32.50 33.32 36.23 39.41 34.15 36.32 43.74 49.23 47.14 43.78 32.95 33.86 32.82 34.75 28.90 31.49 30.15 31.85 33.17 34.65 34.19 33.41
28.90 29.04 30.13 30.49 31.80 32.27 34.16 35.05 34.99 33.71 32.44 32.00 32.69 33.59 34.33 34.57 34.12 36.94 34.21 31.86 31.38 30.82 32.56 33.53 33.51 33.77 34.35 35.40 39.44 39.83 35.97 35.58 31.75 30.95 31.57 29.79 28.86 28.27 30.35 31.28 32.35 32.92 32.11
28.52 27.80 27.67 28.58 30.25 30.24 32.59 33.20 32.97 32.11 30.30 30.22 30.81 31.19 32.04 31.90 32.62 32.76 32.08 30.95 26.94 26.73 29.06 29.28 28.67 28.54 29.90 31.25 32.64 34.68 38.58 38.04 29.87 29.08 29.94 28.16 27.33 27.55 24.51 29.26 29.69 29.73 29.73

GFSMA_sfc_wetblb_108.txt.gz
Wetbulb
70.66 70.69 70.35 70.14 70.66 70.55 70.14 69.37 69.10 69.24 68.78 68.40 68.66 68.29 67.94 67.69 67.38 66.92 65.74 65.31 65.51 66.24 69.71 69.95 69.87 69.33 68.94 68.54 68.90 68.83 68.55 68.53 68.37 67.84 67.04 66.55 66.17 65.68 65.20 64.42 63.85 63.16 62.25
70.34 70.10 69.81 68.80 70.11 69.65 69.60 69.58 68.88 68.04 68.11 67.74 67.40 67.62 67.41 67.53 67.53 66.60 65.23 64.52 63.64 64.40 66.66 69.74 69.28 68.98 68.99 68.45 68.32 68.38 68.20 68.07 67.95 67.59 66.82 66.18 65.84 65.33 64.62 64.05 63.48 62.39 61.93
70.87 70.09 69.24 68.64 68.73 69.44 68.36 69.00 68.56 68.68 67.76 67.59 66.89 67.02 67.14 67.26 67.02 66.54 66.03 64.68 63.79 62.11 63.30 66.65 68.09 67.41 67.37 68.53 68.57 67.82 67.84 67.33 67.15 66.97 66.35 65.80 65.22 64.69 64.21 63.52 62.84 62.19 61.45
70.20 69.63 69.41 68.08 68.85 68.32 68.73 68.69 68.13 67.39 66.91 66.66 66.02 66.45 66.31 66.61 66.49 65.65 65.84 65.55 65.22 65.20 62.90 63.26 65.14 66.86 67.29 67.38 68.46 68.49 68.06 67.31 66.75 66.35 65.57 64.84 64.23 63.77 63.39 62.95 62.36 61.63 60.35
69.43 69.51 69.44 68.78 68.60 67.76 67.69 68.22 67.34 67.18 66.04 65.42 66.21 65.80 65.59 65.33 65.27 66.01 65.10 64.45 64.32 64.99 64.48 62.77 62.96 63.83 64.56 65.40 66.56 68.43 67.98 67.37 66.78 66.25 65.19 64.55 63.93 63.43 62.97 62.51 61.79 60.52 61.46
69.41 69.18 69.22 68.85 68.33 67.80 67.31 67.76 66.59 66.81 66.02 65.42 64.70 64.74 64.65 64.62 64.93 64.85 64.90 64.56 64.45 63.94 64.00 64.37 62.51 62.40 61.89 62.99 61.29 67.31 67.80 67.27 66.62 65.84 65.53 64.58 63.84 63.28 62.64 61.57 60.26 60.71 61.53
69.44 68.71 68.71 68.51 68.13 67.14 66.33 67.13 65.51 65.29 63.97 64.59 62.69 62.91 62.22 63.44 64.03 63.24 63.15 63.72 62.67 62.66 62.39 63.70 63.77 64.39 62.60 62.29 62.32 63.97 67.94 67.52 66.60 65.76 65.32 64.41 63.60 62.67 62.04 60.87 60.46 59.83 59.61
68.12 68.62 68.36 68.07 67.54 66.54 65.92 65.92 65.05 63.56 64.04 64.58 61.40 59.01 55.94 58.09 60.50 62.68 63.62 62.83 62.06 62.21 60.87 62.14 63.37 63.55 63.68 62.49 63.10 64.72 66.54 66.99 66.92 66.29 65.15 63.87 63.21 62.53 61.69 61.20 60.48 60.11 60.16
67.69 67.92 68.25 67.70 66.50 66.13 65.01 65.53 64.82 63.13 61.97 63.42 62.54 57.90 54.43 53.60 55.72 60.45 61.81 61.15 60.90 60.73 60.28 60.42 61.93 63.43 63.53 63.58 63.03 62.62 61.02 61.81 65.19 65.78 65.10 63.81 63.19 62.32 61.50 61.11 59.99 60.49 60.39
66.83 67.37 67.66 67.56 66.19 65.44 64.67 64.66 65.38 63.28 62.39 60.90 62.39 61.60 60.17 58.60 54.51 53.87 58.13 61.33 61.08 60.78 60.01 60.48 61.61 62.13 62.74 63.40 62.45 60.60 58.15 57.94 60.90 63.91 64.42 63.98 63.16 61.95 61.24 60.62 60.32 60.37 60.19
66.09 66.74 66.76 66.60 65.51 64.87 64.09 64.98 64.53 63.81 62.49 61.24 61.12 60.42 60.47 60.49 59.47 55.85 52.01 56.14 59.73 60.10 60.65 60.05 60.34 60.82 62.17 62.52 63.05 61.35 56.66 55.73 57.58 61.18 62.87 63.24 62.86 62.22 61.29 60.81 60.87 60.36 59.93
63.18 65.42 65.54 66.64 66.40 65.00 64.40 64.07 61.74 63.56 62.54 62.55 62.10 61.23 59.53 59.21 58.46 56.88 54.93 54.03 55.47 57.87 59.91 60.34 59.83 60.32 61.12 61.83 61.42 58.15 55.21 54.00 55.27 58.31 60.68 61.74 61.73 61.66 61.40 60.01 60.09 60.18 59.91
60.41 62.42 65.04 65.40 65.53 64.71 64.14 64.01 63.51 63.21 62.67 62.34 62.04 61.35 61.71 60.56 60.27 59.30 57.25 55.33 54.88 56.73 58.11 60.67 60.62 60.76 61.25 61.48 61.49 57.21 56.02 52.68 53.11 55.71 58.07 59.34 60.00 60.19 60.43 60.15 60.25 60.48 60.29
59.51 62.72 63.74 64.58 64.66 64.62 64.34 64.05 63.41 61.99 60.61 60.24 60.70 62.16 61.86 61.45 61.77 59.71 57.86 56.01 55.04 54.65 55.72 56.71 60.62 61.20 61.10 61.19 60.32 54.72 57.79 50.89 51.62 52.73 54.54 56.44 57.29 57.84 58.12 58.55 58.71 59.08 59.47
59.19 63.50 64.62 64.02 64.04 64.22 63.78 60.77 59.38 59.75 59.30 61.41 58.91 60.90 61.60 61.71 61.82 60.73 59.67 58.31 55.41 52.56 52.95 55.94 56.30 60.64 61.33 61.15 59.24 58.23 59.97 51.94 51.24 50.95 51.80 53.19 55.03 55.76 55.64 56.26 56.70 57.33 58.47
62.35 63.53 64.01 64.05 63.46 63.60 63.12 61.30 61.53 62.06 63.08 62.92 62.66 61.92 61.65 61.56 60.82 60.95 59.65 58.44 57.89 54.91 52.08 55.83 56.68 58.09 60.57 60.55 58.03 58.21 58.63 51.23 49.11 48.78 49.28 50.25 51.93 53.45 53.62 54.13 54.66 55.47 56.63
62.11 62.78 63.77 63.51 63.02 62.59 62.79 62.52 62.24 62.35 61.48 60.83 61.39 61.06 61.07 61.22 60.62 60.81 59.83 58.46 57.69 57.40 54.93 55.77 57.18 58.14 58.89 59.04 58.74 58.88 56.83 55.39 53.37 48.58 47.55 48.47 49.03 49.99 50.85 51.29 51.78 52.93 53.82
52.84 62.02 63.00 62.93 62.70 61.57 61.38 61.53 60.45 60.23 59.80 57.27 58.64 59.74 59.85 60.20 60.25 60.35 59.89 59.27 58.60 58.53 56.96 54.87 56.98 57.51 57.73 58.83 58.82 57.96 58.41 58.45 53.76 47.34 46.98 46.90 46.87 46.72 47.17 47.51 47.91 48.65 49.10
46.57 54.46 61.13 61.65 61.17 60.80 60.03 59.92 59.39 59.57 58.31 58.11 58.28 58.76 59.28 59.38 58.18 59.44 59.20 58.90 58.84 58.04 57.86 56.47 55.63 57.73 57.14 58.40 57.55 56.98 49.09 45.93 45.54 45.17 43.91 44.47 45.22 45.51 45.75 45.64 45.98 46.16 46.32
41.66 43.24 53.02 59.19 60.84 60.78 60.47 60.01 58.19 57.16 56.21 57.36 59.46 59.91 59.71 58.45 57.47 59.20 58.32 58.47 58.32 58.14 57.77 56.95 55.17 55.59 56.09 57.03 56.85 48.09 44.21 45.32 42.90 43.18 42.38 42.05 42.84 43.23 43.25 43.05 43.00 43.24 42.92
38.62 38.61 40.58 42.60 45.38 47.75 47.71 54.54 59.24 57.66 55.75 55.55 55.82 52.10 47.75 44.67 41.35 42.96 53.38 57.49 57.86 57.33 56.67 56.00 54.86 54.18 54.22 54.33 48.36 48.95 43.34 40.21 40.31 40.90 39.83 40.09 40.39 40.41 40.78 41.47 41.97 41.35 40.75
34.76 35.72 35.16 36.41 38.61 39.54 36.91 41.59 54.13 57.97 56.55 54.36 47.99 46.74 43.64 42.92 40.29 37.68 38.21 38.73 41.68 53.67 55.63 55.31 54.79 53.49 53.53 54.19 49.54 46.11 40.60 38.69 35.74 40.33 36.15 33.82 36.59 35.05 36.50 38.41 39.08 39.00 38.71
31.61 31.93 33.04 33.24 32.86 33.77 36.00 38.42 41.85 44.06 41.77 40.55 41.69 42.89 41.80 40.53 40.45 40.94 37.34 36.26 35.12 34.90 36.46 52.00 54.23 53.82 53.21 53.30 49.00 44.34 43.53 41.82 36.91 36.20 35.02 30.39 33.14 32.21 35.12 36.32 37.20 37.01 36.41
28.08 28.23 29.43 31.27 31.75 32.47 34.09 34.80 35.44 36.75 35.09 34.43 34.58 35.55 36.51 35.99 36.08 38.59 35.73 33.19 31.89 32.01 33.16 35.63 38.78 36.06 36.78 52.11 48.70 46.94 44.19 35.11 34.68 33.28 34.06 28.25 31.26 30.27 32.71 34.41 35.81 35.32 34.79
28.33 27.48 27.74 28.01 28.99 30.55 33.25 33.25 33.16 32.37 31.28 30.94 31.72 32.73 32.73 32.87 34.74 37.37 34.27 31.85 30.78 30.60 32.83 33.86 33.83 34.34 34.81 38.93 42.12 39.78 36.35 35.77 32.03 31.85 31.87 29.33 29.38 29.30 30.46 30.82 32.59 33.68 33.17
30.97 30.11 28.14 28.09 29.14 28.19 31.53 32.27 31.47 30.42 28.85 29.06 29.26 30.13 31.76 31.82 32.54 32.83 31.74 30.63 27.09 26.19 27.90 28.85 29.36 29.95 31.69 33.05 33.71 37.31 39.96 39.24 31.61 29.93 30.99 28.55 28.00 27.91 24.65 29.06 30.22 30.33 30.26

GFSMA_sfc_wetblb_111.txt.gz
Wetbulb
68.80 68.51 69.21 69.63 69.48 69.57 69.00 68.35 68.10 68.28 67.99 68.00 67.90 67.11 67.30 66.85 66.69 65.95 64.93 65.06 65.41 68.42 70.49 70.68 70.42 70.44 69.47 68.26 67.76 68.17 68.83 68.56 68.54 68.07 67.34 66.62 66.31 65.80 65.29 64.74 64.38 63.85 63.57
68.97 68.84 67.95 68.23 69.21 69.62 69.24 68.66 67.81 67.75 67.67 67.68 66.89 66.53 66.49 66.47 66.20 65.13 64.55 63.76 63.75 64.98 67.02 69.37 70.57 70.18 69.48 68.41 67.78 67.57 68.61 68.05 68.11 67.96 67.05 66.34 65.69 65.29 64.60 64.10 63.68 63.04 62.79
68.74 68.68 67.75 67.18 68.73 69.35 68.62 68.43 66.90 67.36 67.00 66.84 66.02 65.85 65.82 65.82 65.82 65.16 63.95 63.41 62.75 62.17 63.55 66.80 69.01 69.27 69.21 68.87 67.77 66.63 68.12 67.56 67.63 67.51 66.87 66.23 65.62 64.87 64.34 63.61 62.98 62.54 62.19
68.79 68.13 67.39 66.16 66.17 68.52 67.25 67.53 67.06 66.05 65.93 65.54 64.40 64.71 64.97 65.22 65.44 64.89 64.20 63.48 62.84 62.84 61.72 63.28 66.11 67.48 67.83 68.50 68.43 68.06 67.52 67.18 67.25 67.11 66.60 66.00 65.54 64.87 64.16 63.61 62.78 62.12 61.85
68.75 68.46 67.30 67.10 66.29 65.93 66.72 66.73 65.67 66.24 65.22 64.88 64.41 64.37 64.35 64.46 64.56 65.22 63.82 63.58 63.15 63.64 63.54 61.86 62.49 63.81 65.44 66.51 67.74 67.76 65.91 67.50 67.40 67.22 66.31 65.80 65.38 64.54 63.99 63.31 62.65 62.08 61.55
68.72 67.60 67.51 67.43 66.52 65.96 64.74 65.52 66.15 65.58 65.79 65.14 64.91 63.50 63.32 64.65 64.68 62.91 63.31 63.85 64.05 63.32 63.27 63.09 61.57 62.55 62.85 65.44 66.76 66.72 65.34 67.89 67.58 67.02 66.22 65.64 64.87 64.12 63.50 62.96 62.36 61.83 60.17
67.53 67.84 67.33 67.05 67.78 66.75 66.15 65.71 65.51 65.00 62.04 64.22 61.49 60.66 59.89 63.11 63.25 62.80 64.06 63.42 63.07 62.65 61.75 62.21 62.18 61.45 62.58 62.74 64.05 65.62 65.99 68.25 67.68 66.81 65.99 65.15 64.14 63.33 62.98 62.52 61.88 60.88 61.19
60.61 67.03 67.34 66.94 67.25 66.49 65.42 64.87 65.02 62.94 62.40 63.76 59.89 59.07 57.13 57.79 59.99 62.91 63.02 62.33 61.91 61.47 60.46 60.95 62.97 63.27 63.33 62.33 62.09 63.25 64.49 63.93 67.75 67.15 65.86 64.60 63.59 63.11 62.85 62.01 61.38 60.99 61.16
57.88 60.60 66.36 66.81 66.82 66.09 65.34 64.53 63.42 62.94 60.78 61.51 60.94 57.33 53.63 52.17 53.69 56.85 60.58 62.18 61.65 60.35 58.96 59.33 61.03 62.63 63.61 62.58 61.81 60.97 60.15 60.26 65.44 66.45 65.55 64.29 63.72 63.31 62.69 61.79 61.39 61.06 60.82
54.86 57.76 61.10 65.44 66.37 65.73 64.14 62.69 59.27 59.45 57.19 59.86 61.12 61.61 57.43 55.93 52.05 53.33 55.96 59.16 61.19 60.41 60.15 59.68 60.59 60.82 62.91 63.44 62.07 60.21 57.69 57.47 61.54 64.63 65.07 64.43 63.97 63.48 62.84 61.93 61.30 60.84 60.57
52.96 55.40 58.67 62.52 64.25 64.90 63.99 59.94 58.09 60.01 61.73 61.32 58.37 60.67 60.36 57.91 56.11 53.19 52.60 55.54 59.64 60.59 59.87 59.78 59.91 60.79 60.51 61.78 62.85 60.67 55.98 55.80 57.23 61.19 63.59 63.99 63.88 63.46 62.47 61.93 61.23 60.65 60.59
50.23 52.92 56.93 60.90 63.50 63.82 63.58 62.45 61.13 61.34 61.42 61.46 61.53 61.10 59.49 58.29 57.77 56.03 52.46 51.39 55.49 58.27 59.85 60.39 59.25 60.32 60.96 61.86 61.51 58.68 55.25 53.99 54.99 58.27 60.88 62.27 62.82 62.74 62.15 61.49 61.22 60.88 60.69
49.16 51.15 55.12 58.51 61.40 62.79 63.06 62.69 62.77 62.48 62.08 61.18 61.00 60.34 60.61 60.10 58.59 58.72 55.03 53.17 53.31 56.81 58.38 59.71 59.27 59.19 60.35 61.38 61.35 57.39 55.20 53.08 53.55 55.88 58.28 59.73 60.37 60.77 60.80 60.50 60.43 60.82 60.52
49.84 51.80 53.56 57.40 58.63 61.45 62.79 63.01 62.58 61.13 59.54 61.34 60.53 60.85 60.90 60.27 60.04 58.67 58.07 53.99 52.80 53.95 56.22 56.77 60.07 59.09 60.16 60.58 59.90 54.33 58.31 51.63 52.04 53.35 55.28 56.82 57.61 57.99 58.22 58.28 58.65 59.15 59.45
50.52 53.74 53.13 55.55 55.11 57.48 58.84 62.00 61.74 60.00 58.51 56.34 56.73 60.89 60.45 60.71 60.45 60.06 58.40 56.44 54.64 52.08 53.06 55.44 56.91 60.26 59.85 60.08 58.98 59.71 60.43 52.30 51.41 50.79 51.57 53.64 55.17 55.99 55.86 56.20 56.57 57.10 57.79
47.86 50.39 55.79 56.56 58.29 56.02 58.64 61.54 61.21 60.28 59.65 59.23 58.41 58.78 58.94 60.56 60.66 60.43 58.98 57.37 56.16 53.43 51.88 55.55 56.39 58.17 60.78 60.56 58.42 60.25 60.37 53.78 50.12 49.64 49.76 51.04 52.16 53.72 53.91 54.11 54.60 54.97 55.89
45.49 48.48 51.13 59.62 60.60 60.89 60.89 60.62 60.58 59.73 59.14 58.42 59.36 59.05 57.78 60.24 59.90 59.86 59.52 58.82 56.37 55.93 54.62 52.75 54.76 55.76 59.45 59.94 59.72 59.47 59.31 59.22 56.05 49.74 49.25 49.34 49.45 50.42 51.10 51.30 51.61 52.56 53.34
42.79 44.95 49.57 56.19 60.63 60.22 60.40 60.70 59.94 59.86 59.38 59.43 59.58 59.12 58.61 59.69 59.05 59.15 59.28 58.47 58.01 57.34 56.60 53.52 55.18 56.26 57.00 58.96 59.71 58.15 58.13 57.80 56.90 49.62 48.82 48.47 48.72 48.38 48.45 48.67 48.77 49.29 49.83
39.41 41.01 44.23 46.15 51.95 59.92 60.77 61.55 61.00 61.16 60.83 60.47 59.96 58.99 58.12 58.17 58.61 59.13 58.57 58.28 58.03 58.22 57.98 55.77 54.66 57.13 57.26 58.22 58.01 57.47 52.91 48.82 47.75 47.60 45.73 46.23 46.65 46.87 46.78 46.54 47.62 47.94 48.20
35.96 37.65 39.38 41.23 42.98 44.29 46.51 50.27 60.00 59.50 57.45 57.18 57.56 56.30 55.70 57.47 58.10 58.85 58.71 58.46 58.17 57.65 57.53 56.67 55.79 55.84 57.01 57.47 57.61 50.08 45.69 46.14 43.77 44.27 43.83 44.82 44.96 45.22 45.36 45.42 45.43 47.01 46.59
33.00 34.64 36.04 36.70 37.31 38.17 37.24 39.60 46.40 57.23 55.49 55.00 53.21 50.89 49.56 48.24 47.24 50.77 57.39 57.45 57.45 57.07 56.77 56.06 55.26 55.04 55.12 54.55 53.78 51.69 46.19 40.52 40.04 41.41 41.01 41.09 42.33 42.18 42.59 43.32 44.40 44.38 44.17
30.38 31.06 31.92 33.37 33.80 35.57 35.74 35.71 40.39 56.79 54.70 52.13 47.08 45.02 44.26 41.37 39.83 40.45 40.21 38.19 42.75 56.13 55.96 55.64 55.36 53.78 54.21 54.49 51.29 48.89 40.98 39.63 37.57 40.22 36.19 33.74 37.30 36.39 37.86 39.47 40.88 41.70 42.83
29.23 28.89 29.01 30.39 30.89 32.75 35.09 34.59 34.93 40.35 43.45 42.83 41.97 42.08 40.76 41.07 41.85 38.93 37.10 35.64 34.55 34.90 35.57 43.44 53.00 54.55 53.62 54.42 51.50 47.48 44.23 44.80 38.42 37.27 36.58 31.37 33.21 32.93 36.41 37.86 38.88 39.37 39.88
29.20 28.42 28.38 28.49 29.37 31.04 33.80 33.88 32.45 32.09 32.04 32.61 33.12 34.47 35.23 35.91 37.82 39.39 36.13 33.94 31.71 32.26 32.79 34.00 34.56 33.86 36.57 51.06 51.90 49.68 46.35 37.11 35.17 33.80 34.40 29.10 31.61 31.16 33.27 35.10 37.06 37.08 36.80
28.96 28.46 29.06 29.01 28.48 29.32 31.98 32.50 32.43 30.18 29.62 29.23 30.47 32.33 32.29 32.70 35.65 37.67 34.43 31.84 30.43 29.73 32.50 33.13 33.31 33.25 34.28 39.27 44.68 41.12 36.54 35.98 32.02 32.60 31.87 30.51 29.90 29.46 30.94 31.18 33.23 34.98 34.55
28.77 28.49 27.55 27.62 29.77 29.54 32.18 30.99 29.66 28.92 27.27 27.50 28.98 29.70 31.83 31.61 32.47 32.70 31.40 30.74 27.07 26.22 27.99 28.84 28.93 29.59 29.73 31.19 33.91 35.81 39.47 39.42 31.90 31.39 31.92 29.57 28.78 28.45 25.22 29.41 30.94 31.32 31.60

GFSMA_sfc_wetblb_114.txt.gz
Wetbulb
68.76 69.64 69.68 69.28 68.91 68.78 68.87 68.42 68.06 67.68 67.29 67.20 67.47 66.78 66.39 66.17 66.04 65.78 64.85 64.56 65.29 68.24 70.25 71.08 71.43 70.81 70.49 69.45 68.45 67.54 67.97 68.07 67.95 68.63 67.72 67.05 66.56 66.09 65.60 65.18 64.58 64.38 64.25
68.28 68.37 68.99 68.93 68.87 68.97 68.60 68.26 67.63 67.52 67.14 67.16 66.60 66.30 66.76 66.49 66.13 65.27 64.58 64.23 63.62 65.17 67.95 69.74 70.69 70.69 70.86 69.61 68.03 67.62 67.38 67.99 68.10 68.36 67.43 66.49 65.93 65.51 65.18 64.54 64.07 63.81 63.85
68.51 68.46 68.05 68.14 69.06 69.24 68.62 68.31 67.50 67.09 66.73 66.64 66.20 65.99 65.97 65.97 65.57 64.80 64.06 63.44 63.37 62.55 64.09 66.97 68.81 69.67 70.18 69.77 68.29 67.55 67.02 67.11 67.69 67.94 67.32 66.33 65.82 65.09 64.47 64.18 63.76 63.46 63.44
69.25 67.83 67.86 67.68 67.48 68.60 68.46 67.97 67.23 66.08 66.26 65.90 65.51 64.86 64.71 64.91 65.01 64.47 63.68 62.98 62.53 62.74 61.86 63.09 65.49 67.65 68.81 69.28 68.70 67.84 67.79 66.45 66.46 67.56 66.91 66.31 65.71 64.91 64.29 63.63 63.19 62.84 62.38
67.30 68.04 67.59 67.39 66.42 66.71 67.21 67.56 67.07 65.98 65.11 64.95 65.07 63.86 64.21 64.49 64.40 64.58 63.54 62.87 62.16 61.79 61.26 61.20 62.77 64.12 66.00 67.74 68.46 68.20 67.35 65.04 66.76 67.78 67.00 66.31 65.69 64.85 64.05 63.54 62.89 62.45 62.03
61.49 65.84 67.00 67.02 66.33 65.26 65.54 66.06 66.36 65.93 65.24 65.09 64.67 63.63 63.51 64.04 64.10 63.85 63.35 63.44 62.59 62.94 62.75 61.83 61.05 61.91 62.19 65.27 66.64 67.97 68.01 67.16 66.59 67.62 66.73 66.31 65.56 64.85 64.05 63.30 62.60 62.32 61.77
57.56 57.58 64.36 66.35 65.82 65.66 65.50 64.78 64.60 63.01 63.26 64.22 61.14 59.23 60.38 62.93 62.94 63.42 63.11 62.68 62.33 62.73 63.73 61.92 61.22 60.90 61.30 62.81 64.85 66.79 68.03 68.11 67.85 67.59 66.88 65.86 65.20 64.31 63.80 63.23 62.67 62.06 61.75
53.73 54.95 56.39 60.89 65.89 65.70 64.78 63.55 64.41 63.24 64.16 64.00 62.46 61.35 57.83 58.93 60.67 62.29 63.13 62.72 62.31 63.15 62.21 62.01 62.33 61.06 60.84 63.59 63.98 64.91 66.67 67.61 67.73 67.77 66.71 65.14 64.56 64.38 63.67 63.17 62.76 62.19 61.46
50.49 51.83 53.60 55.69 57.23 64.20 65.53 65.06 63.27 62.93 61.62 61.43 61.08 59.09 54.65 54.98 56.46 58.32 60.78 61.54 61.21 61.69 61.75 59.77 60.78 62.66 62.71 62.60 62.30 62.34 60.71 61.74 64.40 66.67 66.33 65.00 64.58 64.03 63.63 63.15 62.69 61.86 61.47
48.82 50.35 52.53 53.99 56.01 58.77 62.80 64.97 63.40 62.07 58.97 56.18 56.48 57.66 58.30 56.80 53.11 52.88 57.58 61.18 60.84 60.35 60.43 59.85 58.73 60.91 61.44 62.34 61.50 59.74 57.46 57.06 59.62 63.52 65.49 65.16 64.65 63.81 63.30 63.00 62.21 61.78 61.34
47.89 49.27 50.16 51.59 53.50 55.22 59.02 64.00 61.47 57.80 57.64 55.60 54.85 56.36 56.83 58.69 56.84 53.64 51.39 56.86 60.01 60.78 60.00 60.39 59.28 59.91 60.49 61.37 62.76 60.47 55.88 54.73 56.04 59.93 62.43 64.43 64.29 63.70 63.26 62.80 62.15 61.86 61.30
47.32 49.00 50.22 50.81 52.63 55.58 58.41 62.41 62.33 60.40 57.53 57.12 56.22 57.92 58.52 58.08 56.28 54.71 51.32 54.28 56.17 58.69 60.18 59.45 58.84 59.10 60.23 60.23 61.72 58.53 54.67 53.40 54.65 57.26 59.86 62.68 63.16 63.17 63.04 62.69 62.26 61.91 61.36
45.13 47.25 49.06 50.68 51.81 53.44 56.54 60.87 60.24 58.84 58.81 58.30 57.82 57.68 58.40 57.68 58.54 58.35 54.03 51.86 52.59 56.04 57.72 59.10 59.56 59.85 59.99 59.85 60.66 57.00 55.01 51.97 52.67 56.66 58.45 60.39 60.93 61.51 61.78 61.79 61.86 61.86 61.12
44.72 46.55 47.88 50.32 51.45 53.04 54.54 58.18 61.48 60.56 59.01 59.90 59.92 59.29 58.59 59.59 60.32 59.15 57.91 54.00 52.05 54.13 55.15 55.48 59.59 59.74 59.43 59.63 59.48 53.58 59.45 51.60 51.60 52.15 54.49 56.48 57.79 58.47 58.94 59.35 59.92 59.84 59.85
43.48 44.46 45.25 47.41 49.57 53.86 54.14 56.46 60.10 59.35 60.10 60.37 60.16 60.02 60.34 60.61 60.36 60.11 59.66 57.91 55.16 51.87 53.16 55.26 56.90 59.13 58.98 59.22 58.16 58.67 60.07 52.51 51.79 51.06 51.24 53.42 55.19 56.26 56.26 56.55 57.00 57.62 58.08
41.27 42.11 43.56 45.85 49.00 53.29 54.67 55.15 57.13 59.89 59.63 59.41 59.82 59.81 59.68 59.95 59.82 59.78 59.26 57.83 56.36 53.26 50.47 53.71 56.18 57.56 59.33 59.23 58.07 59.14 60.12 53.00 49.77 49.23 49.43 50.88 52.51 54.03 54.19 54.20 54.50 54.99 55.87
39.21 40.54 41.45 44.03 47.59 50.03 57.00 55.49 55.77 58.63 59.37 59.11 58.11 57.87 59.36 59.98 59.44 59.30 59.08 58.69 57.39 55.53 53.10 52.71 53.78 55.12 58.66 58.71 58.84 59.24 59.24 59.05 56.30 48.30 48.32 49.43 49.97 50.88 51.12 51.41 51.52 52.22 53.15
37.18 38.13 39.82 41.38 43.90 44.88 48.99 58.62 56.63 58.26 58.37 58.53 58.50 56.92 56.86 58.45 58.87 58.93 58.90 58.62 57.64 57.35 55.66 51.93 53.91 54.97 57.14 58.64 59.30 58.52 59.21 59.78 59.40 50.68 48.32 48.32 48.70 48.70 48.85 48.78 48.86 49.12 49.81
34.13 35.21 37.12 38.25 39.00 40.38 41.36 46.20 57.22 58.26 58.24 58.26 58.93 57.73 56.67 56.11 55.33 56.60 57.66 57.58 58.34 57.87 57.96 55.78 54.13 56.22 56.72 57.57 58.21 57.71 57.28 55.74 52.82 50.40 47.02 46.51 47.58 48.67 48.87 48.18 48.36 48.31 48.14
32.07 32.41 34.01 35.14 36.24 37.69 38.06 39.13 44.26 52.36 57.18 59.20 59.46 59.20 58.54 56.82 56.57 57.53 57.21 56.25 56.94 57.31 57.20 56.14 53.88 55.76 56.12 56.76 57.72 52.46 47.71 47.47 45.66 45.19 45.43 45.93 47.31 47.69 48.50 47.18 46.70 46.90 47.15
31.48 31.49 31.59 32.51 33.39 35.60 35.80 35.98 42.75 48.17 50.88 56.32 56.96 55.37 55.82 56.18 51.71 53.51 56.74 57.49 57.77 57.02 56.58 55.98 54.71 55.02 55.46 54.57 55.00 53.24 50.87 42.04 40.78 42.37 41.65 40.92 43.71 45.15 46.55 45.71 47.80 46.73 45.90
30.60 30.75 30.22 30.77 31.10 33.00 34.81 35.33 37.27 37.25 36.49 42.55 48.74 45.82 44.31 43.44 41.37 41.27 40.88 43.08 53.35 56.62 55.58 55.26 55.15 54.22 54.94 55.44 55.70 51.28 42.08 40.96 41.70 40.36 37.62 34.44 37.60 36.84 38.64 42.27 44.12 43.96 44.30
28.26 28.36 29.00 30.21 30.42 31.13 33.27 34.67 34.38 33.15 32.98 32.41 33.20 37.14 40.77 40.74 40.54 38.61 37.27 37.24 35.31 36.01 39.97 52.99 54.91 54.05 53.77 54.89 52.79 48.90 45.70 44.18 42.71 37.75 36.27 31.76 33.39 33.23 36.36 38.98 41.10 41.65 41.84
27.95 27.51 27.65 28.73 29.79 31.39 32.48 32.04 32.80 32.86 31.32 30.19 31.09 31.60 32.75 33.76 36.21 39.08 37.27 34.29 33.11 33.05 33.40 34.79 36.18 33.48 34.02 38.37 48.84 52.38 49.25 38.01 34.47 33.46 34.92 30.61 32.00 31.21 33.10 36.13 39.28 39.97 39.64
26.48 26.44 27.00 27.08 28.06 29.59 33.04 31.90 29.79 29.79 29.68 29.59 29.92 31.17 30.89 31.44 33.46 35.26 34.77 33.04 31.29 29.72 33.32 33.61 33.34 32.86 33.17 35.24 39.72 43.57 38.45 38.65 31.82 32.21 32.39 31.50 30.49 29.51 31.02 31.38 33.26 36.55 36.99
23.83 24.63 24.91 25.78 27.75 28.15 32.68 33.02 30.75 28.52 27.33 28.11 28.77 29.45 31.32 30.65 31.51 31.85 30.42 30.65 28.73 26.56 28.56 29.12 28.51 29.14 30.07 31.00 33.02 34.91 41.60 41.61 32.37 31.82 32.21 30.47 29.85 29.02 25.52 29.19 31.36 31.85 32.81

GFSMA_sfc_wetblb_117.txt.gz
Wetbulb
68.63 68.80 68.77 68.96 68.65 68.30 68.05 67.94 68.50 68.44 67.58 67.03 66.45 65.91 65.57 65.23 65.23 65.39 64.89 64.63 65.16 68.08 70.52 70.96 71.68 70.82 70.40 69.83 68.96 68.79 68.29 67.56 68.03 67.77 67.26 67.16 67.13 66.84 66.44 65.82 65.59 65.26 64.73
68.10 68.39 68.68 68.36 68.64 68.10 68.21 67.96 67.76 67.74 67.69 67.35 66.81 66.36 65.96 65.69 65.42 65.22 65.07 64.75 63.72 65.33 67.87 70.19 71.24 70.94 71.16 70.52 68.83 68.26 67.95 67.34 67.47 67.53 67.29 66.78 66.60 66.10 65.44 65.13 64.75 64.71 64.57
67.60 67.40 67.47 68.26 68.75 68.39 67.90 67.87 67.06 67.03 66.92 67.33 66.57 66.22 66.23 65.89 65.76 65.15 64.88 64.09 64.18 62.81 64.11 66.50 68.38 69.47 69.93 70.18 69.26 68.25 67.66 66.63 66.89 67.33 67.58 67.07 66.26 65.52 65.06 64.50 64.15 64.00 64.09
64.64 67.40 67.22 67.25 68.21 67.85 67.51 67.65 67.02 66.79 66.71 66.42 66.04 65.59 65.80 65.78 65.31 64.99 64.57 63.96 63.62 63.99 62.96 64.17 66.06 67.40 68.35 69.45 69.93 69.03 67.99 67.05 66.62 67.20 67.24 66.84 66.19 65.19 64.77 64.28 63.82 63.62 63.56
60.05 60.68 63.51 67.40 67.36 67.00 67.10 67.15 66.90 66.82 66.00 65.86 65.70 65.72 64.92 64.87 64.93 65.20 64.42 63.61 62.55 63.16 62.79 62.12 62.56 63.22 65.53 67.25 69.17 69.29 68.51 67.45 66.77 66.95 67.00 66.73 66.22 65.01 64.50 64.06 63.80 63.36 63.21
56.11 56.25 58.38 62.18 65.86 65.09 65.54 66.01 65.59 66.12 65.88 65.45 65.02 64.86 63.90 64.29 64.93 64.86 64.20 63.89 62.84 62.17 61.54 60.84 60.61 60.94 62.21 65.50 67.70 68.73 68.40 67.61 67.33 67.19 66.15 66.68 66.31 64.88 64.37 63.86 63.49 63.12 62.53
51.93 51.79 53.49 54.74 57.88 63.83 64.40 63.72 63.88 63.58 64.52 65.05 62.14 60.53 60.31 61.86 62.38 63.59 63.80 63.19 62.55 62.12 61.67 61.72 61.14 60.73 61.36 62.48 65.50 67.69 67.72 67.77 67.49 66.59 65.91 65.88 65.91 64.61 64.15 63.53 63.16 62.66 62.34
48.45 49.66 50.32 51.79 54.23 55.49 58.81 64.42 64.13 62.42 62.14 63.51 61.43 60.15 57.79 58.93 60.51 62.62 62.66 62.33 62.26 62.31 61.99 62.54 62.42 60.86 60.49 60.86 62.78 65.06 66.78 67.26 67.96 66.66 66.34 65.88 65.42 64.73 64.15 63.62 63.01 62.55 62.10
47.05 47.96 48.75 50.38 51.97 52.92 53.77 57.87 63.69 63.69 62.03 60.77 61.95 58.92 53.48 55.28 56.75 59.12 61.53 62.06 61.49 61.89 61.93 61.42 60.97 60.97 60.57 61.26 61.97 62.33 60.96 61.91 65.45 66.88 66.42 65.82 65.15 64.75 64.31 63.71 63.10 62.71 62.31
46.90 48.03 48.64 48.91 49.52 51.39 53.08 55.14 59.34 63.30 63.10 58.49 56.83 57.77 56.13 56.49 54.29 51.16 57.59 59.97 60.79 60.91 61.38 61.20 60.83 61.02 61.41 61.68 61.32 59.78 58.12 57.37 59.96 64.46 66.02 65.95 65.50 64.95 64.33 63.87 63.38 62.79 62.36
46.55 48.07 49.35 49.21 49.34 50.01 51.20 53.18 54.82 59.44 62.93 62.03 55.99 54.72 55.59 54.72 54.95 52.63 50.99 54.73 60.06 61.68 61.49 60.53 59.90 60.08 61.36 61.73 61.87 60.06 56.29 55.34 56.17 60.18 63.27 64.92 65.19 64.77 64.31 63.91 63.38 62.90 62.34
44.31 46.62 47.93 48.66 49.48 50.52 51.75 52.49 54.21 57.64 61.54 60.63 59.05 57.74 55.36 54.15 54.53 53.53 52.07 53.41 54.60 58.69 61.59 61.13 59.12 59.08 59.76 60.23 60.48 57.89 55.28 54.36 54.72 57.55 60.27 62.06 63.50 64.33 64.18 63.80 63.41 63.17 62.40
42.52 44.06 45.13 45.54 47.25 49.41 51.38 52.27 52.99 54.76 59.37 60.19 57.54 57.27 58.04 57.27 56.60 56.58 55.17 54.58 53.90 55.75 58.35 60.10 60.55 59.21 58.99 59.15 59.30 56.89 55.89 52.60 53.23 54.68 57.29 58.73 60.42 62.63 62.72 62.82 62.77 62.66 62.42
40.55 42.40 43.31 44.08 45.27 47.28 48.95 50.78 53.04 53.43 56.66 60.22 58.79 56.96 57.26 58.00 58.82 57.91 56.65 54.95 52.36 53.19 55.26 54.73 59.41 59.80 59.29 59.07 58.32 55.01 59.34 51.37 50.81 52.00 53.37 55.51 57.09 58.80 60.14 60.39 60.74 60.85 61.16
39.20 40.54 40.95 42.33 43.41 45.06 47.55 50.29 53.35 53.82 55.23 59.44 59.79 58.16 57.72 58.17 58.57 58.61 58.82 57.57 55.20 51.76 53.15 55.21 56.21 59.15 59.55 59.36 57.73 59.27 59.61 54.80 50.43 49.90 50.45 52.69 55.20 57.25 57.87 57.81 58.31 58.77 59.17
37.39 38.10 38.94 40.34 41.85 43.59 46.37 47.87 50.51 54.68 54.72 58.84 59.33 58.94 58.77 58.49 58.17 58.36 58.86 58.87 57.88 55.19 52.50 56.26 56.29 57.73 58.46 58.68 57.42 59.36 58.71 54.74 49.54 48.83 48.65 50.28 52.24 55.20 55.30 55.81 55.83 56.19 56.63
35.42 35.75 36.77 38.41 39.34 39.88 42.18 42.72 44.38 54.48 54.00 55.79 58.79 58.18 57.96 58.52 58.87 59.23 58.90 58.66 57.69 56.97 54.29 53.24 54.91 55.47 57.87 58.07 58.18 58.25 58.49 58.27 55.28 48.80 47.91 48.65 49.56 50.65 51.72 52.38 52.37 53.01 53.71
34.03 34.13 35.21 36.00 36.64 37.51 38.87 39.59 40.40 43.94 54.72 55.51 57.69 57.42 56.97 57.50 57.47 58.29 58.61 57.55 57.49 57.84 56.37 54.40 53.80 54.72 57.09 57.87 57.49 57.61 57.92 58.96 58.65 49.70 48.09 47.91 48.29 48.47 49.01 49.38 49.61 49.80 50.24
32.71 33.15 33.59 33.76 34.31 35.97 36.33 37.17 38.24 40.75 45.57 56.19 57.10 57.63 57.45 57.42 57.45 58.50 58.72 58.13 57.78 57.22 56.98 55.93 53.54 55.63 56.47 57.66 57.73 57.63 57.41 57.91 57.09 52.07 46.79 46.28 47.18 48.11 47.91 47.93 49.32 49.27 49.30
31.05 31.28 32.45 33.16 33.44 34.33 34.21 35.45 36.44 41.55 46.59 51.94 56.79 58.07 58.09 57.42 56.70 57.30 57.85 57.64 57.21 56.65 56.63 56.45 54.81 54.62 55.51 56.19 57.16 54.43 50.03 49.45 48.74 47.80 46.97 46.79 46.93 46.60 47.35 47.71 48.02 48.74 48.61
30.20 30.32 30.49 31.58 32.61 32.70 32.83 33.35 35.22 36.95 38.80 39.91 40.17 45.20 51.69 50.33 51.67 54.03 57.34 56.41 55.51 54.73 55.19 55.51 55.33 55.01 54.85 54.58 54.07 54.60 53.30 44.76 42.91 44.54 44.38 41.81 44.72 46.75 48.25 46.04 48.99 48.22 47.53
27.97 28.34 28.38 29.49 30.51 32.28 33.40 33.29 33.69 33.48 33.92 34.45 35.08 35.75 38.15 39.01 42.79 43.51 45.21 45.75 51.67 53.91 53.01 53.37 53.72 54.19 54.90 55.19 55.51 52.55 44.41 43.83 44.97 41.48 41.45 37.71 38.52 38.40 38.55 42.39 46.46 45.93 45.86
26.76 25.82 26.06 27.10 28.54 31.36 33.45 33.13 32.17 31.49 31.33 31.75 31.88 33.77 33.83 34.61 35.13 39.36 37.43 37.07 36.95 37.99 42.74 55.56 54.80 54.70 54.74 55.41 54.44 49.92 46.71 45.76 46.32 40.26 39.11 33.97 33.89 33.41 35.34 38.50 40.84 42.98 44.61
23.61 23.95 24.51 25.68 26.76 29.64 33.12 32.79 31.37 30.02 29.67 29.78 30.54 31.12 31.84 32.11 32.72 36.08 35.96 33.57 32.19 32.55 33.26 36.61 48.34 37.03 37.76 41.30 51.73 52.38 50.82 41.20 34.66 33.59 36.16 33.42 32.14 30.81 32.52 33.76 38.95 41.18 42.58
22.21 22.91 24.19 24.99 25.63 27.13 32.35 32.58 30.56 29.05 28.40 28.25 29.41 30.19 30.57 30.92 32.75 34.01 32.71 33.12 32.26 30.08 32.40 34.12 34.05 34.11 34.28 35.11 39.52 44.96 38.83 39.69 32.50 32.52 32.52 32.29 30.47 29.37 30.06 30.95 32.65 37.83 39.19
21.41 23.24 23.86 25.10 26.58 25.29 29.92 31.61 30.40 28.55 27.00 27.20 28.05 28.59 30.72 30.71 31.46 31.43 28.85 27.97 28.55 27.36 27.93 28.69 30.90 30.08 30.85 32.26 33.72 34.13 41.12 42.93 32.70 31.96 32.70 31.27 30.03 30.26 27.15 29.32 30.59 31.84 32.82

GFSMA_sfc_wetblb_120.txt.gz
Wetbulb
68.05 68.18 68.65 68.63 68.45 68.65 68.29 68.15 68.47 68.59 68.54 68.00 67.46 66.31 65.65 65.66 65.89 65.93 65.38 64.70 65.16 67.23 69.89 71.35 71.57 70.81 71.63 70.46 69.40 68.73 68.55 68.55 68.48 68.00 67.27 66.99 66.68 66.83 66.97 66.05 65.88 65.61 65.23
67.64 67.82 68.14 68.36 68.18 68.11 68.24 68.07 67.80 67.86 67.36 67.90 67.22 66.84 66.16 65.93 65.73 65.50 65.36 65.44 63.79 64.87 67.70 70.60 71.67 71.82 71.81 70.82 69.58 68.98 68.52 68.10 67.62 67.50 67.17 66.75 66.53 66.28 65.99 65.54 65.45 65.25 65.08
62.70 65.22 67.42 67.91 68.28 68.34 66.85 68.09 67.26 67.53 67.30 66.96 66.54 67.10 66.81 66.06 65.52 65.39 65.30 65.26 65.07 62.80 63.97 67.19 68.97 70.35 70.78 70.77 70.02 68.87 68.48 67.45 67.15 67.03 66.95 66.86 66.45 65.99 65.60 65.19 65.12 64.85 64.81
60.54 61.53 60.75 63.24 67.44 68.61 67.64 67.28 67.08 66.67 66.69 66.34 65.99 66.28 66.37 66.68 65.84 65.71 65.60 65.19 64.50 64.76 63.43 63.40 65.37 67.36 68.66 69.76 70.15 69.75 69.05 68.04 67.24 67.12 66.73 66.79 66.63 66.21 65.29 64.89 64.65 64.52 64.57
56.27 56.09 58.94 60.84 62.72 64.99 66.67 66.47 66.72 66.13 65.66 66.04 65.83 65.91 65.56 65.35 65.42 65.46 65.44 64.94 63.77 63.96 63.74 62.84 62.50 63.36 65.74 67.81 69.58 70.16 69.79 68.72 67.85 67.31 66.77 66.66 66.59 65.92 65.00 64.56 64.39 64.01 64.12
51.51 51.63 53.40 54.81 56.06 60.20 64.51 65.24 64.37 65.20 64.80 65.10 65.29 64.43 65.25 65.34 65.39 64.75 64.49 64.15 63.47 62.89 62.84 62.64 62.96 63.12 61.51 64.61 66.78 69.07 69.94 69.23 68.77 68.05 67.29 67.10 66.90 65.98 64.96 64.43 64.03 63.86 63.86
48.45 48.33 49.81 50.88 53.24 54.37 55.39 59.59 64.07 61.79 61.36 64.07 61.87 60.72 62.29 63.62 63.55 63.82 63.64 63.23 62.49 62.04 62.07 62.08 61.86 61.76 61.99 61.58 64.52 67.74 69.31 69.40 69.05 68.32 67.16 66.41 65.64 65.65 64.93 64.29 63.86 63.68 63.57
46.89 47.34 47.29 48.35 50.11 51.46 52.26 53.37 58.79 63.00 62.57 63.64 61.00 58.62 54.88 57.15 60.70 62.80 63.55 63.09 62.31 62.82 62.54 62.51 62.44 61.95 62.07 62.45 63.02 64.82 67.36 68.36 68.30 67.92 66.70 65.77 65.43 65.41 64.89 64.16 63.99 63.62 63.27
46.68 47.03 47.36 48.24 48.63 49.63 50.11 52.25 54.42 56.20 61.54 62.05 63.19 59.27 55.26 55.40 57.19 59.89 60.81 63.10 63.32 62.58 62.57 62.38 62.56 62.72 62.45 62.22 61.68 62.31 61.21 62.34 65.79 67.23 66.58 65.78 65.25 64.94 64.98 64.45 63.90 63.42 63.03
44.51 46.20 48.84 49.67 50.00 50.38 50.27 50.71 53.08 53.90 57.25 59.92 59.78 62.36 58.59 57.26 55.82 53.77 57.87 61.67 62.45 60.93 61.72 62.35 62.54 62.39 62.30 62.22 61.31 59.66 57.69 57.57 60.03 64.77 66.15 65.95 65.48 65.08 65.04 64.34 63.79 63.29 62.88
44.02 45.40 47.27 47.59 48.00 49.25 50.47 51.11 51.72 52.06 53.74 56.03 59.40 56.97 56.87 55.94 54.74 54.56 52.67 54.67 59.88 60.67 61.12 61.93 62.64 62.69 62.33 62.32 62.22 60.85 56.42 55.17 56.52 60.19 63.79 65.01 65.39 65.50 65.45 64.54 63.97 63.53 62.83
42.40 44.02 44.32 44.90 45.60 47.05 48.22 50.01 52.37 52.71 53.04 53.95 57.01 59.01 57.29 56.28 54.34 53.60 51.71 53.04 55.31 58.39 60.13 60.72 62.17 62.07 62.32 62.30 61.72 58.34 55.60 54.14 54.68 57.07 59.84 62.39 64.01 64.72 65.10 64.61 64.35 63.89 63.25
39.56 40.48 41.83 42.48 43.11 44.56 45.92 47.55 48.77 50.31 52.20 53.07 53.93 57.75 59.74 58.80 57.13 56.80 55.91 52.72 51.66 54.34 57.62 61.06 61.98 62.04 61.05 61.62 61.65 57.29 55.68 52.95 53.30 54.70 56.68 58.45 60.30 61.84 63.16 63.75 63.95 63.84 63.42
37.41 39.18 39.81 40.93 42.39 43.29 44.62 46.29 47.68 49.78 52.04 53.14 53.73 55.01 59.51 59.63 59.03 57.52 56.00 54.82 51.53 52.26 54.88 56.30 61.29 61.31 61.01 60.59 59.77 54.47 59.69 52.09 51.89 52.32 53.76 55.03 56.64 57.97 58.90 60.53 62.04 62.38 62.48
36.54 37.17 38.07 38.59 40.46 41.74 42.59 44.33 45.98 47.57 49.81 53.08 54.03 54.95 58.66 59.28 59.26 58.86 58.17 57.18 55.20 52.04 51.94 55.46 56.08 60.08 60.91 60.78 58.68 59.06 59.94 54.08 50.98 50.71 50.73 51.81 54.05 55.84 56.62 57.77 59.31 60.25 60.48
35.27 35.59 36.06 37.11 38.18 39.16 39.98 40.87 41.84 43.49 45.52 48.48 54.63 55.09 57.41 58.62 58.69 58.68 58.85 58.71 57.77 55.73 52.63 55.54 56.28 58.06 59.80 59.73 58.05 59.07 59.01 54.04 50.26 49.37 49.01 49.53 50.58 52.62 54.64 55.68 56.78 58.24 58.38
34.31 34.40 35.15 35.75 36.02 36.41 37.79 37.90 38.65 40.48 41.35 44.02 53.15 54.91 57.28 58.61 58.25 58.31 58.40 58.57 57.74 56.86 54.52 55.30 56.63 57.66 58.29 58.34 58.34 58.33 58.90 58.89 57.10 48.99 48.08 48.27 48.27 48.61 50.55 52.60 52.98 54.67 55.88
33.33 33.25 34.23 34.66 34.66 35.04 35.46 35.50 36.26 37.57 39.57 41.89 45.62 53.44 55.41 57.77 57.69 57.84 57.89 57.32 57.54 58.26 56.76 54.62 54.38 55.10 57.21 57.56 58.23 57.32 57.99 58.75 58.33 49.82 47.90 47.34 47.72 47.74 47.92 48.83 50.64 51.35 52.23
31.58 32.20 33.06 33.38 33.92 34.28 34.03 34.43 36.10 37.34 38.45 41.24 43.64 47.75 55.51 56.90 56.82 56.79 57.07 57.03 57.41 57.30 57.01 55.64 54.56 55.58 56.26 57.59 57.47 57.60 57.63 57.60 57.47 52.06 46.98 46.62 47.18 47.54 47.92 48.10 49.01 49.37 49.55
29.35 29.69 31.02 32.30 33.77 33.64 33.55 33.22 34.66 34.82 35.25 36.47 38.64 39.68 41.43 39.84 42.33 52.30 56.84 57.43 57.45 57.06 56.64 56.10 55.69 54.51 54.84 56.36 57.34 55.52 53.71 53.91 52.84 50.55 48.79 48.01 47.27 46.98 47.16 47.36 47.36 48.10 48.81
27.92 28.28 28.95 30.23 31.99 32.35 33.01 32.12 32.27 32.44 32.26 32.78 33.78 35.11 37.45 37.76 37.69 37.95 45.89 56.77 57.46 57.12 56.56 55.73 54.93 54.26 54.11 54.25 54.12 55.78 53.96 48.90 46.20 46.89 46.91 45.49 47.63 48.81 48.43 46.06 48.21 47.72 48.10
25.78 26.75 27.37 28.07 29.22 31.24 33.31 32.89 31.74 30.69 30.54 30.23 30.17 31.33 33.54 34.72 34.89 36.93 37.89 40.19 43.16 56.36 55.69 55.19 55.09 54.15 54.34 54.94 55.49 55.22 48.19 45.64 46.93 43.48 45.24 40.26 41.08 42.78 40.93 43.45 42.99 45.38 45.00
23.72 25.28 26.02 26.54 27.05 29.45 32.07 32.00 31.49 30.16 29.29 28.60 28.89 29.46 30.49 31.75 32.51 34.48 36.51 35.02 34.45 34.17 34.70 44.52 53.90 54.94 54.92 55.78 55.69 54.38 50.16 52.50 51.26 42.96 43.73 38.31 35.38 35.41 35.50 38.47 40.14 41.06 42.81
21.23 23.36 24.49 24.83 25.21 27.64 30.89 30.46 29.64 28.48 28.25 28.20 27.97 29.11 28.77 29.72 30.94 31.97 34.38 33.87 32.36 32.42 32.32 33.07 33.19 33.92 37.94 54.82 56.47 55.49 53.45 45.84 36.12 35.59 39.32 37.77 32.51 32.69 33.24 34.13 37.75 39.65 41.06
20.43 21.41 24.54 23.81 23.67 24.18 28.97 29.33 26.64 26.19 25.75 26.16 27.36 27.94 28.96 28.55 31.60 31.81 29.66 30.70 30.91 30.19 32.70 34.30 33.57 33.67 33.60 34.55 40.18 49.46 43.17 43.71 33.24 33.60 32.88 33.96 31.58 31.43 31.58 31.77 32.85 36.11 38.22
19.62 21.19 21.09 23.34 25.26 23.36 27.72 27.97 26.47 24.47 23.01 24.21 25.16 25.78 28.60 29.13 30.68 30.74 27.22 26.67 25.68 25.72 28.05 31.47 32.10 31.79 31.90 31.92 33.27 33.75 45.90 46.78 33.96 32.69 33.06 33.96 30.45 31.95 32.33 30.71 30.95 32.69 33.42